<?xml version="1.0" encoding="UTF-8" standalone="no" ?>
<gpx xmlns="http://www.topografix.com/GPX/1/1" xmlns:xsi="http://www.w3.org/2001/XMLSchema-instance" xsi:schemaLocation="http://www.topografix.com/GPX/1/1 http://www.topografix.com/GPX/1/1/gpx.xsd" version="1.1" creator="VisuGPX - https://www.visugpx.com">
  <metadata>
    <name>Marathon du Medoc 2015</name>
    <desc><![CDATA[Parcours Marathon du Medoc 2015]]></desc>
  </metadata>
  <trk>
    <name><![CDATA[Pauillac Course à pied]]></name>
    <trkseg>
      <trkpt lat="45.20485" lon="-0.75338">
        <ele>3.2000000476837</ele>
        <time>2015-09-12T07:43:34.000Z</time>
      </trkpt>
      <trkpt lat="45.20494" lon="-0.75344">
        <ele>3.4000000953674</ele>
        <time>2015-09-12T07:43:41.000Z</time>
      </trkpt>
      <trkpt lat="45.20505" lon="-0.75354">
        <ele>3.5999999046326</ele>
        <time>2015-09-12T07:43:47.000Z</time>
      </trkpt>
      <trkpt lat="45.20516" lon="-0.75362">
        <ele>4</ele>
        <time>2015-09-12T07:43:53.000Z</time>
      </trkpt>
      <trkpt lat="45.20529" lon="-0.75372">
        <ele>4.4000000953674</ele>
        <time>2015-09-12T07:44:00.000Z</time>
      </trkpt>
      <trkpt lat="45.20539" lon="-0.75379">
        <ele>4.8000001907349</ele>
        <time>2015-09-12T07:44:05.000Z</time>
      </trkpt>
      <trkpt lat="45.20549" lon="-0.75387">
        <ele>5.1999998092651</ele>
        <time>2015-09-12T07:44:11.000Z</time>
      </trkpt>
      <trkpt lat="45.2056" lon="-0.75398">
        <ele>6</ele>
        <time>2015-09-12T07:44:17.000Z</time>
      </trkpt>
      <trkpt lat="45.20568" lon="-0.75409">
        <ele>6.5999999046326</ele>
        <time>2015-09-12T07:44:22.000Z</time>
      </trkpt>
      <trkpt lat="45.20576" lon="-0.7543">
        <ele>7.5999999046326</ele>
        <time>2015-09-12T07:44:30.000Z</time>
      </trkpt>
      <trkpt lat="45.2058" lon="-0.75449">
        <ele>8.1999998092651</ele>
        <time>2015-09-12T07:44:36.000Z</time>
      </trkpt>
      <trkpt lat="45.20582" lon="-0.75464">
        <ele>8.6000003814697</ele>
        <time>2015-09-12T07:44:42.000Z</time>
      </trkpt>
      <trkpt lat="45.20583" lon="-0.75477">
        <ele>8.8000001907349</ele>
        <time>2015-09-12T07:44:47.000Z</time>
      </trkpt>
      <trkpt lat="45.20586" lon="-0.75496">
        <ele>9</ele>
        <time>2015-09-12T07:44:54.000Z</time>
      </trkpt>
      <trkpt lat="45.20589" lon="-0.75509">
        <ele>9.1999998092651</ele>
        <time>2015-09-12T07:44:59.000Z</time>
      </trkpt>
      <trkpt lat="45.20596" lon="-0.75526">
        <ele>9.8000001907349</ele>
        <time>2015-09-12T07:45:07.000Z</time>
      </trkpt>
      <trkpt lat="45.20603" lon="-0.75537">
        <ele>10.199999809265</ele>
        <time>2015-09-12T07:45:13.000Z</time>
      </trkpt>
      <trkpt lat="45.2061" lon="-0.75548">
        <ele>10.800000190735</ele>
        <time>2015-09-12T07:45:19.000Z</time>
      </trkpt>
      <trkpt lat="45.20618" lon="-0.75557">
        <ele>11.39999961853</ele>
        <time>2015-09-12T07:45:25.000Z</time>
      </trkpt>
      <trkpt lat="45.20627" lon="-0.75565">
        <ele>11.60000038147</ele>
        <time>2015-09-12T07:45:31.000Z</time>
      </trkpt>
      <trkpt lat="45.20637" lon="-0.75573">
        <ele>11.60000038147</ele>
        <time>2015-09-12T07:45:37.000Z</time>
      </trkpt>
      <trkpt lat="45.20642" lon="-0.75577">
        <ele>11.39999961853</ele>
        <time>2015-09-12T07:45:40.000Z</time>
      </trkpt>
      <trkpt lat="45.20654" lon="-0.75588">
        <ele>11.199999809265</ele>
        <time>2015-09-12T07:45:48.000Z</time>
      </trkpt>
      <trkpt lat="45.20663" lon="-0.75597">
        <ele>11</ele>
        <time>2015-09-12T07:45:54.000Z</time>
      </trkpt>
      <trkpt lat="45.20676" lon="-0.75608">
        <ele>11.39999961853</ele>
        <time>2015-09-12T07:46:02.000Z</time>
      </trkpt>
      <trkpt lat="45.20687" lon="-0.75617">
        <ele>11.800000190735</ele>
        <time>2015-09-12T07:46:08.000Z</time>
      </trkpt>
      <trkpt lat="45.20696" lon="-0.75627">
        <ele>12.39999961853</ele>
        <time>2015-09-12T07:46:14.000Z</time>
      </trkpt>
      <trkpt lat="45.20704" lon="-0.75634">
        <ele>12.60000038147</ele>
        <time>2015-09-12T07:46:19.000Z</time>
      </trkpt>
      <trkpt lat="45.20713" lon="-0.75646">
        <ele>13</ele>
        <time>2015-09-12T07:46:25.000Z</time>
      </trkpt>
      <trkpt lat="45.20718" lon="-0.75663">
        <ele>12.800000190735</ele>
        <time>2015-09-12T07:46:31.000Z</time>
      </trkpt>
      <trkpt lat="45.20717" lon="-0.75681">
        <ele>12.800000190735</ele>
        <time>2015-09-12T07:46:37.000Z</time>
      </trkpt>
      <trkpt lat="45.20719" lon="-0.75703">
        <ele>12.800000190735</ele>
        <time>2015-09-12T07:46:45.000Z</time>
      </trkpt>
      <trkpt lat="45.20721" lon="-0.75724">
        <ele>12.800000190735</ele>
        <time>2015-09-12T07:46:53.000Z</time>
      </trkpt>
      <trkpt lat="45.20724" lon="-0.75752">
        <ele>13</ele>
        <time>2015-09-12T07:47:03.000Z</time>
      </trkpt>
      <trkpt lat="45.20725" lon="-0.75769">
        <ele>13.199999809265</ele>
        <time>2015-09-12T07:47:09.000Z</time>
      </trkpt>
      <trkpt lat="45.20728" lon="-0.75789">
        <ele>13.39999961853</ele>
        <time>2015-09-12T07:47:16.000Z</time>
      </trkpt>
      <trkpt lat="45.20731" lon="-0.75806">
        <ele>13.800000190735</ele>
        <time>2015-09-12T07:47:22.000Z</time>
      </trkpt>
      <trkpt lat="45.20734" lon="-0.75821">
        <ele>13.60000038147</ele>
        <time>2015-09-12T07:47:27.000Z</time>
      </trkpt>
      <trkpt lat="45.20738" lon="-0.75838">
        <ele>13.199999809265</ele>
        <time>2015-09-12T07:47:33.000Z</time>
      </trkpt>
      <trkpt lat="45.20743" lon="-0.75858">
        <ele>13</ele>
        <time>2015-09-12T07:47:40.000Z</time>
      </trkpt>
      <trkpt lat="45.20747" lon="-0.75877">
        <ele>13</ele>
        <time>2015-09-12T07:47:46.000Z</time>
      </trkpt>
      <trkpt lat="45.20751" lon="-0.75897">
        <ele>13.199999809265</ele>
        <time>2015-09-12T07:47:53.000Z</time>
      </trkpt>
      <trkpt lat="45.20754" lon="-0.75915">
        <ele>13.39999961853</ele>
        <time>2015-09-12T07:47:59.000Z</time>
      </trkpt>
      <trkpt lat="45.20758" lon="-0.75932">
        <ele>13.60000038147</ele>
        <time>2015-09-12T07:48:05.000Z</time>
      </trkpt>
      <trkpt lat="45.20762" lon="-0.75953">
        <ele>13.800000190735</ele>
        <time>2015-09-12T07:48:12.000Z</time>
      </trkpt>
      <trkpt lat="45.20765" lon="-0.7597">
        <ele>14</ele>
        <time>2015-09-12T07:48:18.000Z</time>
      </trkpt>
      <trkpt lat="45.20768" lon="-0.7599">
        <ele>14</ele>
        <time>2015-09-12T07:48:25.000Z</time>
      </trkpt>
      <trkpt lat="45.20774" lon="-0.7601">
        <ele>14.199999809265</ele>
        <time>2015-09-12T07:48:32.000Z</time>
      </trkpt>
      <trkpt lat="45.20779" lon="-0.76023">
        <ele>14.39999961853</ele>
        <time>2015-09-12T07:48:37.000Z</time>
      </trkpt>
      <trkpt lat="45.20786" lon="-0.76037">
        <ele>14.60000038147</ele>
        <time>2015-09-12T07:48:41.000Z</time>
      </trkpt>
      <trkpt lat="45.20792" lon="-0.76049">
        <ele>14.800000190735</ele>
        <time>2015-09-12T07:48:46.000Z</time>
      </trkpt>
      <trkpt lat="45.208" lon="-0.76062">
        <ele>15.199999809265</ele>
        <time>2015-09-12T07:48:52.000Z</time>
      </trkpt>
      <trkpt lat="45.20809" lon="-0.76076">
        <ele>15.39999961853</ele>
        <time>2015-09-12T07:48:59.000Z</time>
      </trkpt>
      <trkpt lat="45.20817" lon="-0.76092">
        <ele>15.60000038147</ele>
        <time>2015-09-12T07:49:06.000Z</time>
      </trkpt>
      <trkpt lat="45.20825" lon="-0.76103">
        <ele>15.800000190735</ele>
        <time>2015-09-12T07:49:11.000Z</time>
      </trkpt>
      <trkpt lat="45.20833" lon="-0.76114">
        <ele>15.800000190735</ele>
        <time>2015-09-12T07:49:17.000Z</time>
      </trkpt>
      <trkpt lat="45.20842" lon="-0.76128">
        <ele>15.60000038147</ele>
        <time>2015-09-12T07:49:23.000Z</time>
      </trkpt>
      <trkpt lat="45.20851" lon="-0.76141">
        <ele>15.60000038147</ele>
        <time>2015-09-12T07:49:29.000Z</time>
      </trkpt>
      <trkpt lat="45.20859" lon="-0.76154">
        <ele>15.800000190735</ele>
        <time>2015-09-12T07:49:34.000Z</time>
      </trkpt>
      <trkpt lat="45.20869" lon="-0.76169">
        <ele>16.39999961853</ele>
        <time>2015-09-12T07:49:40.000Z</time>
      </trkpt>
      <trkpt lat="45.20878" lon="-0.76184">
        <ele>17.200000762939</ele>
        <time>2015-09-12T07:49:46.000Z</time>
      </trkpt>
      <trkpt lat="45.20886" lon="-0.76198">
        <ele>17.39999961853</ele>
        <time>2015-09-12T07:49:51.000Z</time>
      </trkpt>
      <trkpt lat="45.20897" lon="-0.76216">
        <ele>17.799999237061</ele>
        <time>2015-09-12T07:49:58.000Z</time>
      </trkpt>
      <trkpt lat="45.20906" lon="-0.7623">
        <ele>18</ele>
        <time>2015-09-12T07:50:05.000Z</time>
      </trkpt>
      <trkpt lat="45.20907" lon="-0.76231">
        <ele>18</ele>
        <time>2015-09-12T07:50:07.000Z</time>
      </trkpt>
      <trkpt lat="45.2091" lon="-0.76238">
        <ele>18</ele>
        <time>2015-09-12T07:50:13.000Z</time>
      </trkpt>
      <trkpt lat="45.20912" lon="-0.76241">
        <ele>18</ele>
        <time>2015-09-12T07:50:14.000Z</time>
      </trkpt>
      <trkpt lat="45.20919" lon="-0.7626">
        <ele>18</ele>
        <time>2015-09-12T07:50:22.000Z</time>
      </trkpt>
      <trkpt lat="45.20924" lon="-0.76275">
        <ele>18.39999961853</ele>
        <time>2015-09-12T07:50:28.000Z</time>
      </trkpt>
      <trkpt lat="45.20928" lon="-0.76289">
        <ele>18.799999237061</ele>
        <time>2015-09-12T07:50:34.000Z</time>
      </trkpt>
      <trkpt lat="45.20933" lon="-0.76307">
        <ele>19.200000762939</ele>
        <time>2015-09-12T07:50:41.000Z</time>
      </trkpt>
      <trkpt lat="45.20939" lon="-0.76325">
        <ele>19.200000762939</ele>
        <time>2015-09-12T07:50:48.000Z</time>
      </trkpt>
      <trkpt lat="45.20942" lon="-0.7634">
        <ele>19</ele>
        <time>2015-09-12T07:50:53.000Z</time>
      </trkpt>
      <trkpt lat="45.20947" lon="-0.7636">
        <ele>18.39999961853</ele>
        <time>2015-09-12T07:51:00.000Z</time>
      </trkpt>
      <trkpt lat="45.20949" lon="-0.76371">
        <ele>18.200000762939</ele>
        <time>2015-09-12T07:51:04.000Z</time>
      </trkpt>
      <trkpt lat="45.20952" lon="-0.76385">
        <ele>18</ele>
        <time>2015-09-12T07:51:09.000Z</time>
      </trkpt>
      <trkpt lat="45.20956" lon="-0.76398">
        <ele>17.60000038147</ele>
        <time>2015-09-12T07:51:14.000Z</time>
      </trkpt>
      <trkpt lat="45.20961" lon="-0.76417">
        <ele>17.200000762939</ele>
        <time>2015-09-12T07:51:21.000Z</time>
      </trkpt>
      <trkpt lat="45.20965" lon="-0.76437">
        <ele>16.799999237061</ele>
        <time>2015-09-12T07:51:28.000Z</time>
      </trkpt>
      <trkpt lat="45.20968" lon="-0.76454">
        <ele>16.39999961853</ele>
        <time>2015-09-12T07:51:34.000Z</time>
      </trkpt>
      <trkpt lat="45.20972" lon="-0.7647">
        <ele>16.39999961853</ele>
        <time>2015-09-12T07:51:40.000Z</time>
      </trkpt>
      <trkpt lat="45.20976" lon="-0.76487">
        <ele>16.39999961853</ele>
        <time>2015-09-12T07:51:46.000Z</time>
      </trkpt>
      <trkpt lat="45.20979" lon="-0.76503">
        <ele>16.200000762939</ele>
        <time>2015-09-12T07:51:52.000Z</time>
      </trkpt>
      <trkpt lat="45.20984" lon="-0.76525">
        <ele>16.200000762939</ele>
        <time>2015-09-12T07:51:59.000Z</time>
      </trkpt>
      <trkpt lat="45.20986" lon="-0.76542">
        <ele>15.800000190735</ele>
        <time>2015-09-12T07:52:05.000Z</time>
      </trkpt>
      <trkpt lat="45.20987" lon="-0.76556">
        <ele>15.60000038147</ele>
        <time>2015-09-12T07:52:10.000Z</time>
      </trkpt>
      <trkpt lat="45.20988" lon="-0.76576">
        <ele>15.800000190735</ele>
        <time>2015-09-12T07:52:17.000Z</time>
      </trkpt>
      <trkpt lat="45.2099" lon="-0.76594">
        <ele>16.200000762939</ele>
        <time>2015-09-12T07:52:23.000Z</time>
      </trkpt>
      <trkpt lat="45.20992" lon="-0.76612">
        <ele>16.39999961853</ele>
        <time>2015-09-12T07:52:29.000Z</time>
      </trkpt>
      <trkpt lat="45.20993" lon="-0.76628">
        <ele>16.39999961853</ele>
        <time>2015-09-12T07:52:35.000Z</time>
      </trkpt>
      <trkpt lat="45.20994" lon="-0.76645">
        <ele>16.60000038147</ele>
        <time>2015-09-12T07:52:41.000Z</time>
      </trkpt>
      <trkpt lat="45.20995" lon="-0.7666">
        <ele>17</ele>
        <time>2015-09-12T07:52:46.000Z</time>
      </trkpt>
      <trkpt lat="45.20997" lon="-0.76673">
        <ele>17.200000762939</ele>
        <time>2015-09-12T07:52:51.000Z</time>
      </trkpt>
      <trkpt lat="45.20999" lon="-0.76695">
        <ele>17.799999237061</ele>
        <time>2015-09-12T07:52:59.000Z</time>
      </trkpt>
      <trkpt lat="45.21" lon="-0.76714">
        <ele>18.200000762939</ele>
        <time>2015-09-12T07:53:06.000Z</time>
      </trkpt>
      <trkpt lat="45.21001" lon="-0.76736">
        <ele>18.799999237061</ele>
        <time>2015-09-12T07:53:13.000Z</time>
      </trkpt>
      <trkpt lat="45.21003" lon="-0.76757">
        <ele>19.39999961853</ele>
        <time>2015-09-12T07:53:20.000Z</time>
      </trkpt>
      <trkpt lat="45.21004" lon="-0.76777">
        <ele>20.200000762939</ele>
        <time>2015-09-12T07:53:27.000Z</time>
      </trkpt>
      <trkpt lat="45.21006" lon="-0.76793">
        <ele>21</ele>
        <time>2015-09-12T07:53:33.000Z</time>
      </trkpt>
      <trkpt lat="45.21007" lon="-0.76814">
        <ele>21.799999237061</ele>
        <time>2015-09-12T07:53:40.000Z</time>
      </trkpt>
      <trkpt lat="45.21008" lon="-0.76828">
        <ele>22</ele>
        <time>2015-09-12T07:53:45.000Z</time>
      </trkpt>
      <trkpt lat="45.21009" lon="-0.76847">
        <ele>22.200000762939</ele>
        <time>2015-09-12T07:53:51.000Z</time>
      </trkpt>
      <trkpt lat="45.21011" lon="-0.76871">
        <ele>22.200000762939</ele>
        <time>2015-09-12T07:53:59.000Z</time>
      </trkpt>
      <trkpt lat="45.21013" lon="-0.7689">
        <ele>22.200000762939</ele>
        <time>2015-09-12T07:54:05.000Z</time>
      </trkpt>
      <trkpt lat="45.21015" lon="-0.76903">
        <ele>22.60000038147</ele>
        <time>2015-09-12T07:54:10.000Z</time>
      </trkpt>
      <trkpt lat="45.21016" lon="-0.76924">
        <ele>23</ele>
        <time>2015-09-12T07:54:17.000Z</time>
      </trkpt>
      <trkpt lat="45.21018" lon="-0.76943">
        <ele>23.39999961853</ele>
        <time>2015-09-12T07:54:23.000Z</time>
      </trkpt>
      <trkpt lat="45.21019" lon="-0.76961">
        <ele>23.60000038147</ele>
        <time>2015-09-12T07:54:29.000Z</time>
      </trkpt>
      <trkpt lat="45.2102" lon="-0.76983">
        <ele>23.799999237061</ele>
        <time>2015-09-12T07:54:36.000Z</time>
      </trkpt>
      <trkpt lat="45.21021" lon="-0.76997">
        <ele>24</ele>
        <time>2015-09-12T07:54:41.000Z</time>
      </trkpt>
      <trkpt lat="45.21022" lon="-0.77013">
        <ele>24</ele>
        <time>2015-09-12T07:54:47.000Z</time>
      </trkpt>
      <trkpt lat="45.21024" lon="-0.77027">
        <ele>24</ele>
        <time>2015-09-12T07:54:52.000Z</time>
      </trkpt>
      <trkpt lat="45.21026" lon="-0.77043">
        <ele>24</ele>
        <time>2015-09-12T07:54:58.000Z</time>
      </trkpt>
      <trkpt lat="45.21028" lon="-0.77067">
        <ele>23.799999237061</ele>
        <time>2015-09-12T07:55:06.000Z</time>
      </trkpt>
      <trkpt lat="45.2103" lon="-0.77081">
        <ele>23.60000038147</ele>
        <time>2015-09-12T07:55:12.000Z</time>
      </trkpt>
      <trkpt lat="45.21032" lon="-0.7709">
        <ele>23.60000038147</ele>
        <time>2015-09-12T07:55:19.000Z</time>
      </trkpt>
      <trkpt lat="45.21036" lon="-0.77094">
        <ele>23.60000038147</ele>
        <time>2015-09-12T07:55:29.000Z</time>
      </trkpt>
      <trkpt lat="45.21042" lon="-0.77096">
        <ele>23.39999961853</ele>
        <time>2015-09-12T07:55:37.000Z</time>
      </trkpt>
      <trkpt lat="45.21045" lon="-0.77096">
        <ele>23.39999961853</ele>
        <time>2015-09-12T07:55:40.000Z</time>
      </trkpt>
      <trkpt lat="45.21052" lon="-0.77095">
        <ele>23.60000038147</ele>
        <time>2015-09-12T07:55:44.000Z</time>
      </trkpt>
      <trkpt lat="45.21056" lon="-0.77095">
        <ele>23.60000038147</ele>
        <time>2015-09-12T07:55:46.000Z</time>
      </trkpt>
      <trkpt lat="45.21066" lon="-0.77095">
        <ele>23.60000038147</ele>
        <time>2015-09-12T07:55:51.000Z</time>
      </trkpt>
      <trkpt lat="45.21067" lon="-0.77095">
        <ele>23.60000038147</ele>
        <time>2015-09-12T07:55:52.000Z</time>
      </trkpt>
      <trkpt lat="45.21069" lon="-0.77095">
        <ele>23.60000038147</ele>
        <time>2015-09-12T07:55:53.000Z</time>
      </trkpt>
      <trkpt lat="45.21076" lon="-0.77095">
        <ele>23.60000038147</ele>
        <time>2015-09-12T07:55:57.000Z</time>
      </trkpt>
      <trkpt lat="45.21079" lon="-0.77095">
        <ele>23.60000038147</ele>
        <time>2015-09-12T07:55:59.000Z</time>
      </trkpt>
      <trkpt lat="45.21091" lon="-0.77091">
        <ele>23.60000038147</ele>
        <time>2015-09-12T07:56:06.000Z</time>
      </trkpt>
      <trkpt lat="45.211" lon="-0.77089">
        <ele>23.60000038147</ele>
        <time>2015-09-12T07:56:12.000Z</time>
      </trkpt>
      <trkpt lat="45.21109" lon="-0.77087">
        <ele>23.799999237061</ele>
        <time>2015-09-12T07:56:17.000Z</time>
      </trkpt>
      <trkpt lat="45.21118" lon="-0.77086">
        <ele>23.799999237061</ele>
        <time>2015-09-12T07:56:22.000Z</time>
      </trkpt>
      <trkpt lat="45.21131" lon="-0.77084">
        <ele>24</ele>
        <time>2015-09-12T07:56:28.000Z</time>
      </trkpt>
      <trkpt lat="45.21143" lon="-0.77084">
        <ele>23.60000038147</ele>
        <time>2015-09-12T07:56:35.000Z</time>
      </trkpt>
      <trkpt lat="45.21149" lon="-0.77083">
        <ele>23.60000038147</ele>
        <time>2015-09-12T07:56:40.000Z</time>
      </trkpt>
      <trkpt lat="45.2115" lon="-0.77083">
        <ele>23.39999961853</ele>
        <time>2015-09-12T07:56:41.000Z</time>
      </trkpt>
      <trkpt lat="45.21154" lon="-0.77083">
        <ele>23.39999961853</ele>
        <time>2015-09-12T07:56:47.000Z</time>
      </trkpt>
      <trkpt lat="45.21157" lon="-0.77083">
        <ele>23.39999961853</ele>
        <time>2015-09-12T07:56:59.000Z</time>
      </trkpt>
      <trkpt lat="45.21152" lon="-0.77083">
        <ele>23.39999961853</ele>
        <time>2015-09-12T07:57:05.000Z</time>
      </trkpt>
      <trkpt lat="45.21155" lon="-0.77075">
        <ele>23.39999961853</ele>
        <time>2015-09-12T07:57:14.000Z</time>
      </trkpt>
      <trkpt lat="45.21153" lon="-0.77066">
        <ele>23.39999961853</ele>
        <time>2015-09-12T07:57:20.000Z</time>
      </trkpt>
      <trkpt lat="45.21156" lon="-0.77055">
        <ele>23.39999961853</ele>
        <time>2015-09-12T07:57:25.000Z</time>
      </trkpt>
      <trkpt lat="45.21157" lon="-0.77052">
        <ele>23.39999961853</ele>
        <time>2015-09-12T07:57:26.000Z</time>
      </trkpt>
      <trkpt lat="45.21158" lon="-0.77033">
        <ele>23.799999237061</ele>
        <time>2015-09-12T07:57:32.000Z</time>
      </trkpt>
      <trkpt lat="45.21158" lon="-0.77014">
        <ele>24.200000762939</ele>
        <time>2015-09-12T07:57:38.000Z</time>
      </trkpt>
      <trkpt lat="45.21154" lon="-0.77002">
        <ele>24.39999961853</ele>
        <time>2015-09-12T07:57:43.000Z</time>
      </trkpt>
      <trkpt lat="45.21154" lon="-0.76989">
        <ele>24.39999961853</ele>
        <time>2015-09-12T07:57:48.000Z</time>
      </trkpt>
      <trkpt lat="45.21155" lon="-0.76976">
        <ele>24.60000038147</ele>
        <time>2015-09-12T07:57:52.000Z</time>
      </trkpt>
      <trkpt lat="45.21157" lon="-0.76949">
        <ele>25.200000762939</ele>
        <time>2015-09-12T07:58:01.000Z</time>
      </trkpt>
      <trkpt lat="45.21156" lon="-0.76938">
        <ele>25.200000762939</ele>
        <time>2015-09-12T07:58:06.000Z</time>
      </trkpt>
      <trkpt lat="45.21154" lon="-0.76916">
        <ele>24.60000038147</ele>
        <time>2015-09-12T07:58:15.000Z</time>
      </trkpt>
      <trkpt lat="45.21155" lon="-0.76911">
        <ele>24.60000038147</ele>
        <time>2015-09-12T07:58:17.000Z</time>
      </trkpt>
      <trkpt lat="45.21152" lon="-0.76904">
        <ele>24.200000762939</ele>
        <time>2015-09-12T07:58:20.000Z</time>
      </trkpt>
      <trkpt lat="45.21152" lon="-0.76894">
        <ele>24</ele>
        <time>2015-09-12T07:58:24.000Z</time>
      </trkpt>
      <trkpt lat="45.21151" lon="-0.76885">
        <ele>23.799999237061</ele>
        <time>2015-09-12T07:58:26.000Z</time>
      </trkpt>
      <trkpt lat="45.21149" lon="-0.76876">
        <ele>23.39999961853</ele>
        <time>2015-09-12T07:58:29.000Z</time>
      </trkpt>
      <trkpt lat="45.21148" lon="-0.76856">
        <ele>23</ele>
        <time>2015-09-12T07:58:35.000Z</time>
      </trkpt>
      <trkpt lat="45.21148" lon="-0.76846">
        <ele>23</ele>
        <time>2015-09-12T07:58:39.000Z</time>
      </trkpt>
      <trkpt lat="45.21144" lon="-0.76837">
        <ele>22.799999237061</ele>
        <time>2015-09-12T07:58:43.000Z</time>
      </trkpt>
      <trkpt lat="45.2114" lon="-0.76824">
        <ele>22.60000038147</ele>
        <time>2015-09-12T07:58:47.000Z</time>
      </trkpt>
      <trkpt lat="45.21138" lon="-0.76821">
        <ele>22.39999961853</ele>
        <time>2015-09-12T07:58:48.000Z</time>
      </trkpt>
      <trkpt lat="45.21132" lon="-0.76805">
        <ele>22</ele>
        <time>2015-09-12T07:58:53.000Z</time>
      </trkpt>
      <trkpt lat="45.21129" lon="-0.76787">
        <ele>21.39999961853</ele>
        <time>2015-09-12T07:58:58.000Z</time>
      </trkpt>
      <trkpt lat="45.21131" lon="-0.76776">
        <ele>21</ele>
        <time>2015-09-12T07:59:01.000Z</time>
      </trkpt>
      <trkpt lat="45.2114" lon="-0.76774">
        <ele>20.799999237061</ele>
        <time>2015-09-12T07:59:05.000Z</time>
      </trkpt>
      <trkpt lat="45.21152" lon="-0.76772">
        <ele>20.60000038147</ele>
        <time>2015-09-12T07:59:11.000Z</time>
      </trkpt>
      <trkpt lat="45.21161" lon="-0.76773">
        <ele>20.60000038147</ele>
        <time>2015-09-12T07:59:16.000Z</time>
      </trkpt>
      <trkpt lat="45.21168" lon="-0.76772">
        <ele>20.60000038147</ele>
        <time>2015-09-12T07:59:20.000Z</time>
      </trkpt>
      <trkpt lat="45.21173" lon="-0.76771">
        <ele>20.60000038147</ele>
        <time>2015-09-12T07:59:24.000Z</time>
      </trkpt>
      <trkpt lat="45.21181" lon="-0.76769">
        <ele>20.799999237061</ele>
        <time>2015-09-12T07:59:31.000Z</time>
      </trkpt>
      <trkpt lat="45.21189" lon="-0.76769">
        <ele>20.799999237061</ele>
        <time>2015-09-12T07:59:38.000Z</time>
      </trkpt>
      <trkpt lat="45.21199" lon="-0.76768">
        <ele>21</ele>
        <time>2015-09-12T07:59:46.000Z</time>
      </trkpt>
      <trkpt lat="45.21209" lon="-0.76767">
        <ele>21.200000762939</ele>
        <time>2015-09-12T07:59:53.000Z</time>
      </trkpt>
      <trkpt lat="45.21222" lon="-0.76767">
        <ele>21.200000762939</ele>
        <time>2015-09-12T08:00:00.000Z</time>
      </trkpt>
      <trkpt lat="45.21235" lon="-0.76767">
        <ele>21</ele>
        <time>2015-09-12T08:00:06.000Z</time>
      </trkpt>
      <trkpt lat="45.21247" lon="-0.76767">
        <ele>21</ele>
        <time>2015-09-12T08:00:12.000Z</time>
      </trkpt>
      <trkpt lat="45.21258" lon="-0.76765">
        <ele>20.39999961853</ele>
        <time>2015-09-12T08:00:17.000Z</time>
      </trkpt>
      <trkpt lat="45.21271" lon="-0.76763">
        <ele>19.799999237061</ele>
        <time>2015-09-12T08:00:23.000Z</time>
      </trkpt>
      <trkpt lat="45.2128" lon="-0.76762">
        <ele>19.60000038147</ele>
        <time>2015-09-12T08:00:27.000Z</time>
      </trkpt>
      <trkpt lat="45.21292" lon="-0.76761">
        <ele>19</ele>
        <time>2015-09-12T08:00:33.000Z</time>
      </trkpt>
      <trkpt lat="45.21301" lon="-0.76761">
        <ele>19</ele>
        <time>2015-09-12T08:00:38.000Z</time>
      </trkpt>
      <trkpt lat="45.21312" lon="-0.76759">
        <ele>19</ele>
        <time>2015-09-12T08:00:44.000Z</time>
      </trkpt>
      <trkpt lat="45.21316" lon="-0.76747">
        <ele>18.60000038147</ele>
        <time>2015-09-12T08:00:49.000Z</time>
      </trkpt>
      <trkpt lat="45.2132" lon="-0.76721">
        <ele>17.200000762939</ele>
        <time>2015-09-12T08:00:57.000Z</time>
      </trkpt>
      <trkpt lat="45.21321" lon="-0.76709">
        <ele>16.799999237061</ele>
        <time>2015-09-12T08:01:01.000Z</time>
      </trkpt>
      <trkpt lat="45.21323" lon="-0.76686">
        <ele>16</ele>
        <time>2015-09-12T08:01:09.000Z</time>
      </trkpt>
      <trkpt lat="45.21326" lon="-0.76661">
        <ele>15.199999809265</ele>
        <time>2015-09-12T08:01:17.000Z</time>
      </trkpt>
      <trkpt lat="45.21329" lon="-0.76637">
        <ele>14.39999961853</ele>
        <time>2015-09-12T08:01:25.000Z</time>
      </trkpt>
      <trkpt lat="45.21332" lon="-0.76617">
        <ele>14.39999961853</ele>
        <time>2015-09-12T08:01:31.000Z</time>
      </trkpt>
      <trkpt lat="45.21334" lon="-0.76598">
        <ele>14.39999961853</ele>
        <time>2015-09-12T08:01:37.000Z</time>
      </trkpt>
      <trkpt lat="45.21336" lon="-0.76583">
        <ele>14.39999961853</ele>
        <time>2015-09-12T08:01:42.000Z</time>
      </trkpt>
      <trkpt lat="45.21337" lon="-0.76559">
        <ele>14.60000038147</ele>
        <time>2015-09-12T08:01:49.000Z</time>
      </trkpt>
      <trkpt lat="45.2134" lon="-0.76539">
        <ele>14.60000038147</ele>
        <time>2015-09-12T08:01:56.000Z</time>
      </trkpt>
      <trkpt lat="45.21344" lon="-0.76516">
        <ele>14.60000038147</ele>
        <time>2015-09-12T08:02:03.000Z</time>
      </trkpt>
      <trkpt lat="45.21344" lon="-0.76495">
        <ele>14.60000038147</ele>
        <time>2015-09-12T08:02:09.000Z</time>
      </trkpt>
      <trkpt lat="45.21343" lon="-0.76476">
        <ele>14.60000038147</ele>
        <time>2015-09-12T08:02:15.000Z</time>
      </trkpt>
      <trkpt lat="45.21343" lon="-0.76452">
        <ele>14.60000038147</ele>
        <time>2015-09-12T08:02:22.000Z</time>
      </trkpt>
      <trkpt lat="45.21343" lon="-0.76433">
        <ele>14.60000038147</ele>
        <time>2015-09-12T08:02:28.000Z</time>
      </trkpt>
      <trkpt lat="45.2135" lon="-0.76426">
        <ele>14.60000038147</ele>
        <time>2015-09-12T08:02:32.000Z</time>
      </trkpt>
      <trkpt lat="45.2136" lon="-0.76427">
        <ele>14.800000190735</ele>
        <time>2015-09-12T08:02:37.000Z</time>
      </trkpt>
      <trkpt lat="45.2137" lon="-0.76431">
        <ele>14.800000190735</ele>
        <time>2015-09-12T08:02:42.000Z</time>
      </trkpt>
      <trkpt lat="45.21382" lon="-0.76439">
        <ele>15</ele>
        <time>2015-09-12T08:02:49.000Z</time>
      </trkpt>
      <trkpt lat="45.21396" lon="-0.76443">
        <ele>15.199999809265</ele>
        <time>2015-09-12T08:02:56.000Z</time>
      </trkpt>
      <trkpt lat="45.21407" lon="-0.76448">
        <ele>15.39999961853</ele>
        <time>2015-09-12T08:03:02.000Z</time>
      </trkpt>
      <trkpt lat="45.2142" lon="-0.76454">
        <ele>15.39999961853</ele>
        <time>2015-09-12T08:03:10.000Z</time>
      </trkpt>
      <trkpt lat="45.21429" lon="-0.76457">
        <ele>15.60000038147</ele>
        <time>2015-09-12T08:03:15.000Z</time>
      </trkpt>
      <trkpt lat="45.2144" lon="-0.76461">
        <ele>15.800000190735</ele>
        <time>2015-09-12T08:03:21.000Z</time>
      </trkpt>
      <trkpt lat="45.21451" lon="-0.76463">
        <ele>15.800000190735</ele>
        <time>2015-09-12T08:03:27.000Z</time>
      </trkpt>
      <trkpt lat="45.21462" lon="-0.76464">
        <ele>16</ele>
        <time>2015-09-12T08:03:33.000Z</time>
      </trkpt>
      <trkpt lat="45.21475" lon="-0.76465">
        <ele>16.39999961853</ele>
        <time>2015-09-12T08:03:40.000Z</time>
      </trkpt>
      <trkpt lat="45.2149" lon="-0.76465">
        <ele>16.60000038147</ele>
        <time>2015-09-12T08:03:47.000Z</time>
      </trkpt>
      <trkpt lat="45.215" lon="-0.76466">
        <ele>17</ele>
        <time>2015-09-12T08:03:52.000Z</time>
      </trkpt>
      <trkpt lat="45.21511" lon="-0.76468">
        <ele>17.200000762939</ele>
        <time>2015-09-12T08:03:57.000Z</time>
      </trkpt>
      <trkpt lat="45.21527" lon="-0.7647">
        <ele>17.60000038147</ele>
        <time>2015-09-12T08:04:04.000Z</time>
      </trkpt>
      <trkpt lat="45.21544" lon="-0.76475">
        <ele>18</ele>
        <time>2015-09-12T08:04:12.000Z</time>
      </trkpt>
      <trkpt lat="45.21558" lon="-0.76477">
        <ele>18.60000038147</ele>
        <time>2015-09-12T08:04:18.000Z</time>
      </trkpt>
      <trkpt lat="45.21575" lon="-0.76481">
        <ele>19.39999961853</ele>
        <time>2015-09-12T08:04:26.000Z</time>
      </trkpt>
      <trkpt lat="45.21589" lon="-0.76485">
        <ele>20</ele>
        <time>2015-09-12T08:04:33.000Z</time>
      </trkpt>
      <trkpt lat="45.216" lon="-0.76488">
        <ele>20.39999961853</ele>
        <time>2015-09-12T08:04:38.000Z</time>
      </trkpt>
      <trkpt lat="45.21609" lon="-0.7649">
        <ele>20.799999237061</ele>
        <time>2015-09-12T08:04:43.000Z</time>
      </trkpt>
      <trkpt lat="45.2162" lon="-0.76493">
        <ele>20.799999237061</ele>
        <time>2015-09-12T08:04:48.000Z</time>
      </trkpt>
      <trkpt lat="45.21634" lon="-0.76495">
        <ele>21</ele>
        <time>2015-09-12T08:04:54.000Z</time>
      </trkpt>
      <trkpt lat="45.21653" lon="-0.76499">
        <ele>20.799999237061</ele>
        <time>2015-09-12T08:05:03.000Z</time>
      </trkpt>
      <trkpt lat="45.21669" lon="-0.765">
        <ele>20.60000038147</ele>
        <time>2015-09-12T08:05:10.000Z</time>
      </trkpt>
      <trkpt lat="45.21682" lon="-0.76504">
        <ele>20.39999961853</ele>
        <time>2015-09-12T08:05:16.000Z</time>
      </trkpt>
      <trkpt lat="45.21697" lon="-0.76512">
        <ele>20.39999961853</ele>
        <time>2015-09-12T08:05:23.000Z</time>
      </trkpt>
      <trkpt lat="45.21711" lon="-0.76521">
        <ele>20.60000038147</ele>
        <time>2015-09-12T08:05:30.000Z</time>
      </trkpt>
      <trkpt lat="45.21726" lon="-0.76533">
        <ele>20.60000038147</ele>
        <time>2015-09-12T08:05:38.000Z</time>
      </trkpt>
      <trkpt lat="45.21742" lon="-0.76544">
        <ele>20.200000762939</ele>
        <time>2015-09-12T08:05:46.000Z</time>
      </trkpt>
      <trkpt lat="45.2175" lon="-0.76553">
        <ele>20</ele>
        <time>2015-09-12T08:05:51.000Z</time>
      </trkpt>
      <trkpt lat="45.2176" lon="-0.76567">
        <ele>19.799999237061</ele>
        <time>2015-09-12T08:05:57.000Z</time>
      </trkpt>
      <trkpt lat="45.21772" lon="-0.76587">
        <ele>19.60000038147</ele>
        <time>2015-09-12T08:06:05.000Z</time>
      </trkpt>
      <trkpt lat="45.2178" lon="-0.76606">
        <ele>19.799999237061</ele>
        <time>2015-09-12T08:06:12.000Z</time>
      </trkpt>
      <trkpt lat="45.21786" lon="-0.76618">
        <ele>19.799999237061</ele>
        <time>2015-09-12T08:06:18.000Z</time>
      </trkpt>
      <trkpt lat="45.21789" lon="-0.76627">
        <ele>20</ele>
        <time>2015-09-12T08:06:23.000Z</time>
      </trkpt>
      <trkpt lat="45.21795" lon="-0.7664">
        <ele>20</ele>
        <time>2015-09-12T08:06:28.000Z</time>
      </trkpt>
      <trkpt lat="45.21801" lon="-0.76656">
        <ele>20</ele>
        <time>2015-09-12T08:06:34.000Z</time>
      </trkpt>
      <trkpt lat="45.21806" lon="-0.76672">
        <ele>20</ele>
        <time>2015-09-12T08:06:40.000Z</time>
      </trkpt>
      <trkpt lat="45.21814" lon="-0.76688">
        <ele>20</ele>
        <time>2015-09-12T08:06:47.000Z</time>
      </trkpt>
      <trkpt lat="45.21815" lon="-0.76693">
        <ele>20</ele>
        <time>2015-09-12T08:06:49.000Z</time>
      </trkpt>
      <trkpt lat="45.21824" lon="-0.7671">
        <ele>20</ele>
        <time>2015-09-12T08:06:57.000Z</time>
      </trkpt>
      <trkpt lat="45.21831" lon="-0.76717">
        <ele>20</ele>
        <time>2015-09-12T08:07:01.000Z</time>
      </trkpt>
      <trkpt lat="45.21832" lon="-0.76719">
        <ele>20</ele>
        <time>2015-09-12T08:07:02.000Z</time>
      </trkpt>
      <trkpt lat="45.21844" lon="-0.76733">
        <ele>20.200000762939</ele>
        <time>2015-09-12T08:07:09.000Z</time>
      </trkpt>
      <trkpt lat="45.21854" lon="-0.76744">
        <ele>20.200000762939</ele>
        <time>2015-09-12T08:07:15.000Z</time>
      </trkpt>
      <trkpt lat="45.21867" lon="-0.76752">
        <ele>20</ele>
        <time>2015-09-12T08:07:21.000Z</time>
      </trkpt>
      <trkpt lat="45.21884" lon="-0.76761">
        <ele>19.799999237061</ele>
        <time>2015-09-12T08:07:29.000Z</time>
      </trkpt>
      <trkpt lat="45.219" lon="-0.7677">
        <ele>19.200000762939</ele>
        <time>2015-09-12T08:07:37.000Z</time>
      </trkpt>
      <trkpt lat="45.21914" lon="-0.76774">
        <ele>18.39999961853</ele>
        <time>2015-09-12T08:07:43.000Z</time>
      </trkpt>
      <trkpt lat="45.21929" lon="-0.76777">
        <ele>17.39999961853</ele>
        <time>2015-09-12T08:07:50.000Z</time>
      </trkpt>
      <trkpt lat="45.21948" lon="-0.76782">
        <ele>16</ele>
        <time>2015-09-12T08:07:57.000Z</time>
      </trkpt>
      <trkpt lat="45.21966" lon="-0.76787">
        <ele>14.800000190735</ele>
        <time>2015-09-12T08:08:05.000Z</time>
      </trkpt>
      <trkpt lat="45.21978" lon="-0.7679">
        <ele>14.39999961853</ele>
        <time>2015-09-12T08:08:10.000Z</time>
      </trkpt>
      <trkpt lat="45.21998" lon="-0.76794">
        <ele>13.800000190735</ele>
        <time>2015-09-12T08:08:18.000Z</time>
      </trkpt>
      <trkpt lat="45.22016" lon="-0.76799">
        <ele>13</ele>
        <time>2015-09-12T08:08:26.000Z</time>
      </trkpt>
      <trkpt lat="45.22034" lon="-0.76803">
        <ele>12.39999961853</ele>
        <time>2015-09-12T08:08:33.000Z</time>
      </trkpt>
      <trkpt lat="45.22054" lon="-0.76808">
        <ele>11.60000038147</ele>
        <time>2015-09-12T08:08:41.000Z</time>
      </trkpt>
      <trkpt lat="45.22073" lon="-0.76813">
        <ele>10.800000190735</ele>
        <time>2015-09-12T08:08:49.000Z</time>
      </trkpt>
      <trkpt lat="45.22092" lon="-0.76818">
        <ele>10</ele>
        <time>2015-09-12T08:08:57.000Z</time>
      </trkpt>
      <trkpt lat="45.22107" lon="-0.7682">
        <ele>9.3999996185303</ele>
        <time>2015-09-12T08:09:03.000Z</time>
      </trkpt>
      <trkpt lat="45.22122" lon="-0.76824">
        <ele>8.6000003814697</ele>
        <time>2015-09-12T08:09:09.000Z</time>
      </trkpt>
      <trkpt lat="45.22141" lon="-0.76828">
        <ele>8.1999998092651</ele>
        <time>2015-09-12T08:09:17.000Z</time>
      </trkpt>
      <trkpt lat="45.22153" lon="-0.76831">
        <ele>8</ele>
        <time>2015-09-12T08:09:22.000Z</time>
      </trkpt>
      <trkpt lat="45.22171" lon="-0.76835">
        <ele>7.8000001907349</ele>
        <time>2015-09-12T08:09:29.000Z</time>
      </trkpt>
      <trkpt lat="45.22187" lon="-0.76838">
        <ele>7.5999999046326</ele>
        <time>2015-09-12T08:09:36.000Z</time>
      </trkpt>
      <trkpt lat="45.22204" lon="-0.76841">
        <ele>7.1999998092651</ele>
        <time>2015-09-12T08:09:43.000Z</time>
      </trkpt>
      <trkpt lat="45.22219" lon="-0.76845">
        <ele>7.1999998092651</ele>
        <time>2015-09-12T08:09:49.000Z</time>
      </trkpt>
      <trkpt lat="45.22237" lon="-0.76848">
        <ele>7.5999999046326</ele>
        <time>2015-09-12T08:09:57.000Z</time>
      </trkpt>
      <trkpt lat="45.22248" lon="-0.76851">
        <ele>7.8000001907349</ele>
        <time>2015-09-12T08:10:02.000Z</time>
      </trkpt>
      <trkpt lat="45.22267" lon="-0.76855">
        <ele>8</ele>
        <time>2015-09-12T08:10:10.000Z</time>
      </trkpt>
      <trkpt lat="45.22284" lon="-0.76859">
        <ele>8.1999998092651</ele>
        <time>2015-09-12T08:10:17.000Z</time>
      </trkpt>
      <trkpt lat="45.223" lon="-0.76863">
        <ele>8.3999996185303</ele>
        <time>2015-09-12T08:10:24.000Z</time>
      </trkpt>
      <trkpt lat="45.22316" lon="-0.76867">
        <ele>9</ele>
        <time>2015-09-12T08:10:31.000Z</time>
      </trkpt>
      <trkpt lat="45.22329" lon="-0.76871">
        <ele>8.8000001907349</ele>
        <time>2015-09-12T08:10:37.000Z</time>
      </trkpt>
      <trkpt lat="45.22337" lon="-0.76878">
        <ele>8.3999996185303</ele>
        <time>2015-09-12T08:10:41.000Z</time>
      </trkpt>
      <trkpt lat="45.22339" lon="-0.76881">
        <ele>8.3999996185303</ele>
        <time>2015-09-12T08:10:42.000Z</time>
      </trkpt>
      <trkpt lat="45.22344" lon="-0.76894">
        <ele>8.1999998092651</ele>
        <time>2015-09-12T08:10:47.000Z</time>
      </trkpt>
      <trkpt lat="45.2235" lon="-0.76913">
        <ele>8.6000003814697</ele>
        <time>2015-09-12T08:10:54.000Z</time>
      </trkpt>
      <trkpt lat="45.22356" lon="-0.76933">
        <ele>8</ele>
        <time>2015-09-12T08:11:01.000Z</time>
      </trkpt>
      <trkpt lat="45.22363" lon="-0.76945">
        <ele>7.4000000953674</ele>
        <time>2015-09-12T08:11:06.000Z</time>
      </trkpt>
      <trkpt lat="45.2237" lon="-0.76965">
        <ele>6.5999999046326</ele>
        <time>2015-09-12T08:11:13.000Z</time>
      </trkpt>
      <trkpt lat="45.22374" lon="-0.76978">
        <ele>6.4000000953674</ele>
        <time>2015-09-12T08:11:18.000Z</time>
      </trkpt>
      <trkpt lat="45.2238" lon="-0.76995">
        <ele>6.8000001907349</ele>
        <time>2015-09-12T08:11:24.000Z</time>
      </trkpt>
      <trkpt lat="45.22385" lon="-0.77013">
        <ele>7.4000000953674</ele>
        <time>2015-09-12T08:11:30.000Z</time>
      </trkpt>
      <trkpt lat="45.22391" lon="-0.77027">
        <ele>8</ele>
        <time>2015-09-12T08:11:36.000Z</time>
      </trkpt>
      <trkpt lat="45.22393" lon="-0.77031">
        <ele>8.1999998092651</ele>
        <time>2015-09-12T08:11:38.000Z</time>
      </trkpt>
      <trkpt lat="45.22401" lon="-0.7704">
        <ele>8</ele>
        <time>2015-09-12T08:11:45.000Z</time>
      </trkpt>
      <trkpt lat="45.22402" lon="-0.77042">
        <ele>8</ele>
        <time>2015-09-12T08:11:46.000Z</time>
      </trkpt>
      <trkpt lat="45.22407" lon="-0.7705">
        <ele>7.4000000953674</ele>
        <time>2015-09-12T08:11:50.000Z</time>
      </trkpt>
      <trkpt lat="45.22408" lon="-0.77066">
        <ele>7.4000000953674</ele>
        <time>2015-09-12T08:11:56.000Z</time>
      </trkpt>
      <trkpt lat="45.22407" lon="-0.77069">
        <ele>7.4000000953674</ele>
        <time>2015-09-12T08:11:57.000Z</time>
      </trkpt>
      <trkpt lat="45.22407" lon="-0.77078">
        <ele>7.5999999046326</ele>
        <time>2015-09-12T08:12:02.000Z</time>
      </trkpt>
      <trkpt lat="45.22407" lon="-0.7708">
        <ele>7.5999999046326</ele>
        <time>2015-09-12T08:12:03.000Z</time>
      </trkpt>
      <trkpt lat="45.22414" lon="-0.77092">
        <ele>7.4000000953674</ele>
        <time>2015-09-12T08:12:10.000Z</time>
      </trkpt>
      <trkpt lat="45.22415" lon="-0.77095">
        <ele>7.4000000953674</ele>
        <time>2015-09-12T08:12:11.000Z</time>
      </trkpt>
      <trkpt lat="45.22417" lon="-0.77102">
        <ele>7.1999998092651</ele>
        <time>2015-09-12T08:12:13.000Z</time>
      </trkpt>
      <trkpt lat="45.22426" lon="-0.77113">
        <ele>6.8000001907349</ele>
        <time>2015-09-12T08:12:18.000Z</time>
      </trkpt>
      <trkpt lat="45.22427" lon="-0.77125">
        <ele>7</ele>
        <time>2015-09-12T08:12:22.000Z</time>
      </trkpt>
      <trkpt lat="45.22431" lon="-0.77135">
        <ele>6.8000001907349</ele>
        <time>2015-09-12T08:12:26.000Z</time>
      </trkpt>
      <trkpt lat="45.22437" lon="-0.77149">
        <ele>6.8000001907349</ele>
        <time>2015-09-12T08:12:32.000Z</time>
      </trkpt>
      <trkpt lat="45.22444" lon="-0.77161">
        <ele>7.1999998092651</ele>
        <time>2015-09-12T08:12:37.000Z</time>
      </trkpt>
      <trkpt lat="45.22451" lon="-0.77176">
        <ele>8.6000003814697</ele>
        <time>2015-09-12T08:12:43.000Z</time>
      </trkpt>
      <trkpt lat="45.22453" lon="-0.7718">
        <ele>9</ele>
        <time>2015-09-12T08:12:45.000Z</time>
      </trkpt>
      <trkpt lat="45.22462" lon="-0.77196">
        <ele>10.60000038147</ele>
        <time>2015-09-12T08:12:52.000Z</time>
      </trkpt>
      <trkpt lat="45.22474" lon="-0.77203">
        <ele>11.60000038147</ele>
        <time>2015-09-12T08:12:58.000Z</time>
      </trkpt>
      <trkpt lat="45.2249" lon="-0.77205">
        <ele>11</ele>
        <time>2015-09-12T08:13:05.000Z</time>
      </trkpt>
      <trkpt lat="45.22506" lon="-0.77207">
        <ele>9.8000001907349</ele>
        <time>2015-09-12T08:13:12.000Z</time>
      </trkpt>
      <trkpt lat="45.22518" lon="-0.7721">
        <ele>9</ele>
        <time>2015-09-12T08:13:17.000Z</time>
      </trkpt>
      <trkpt lat="45.22535" lon="-0.77218">
        <ele>7.8000001907349</ele>
        <time>2015-09-12T08:13:24.000Z</time>
      </trkpt>
      <trkpt lat="45.22554" lon="-0.77225">
        <ele>6.4000000953674</ele>
        <time>2015-09-12T08:13:32.000Z</time>
      </trkpt>
      <trkpt lat="45.22566" lon="-0.7723">
        <ele>5.5999999046326</ele>
        <time>2015-09-12T08:13:37.000Z</time>
      </trkpt>
      <trkpt lat="45.22575" lon="-0.77232">
        <ele>5</ele>
        <time>2015-09-12T08:13:41.000Z</time>
      </trkpt>
      <trkpt lat="45.22584" lon="-0.77223">
        <ele>4.5999999046326</ele>
        <time>2015-09-12T08:13:46.000Z</time>
      </trkpt>
      <trkpt lat="45.22587" lon="-0.77213">
        <ele>4.8000001907349</ele>
        <time>2015-09-12T08:13:49.000Z</time>
      </trkpt>
      <trkpt lat="45.22593" lon="-0.77184">
        <ele>5</ele>
        <time>2015-09-12T08:13:58.000Z</time>
      </trkpt>
      <trkpt lat="45.22597" lon="-0.77164">
        <ele>5.1999998092651</ele>
        <time>2015-09-12T08:14:04.000Z</time>
      </trkpt>
      <trkpt lat="45.22602" lon="-0.77144">
        <ele>5</ele>
        <time>2015-09-12T08:14:10.000Z</time>
      </trkpt>
      <trkpt lat="45.22603" lon="-0.77141">
        <ele>5</ele>
        <time>2015-09-12T08:14:11.000Z</time>
      </trkpt>
      <trkpt lat="45.22605" lon="-0.77129">
        <ele>4.8000001907349</ele>
        <time>2015-09-12T08:14:15.000Z</time>
      </trkpt>
      <trkpt lat="45.22612" lon="-0.77101">
        <ele>4.5999999046326</ele>
        <time>2015-09-12T08:14:23.000Z</time>
      </trkpt>
      <trkpt lat="45.22617" lon="-0.77074">
        <ele>4.4000000953674</ele>
        <time>2015-09-12T08:14:31.000Z</time>
      </trkpt>
      <trkpt lat="45.22622" lon="-0.77055">
        <ele>4</ele>
        <time>2015-09-12T08:14:37.000Z</time>
      </trkpt>
      <trkpt lat="45.22631" lon="-0.77041">
        <ele>4</ele>
        <time>2015-09-12T08:14:43.000Z</time>
      </trkpt>
      <trkpt lat="45.22643" lon="-0.77047">
        <ele>3.5999999046326</ele>
        <time>2015-09-12T08:14:48.000Z</time>
      </trkpt>
      <trkpt lat="45.22658" lon="-0.77058">
        <ele>3.4000000953674</ele>
        <time>2015-09-12T08:14:55.000Z</time>
      </trkpt>
      <trkpt lat="45.22665" lon="-0.77066">
        <ele>3.2000000476837</ele>
        <time>2015-09-12T08:14:59.000Z</time>
      </trkpt>
      <trkpt lat="45.22667" lon="-0.77068">
        <ele>3</ele>
        <time>2015-09-12T08:15:00.000Z</time>
      </trkpt>
      <trkpt lat="45.22671" lon="-0.77071">
        <ele>3</ele>
        <time>2015-09-12T08:15:02.000Z</time>
      </trkpt>
      <trkpt lat="45.22677" lon="-0.77078">
        <ele>2.7999999523163</ele>
        <time>2015-09-12T08:15:06.000Z</time>
      </trkpt>
      <trkpt lat="45.22686" lon="-0.77087">
        <ele>2.7999999523163</ele>
        <time>2015-09-12T08:15:11.000Z</time>
      </trkpt>
      <trkpt lat="45.22693" lon="-0.77096">
        <ele>3</ele>
        <time>2015-09-12T08:15:15.000Z</time>
      </trkpt>
      <trkpt lat="45.22704" lon="-0.7711">
        <ele>3.4000000953674</ele>
        <time>2015-09-12T08:15:21.000Z</time>
      </trkpt>
      <trkpt lat="45.22714" lon="-0.77119">
        <ele>3.5999999046326</ele>
        <time>2015-09-12T08:15:26.000Z</time>
      </trkpt>
      <trkpt lat="45.22723" lon="-0.77132">
        <ele>4</ele>
        <time>2015-09-12T08:15:31.000Z</time>
      </trkpt>
      <trkpt lat="45.22733" lon="-0.77148">
        <ele>3.7999999523163</ele>
        <time>2015-09-12T08:15:38.000Z</time>
      </trkpt>
      <trkpt lat="45.22742" lon="-0.77159">
        <ele>3.7999999523163</ele>
        <time>2015-09-12T08:15:44.000Z</time>
      </trkpt>
      <trkpt lat="45.22752" lon="-0.77173">
        <ele>3.5999999046326</ele>
        <time>2015-09-12T08:15:50.000Z</time>
      </trkpt>
      <trkpt lat="45.22763" lon="-0.77184">
        <ele>3.4000000953674</ele>
        <time>2015-09-12T08:15:56.000Z</time>
      </trkpt>
      <trkpt lat="45.22777" lon="-0.772">
        <ele>3.2000000476837</ele>
        <time>2015-09-12T08:16:04.000Z</time>
      </trkpt>
      <trkpt lat="45.22788" lon="-0.77214">
        <ele>3</ele>
        <time>2015-09-12T08:16:10.000Z</time>
      </trkpt>
      <trkpt lat="45.22798" lon="-0.77227">
        <ele>3</ele>
        <time>2015-09-12T08:16:16.000Z</time>
      </trkpt>
      <trkpt lat="45.22807" lon="-0.77237">
        <ele>2.7999999523163</ele>
        <time>2015-09-12T08:16:21.000Z</time>
      </trkpt>
      <trkpt lat="45.22817" lon="-0.7725">
        <ele>2.7999999523163</ele>
        <time>2015-09-12T08:16:27.000Z</time>
      </trkpt>
      <trkpt lat="45.22824" lon="-0.77261">
        <ele>2.5999999046326</ele>
        <time>2015-09-12T08:16:32.000Z</time>
      </trkpt>
      <trkpt lat="45.22834" lon="-0.7727">
        <ele>2.5999999046326</ele>
        <time>2015-09-12T08:16:37.000Z</time>
      </trkpt>
      <trkpt lat="45.22842" lon="-0.77282">
        <ele>3</ele>
        <time>2015-09-12T08:16:43.000Z</time>
      </trkpt>
      <trkpt lat="45.22853" lon="-0.77295">
        <ele>3.4000000953674</ele>
        <time>2015-09-12T08:16:49.000Z</time>
      </trkpt>
      <trkpt lat="45.22866" lon="-0.7731">
        <ele>3.7999999523163</ele>
        <time>2015-09-12T08:16:56.000Z</time>
      </trkpt>
      <trkpt lat="45.22874" lon="-0.7732">
        <ele>4.1999998092651</ele>
        <time>2015-09-12T08:17:01.000Z</time>
      </trkpt>
      <trkpt lat="45.22884" lon="-0.77333">
        <ele>5</ele>
        <time>2015-09-12T08:17:07.000Z</time>
      </trkpt>
      <trkpt lat="45.22892" lon="-0.77345">
        <ele>5.5999999046326</ele>
        <time>2015-09-12T08:17:12.000Z</time>
      </trkpt>
      <trkpt lat="45.22903" lon="-0.77357">
        <ele>6.4000000953674</ele>
        <time>2015-09-12T08:17:18.000Z</time>
      </trkpt>
      <trkpt lat="45.22915" lon="-0.77369">
        <ele>7.8000001907349</ele>
        <time>2015-09-12T08:17:25.000Z</time>
      </trkpt>
      <trkpt lat="45.22926" lon="-0.77383">
        <ele>9.1999998092651</ele>
        <time>2015-09-12T08:17:32.000Z</time>
      </trkpt>
      <trkpt lat="45.22934" lon="-0.77394">
        <ele>10</ele>
        <time>2015-09-12T08:17:37.000Z</time>
      </trkpt>
      <trkpt lat="45.22945" lon="-0.77409">
        <ele>10.800000190735</ele>
        <time>2015-09-12T08:17:44.000Z</time>
      </trkpt>
      <trkpt lat="45.22954" lon="-0.77421">
        <ele>12</ele>
        <time>2015-09-12T08:17:50.000Z</time>
      </trkpt>
      <trkpt lat="45.22964" lon="-0.77432">
        <ele>13.199999809265</ele>
        <time>2015-09-12T08:17:56.000Z</time>
      </trkpt>
      <trkpt lat="45.2298" lon="-0.7745">
        <ele>14</ele>
        <time>2015-09-12T08:18:05.000Z</time>
      </trkpt>
      <trkpt lat="45.22992" lon="-0.77465">
        <ele>15.39999961853</ele>
        <time>2015-09-12T08:18:11.000Z</time>
      </trkpt>
      <trkpt lat="45.23001" lon="-0.77474">
        <ele>16.39999961853</ele>
        <time>2015-09-12T08:18:16.000Z</time>
      </trkpt>
      <trkpt lat="45.23007" lon="-0.77483">
        <ele>17.200000762939</ele>
        <time>2015-09-12T08:18:23.000Z</time>
      </trkpt>
      <trkpt lat="45.23019" lon="-0.77498">
        <ele>18.39999961853</ele>
        <time>2015-09-12T08:18:30.000Z</time>
      </trkpt>
      <trkpt lat="45.23027" lon="-0.77509">
        <ele>19.39999961853</ele>
        <time>2015-09-12T08:18:35.000Z</time>
      </trkpt>
      <trkpt lat="45.23036" lon="-0.77526">
        <ele>21</ele>
        <time>2015-09-12T08:18:42.000Z</time>
      </trkpt>
      <trkpt lat="45.23043" lon="-0.77542">
        <ele>22.200000762939</ele>
        <time>2015-09-12T08:18:48.000Z</time>
      </trkpt>
      <trkpt lat="45.23046" lon="-0.77556">
        <ele>23</ele>
        <time>2015-09-12T08:18:53.000Z</time>
      </trkpt>
      <trkpt lat="45.2305" lon="-0.77573">
        <ele>22.39999961853</ele>
        <time>2015-09-12T08:18:59.000Z</time>
      </trkpt>
      <trkpt lat="45.23052" lon="-0.77593">
        <ele>22</ele>
        <time>2015-09-12T08:19:06.000Z</time>
      </trkpt>
      <trkpt lat="45.23052" lon="-0.77611">
        <ele>21.39999961853</ele>
        <time>2015-09-12T08:19:12.000Z</time>
      </trkpt>
      <trkpt lat="45.23053" lon="-0.77629">
        <ele>21</ele>
        <time>2015-09-12T08:19:18.000Z</time>
      </trkpt>
      <trkpt lat="45.23055" lon="-0.77644">
        <ele>21</ele>
        <time>2015-09-12T08:19:23.000Z</time>
      </trkpt>
      <trkpt lat="45.23056" lon="-0.77649">
        <ele>21</ele>
        <time>2015-09-12T08:19:25.000Z</time>
      </trkpt>
      <trkpt lat="45.23064" lon="-0.77657">
        <ele>21</ele>
        <time>2015-09-12T08:19:31.000Z</time>
      </trkpt>
      <trkpt lat="45.23067" lon="-0.77658">
        <ele>21</ele>
        <time>2015-09-12T08:19:33.000Z</time>
      </trkpt>
      <trkpt lat="45.23078" lon="-0.77661">
        <ele>21</ele>
        <time>2015-09-12T08:19:39.000Z</time>
      </trkpt>
      <trkpt lat="45.23091" lon="-0.77664">
        <ele>21</ele>
        <time>2015-09-12T08:19:45.000Z</time>
      </trkpt>
      <trkpt lat="45.23103" lon="-0.77669">
        <ele>21</ele>
        <time>2015-09-12T08:19:50.000Z</time>
      </trkpt>
      <trkpt lat="45.23119" lon="-0.77675">
        <ele>21.39999961853</ele>
        <time>2015-09-12T08:19:57.000Z</time>
      </trkpt>
      <trkpt lat="45.2313" lon="-0.77677">
        <ele>21.39999961853</ele>
        <time>2015-09-12T08:20:03.000Z</time>
      </trkpt>
      <trkpt lat="45.23138" lon="-0.77679">
        <ele>21.39999961853</ele>
        <time>2015-09-12T08:20:11.000Z</time>
      </trkpt>
      <trkpt lat="45.23145" lon="-0.77681">
        <ele>21.39999961853</ele>
        <time>2015-09-12T08:20:17.000Z</time>
      </trkpt>
      <trkpt lat="45.23155" lon="-0.77682">
        <ele>21.200000762939</ele>
        <time>2015-09-12T08:20:23.000Z</time>
      </trkpt>
      <trkpt lat="45.23168" lon="-0.77683">
        <ele>21</ele>
        <time>2015-09-12T08:20:29.000Z</time>
      </trkpt>
      <trkpt lat="45.2318" lon="-0.77683">
        <ele>20.799999237061</ele>
        <time>2015-09-12T08:20:34.000Z</time>
      </trkpt>
      <trkpt lat="45.23192" lon="-0.77685">
        <ele>20.39999961853</ele>
        <time>2015-09-12T08:20:39.000Z</time>
      </trkpt>
      <trkpt lat="45.23209" lon="-0.77687">
        <ele>20</ele>
        <time>2015-09-12T08:20:46.000Z</time>
      </trkpt>
      <trkpt lat="45.23228" lon="-0.77688">
        <ele>19.60000038147</ele>
        <time>2015-09-12T08:20:54.000Z</time>
      </trkpt>
      <trkpt lat="45.23244" lon="-0.77688">
        <ele>19.200000762939</ele>
        <time>2015-09-12T08:21:01.000Z</time>
      </trkpt>
      <trkpt lat="45.23259" lon="-0.77687">
        <ele>18.799999237061</ele>
        <time>2015-09-12T08:21:07.000Z</time>
      </trkpt>
      <trkpt lat="45.23269" lon="-0.77682">
        <ele>18.60000038147</ele>
        <time>2015-09-12T08:21:11.000Z</time>
      </trkpt>
      <trkpt lat="45.23283" lon="-0.77677">
        <ele>18.200000762939</ele>
        <time>2015-09-12T08:21:17.000Z</time>
      </trkpt>
      <trkpt lat="45.23299" lon="-0.7767">
        <ele>17.799999237061</ele>
        <time>2015-09-12T08:21:24.000Z</time>
      </trkpt>
      <trkpt lat="45.23314" lon="-0.77663">
        <ele>17</ele>
        <time>2015-09-12T08:21:31.000Z</time>
      </trkpt>
      <trkpt lat="45.23328" lon="-0.77657">
        <ele>16</ele>
        <time>2015-09-12T08:21:37.000Z</time>
      </trkpt>
      <trkpt lat="45.23341" lon="-0.77651">
        <ele>15.199999809265</ele>
        <time>2015-09-12T08:21:43.000Z</time>
      </trkpt>
      <trkpt lat="45.23354" lon="-0.77645">
        <ele>14.60000038147</ele>
        <time>2015-09-12T08:21:49.000Z</time>
      </trkpt>
      <trkpt lat="45.2337" lon="-0.77638">
        <ele>13.60000038147</ele>
        <time>2015-09-12T08:21:56.000Z</time>
      </trkpt>
      <trkpt lat="45.23383" lon="-0.77632">
        <ele>12.800000190735</ele>
        <time>2015-09-12T08:22:02.000Z</time>
      </trkpt>
      <trkpt lat="45.23402" lon="-0.77622">
        <ele>12.199999809265</ele>
        <time>2015-09-12T08:22:10.000Z</time>
      </trkpt>
      <trkpt lat="45.23415" lon="-0.77616">
        <ele>11.800000190735</ele>
        <time>2015-09-12T08:22:16.000Z</time>
      </trkpt>
      <trkpt lat="45.23432" lon="-0.77606">
        <ele>11.39999961853</ele>
        <time>2015-09-12T08:22:23.000Z</time>
      </trkpt>
      <trkpt lat="45.23443" lon="-0.77599">
        <ele>11</ele>
        <time>2015-09-12T08:22:28.000Z</time>
      </trkpt>
      <trkpt lat="45.2346" lon="-0.77587">
        <ele>10.39999961853</ele>
        <time>2015-09-12T08:22:36.000Z</time>
      </trkpt>
      <trkpt lat="45.23474" lon="-0.77578">
        <ele>10</ele>
        <time>2015-09-12T08:22:42.000Z</time>
      </trkpt>
      <trkpt lat="45.23488" lon="-0.77568">
        <ele>9.6000003814697</ele>
        <time>2015-09-12T08:22:48.000Z</time>
      </trkpt>
      <trkpt lat="45.23505" lon="-0.77556">
        <ele>9</ele>
        <time>2015-09-12T08:22:56.000Z</time>
      </trkpt>
      <trkpt lat="45.23519" lon="-0.77546">
        <ele>8.6000003814697</ele>
        <time>2015-09-12T08:23:02.000Z</time>
      </trkpt>
      <trkpt lat="45.23534" lon="-0.77534">
        <ele>8</ele>
        <time>2015-09-12T08:23:09.000Z</time>
      </trkpt>
      <trkpt lat="45.23548" lon="-0.77525">
        <ele>7.5999999046326</ele>
        <time>2015-09-12T08:23:16.000Z</time>
      </trkpt>
      <trkpt lat="45.23557" lon="-0.77518">
        <ele>7.5999999046326</ele>
        <time>2015-09-12T08:23:20.000Z</time>
      </trkpt>
      <trkpt lat="45.23568" lon="-0.77512">
        <ele>7.4000000953674</ele>
        <time>2015-09-12T08:23:25.000Z</time>
      </trkpt>
      <trkpt lat="45.23583" lon="-0.77504">
        <ele>7.4000000953674</ele>
        <time>2015-09-12T08:23:32.000Z</time>
      </trkpt>
      <trkpt lat="45.23596" lon="-0.77499">
        <ele>7.4000000953674</ele>
        <time>2015-09-12T08:23:39.000Z</time>
      </trkpt>
      <trkpt lat="45.23609" lon="-0.77494">
        <ele>7.1999998092651</ele>
        <time>2015-09-12T08:23:45.000Z</time>
      </trkpt>
      <trkpt lat="45.23637" lon="-0.77481">
        <ele>7</ele>
        <time>2015-09-12T08:23:58.000Z</time>
      </trkpt>
      <trkpt lat="45.23652" lon="-0.77472">
        <ele>6.8000001907349</ele>
        <time>2015-09-12T08:24:05.000Z</time>
      </trkpt>
      <trkpt lat="45.23663" lon="-0.77466">
        <ele>6.5999999046326</ele>
        <time>2015-09-12T08:24:10.000Z</time>
      </trkpt>
      <trkpt lat="45.23676" lon="-0.77461">
        <ele>6.5999999046326</ele>
        <time>2015-09-12T08:24:15.000Z</time>
      </trkpt>
      <trkpt lat="45.2369" lon="-0.77455">
        <ele>6.4000000953674</ele>
        <time>2015-09-12T08:24:21.000Z</time>
      </trkpt>
      <trkpt lat="45.23706" lon="-0.77449">
        <ele>6.4000000953674</ele>
        <time>2015-09-12T08:24:28.000Z</time>
      </trkpt>
      <trkpt lat="45.2372" lon="-0.77442">
        <ele>6.1999998092651</ele>
        <time>2015-09-12T08:24:34.000Z</time>
      </trkpt>
      <trkpt lat="45.23736" lon="-0.77437">
        <ele>5.8000001907349</ele>
        <time>2015-09-12T08:24:41.000Z</time>
      </trkpt>
      <trkpt lat="45.2375" lon="-0.77434">
        <ele>5.5999999046326</ele>
        <time>2015-09-12T08:24:47.000Z</time>
      </trkpt>
      <trkpt lat="45.23778" lon="-0.77426">
        <ele>5.4000000953674</ele>
        <time>2015-09-12T08:25:00.000Z</time>
      </trkpt>
      <trkpt lat="45.23789" lon="-0.77424">
        <ele>5.4000000953674</ele>
        <time>2015-09-12T08:25:05.000Z</time>
      </trkpt>
      <trkpt lat="45.23798" lon="-0.77418">
        <ele>5.4000000953674</ele>
        <time>2015-09-12T08:25:10.000Z</time>
      </trkpt>
      <trkpt lat="45.23801" lon="-0.77408">
        <ele>5.4000000953674</ele>
        <time>2015-09-12T08:25:14.000Z</time>
      </trkpt>
      <trkpt lat="45.23809" lon="-0.77396">
        <ele>5.8000001907349</ele>
        <time>2015-09-12T08:25:20.000Z</time>
      </trkpt>
      <trkpt lat="45.23811" lon="-0.77391">
        <ele>5.8000001907349</ele>
        <time>2015-09-12T08:25:22.000Z</time>
      </trkpt>
      <trkpt lat="45.23817" lon="-0.77381">
        <ele>6.4000000953674</ele>
        <time>2015-09-12T08:25:27.000Z</time>
      </trkpt>
      <trkpt lat="45.23822" lon="-0.77375">
        <ele>6.8000001907349</ele>
        <time>2015-09-12T08:25:30.000Z</time>
      </trkpt>
      <trkpt lat="45.2383" lon="-0.7736">
        <ele>8</ele>
        <time>2015-09-12T08:25:37.000Z</time>
      </trkpt>
      <trkpt lat="45.23836" lon="-0.77351">
        <ele>8.6000003814697</ele>
        <time>2015-09-12T08:25:41.000Z</time>
      </trkpt>
      <trkpt lat="45.2384" lon="-0.77345">
        <ele>9.1999998092651</ele>
        <time>2015-09-12T08:25:45.000Z</time>
      </trkpt>
      <trkpt lat="45.23846" lon="-0.77333">
        <ele>10</ele>
        <time>2015-09-12T08:25:50.000Z</time>
      </trkpt>
      <trkpt lat="45.23849" lon="-0.77326">
        <ele>10.60000038147</ele>
        <time>2015-09-12T08:25:53.000Z</time>
      </trkpt>
      <trkpt lat="45.23855" lon="-0.77308">
        <ele>11.60000038147</ele>
        <time>2015-09-12T08:26:01.000Z</time>
      </trkpt>
      <trkpt lat="45.23855" lon="-0.77306">
        <ele>11.800000190735</ele>
        <time>2015-09-12T08:26:02.000Z</time>
      </trkpt>
      <trkpt lat="45.23857" lon="-0.773">
        <ele>12.199999809265</ele>
        <time>2015-09-12T08:26:05.000Z</time>
      </trkpt>
      <trkpt lat="45.2386" lon="-0.77289">
        <ele>12.800000190735</ele>
        <time>2015-09-12T08:26:10.000Z</time>
      </trkpt>
      <trkpt lat="45.23861" lon="-0.7728">
        <ele>13.39999961853</ele>
        <time>2015-09-12T08:26:14.000Z</time>
      </trkpt>
      <trkpt lat="45.23865" lon="-0.77268">
        <ele>14</ele>
        <time>2015-09-12T08:26:19.000Z</time>
      </trkpt>
      <trkpt lat="45.23859" lon="-0.77261">
        <ele>14.199999809265</ele>
        <time>2015-09-12T08:26:24.000Z</time>
      </trkpt>
      <trkpt lat="45.23854" lon="-0.77261">
        <ele>14</ele>
        <time>2015-09-12T08:26:27.000Z</time>
      </trkpt>
      <trkpt lat="45.23847" lon="-0.77255">
        <ele>13.800000190735</ele>
        <time>2015-09-12T08:26:33.000Z</time>
      </trkpt>
      <trkpt lat="45.23847" lon="-0.77253">
        <ele>14</ele>
        <time>2015-09-12T08:26:34.000Z</time>
      </trkpt>
      <trkpt lat="45.23845" lon="-0.77249">
        <ele>14.199999809265</ele>
        <time>2015-09-12T08:26:36.000Z</time>
      </trkpt>
      <trkpt lat="45.23844" lon="-0.77234">
        <ele>15.199999809265</ele>
        <time>2015-09-12T08:26:44.000Z</time>
      </trkpt>
      <trkpt lat="45.23845" lon="-0.77224">
        <ele>16</ele>
        <time>2015-09-12T08:26:49.000Z</time>
      </trkpt>
      <trkpt lat="45.23845" lon="-0.77222">
        <ele>16.200000762939</ele>
        <time>2015-09-12T08:26:50.000Z</time>
      </trkpt>
      <trkpt lat="45.23846" lon="-0.7722">
        <ele>16.200000762939</ele>
        <time>2015-09-12T08:26:52.000Z</time>
      </trkpt>
      <trkpt lat="45.23847" lon="-0.77215">
        <ele>16.200000762939</ele>
        <time>2015-09-12T08:26:56.000Z</time>
      </trkpt>
      <trkpt lat="45.23849" lon="-0.77204">
        <ele>16</ele>
        <time>2015-09-12T08:27:00.000Z</time>
      </trkpt>
      <trkpt lat="45.23848" lon="-0.77192">
        <ele>16</ele>
        <time>2015-09-12T08:27:04.000Z</time>
      </trkpt>
      <trkpt lat="45.23848" lon="-0.77188">
        <ele>15.800000190735</ele>
        <time>2015-09-12T08:27:06.000Z</time>
      </trkpt>
      <trkpt lat="45.23854" lon="-0.77186">
        <ele>16</ele>
        <time>2015-09-12T08:27:11.000Z</time>
      </trkpt>
      <trkpt lat="45.2386" lon="-0.77187">
        <ele>16.200000762939</ele>
        <time>2015-09-12T08:27:14.000Z</time>
      </trkpt>
      <trkpt lat="45.23872" lon="-0.77188">
        <ele>16.39999961853</ele>
        <time>2015-09-12T08:27:20.000Z</time>
      </trkpt>
      <trkpt lat="45.23879" lon="-0.77186">
        <ele>16.60000038147</ele>
        <time>2015-09-12T08:27:23.000Z</time>
      </trkpt>
      <trkpt lat="45.23881" lon="-0.77172">
        <ele>16.39999961853</ele>
        <time>2015-09-12T08:27:28.000Z</time>
      </trkpt>
      <trkpt lat="45.2388" lon="-0.77157">
        <ele>16.200000762939</ele>
        <time>2015-09-12T08:27:33.000Z</time>
      </trkpt>
      <trkpt lat="45.2388" lon="-0.77154">
        <ele>16.200000762939</ele>
        <time>2015-09-12T08:27:34.000Z</time>
      </trkpt>
      <trkpt lat="45.23879" lon="-0.77131">
        <ele>16</ele>
        <time>2015-09-12T08:27:41.000Z</time>
      </trkpt>
      <trkpt lat="45.23877" lon="-0.77118">
        <ele>15.800000190735</ele>
        <time>2015-09-12T08:27:46.000Z</time>
      </trkpt>
      <trkpt lat="45.23877" lon="-0.77104">
        <ele>15.60000038147</ele>
        <time>2015-09-12T08:27:51.000Z</time>
      </trkpt>
      <trkpt lat="45.23875" lon="-0.77089">
        <ele>15.39999961853</ele>
        <time>2015-09-12T08:27:56.000Z</time>
      </trkpt>
      <trkpt lat="45.23869" lon="-0.77074">
        <ele>15</ele>
        <time>2015-09-12T08:28:02.000Z</time>
      </trkpt>
      <trkpt lat="45.23864" lon="-0.77061">
        <ele>14.60000038147</ele>
        <time>2015-09-12T08:28:07.000Z</time>
      </trkpt>
      <trkpt lat="45.23863" lon="-0.77044">
        <ele>14</ele>
        <time>2015-09-12T08:28:12.000Z</time>
      </trkpt>
      <trkpt lat="45.2386" lon="-0.77028">
        <ele>13.800000190735</ele>
        <time>2015-09-12T08:28:17.000Z</time>
      </trkpt>
      <trkpt lat="45.23858" lon="-0.77014">
        <ele>13.39999961853</ele>
        <time>2015-09-12T08:28:22.000Z</time>
      </trkpt>
      <trkpt lat="45.23857" lon="-0.77008">
        <ele>13.39999961853</ele>
        <time>2015-09-12T08:28:24.000Z</time>
      </trkpt>
      <trkpt lat="45.23854" lon="-0.76987">
        <ele>13.39999961853</ele>
        <time>2015-09-12T08:28:31.000Z</time>
      </trkpt>
      <trkpt lat="45.2385" lon="-0.76971">
        <ele>13.60000038147</ele>
        <time>2015-09-12T08:28:36.000Z</time>
      </trkpt>
      <trkpt lat="45.23845" lon="-0.76954">
        <ele>13.60000038147</ele>
        <time>2015-09-12T08:28:42.000Z</time>
      </trkpt>
      <trkpt lat="45.23838" lon="-0.76935">
        <ele>13.60000038147</ele>
        <time>2015-09-12T08:28:49.000Z</time>
      </trkpt>
      <trkpt lat="45.23829" lon="-0.76912">
        <ele>15</ele>
        <time>2015-09-12T08:28:57.000Z</time>
      </trkpt>
      <trkpt lat="45.23824" lon="-0.76896">
        <ele>16.200000762939</ele>
        <time>2015-09-12T08:29:03.000Z</time>
      </trkpt>
      <trkpt lat="45.23824" lon="-0.76893">
        <ele>16.39999961853</ele>
        <time>2015-09-12T08:29:04.000Z</time>
      </trkpt>
      <trkpt lat="45.23831" lon="-0.7689">
        <ele>16.200000762939</ele>
        <time>2015-09-12T08:29:09.000Z</time>
      </trkpt>
      <trkpt lat="45.23832" lon="-0.76891">
        <ele>16</ele>
        <time>2015-09-12T08:29:10.000Z</time>
      </trkpt>
      <trkpt lat="45.23846" lon="-0.76895">
        <ele>15.199999809265</ele>
        <time>2015-09-12T08:29:17.000Z</time>
      </trkpt>
      <trkpt lat="45.23861" lon="-0.76898">
        <ele>14.199999809265</ele>
        <time>2015-09-12T08:29:24.000Z</time>
      </trkpt>
      <trkpt lat="45.2387" lon="-0.76901">
        <ele>13.800000190735</ele>
        <time>2015-09-12T08:29:28.000Z</time>
      </trkpt>
      <trkpt lat="45.23882" lon="-0.76908">
        <ele>14.199999809265</ele>
        <time>2015-09-12T08:29:34.000Z</time>
      </trkpt>
      <trkpt lat="45.23894" lon="-0.76919">
        <ele>14.60000038147</ele>
        <time>2015-09-12T08:29:40.000Z</time>
      </trkpt>
      <trkpt lat="45.23905" lon="-0.76931">
        <ele>15</ele>
        <time>2015-09-12T08:29:46.000Z</time>
      </trkpt>
      <trkpt lat="45.23915" lon="-0.76941">
        <ele>15.199999809265</ele>
        <time>2015-09-12T08:29:51.000Z</time>
      </trkpt>
      <trkpt lat="45.23931" lon="-0.76957">
        <ele>15.800000190735</ele>
        <time>2015-09-12T08:30:00.000Z</time>
      </trkpt>
      <trkpt lat="45.23946" lon="-0.76965">
        <ele>16.39999961853</ele>
        <time>2015-09-12T08:30:06.000Z</time>
      </trkpt>
      <trkpt lat="45.23965" lon="-0.7697">
        <ele>17</ele>
        <time>2015-09-12T08:30:14.000Z</time>
      </trkpt>
      <trkpt lat="45.23981" lon="-0.76973">
        <ele>17.39999961853</ele>
        <time>2015-09-12T08:30:21.000Z</time>
      </trkpt>
      <trkpt lat="45.23994" lon="-0.76975">
        <ele>17.799999237061</ele>
        <time>2015-09-12T08:30:27.000Z</time>
      </trkpt>
      <trkpt lat="45.24012" lon="-0.76978">
        <ele>18.200000762939</ele>
        <time>2015-09-12T08:30:35.000Z</time>
      </trkpt>
      <trkpt lat="45.24021" lon="-0.76989">
        <ele>18.39999961853</ele>
        <time>2015-09-12T08:30:41.000Z</time>
      </trkpt>
      <trkpt lat="45.24021" lon="-0.77008">
        <ele>18.39999961853</ele>
        <time>2015-09-12T08:30:47.000Z</time>
      </trkpt>
      <trkpt lat="45.24021" lon="-0.77027">
        <ele>18.39999961853</ele>
        <time>2015-09-12T08:30:53.000Z</time>
      </trkpt>
      <trkpt lat="45.2402" lon="-0.77046">
        <ele>18.39999961853</ele>
        <time>2015-09-12T08:30:59.000Z</time>
      </trkpt>
      <trkpt lat="45.24019" lon="-0.77062">
        <ele>18.39999961853</ele>
        <time>2015-09-12T08:31:04.000Z</time>
      </trkpt>
      <trkpt lat="45.24019" lon="-0.77065">
        <ele>18.39999961853</ele>
        <time>2015-09-12T08:31:05.000Z</time>
      </trkpt>
      <trkpt lat="45.24019" lon="-0.77087">
        <ele>18.39999961853</ele>
        <time>2015-09-12T08:31:12.000Z</time>
      </trkpt>
      <trkpt lat="45.24019" lon="-0.7709">
        <ele>18.39999961853</ele>
        <time>2015-09-12T08:31:13.000Z</time>
      </trkpt>
      <trkpt lat="45.24021" lon="-0.77111">
        <ele>18.39999961853</ele>
        <time>2015-09-12T08:31:20.000Z</time>
      </trkpt>
      <trkpt lat="45.24022" lon="-0.77127">
        <ele>18.39999961853</ele>
        <time>2015-09-12T08:31:25.000Z</time>
      </trkpt>
      <trkpt lat="45.24024" lon="-0.77141">
        <ele>18.39999961853</ele>
        <time>2015-09-12T08:31:30.000Z</time>
      </trkpt>
      <trkpt lat="45.24025" lon="-0.77159">
        <ele>18.200000762939</ele>
        <time>2015-09-12T08:31:36.000Z</time>
      </trkpt>
      <trkpt lat="45.24028" lon="-0.77176">
        <ele>17.60000038147</ele>
        <time>2015-09-12T08:31:42.000Z</time>
      </trkpt>
      <trkpt lat="45.2403" lon="-0.77201">
        <ele>16.799999237061</ele>
        <time>2015-09-12T08:31:50.000Z</time>
      </trkpt>
      <trkpt lat="45.24031" lon="-0.77228">
        <ele>15.800000190735</ele>
        <time>2015-09-12T08:31:58.000Z</time>
      </trkpt>
      <trkpt lat="45.24031" lon="-0.77251">
        <ele>15.199999809265</ele>
        <time>2015-09-12T08:32:05.000Z</time>
      </trkpt>
      <trkpt lat="45.24031" lon="-0.77271">
        <ele>14.800000190735</ele>
        <time>2015-09-12T08:32:11.000Z</time>
      </trkpt>
      <trkpt lat="45.24031" lon="-0.77287">
        <ele>14.39999961853</ele>
        <time>2015-09-12T08:32:16.000Z</time>
      </trkpt>
      <trkpt lat="45.24028" lon="-0.77314">
        <ele>13.800000190735</ele>
        <time>2015-09-12T08:32:24.000Z</time>
      </trkpt>
      <trkpt lat="45.24026" lon="-0.77332">
        <ele>13.39999961853</ele>
        <time>2015-09-12T08:32:30.000Z</time>
      </trkpt>
      <trkpt lat="45.24023" lon="-0.77351">
        <ele>12.800000190735</ele>
        <time>2015-09-12T08:32:36.000Z</time>
      </trkpt>
      <trkpt lat="45.24021" lon="-0.77367">
        <ele>12.39999961853</ele>
        <time>2015-09-12T08:32:41.000Z</time>
      </trkpt>
      <trkpt lat="45.24021" lon="-0.77384">
        <ele>12.199999809265</ele>
        <time>2015-09-12T08:32:46.000Z</time>
      </trkpt>
      <trkpt lat="45.2402" lon="-0.77421">
        <ele>12</ele>
        <time>2015-09-12T08:32:57.000Z</time>
      </trkpt>
      <trkpt lat="45.24019" lon="-0.77445">
        <ele>12</ele>
        <time>2015-09-12T08:33:04.000Z</time>
      </trkpt>
      <trkpt lat="45.24019" lon="-0.77468">
        <ele>12</ele>
        <time>2015-09-12T08:33:11.000Z</time>
      </trkpt>
      <trkpt lat="45.24019" lon="-0.77488">
        <ele>12.60000038147</ele>
        <time>2015-09-12T08:33:17.000Z</time>
      </trkpt>
      <trkpt lat="45.2402" lon="-0.77503">
        <ele>13</ele>
        <time>2015-09-12T08:33:22.000Z</time>
      </trkpt>
      <trkpt lat="45.24018" lon="-0.77524">
        <ele>13.199999809265</ele>
        <time>2015-09-12T08:33:29.000Z</time>
      </trkpt>
      <trkpt lat="45.24016" lon="-0.77544">
        <ele>13.60000038147</ele>
        <time>2015-09-12T08:33:35.000Z</time>
      </trkpt>
      <trkpt lat="45.24012" lon="-0.77565">
        <ele>14</ele>
        <time>2015-09-12T08:33:42.000Z</time>
      </trkpt>
      <trkpt lat="45.24008" lon="-0.77583">
        <ele>14.60000038147</ele>
        <time>2015-09-12T08:33:48.000Z</time>
      </trkpt>
      <trkpt lat="45.24003" lon="-0.77604">
        <ele>15.199999809265</ele>
        <time>2015-09-12T08:33:55.000Z</time>
      </trkpt>
      <trkpt lat="45.23999" lon="-0.77625">
        <ele>15.800000190735</ele>
        <time>2015-09-12T08:34:02.000Z</time>
      </trkpt>
      <trkpt lat="45.23995" lon="-0.77646">
        <ele>16.200000762939</ele>
        <time>2015-09-12T08:34:09.000Z</time>
      </trkpt>
      <trkpt lat="45.23992" lon="-0.77661">
        <ele>16.200000762939</ele>
        <time>2015-09-12T08:34:14.000Z</time>
      </trkpt>
      <trkpt lat="45.23987" lon="-0.77688">
        <ele>16.39999961853</ele>
        <time>2015-09-12T08:34:22.000Z</time>
      </trkpt>
      <trkpt lat="45.23985" lon="-0.77711">
        <ele>17</ele>
        <time>2015-09-12T08:34:29.000Z</time>
      </trkpt>
      <trkpt lat="45.23985" lon="-0.7773">
        <ele>17.60000038147</ele>
        <time>2015-09-12T08:34:35.000Z</time>
      </trkpt>
      <trkpt lat="45.23987" lon="-0.77752">
        <ele>17.60000038147</ele>
        <time>2015-09-12T08:34:42.000Z</time>
      </trkpt>
      <trkpt lat="45.23991" lon="-0.77774">
        <ele>17.60000038147</ele>
        <time>2015-09-12T08:34:49.000Z</time>
      </trkpt>
      <trkpt lat="45.23995" lon="-0.7779">
        <ele>17.799999237061</ele>
        <time>2015-09-12T08:34:54.000Z</time>
      </trkpt>
      <trkpt lat="45.24001" lon="-0.77811">
        <ele>18</ele>
        <time>2015-09-12T08:35:01.000Z</time>
      </trkpt>
      <trkpt lat="45.24007" lon="-0.7783">
        <ele>18</ele>
        <time>2015-09-12T08:35:07.000Z</time>
      </trkpt>
      <trkpt lat="45.24011" lon="-0.77846">
        <ele>18</ele>
        <time>2015-09-12T08:35:12.000Z</time>
      </trkpt>
      <trkpt lat="45.24015" lon="-0.77861">
        <ele>18</ele>
        <time>2015-09-12T08:35:17.000Z</time>
      </trkpt>
      <trkpt lat="45.24021" lon="-0.77879">
        <ele>17.799999237061</ele>
        <time>2015-09-12T08:35:23.000Z</time>
      </trkpt>
      <trkpt lat="45.24028" lon="-0.77897">
        <ele>17.799999237061</ele>
        <time>2015-09-12T08:35:29.000Z</time>
      </trkpt>
      <trkpt lat="45.24035" lon="-0.77914">
        <ele>18.200000762939</ele>
        <time>2015-09-12T08:35:36.000Z</time>
      </trkpt>
      <trkpt lat="45.24039" lon="-0.77925">
        <ele>18.39999961853</ele>
        <time>2015-09-12T08:35:41.000Z</time>
      </trkpt>
      <trkpt lat="45.24044" lon="-0.77942">
        <ele>18.60000038147</ele>
        <time>2015-09-12T08:35:47.000Z</time>
      </trkpt>
      <trkpt lat="45.2405" lon="-0.7796">
        <ele>19</ele>
        <time>2015-09-12T08:35:53.000Z</time>
      </trkpt>
      <trkpt lat="45.24054" lon="-0.77975">
        <ele>19</ele>
        <time>2015-09-12T08:35:58.000Z</time>
      </trkpt>
      <trkpt lat="45.24061" lon="-0.77996">
        <ele>19.60000038147</ele>
        <time>2015-09-12T08:36:05.000Z</time>
      </trkpt>
      <trkpt lat="45.24067" lon="-0.78017">
        <ele>20</ele>
        <time>2015-09-12T08:36:12.000Z</time>
      </trkpt>
      <trkpt lat="45.2407" lon="-0.78032">
        <ele>20.39999961853</ele>
        <time>2015-09-12T08:36:17.000Z</time>
      </trkpt>
      <trkpt lat="45.24074" lon="-0.7805">
        <ele>20.799999237061</ele>
        <time>2015-09-12T08:36:23.000Z</time>
      </trkpt>
      <trkpt lat="45.24077" lon="-0.78069">
        <ele>21</ele>
        <time>2015-09-12T08:36:29.000Z</time>
      </trkpt>
      <trkpt lat="45.2408" lon="-0.78094">
        <ele>21</ele>
        <time>2015-09-12T08:36:37.000Z</time>
      </trkpt>
      <trkpt lat="45.2408" lon="-0.78101">
        <ele>21</ele>
        <time>2015-09-12T08:36:39.000Z</time>
      </trkpt>
      <trkpt lat="45.24084" lon="-0.78118">
        <ele>21</ele>
        <time>2015-09-12T08:36:45.000Z</time>
      </trkpt>
      <trkpt lat="45.24084" lon="-0.78121">
        <ele>21</ele>
        <time>2015-09-12T08:36:46.000Z</time>
      </trkpt>
      <trkpt lat="45.24086" lon="-0.78134">
        <ele>21</ele>
        <time>2015-09-12T08:36:51.000Z</time>
      </trkpt>
      <trkpt lat="45.24091" lon="-0.78159">
        <ele>20.799999237061</ele>
        <time>2015-09-12T08:36:59.000Z</time>
      </trkpt>
      <trkpt lat="45.24095" lon="-0.7818">
        <ele>20.60000038147</ele>
        <time>2015-09-12T08:37:06.000Z</time>
      </trkpt>
      <trkpt lat="45.24098" lon="-0.78199">
        <ele>20.60000038147</ele>
        <time>2015-09-12T08:37:12.000Z</time>
      </trkpt>
      <trkpt lat="45.24101" lon="-0.78218">
        <ele>20.60000038147</ele>
        <time>2015-09-12T08:37:18.000Z</time>
      </trkpt>
      <trkpt lat="45.24103" lon="-0.78234">
        <ele>20.60000038147</ele>
        <time>2015-09-12T08:37:23.000Z</time>
      </trkpt>
      <trkpt lat="45.24104" lon="-0.78249">
        <ele>20.39999961853</ele>
        <time>2015-09-12T08:37:28.000Z</time>
      </trkpt>
      <trkpt lat="45.24105" lon="-0.78268">
        <ele>20.200000762939</ele>
        <time>2015-09-12T08:37:34.000Z</time>
      </trkpt>
      <trkpt lat="45.24106" lon="-0.78283">
        <ele>20</ele>
        <time>2015-09-12T08:37:40.000Z</time>
      </trkpt>
      <trkpt lat="45.24107" lon="-0.78286">
        <ele>20</ele>
        <time>2015-09-12T08:37:41.000Z</time>
      </trkpt>
      <trkpt lat="45.24108" lon="-0.78293">
        <ele>19.799999237061</ele>
        <time>2015-09-12T08:37:45.000Z</time>
      </trkpt>
      <trkpt lat="45.24108" lon="-0.78296">
        <ele>19.799999237061</ele>
        <time>2015-09-12T08:37:47.000Z</time>
      </trkpt>
      <trkpt lat="45.24109" lon="-0.78304">
        <ele>19.799999237061</ele>
        <time>2015-09-12T08:37:51.000Z</time>
      </trkpt>
      <trkpt lat="45.2411" lon="-0.78307">
        <ele>19.799999237061</ele>
        <time>2015-09-12T08:37:52.000Z</time>
      </trkpt>
      <trkpt lat="45.24111" lon="-0.78329">
        <ele>19.60000038147</ele>
        <time>2015-09-12T08:37:59.000Z</time>
      </trkpt>
      <trkpt lat="45.24112" lon="-0.78349">
        <ele>19.60000038147</ele>
        <time>2015-09-12T08:38:05.000Z</time>
      </trkpt>
      <trkpt lat="45.24116" lon="-0.78371">
        <ele>19.60000038147</ele>
        <time>2015-09-12T08:38:12.000Z</time>
      </trkpt>
      <trkpt lat="45.24118" lon="-0.78392">
        <ele>19.799999237061</ele>
        <time>2015-09-12T08:38:18.000Z</time>
      </trkpt>
      <trkpt lat="45.24122" lon="-0.78412">
        <ele>19.60000038147</ele>
        <time>2015-09-12T08:38:24.000Z</time>
      </trkpt>
      <trkpt lat="45.24127" lon="-0.78433">
        <ele>19.39999961853</ele>
        <time>2015-09-12T08:38:31.000Z</time>
      </trkpt>
      <trkpt lat="45.24131" lon="-0.78454">
        <ele>19.200000762939</ele>
        <time>2015-09-12T08:38:37.000Z</time>
      </trkpt>
      <trkpt lat="45.24134" lon="-0.78472">
        <ele>19.200000762939</ele>
        <time>2015-09-12T08:38:42.000Z</time>
      </trkpt>
      <trkpt lat="45.24138" lon="-0.78485">
        <ele>19.39999961853</ele>
        <time>2015-09-12T08:38:46.000Z</time>
      </trkpt>
      <trkpt lat="45.24144" lon="-0.78508">
        <ele>19.799999237061</ele>
        <time>2015-09-12T08:38:53.000Z</time>
      </trkpt>
      <trkpt lat="45.24148" lon="-0.78525">
        <ele>20</ele>
        <time>2015-09-12T08:38:58.000Z</time>
      </trkpt>
      <trkpt lat="45.24149" lon="-0.78544">
        <ele>19.60000038147</ele>
        <time>2015-09-12T08:39:05.000Z</time>
      </trkpt>
      <trkpt lat="45.24141" lon="-0.78547">
        <ele>19.39999961853</ele>
        <time>2015-09-12T08:39:09.000Z</time>
      </trkpt>
      <trkpt lat="45.24138" lon="-0.78547">
        <ele>19.39999961853</ele>
        <time>2015-09-12T08:39:10.000Z</time>
      </trkpt>
      <trkpt lat="45.24123" lon="-0.7855">
        <ele>19</ele>
        <time>2015-09-12T08:39:17.000Z</time>
      </trkpt>
      <trkpt lat="45.24111" lon="-0.78553">
        <ele>18.799999237061</ele>
        <time>2015-09-12T08:39:23.000Z</time>
      </trkpt>
      <trkpt lat="45.24095" lon="-0.78556">
        <ele>18.60000038147</ele>
        <time>2015-09-12T08:39:30.000Z</time>
      </trkpt>
      <trkpt lat="45.24078" lon="-0.78558">
        <ele>18.39999961853</ele>
        <time>2015-09-12T08:39:38.000Z</time>
      </trkpt>
      <trkpt lat="45.24064" lon="-0.78562">
        <ele>18.200000762939</ele>
        <time>2015-09-12T08:39:46.000Z</time>
      </trkpt>
      <trkpt lat="45.24057" lon="-0.78566">
        <ele>18.200000762939</ele>
        <time>2015-09-12T08:39:50.000Z</time>
      </trkpt>
      <trkpt lat="45.24056" lon="-0.78585">
        <ele>18.200000762939</ele>
        <time>2015-09-12T08:39:57.000Z</time>
      </trkpt>
      <trkpt lat="45.24061" lon="-0.78609">
        <ele>18.200000762939</ele>
        <time>2015-09-12T08:40:06.000Z</time>
      </trkpt>
      <trkpt lat="45.24066" lon="-0.7863">
        <ele>18.200000762939</ele>
        <time>2015-09-12T08:40:14.000Z</time>
      </trkpt>
      <trkpt lat="45.2407" lon="-0.78648">
        <ele>18.39999961853</ele>
        <time>2015-09-12T08:40:21.000Z</time>
      </trkpt>
      <trkpt lat="45.24073" lon="-0.78665">
        <ele>18.60000038147</ele>
        <time>2015-09-12T08:40:28.000Z</time>
      </trkpt>
      <trkpt lat="45.24074" lon="-0.78677">
        <ele>18.799999237061</ele>
        <time>2015-09-12T08:40:34.000Z</time>
      </trkpt>
      <trkpt lat="45.24073" lon="-0.78693">
        <ele>19</ele>
        <time>2015-09-12T08:40:42.000Z</time>
      </trkpt>
      <trkpt lat="45.24072" lon="-0.78704">
        <ele>19.200000762939</ele>
        <time>2015-09-12T08:40:49.000Z</time>
      </trkpt>
      <trkpt lat="45.24074" lon="-0.78712">
        <ele>19.39999961853</ele>
        <time>2015-09-12T08:40:55.000Z</time>
      </trkpt>
      <trkpt lat="45.24074" lon="-0.78713">
        <ele>19.39999961853</ele>
        <time>2015-09-12T08:40:56.000Z</time>
      </trkpt>
      <trkpt lat="45.24083" lon="-0.78715">
        <ele>19.799999237061</ele>
        <time>2015-09-12T08:41:03.000Z</time>
      </trkpt>
      <trkpt lat="45.24093" lon="-0.78714">
        <ele>20</ele>
        <time>2015-09-12T08:41:10.000Z</time>
      </trkpt>
      <trkpt lat="45.24105" lon="-0.78714">
        <ele>20.200000762939</ele>
        <time>2015-09-12T08:41:18.000Z</time>
      </trkpt>
      <trkpt lat="45.24108" lon="-0.78714">
        <ele>20.39999961853</ele>
        <time>2015-09-12T08:41:23.000Z</time>
      </trkpt>
      <trkpt lat="45.24108" lon="-0.78714">
        <ele>20.39999961853</ele>
        <time>2015-09-12T08:41:25.000Z</time>
      </trkpt>
      <trkpt lat="45.24117" lon="-0.78715">
        <ele>20.60000038147</ele>
        <time>2015-09-12T08:41:32.000Z</time>
      </trkpt>
      <trkpt lat="45.24126" lon="-0.78716">
        <ele>20.799999237061</ele>
        <time>2015-09-12T08:41:40.000Z</time>
      </trkpt>
      <trkpt lat="45.24136" lon="-0.78717">
        <ele>20.799999237061</ele>
        <time>2015-09-12T08:41:49.000Z</time>
      </trkpt>
      <trkpt lat="45.24146" lon="-0.78718">
        <ele>20.60000038147</ele>
        <time>2015-09-12T08:41:58.000Z</time>
      </trkpt>
      <trkpt lat="45.24156" lon="-0.78715">
        <ele>20.200000762939</ele>
        <time>2015-09-12T08:42:06.000Z</time>
      </trkpt>
      <trkpt lat="45.24161" lon="-0.78705">
        <ele>20</ele>
        <time>2015-09-12T08:42:12.000Z</time>
      </trkpt>
      <trkpt lat="45.24167" lon="-0.7869">
        <ele>19.799999237061</ele>
        <time>2015-09-12T08:42:17.000Z</time>
      </trkpt>
      <trkpt lat="45.24169" lon="-0.78684">
        <ele>19.60000038147</ele>
        <time>2015-09-12T08:42:19.000Z</time>
      </trkpt>
      <trkpt lat="45.24171" lon="-0.78671">
        <ele>19.200000762939</ele>
        <time>2015-09-12T08:42:24.000Z</time>
      </trkpt>
      <trkpt lat="45.24172" lon="-0.78668">
        <ele>19.200000762939</ele>
        <time>2015-09-12T08:42:25.000Z</time>
      </trkpt>
      <trkpt lat="45.24175" lon="-0.78666">
        <ele>19.200000762939</ele>
        <time>2015-09-12T08:42:27.000Z</time>
      </trkpt>
      <trkpt lat="45.24175" lon="-0.78654">
        <ele>18.799999237061</ele>
        <time>2015-09-12T08:42:34.000Z</time>
      </trkpt>
      <trkpt lat="45.24175" lon="-0.78652">
        <ele>18.799999237061</ele>
        <time>2015-09-12T08:42:35.000Z</time>
      </trkpt>
      <trkpt lat="45.24174" lon="-0.78638">
        <ele>18.39999961853</ele>
        <time>2015-09-12T08:42:40.000Z</time>
      </trkpt>
      <trkpt lat="45.24173" lon="-0.78623">
        <ele>18.799999237061</ele>
        <time>2015-09-12T08:42:45.000Z</time>
      </trkpt>
      <trkpt lat="45.24169" lon="-0.78596">
        <ele>19.39999961853</ele>
        <time>2015-09-12T08:42:53.000Z</time>
      </trkpt>
      <trkpt lat="45.24166" lon="-0.78574">
        <ele>19.39999961853</ele>
        <time>2015-09-12T08:42:59.000Z</time>
      </trkpt>
      <trkpt lat="45.24163" lon="-0.78559">
        <ele>19.39999961853</ele>
        <time>2015-09-12T08:43:04.000Z</time>
      </trkpt>
      <trkpt lat="45.24164" lon="-0.78546">
        <ele>19.799999237061</ele>
        <time>2015-09-12T08:43:08.000Z</time>
      </trkpt>
      <trkpt lat="45.24173" lon="-0.78538">
        <ele>20.200000762939</ele>
        <time>2015-09-12T08:43:13.000Z</time>
      </trkpt>
      <trkpt lat="45.24188" lon="-0.78536">
        <ele>20.39999961853</ele>
        <time>2015-09-12T08:43:20.000Z</time>
      </trkpt>
      <trkpt lat="45.24203" lon="-0.78534">
        <ele>20.60000038147</ele>
        <time>2015-09-12T08:43:27.000Z</time>
      </trkpt>
      <trkpt lat="45.24217" lon="-0.78532">
        <ele>20.799999237061</ele>
        <time>2015-09-12T08:43:33.000Z</time>
      </trkpt>
      <trkpt lat="45.24232" lon="-0.7853">
        <ele>20.60000038147</ele>
        <time>2015-09-12T08:43:39.000Z</time>
      </trkpt>
      <trkpt lat="45.24244" lon="-0.78526">
        <ele>20.60000038147</ele>
        <time>2015-09-12T08:43:44.000Z</time>
      </trkpt>
      <trkpt lat="45.24255" lon="-0.78522">
        <ele>20.799999237061</ele>
        <time>2015-09-12T08:43:49.000Z</time>
      </trkpt>
      <trkpt lat="45.24269" lon="-0.78518">
        <ele>20.799999237061</ele>
        <time>2015-09-12T08:43:55.000Z</time>
      </trkpt>
      <trkpt lat="45.24276" lon="-0.78515">
        <ele>21</ele>
        <time>2015-09-12T08:43:58.000Z</time>
      </trkpt>
      <trkpt lat="45.24278" lon="-0.78503">
        <ele>21.200000762939</ele>
        <time>2015-09-12T08:44:03.000Z</time>
      </trkpt>
      <trkpt lat="45.24272" lon="-0.78492">
        <ele>21.60000038147</ele>
        <time>2015-09-12T08:44:08.000Z</time>
      </trkpt>
      <trkpt lat="45.2427" lon="-0.7849">
        <ele>21.60000038147</ele>
        <time>2015-09-12T08:44:09.000Z</time>
      </trkpt>
      <trkpt lat="45.24264" lon="-0.7848">
        <ele>22</ele>
        <time>2015-09-12T08:44:15.000Z</time>
      </trkpt>
      <trkpt lat="45.24263" lon="-0.78477">
        <ele>22.200000762939</ele>
        <time>2015-09-12T08:44:21.000Z</time>
      </trkpt>
      <trkpt lat="45.24263" lon="-0.78475">
        <ele>22.200000762939</ele>
        <time>2015-09-12T08:44:36.000Z</time>
      </trkpt>
      <trkpt lat="45.24264" lon="-0.78464">
        <ele>22.60000038147</ele>
        <time>2015-09-12T08:44:43.000Z</time>
      </trkpt>
      <trkpt lat="45.24264" lon="-0.78463">
        <ele>22.60000038147</ele>
        <time>2015-09-12T08:44:44.000Z</time>
      </trkpt>
      <trkpt lat="45.24269" lon="-0.78453">
        <ele>22.799999237061</ele>
        <time>2015-09-12T08:44:49.000Z</time>
      </trkpt>
      <trkpt lat="45.24271" lon="-0.78451">
        <ele>22.799999237061</ele>
        <time>2015-09-12T08:44:50.000Z</time>
      </trkpt>
      <trkpt lat="45.24285" lon="-0.78445">
        <ele>22.799999237061</ele>
        <time>2015-09-12T08:44:56.000Z</time>
      </trkpt>
      <trkpt lat="45.24292" lon="-0.78441">
        <ele>22.799999237061</ele>
        <time>2015-09-12T08:45:00.000Z</time>
      </trkpt>
      <trkpt lat="45.24296" lon="-0.7844">
        <ele>22.799999237061</ele>
        <time>2015-09-12T08:45:02.000Z</time>
      </trkpt>
      <trkpt lat="45.24306" lon="-0.78449">
        <ele>22.200000762939</ele>
        <time>2015-09-12T08:45:08.000Z</time>
      </trkpt>
      <trkpt lat="45.24309" lon="-0.78464">
        <ele>21.799999237061</ele>
        <time>2015-09-12T08:45:13.000Z</time>
      </trkpt>
      <trkpt lat="45.24309" lon="-0.78479">
        <ele>21.60000038147</ele>
        <time>2015-09-12T08:45:18.000Z</time>
      </trkpt>
      <trkpt lat="45.24312" lon="-0.78492">
        <ele>21.39999961853</ele>
        <time>2015-09-12T08:45:23.000Z</time>
      </trkpt>
      <trkpt lat="45.24316" lon="-0.78497">
        <ele>21.200000762939</ele>
        <time>2015-09-12T08:45:26.000Z</time>
      </trkpt>
      <trkpt lat="45.24334" lon="-0.78492">
        <ele>21</ele>
        <time>2015-09-12T08:45:34.000Z</time>
      </trkpt>
      <trkpt lat="45.24343" lon="-0.78488">
        <ele>21</ele>
        <time>2015-09-12T08:45:38.000Z</time>
      </trkpt>
      <trkpt lat="45.24359" lon="-0.78478">
        <ele>21</ele>
        <time>2015-09-12T08:45:44.000Z</time>
      </trkpt>
      <trkpt lat="45.24369" lon="-0.78467">
        <ele>21.200000762939</ele>
        <time>2015-09-12T08:45:49.000Z</time>
      </trkpt>
      <trkpt lat="45.24382" lon="-0.78452">
        <ele>21</ele>
        <time>2015-09-12T08:45:56.000Z</time>
      </trkpt>
      <trkpt lat="45.24391" lon="-0.7844">
        <ele>21.200000762939</ele>
        <time>2015-09-12T08:46:01.000Z</time>
      </trkpt>
      <trkpt lat="45.24405" lon="-0.78425">
        <ele>21.39999961853</ele>
        <time>2015-09-12T08:46:08.000Z</time>
      </trkpt>
      <trkpt lat="45.24417" lon="-0.78411">
        <ele>21.39999961853</ele>
        <time>2015-09-12T08:46:14.000Z</time>
      </trkpt>
      <trkpt lat="45.24426" lon="-0.78399">
        <ele>21.60000038147</ele>
        <time>2015-09-12T08:46:19.000Z</time>
      </trkpt>
      <trkpt lat="45.24437" lon="-0.78385">
        <ele>21.60000038147</ele>
        <time>2015-09-12T08:46:25.000Z</time>
      </trkpt>
      <trkpt lat="45.24449" lon="-0.78368">
        <ele>21.60000038147</ele>
        <time>2015-09-12T08:46:32.000Z</time>
      </trkpt>
      <trkpt lat="45.2446" lon="-0.78354">
        <ele>21.60000038147</ele>
        <time>2015-09-12T08:46:38.000Z</time>
      </trkpt>
      <trkpt lat="45.24469" lon="-0.78342">
        <ele>21.60000038147</ele>
        <time>2015-09-12T08:46:43.000Z</time>
      </trkpt>
      <trkpt lat="45.24479" lon="-0.78332">
        <ele>21.60000038147</ele>
        <time>2015-09-12T08:46:48.000Z</time>
      </trkpt>
      <trkpt lat="45.24491" lon="-0.78318">
        <ele>21.39999961853</ele>
        <time>2015-09-12T08:46:55.000Z</time>
      </trkpt>
      <trkpt lat="45.24503" lon="-0.78297">
        <ele>21.39999961853</ele>
        <time>2015-09-12T08:47:03.000Z</time>
      </trkpt>
      <trkpt lat="45.24512" lon="-0.78278">
        <ele>21.60000038147</ele>
        <time>2015-09-12T08:47:10.000Z</time>
      </trkpt>
      <trkpt lat="45.2452" lon="-0.78257">
        <ele>21.60000038147</ele>
        <time>2015-09-12T08:47:17.000Z</time>
      </trkpt>
      <trkpt lat="45.24525" lon="-0.78242">
        <ele>21.799999237061</ele>
        <time>2015-09-12T08:47:22.000Z</time>
      </trkpt>
      <trkpt lat="45.24532" lon="-0.78223">
        <ele>21.799999237061</ele>
        <time>2015-09-12T08:47:28.000Z</time>
      </trkpt>
      <trkpt lat="45.24539" lon="-0.78202">
        <ele>21.60000038147</ele>
        <time>2015-09-12T08:47:35.000Z</time>
      </trkpt>
      <trkpt lat="45.24544" lon="-0.78187">
        <ele>21.60000038147</ele>
        <time>2015-09-12T08:47:40.000Z</time>
      </trkpt>
      <trkpt lat="45.2455" lon="-0.78171">
        <ele>21.39999961853</ele>
        <time>2015-09-12T08:47:45.000Z</time>
      </trkpt>
      <trkpt lat="45.24557" lon="-0.78152">
        <ele>21</ele>
        <time>2015-09-12T08:47:51.000Z</time>
      </trkpt>
      <trkpt lat="45.24563" lon="-0.78134">
        <ele>20.799999237061</ele>
        <time>2015-09-12T08:47:57.000Z</time>
      </trkpt>
      <trkpt lat="45.24573" lon="-0.78114">
        <ele>20.60000038147</ele>
        <time>2015-09-12T08:48:04.000Z</time>
      </trkpt>
      <trkpt lat="45.24583" lon="-0.78098">
        <ele>20.60000038147</ele>
        <time>2015-09-12T08:48:10.000Z</time>
      </trkpt>
      <trkpt lat="45.24591" lon="-0.78086">
        <ele>20.39999961853</ele>
        <time>2015-09-12T08:48:15.000Z</time>
      </trkpt>
      <trkpt lat="45.246" lon="-0.78075">
        <ele>20.39999961853</ele>
        <time>2015-09-12T08:48:20.000Z</time>
      </trkpt>
      <trkpt lat="45.24614" lon="-0.78058">
        <ele>20.200000762939</ele>
        <time>2015-09-12T08:48:27.000Z</time>
      </trkpt>
      <trkpt lat="45.24624" lon="-0.78044">
        <ele>20</ele>
        <time>2015-09-12T08:48:33.000Z</time>
      </trkpt>
      <trkpt lat="45.24633" lon="-0.78031">
        <ele>20</ele>
        <time>2015-09-12T08:48:38.000Z</time>
      </trkpt>
      <trkpt lat="45.24644" lon="-0.78013">
        <ele>20</ele>
        <time>2015-09-12T08:48:45.000Z</time>
      </trkpt>
      <trkpt lat="45.24653" lon="-0.77996">
        <ele>20</ele>
        <time>2015-09-12T08:48:51.000Z</time>
      </trkpt>
      <trkpt lat="45.24659" lon="-0.7798">
        <ele>20</ele>
        <time>2015-09-12T08:48:56.000Z</time>
      </trkpt>
      <trkpt lat="45.24664" lon="-0.77961">
        <ele>19.799999237061</ele>
        <time>2015-09-12T08:49:02.000Z</time>
      </trkpt>
      <trkpt lat="45.24671" lon="-0.77938">
        <ele>19.60000038147</ele>
        <time>2015-09-12T08:49:09.000Z</time>
      </trkpt>
      <trkpt lat="45.24677" lon="-0.77919">
        <ele>19.39999961853</ele>
        <time>2015-09-12T08:49:15.000Z</time>
      </trkpt>
      <trkpt lat="45.24683" lon="-0.77903">
        <ele>19</ele>
        <time>2015-09-12T08:49:20.000Z</time>
      </trkpt>
      <trkpt lat="45.24693" lon="-0.77882">
        <ele>18.60000038147</ele>
        <time>2015-09-12T08:49:27.000Z</time>
      </trkpt>
      <trkpt lat="45.24702" lon="-0.77865">
        <ele>18.60000038147</ele>
        <time>2015-09-12T08:49:33.000Z</time>
      </trkpt>
      <trkpt lat="45.24714" lon="-0.7785">
        <ele>18.60000038147</ele>
        <time>2015-09-12T08:49:39.000Z</time>
      </trkpt>
      <trkpt lat="45.24729" lon="-0.77841">
        <ele>18.39999961853</ele>
        <time>2015-09-12T08:49:46.000Z</time>
      </trkpt>
      <trkpt lat="45.24741" lon="-0.77835">
        <ele>18.39999961853</ele>
        <time>2015-09-12T08:49:52.000Z</time>
      </trkpt>
      <trkpt lat="45.24769" lon="-0.77815">
        <ele>18.200000762939</ele>
        <time>2015-09-12T08:50:05.000Z</time>
      </trkpt>
      <trkpt lat="45.24786" lon="-0.77804">
        <ele>18</ele>
        <time>2015-09-12T08:50:13.000Z</time>
      </trkpt>
      <trkpt lat="45.24801" lon="-0.77792">
        <ele>17.799999237061</ele>
        <time>2015-09-12T08:50:20.000Z</time>
      </trkpt>
      <trkpt lat="45.24814" lon="-0.77783">
        <ele>17.60000038147</ele>
        <time>2015-09-12T08:50:26.000Z</time>
      </trkpt>
      <trkpt lat="45.24827" lon="-0.77771">
        <ele>17.60000038147</ele>
        <time>2015-09-12T08:50:32.000Z</time>
      </trkpt>
      <trkpt lat="45.24839" lon="-0.77759">
        <ele>17.39999961853</ele>
        <time>2015-09-12T08:50:38.000Z</time>
      </trkpt>
      <trkpt lat="45.2485" lon="-0.7775">
        <ele>17.39999961853</ele>
        <time>2015-09-12T08:50:44.000Z</time>
      </trkpt>
      <trkpt lat="45.24858" lon="-0.77745">
        <ele>17.200000762939</ele>
        <time>2015-09-12T08:50:49.000Z</time>
      </trkpt>
      <trkpt lat="45.2487" lon="-0.77738">
        <ele>17.200000762939</ele>
        <time>2015-09-12T08:50:56.000Z</time>
      </trkpt>
      <trkpt lat="45.24885" lon="-0.77728">
        <ele>17</ele>
        <time>2015-09-12T08:51:04.000Z</time>
      </trkpt>
      <trkpt lat="45.24893" lon="-0.77724">
        <ele>17</ele>
        <time>2015-09-12T08:51:09.000Z</time>
      </trkpt>
      <trkpt lat="45.24903" lon="-0.77718">
        <ele>17</ele>
        <time>2015-09-12T08:51:14.000Z</time>
      </trkpt>
      <trkpt lat="45.2491" lon="-0.77714">
        <ele>17</ele>
        <time>2015-09-12T08:51:19.000Z</time>
      </trkpt>
      <trkpt lat="45.24922" lon="-0.7771">
        <ele>17</ele>
        <time>2015-09-12T08:51:25.000Z</time>
      </trkpt>
      <trkpt lat="45.24934" lon="-0.77705">
        <ele>17</ele>
        <time>2015-09-12T08:51:31.000Z</time>
      </trkpt>
      <trkpt lat="45.2494" lon="-0.77704">
        <ele>17</ele>
        <time>2015-09-12T08:51:34.000Z</time>
      </trkpt>
      <trkpt lat="45.24946" lon="-0.77703">
        <ele>17</ele>
        <time>2015-09-12T08:51:40.000Z</time>
      </trkpt>
      <trkpt lat="45.24958" lon="-0.77701">
        <ele>17</ele>
        <time>2015-09-12T08:51:47.000Z</time>
      </trkpt>
      <trkpt lat="45.24969" lon="-0.77699">
        <ele>17</ele>
        <time>2015-09-12T08:51:53.000Z</time>
      </trkpt>
      <trkpt lat="45.2498" lon="-0.77696">
        <ele>16.799999237061</ele>
        <time>2015-09-12T08:51:58.000Z</time>
      </trkpt>
      <trkpt lat="45.24994" lon="-0.77696">
        <ele>16.60000038147</ele>
        <time>2015-09-12T08:52:05.000Z</time>
      </trkpt>
      <trkpt lat="45.25005" lon="-0.77695">
        <ele>16.39999961853</ele>
        <time>2015-09-12T08:52:11.000Z</time>
      </trkpt>
      <trkpt lat="45.25015" lon="-0.77693">
        <ele>16.39999961853</ele>
        <time>2015-09-12T08:52:16.000Z</time>
      </trkpt>
      <trkpt lat="45.25028" lon="-0.77692">
        <ele>16.200000762939</ele>
        <time>2015-09-12T08:52:22.000Z</time>
      </trkpt>
      <trkpt lat="45.25044" lon="-0.77691">
        <ele>16</ele>
        <time>2015-09-12T08:52:29.000Z</time>
      </trkpt>
      <trkpt lat="45.25058" lon="-0.77692">
        <ele>16.200000762939</ele>
        <time>2015-09-12T08:52:35.000Z</time>
      </trkpt>
      <trkpt lat="45.25071" lon="-0.77694">
        <ele>16.60000038147</ele>
        <time>2015-09-12T08:52:41.000Z</time>
      </trkpt>
      <trkpt lat="45.25082" lon="-0.77695">
        <ele>16.60000038147</ele>
        <time>2015-09-12T08:52:46.000Z</time>
      </trkpt>
      <trkpt lat="45.25096" lon="-0.77698">
        <ele>16.60000038147</ele>
        <time>2015-09-12T08:52:52.000Z</time>
      </trkpt>
      <trkpt lat="45.25112" lon="-0.77701">
        <ele>16.39999961853</ele>
        <time>2015-09-12T08:52:59.000Z</time>
      </trkpt>
      <trkpt lat="45.25123" lon="-0.77703">
        <ele>16.39999961853</ele>
        <time>2015-09-12T08:53:04.000Z</time>
      </trkpt>
      <trkpt lat="45.2514" lon="-0.77708">
        <ele>16.200000762939</ele>
        <time>2015-09-12T08:53:11.000Z</time>
      </trkpt>
      <trkpt lat="45.25154" lon="-0.77711">
        <ele>16.200000762939</ele>
        <time>2015-09-12T08:53:17.000Z</time>
      </trkpt>
      <trkpt lat="45.25168" lon="-0.77713">
        <ele>16.39999961853</ele>
        <time>2015-09-12T08:53:23.000Z</time>
      </trkpt>
      <trkpt lat="45.25179" lon="-0.77713">
        <ele>16.60000038147</ele>
        <time>2015-09-12T08:53:28.000Z</time>
      </trkpt>
      <trkpt lat="45.25191" lon="-0.77715">
        <ele>16.799999237061</ele>
        <time>2015-09-12T08:53:34.000Z</time>
      </trkpt>
      <trkpt lat="45.252" lon="-0.77717">
        <ele>16.799999237061</ele>
        <time>2015-09-12T08:53:39.000Z</time>
      </trkpt>
      <trkpt lat="45.25212" lon="-0.77718">
        <ele>17</ele>
        <time>2015-09-12T08:53:45.000Z</time>
      </trkpt>
      <trkpt lat="45.25228" lon="-0.77716">
        <ele>17</ele>
        <time>2015-09-12T08:53:52.000Z</time>
      </trkpt>
      <trkpt lat="45.25259" lon="-0.77718">
        <ele>16.60000038147</ele>
        <time>2015-09-12T08:54:05.000Z</time>
      </trkpt>
      <trkpt lat="45.25273" lon="-0.7772">
        <ele>16.39999961853</ele>
        <time>2015-09-12T08:54:11.000Z</time>
      </trkpt>
      <trkpt lat="45.25286" lon="-0.77723">
        <ele>16.200000762939</ele>
        <time>2015-09-12T08:54:17.000Z</time>
      </trkpt>
      <trkpt lat="45.25303" lon="-0.77724">
        <ele>16.200000762939</ele>
        <time>2015-09-12T08:54:24.000Z</time>
      </trkpt>
      <trkpt lat="45.25317" lon="-0.77726">
        <ele>16.39999961853</ele>
        <time>2015-09-12T08:54:30.000Z</time>
      </trkpt>
      <trkpt lat="45.25331" lon="-0.77728">
        <ele>16.799999237061</ele>
        <time>2015-09-12T08:54:36.000Z</time>
      </trkpt>
      <trkpt lat="45.25347" lon="-0.77731">
        <ele>17.200000762939</ele>
        <time>2015-09-12T08:54:43.000Z</time>
      </trkpt>
      <trkpt lat="45.25358" lon="-0.7773">
        <ele>17.39999961853</ele>
        <time>2015-09-12T08:54:48.000Z</time>
      </trkpt>
      <trkpt lat="45.25362" lon="-0.77713">
        <ele>17.799999237061</ele>
        <time>2015-09-12T08:54:55.000Z</time>
      </trkpt>
      <trkpt lat="45.25364" lon="-0.7769">
        <ele>18.39999961853</ele>
        <time>2015-09-12T08:55:03.000Z</time>
      </trkpt>
      <trkpt lat="45.25365" lon="-0.77678">
        <ele>18.60000038147</ele>
        <time>2015-09-12T08:55:07.000Z</time>
      </trkpt>
      <trkpt lat="45.25366" lon="-0.77662">
        <ele>19.200000762939</ele>
        <time>2015-09-12T08:55:13.000Z</time>
      </trkpt>
      <trkpt lat="45.25367" lon="-0.77644">
        <ele>19.60000038147</ele>
        <time>2015-09-12T08:55:19.000Z</time>
      </trkpt>
      <trkpt lat="45.25368" lon="-0.77629">
        <ele>20</ele>
        <time>2015-09-12T08:55:25.000Z</time>
      </trkpt>
      <trkpt lat="45.25367" lon="-0.77627">
        <ele>20</ele>
        <time>2015-09-12T08:55:26.000Z</time>
      </trkpt>
      <trkpt lat="45.25358" lon="-0.77623">
        <ele>19.799999237061</ele>
        <time>2015-09-12T08:55:31.000Z</time>
      </trkpt>
      <trkpt lat="45.25347" lon="-0.77618">
        <ele>19.799999237061</ele>
        <time>2015-09-12T08:55:37.000Z</time>
      </trkpt>
      <trkpt lat="45.25345" lon="-0.77608">
        <ele>20</ele>
        <time>2015-09-12T08:55:41.000Z</time>
      </trkpt>
      <trkpt lat="45.25346" lon="-0.77583">
        <ele>20.39999961853</ele>
        <time>2015-09-12T08:55:50.000Z</time>
      </trkpt>
      <trkpt lat="45.25348" lon="-0.77563">
        <ele>20.39999961853</ele>
        <time>2015-09-12T08:55:57.000Z</time>
      </trkpt>
      <trkpt lat="45.25349" lon="-0.77543">
        <ele>20.60000038147</ele>
        <time>2015-09-12T08:56:04.000Z</time>
      </trkpt>
      <trkpt lat="45.2535" lon="-0.77524">
        <ele>21</ele>
        <time>2015-09-12T08:56:11.000Z</time>
      </trkpt>
      <trkpt lat="45.25351" lon="-0.77497">
        <ele>21.39999961853</ele>
        <time>2015-09-12T08:56:20.000Z</time>
      </trkpt>
      <trkpt lat="45.25351" lon="-0.77491">
        <ele>21.60000038147</ele>
        <time>2015-09-12T08:56:22.000Z</time>
      </trkpt>
      <trkpt lat="45.25353" lon="-0.7748">
        <ele>21.799999237061</ele>
        <time>2015-09-12T08:56:26.000Z</time>
      </trkpt>
      <trkpt lat="45.25355" lon="-0.77452">
        <ele>22.39999961853</ele>
        <time>2015-09-12T08:56:35.000Z</time>
      </trkpt>
      <trkpt lat="45.25361" lon="-0.77437">
        <ele>22.799999237061</ele>
        <time>2015-09-12T08:56:41.000Z</time>
      </trkpt>
      <trkpt lat="45.2537" lon="-0.77429">
        <ele>23.200000762939</ele>
        <time>2015-09-12T08:56:46.000Z</time>
      </trkpt>
      <trkpt lat="45.25374" lon="-0.77413">
        <ele>23.39999961853</ele>
        <time>2015-09-12T08:56:52.000Z</time>
      </trkpt>
      <trkpt lat="45.25375" lon="-0.77398">
        <ele>23.799999237061</ele>
        <time>2015-09-12T08:56:58.000Z</time>
      </trkpt>
      <trkpt lat="45.25376" lon="-0.77387">
        <ele>23.799999237061</ele>
        <time>2015-09-12T08:57:04.000Z</time>
      </trkpt>
      <trkpt lat="45.25376" lon="-0.7738">
        <ele>23.799999237061</ele>
        <time>2015-09-12T08:57:08.000Z</time>
      </trkpt>
      <trkpt lat="45.25378" lon="-0.77372">
        <ele>23.799999237061</ele>
        <time>2015-09-12T08:57:13.000Z</time>
      </trkpt>
      <trkpt lat="45.25377" lon="-0.77359">
        <ele>23.60000038147</ele>
        <time>2015-09-12T08:57:20.000Z</time>
      </trkpt>
      <trkpt lat="45.25375" lon="-0.77345">
        <ele>23.39999961853</ele>
        <time>2015-09-12T08:57:28.000Z</time>
      </trkpt>
      <trkpt lat="45.25375" lon="-0.77334">
        <ele>23.200000762939</ele>
        <time>2015-09-12T08:57:34.000Z</time>
      </trkpt>
      <trkpt lat="45.25376" lon="-0.77322">
        <ele>23</ele>
        <time>2015-09-12T08:57:42.000Z</time>
      </trkpt>
      <trkpt lat="45.25376" lon="-0.77309">
        <ele>23</ele>
        <time>2015-09-12T08:57:49.000Z</time>
      </trkpt>
      <trkpt lat="45.25377" lon="-0.7729">
        <ele>22.60000038147</ele>
        <time>2015-09-12T08:57:55.000Z</time>
      </trkpt>
      <trkpt lat="45.2538" lon="-0.77271">
        <ele>22.200000762939</ele>
        <time>2015-09-12T08:58:00.000Z</time>
      </trkpt>
      <trkpt lat="45.25393" lon="-0.77262">
        <ele>22.39999961853</ele>
        <time>2015-09-12T08:58:06.000Z</time>
      </trkpt>
      <trkpt lat="45.25406" lon="-0.77261">
        <ele>22.60000038147</ele>
        <time>2015-09-12T08:58:12.000Z</time>
      </trkpt>
      <trkpt lat="45.25419" lon="-0.77258">
        <ele>22.799999237061</ele>
        <time>2015-09-12T08:58:18.000Z</time>
      </trkpt>
      <trkpt lat="45.25429" lon="-0.77254">
        <ele>23</ele>
        <time>2015-09-12T08:58:23.000Z</time>
      </trkpt>
      <trkpt lat="45.25443" lon="-0.7725">
        <ele>22.799999237061</ele>
        <time>2015-09-12T08:58:29.000Z</time>
      </trkpt>
      <trkpt lat="45.25454" lon="-0.77246">
        <ele>22.799999237061</ele>
        <time>2015-09-12T08:58:34.000Z</time>
      </trkpt>
      <trkpt lat="45.25468" lon="-0.77243">
        <ele>22.60000038147</ele>
        <time>2015-09-12T08:58:40.000Z</time>
      </trkpt>
      <trkpt lat="45.25481" lon="-0.77239">
        <ele>22.60000038147</ele>
        <time>2015-09-12T08:58:46.000Z</time>
      </trkpt>
      <trkpt lat="45.25493" lon="-0.77236">
        <ele>22.39999961853</ele>
        <time>2015-09-12T08:58:51.000Z</time>
      </trkpt>
      <trkpt lat="45.25509" lon="-0.77233">
        <ele>22.39999961853</ele>
        <time>2015-09-12T08:58:58.000Z</time>
      </trkpt>
      <trkpt lat="45.25526" lon="-0.77229">
        <ele>22.200000762939</ele>
        <time>2015-09-12T08:59:05.000Z</time>
      </trkpt>
      <trkpt lat="45.25542" lon="-0.77224">
        <ele>22</ele>
        <time>2015-09-12T08:59:12.000Z</time>
      </trkpt>
      <trkpt lat="45.25554" lon="-0.77221">
        <ele>21.799999237061</ele>
        <time>2015-09-12T08:59:17.000Z</time>
      </trkpt>
      <trkpt lat="45.25567" lon="-0.77218">
        <ele>21.39999961853</ele>
        <time>2015-09-12T08:59:23.000Z</time>
      </trkpt>
      <trkpt lat="45.25582" lon="-0.77214">
        <ele>21.200000762939</ele>
        <time>2015-09-12T08:59:30.000Z</time>
      </trkpt>
      <trkpt lat="45.25597" lon="-0.77211">
        <ele>20.799999237061</ele>
        <time>2015-09-12T08:59:37.000Z</time>
      </trkpt>
      <trkpt lat="45.25613" lon="-0.77208">
        <ele>20.39999961853</ele>
        <time>2015-09-12T08:59:44.000Z</time>
      </trkpt>
      <trkpt lat="45.2564" lon="-0.77203">
        <ele>20.200000762939</ele>
        <time>2015-09-12T08:59:56.000Z</time>
      </trkpt>
      <trkpt lat="45.25659" lon="-0.772">
        <ele>20.39999961853</ele>
        <time>2015-09-12T09:00:05.000Z</time>
      </trkpt>
      <trkpt lat="45.25671" lon="-0.77198">
        <ele>20.39999961853</ele>
        <time>2015-09-12T09:00:10.000Z</time>
      </trkpt>
      <trkpt lat="45.25686" lon="-0.77195">
        <ele>20.60000038147</ele>
        <time>2015-09-12T09:00:17.000Z</time>
      </trkpt>
      <trkpt lat="45.257" lon="-0.77194">
        <ele>20.799999237061</ele>
        <time>2015-09-12T09:00:23.000Z</time>
      </trkpt>
      <trkpt lat="45.25712" lon="-0.77193">
        <ele>21</ele>
        <time>2015-09-12T09:00:28.000Z</time>
      </trkpt>
      <trkpt lat="45.25728" lon="-0.77192">
        <ele>20.60000038147</ele>
        <time>2015-09-12T09:00:35.000Z</time>
      </trkpt>
      <trkpt lat="45.25743" lon="-0.77191">
        <ele>20.200000762939</ele>
        <time>2015-09-12T09:00:41.000Z</time>
      </trkpt>
      <trkpt lat="45.25755" lon="-0.77191">
        <ele>20.200000762939</ele>
        <time>2015-09-12T09:00:46.000Z</time>
      </trkpt>
      <trkpt lat="45.25771" lon="-0.77191">
        <ele>20.200000762939</ele>
        <time>2015-09-12T09:00:53.000Z</time>
      </trkpt>
      <trkpt lat="45.25783" lon="-0.77193">
        <ele>20.39999961853</ele>
        <time>2015-09-12T09:00:58.000Z</time>
      </trkpt>
      <trkpt lat="45.25798" lon="-0.77195">
        <ele>20.39999961853</ele>
        <time>2015-09-12T09:01:04.000Z</time>
      </trkpt>
      <trkpt lat="45.25813" lon="-0.77198">
        <ele>20.60000038147</ele>
        <time>2015-09-12T09:01:10.000Z</time>
      </trkpt>
      <trkpt lat="45.25825" lon="-0.77199">
        <ele>20.799999237061</ele>
        <time>2015-09-12T09:01:15.000Z</time>
      </trkpt>
      <trkpt lat="45.25838" lon="-0.772">
        <ele>21</ele>
        <time>2015-09-12T09:01:21.000Z</time>
      </trkpt>
      <trkpt lat="45.2585" lon="-0.77199">
        <ele>21.200000762939</ele>
        <time>2015-09-12T09:01:26.000Z</time>
      </trkpt>
      <trkpt lat="45.25865" lon="-0.77195">
        <ele>21.200000762939</ele>
        <time>2015-09-12T09:01:32.000Z</time>
      </trkpt>
      <trkpt lat="45.25878" lon="-0.77189">
        <ele>21.200000762939</ele>
        <time>2015-09-12T09:01:38.000Z</time>
      </trkpt>
      <trkpt lat="45.25891" lon="-0.77184">
        <ele>20.60000038147</ele>
        <time>2015-09-12T09:01:44.000Z</time>
      </trkpt>
      <trkpt lat="45.2591" lon="-0.7718">
        <ele>20</ele>
        <time>2015-09-12T09:01:51.000Z</time>
      </trkpt>
      <trkpt lat="45.25922" lon="-0.77177">
        <ele>19.39999961853</ele>
        <time>2015-09-12T09:01:56.000Z</time>
      </trkpt>
      <trkpt lat="45.25936" lon="-0.7717">
        <ele>18.60000038147</ele>
        <time>2015-09-12T09:02:02.000Z</time>
      </trkpt>
      <trkpt lat="45.25951" lon="-0.77152">
        <ele>17.60000038147</ele>
        <time>2015-09-12T09:02:08.000Z</time>
      </trkpt>
      <trkpt lat="45.25961" lon="-0.77131">
        <ele>16.799999237061</ele>
        <time>2015-09-12T09:02:14.000Z</time>
      </trkpt>
      <trkpt lat="45.2597" lon="-0.77109">
        <ele>16.200000762939</ele>
        <time>2015-09-12T09:02:20.000Z</time>
      </trkpt>
      <trkpt lat="45.25977" lon="-0.77088">
        <ele>15.60000038147</ele>
        <time>2015-09-12T09:02:26.000Z</time>
      </trkpt>
      <trkpt lat="45.25983" lon="-0.77069">
        <ele>15</ele>
        <time>2015-09-12T09:02:32.000Z</time>
      </trkpt>
      <trkpt lat="45.25989" lon="-0.77054">
        <ele>14.60000038147</ele>
        <time>2015-09-12T09:02:37.000Z</time>
      </trkpt>
      <trkpt lat="45.25998" lon="-0.77042">
        <ele>14.199999809265</ele>
        <time>2015-09-12T09:02:42.000Z</time>
      </trkpt>
      <trkpt lat="45.26011" lon="-0.77026">
        <ele>13.800000190735</ele>
        <time>2015-09-12T09:02:49.000Z</time>
      </trkpt>
      <trkpt lat="45.26024" lon="-0.77012">
        <ele>13.199999809265</ele>
        <time>2015-09-12T09:02:56.000Z</time>
      </trkpt>
      <trkpt lat="45.26033" lon="-0.77003">
        <ele>13</ele>
        <time>2015-09-12T09:03:01.000Z</time>
      </trkpt>
      <trkpt lat="45.26045" lon="-0.76988">
        <ele>12.39999961853</ele>
        <time>2015-09-12T09:03:07.000Z</time>
      </trkpt>
      <trkpt lat="45.2605" lon="-0.76972">
        <ele>12</ele>
        <time>2015-09-12T09:03:12.000Z</time>
      </trkpt>
      <trkpt lat="45.26055" lon="-0.76952">
        <ele>12.199999809265</ele>
        <time>2015-09-12T09:03:18.000Z</time>
      </trkpt>
      <trkpt lat="45.26061" lon="-0.76929">
        <ele>12.199999809265</ele>
        <time>2015-09-12T09:03:25.000Z</time>
      </trkpt>
      <trkpt lat="45.2607" lon="-0.76918">
        <ele>12.199999809265</ele>
        <time>2015-09-12T09:03:30.000Z</time>
      </trkpt>
      <trkpt lat="45.26081" lon="-0.76921">
        <ele>12.39999961853</ele>
        <time>2015-09-12T09:03:35.000Z</time>
      </trkpt>
      <trkpt lat="45.2609" lon="-0.76924">
        <ele>12.60000038147</ele>
        <time>2015-09-12T09:03:39.000Z</time>
      </trkpt>
      <trkpt lat="45.26101" lon="-0.76931">
        <ele>12.39999961853</ele>
        <time>2015-09-12T09:03:45.000Z</time>
      </trkpt>
      <trkpt lat="45.26117" lon="-0.76936">
        <ele>12</ele>
        <time>2015-09-12T09:03:52.000Z</time>
      </trkpt>
      <trkpt lat="45.26132" lon="-0.76942">
        <ele>11.60000038147</ele>
        <time>2015-09-12T09:03:59.000Z</time>
      </trkpt>
      <trkpt lat="45.26148" lon="-0.76947">
        <ele>10.60000038147</ele>
        <time>2015-09-12T09:04:06.000Z</time>
      </trkpt>
      <trkpt lat="45.26162" lon="-0.7695">
        <ele>10</ele>
        <time>2015-09-12T09:04:12.000Z</time>
      </trkpt>
      <trkpt lat="45.2617" lon="-0.76949">
        <ele>9.6000003814697</ele>
        <time>2015-09-12T09:04:16.000Z</time>
      </trkpt>
      <trkpt lat="45.26175" lon="-0.76932">
        <ele>9.8000001907349</ele>
        <time>2015-09-12T09:04:22.000Z</time>
      </trkpt>
      <trkpt lat="45.26178" lon="-0.76919">
        <ele>10</ele>
        <time>2015-09-12T09:04:27.000Z</time>
      </trkpt>
      <trkpt lat="45.26181" lon="-0.76907">
        <ele>10</ele>
        <time>2015-09-12T09:04:32.000Z</time>
      </trkpt>
      <trkpt lat="45.26184" lon="-0.76892">
        <ele>10.199999809265</ele>
        <time>2015-09-12T09:04:38.000Z</time>
      </trkpt>
      <trkpt lat="45.26187" lon="-0.76876">
        <ele>10.199999809265</ele>
        <time>2015-09-12T09:04:43.000Z</time>
      </trkpt>
      <trkpt lat="45.26189" lon="-0.76861">
        <ele>10.199999809265</ele>
        <time>2015-09-12T09:04:50.000Z</time>
      </trkpt>
      <trkpt lat="45.26189" lon="-0.76856">
        <ele>10.199999809265</ele>
        <time>2015-09-12T09:04:52.000Z</time>
      </trkpt>
      <trkpt lat="45.2619" lon="-0.76848">
        <ele>10.199999809265</ele>
        <time>2015-09-12T09:04:56.000Z</time>
      </trkpt>
      <trkpt lat="45.26187" lon="-0.76833">
        <ele>10.199999809265</ele>
        <time>2015-09-12T09:05:02.000Z</time>
      </trkpt>
      <trkpt lat="45.26182" lon="-0.76816">
        <ele>10.199999809265</ele>
        <time>2015-09-12T09:05:07.000Z</time>
      </trkpt>
      <trkpt lat="45.26176" lon="-0.76805">
        <ele>10.39999961853</ele>
        <time>2015-09-12T09:05:13.000Z</time>
      </trkpt>
      <trkpt lat="45.26171" lon="-0.76797">
        <ele>10.199999809265</ele>
        <time>2015-09-12T09:05:19.000Z</time>
      </trkpt>
      <trkpt lat="45.2617" lon="-0.76796">
        <ele>10.199999809265</ele>
        <time>2015-09-12T09:05:20.000Z</time>
      </trkpt>
      <trkpt lat="45.26167" lon="-0.76798">
        <ele>10.39999961853</ele>
        <time>2015-09-12T09:05:23.000Z</time>
      </trkpt>
      <trkpt lat="45.26165" lon="-0.76802">
        <ele>10.60000038147</ele>
        <time>2015-09-12T09:05:29.000Z</time>
      </trkpt>
      <trkpt lat="45.26164" lon="-0.76802">
        <ele>10.60000038147</ele>
        <time>2015-09-12T09:05:38.000Z</time>
      </trkpt>
      <trkpt lat="45.26164" lon="-0.76801">
        <ele>10.60000038147</ele>
        <time>2015-09-12T09:05:58.000Z</time>
      </trkpt>
      <trkpt lat="45.26164" lon="-0.76797">
        <ele>10.60000038147</ele>
        <time>2015-09-12T09:06:02.000Z</time>
      </trkpt>
      <trkpt lat="45.26165" lon="-0.76789">
        <ele>10.199999809265</ele>
        <time>2015-09-12T09:06:08.000Z</time>
      </trkpt>
      <trkpt lat="45.26167" lon="-0.76786">
        <ele>10</ele>
        <time>2015-09-12T09:06:13.000Z</time>
      </trkpt>
      <trkpt lat="45.26169" lon="-0.76772">
        <ele>9.3999996185303</ele>
        <time>2015-09-12T09:06:21.000Z</time>
      </trkpt>
      <trkpt lat="45.26168" lon="-0.76759">
        <ele>8.8000001907349</ele>
        <time>2015-09-12T09:06:28.000Z</time>
      </trkpt>
      <trkpt lat="45.26167" lon="-0.76747">
        <ele>8</ele>
        <time>2015-09-12T09:06:35.000Z</time>
      </trkpt>
      <trkpt lat="45.26165" lon="-0.76741">
        <ele>7.8000001907349</ele>
        <time>2015-09-12T09:06:39.000Z</time>
      </trkpt>
      <trkpt lat="45.26165" lon="-0.76737">
        <ele>7.5999999046326</ele>
        <time>2015-09-12T09:06:44.000Z</time>
      </trkpt>
      <trkpt lat="45.26164" lon="-0.76729">
        <ele>7</ele>
        <time>2015-09-12T09:06:50.000Z</time>
      </trkpt>
      <trkpt lat="45.26158" lon="-0.76716">
        <ele>6.5999999046326</ele>
        <time>2015-09-12T09:06:58.000Z</time>
      </trkpt>
      <trkpt lat="45.26153" lon="-0.767">
        <ele>6.1999998092651</ele>
        <time>2015-09-12T09:07:07.000Z</time>
      </trkpt>
      <trkpt lat="45.26148" lon="-0.76682">
        <ele>5.4000000953674</ele>
        <time>2015-09-12T09:07:16.000Z</time>
      </trkpt>
      <trkpt lat="45.26142" lon="-0.76666">
        <ele>4.5999999046326</ele>
        <time>2015-09-12T09:07:25.000Z</time>
      </trkpt>
      <trkpt lat="45.26137" lon="-0.76655">
        <ele>4</ele>
        <time>2015-09-12T09:07:32.000Z</time>
      </trkpt>
      <trkpt lat="45.26133" lon="-0.76643">
        <ele>3.4000000953674</ele>
        <time>2015-09-12T09:07:38.000Z</time>
      </trkpt>
      <trkpt lat="45.26128" lon="-0.76625">
        <ele>3</ele>
        <time>2015-09-12T09:07:43.000Z</time>
      </trkpt>
      <trkpt lat="45.26125" lon="-0.76606">
        <ele>3.2000000476837</ele>
        <time>2015-09-12T09:07:48.000Z</time>
      </trkpt>
      <trkpt lat="45.26115" lon="-0.76598">
        <ele>3.4000000953674</ele>
        <time>2015-09-12T09:07:53.000Z</time>
      </trkpt>
      <trkpt lat="45.26114" lon="-0.76597">
        <ele>3.4000000953674</ele>
        <time>2015-09-12T09:07:54.000Z</time>
      </trkpt>
      <trkpt lat="45.26103" lon="-0.76597">
        <ele>3.5999999046326</ele>
        <time>2015-09-12T09:08:00.000Z</time>
      </trkpt>
      <trkpt lat="45.26089" lon="-0.76602">
        <ele>4</ele>
        <time>2015-09-12T09:08:06.000Z</time>
      </trkpt>
      <trkpt lat="45.26077" lon="-0.76609">
        <ele>4.1999998092651</ele>
        <time>2015-09-12T09:08:11.000Z</time>
      </trkpt>
      <trkpt lat="45.26071" lon="-0.76619">
        <ele>4.4000000953674</ele>
        <time>2015-09-12T09:08:15.000Z</time>
      </trkpt>
      <trkpt lat="45.26068" lon="-0.76625">
        <ele>4.4000000953674</ele>
        <time>2015-09-12T09:08:18.000Z</time>
      </trkpt>
      <trkpt lat="45.26057" lon="-0.76625">
        <ele>4.5999999046326</ele>
        <time>2015-09-12T09:08:24.000Z</time>
      </trkpt>
      <trkpt lat="45.26054" lon="-0.76624">
        <ele>4.5999999046326</ele>
        <time>2015-09-12T09:08:25.000Z</time>
      </trkpt>
      <trkpt lat="45.26041" lon="-0.7662">
        <ele>4.4000000953674</ele>
        <time>2015-09-12T09:08:31.000Z</time>
      </trkpt>
      <trkpt lat="45.2603" lon="-0.76614">
        <ele>4</ele>
        <time>2015-09-12T09:08:36.000Z</time>
      </trkpt>
      <trkpt lat="45.26017" lon="-0.76607">
        <ele>3.5999999046326</ele>
        <time>2015-09-12T09:08:42.000Z</time>
      </trkpt>
      <trkpt lat="45.26005" lon="-0.76602">
        <ele>3.2000000476837</ele>
        <time>2015-09-12T09:08:47.000Z</time>
      </trkpt>
      <trkpt lat="45.25992" lon="-0.76596">
        <ele>3</ele>
        <time>2015-09-12T09:08:53.000Z</time>
      </trkpt>
      <trkpt lat="45.25982" lon="-0.76583">
        <ele>3</ele>
        <time>2015-09-12T09:08:59.000Z</time>
      </trkpt>
      <trkpt lat="45.25982" lon="-0.7658">
        <ele>3</ele>
        <time>2015-09-12T09:09:00.000Z</time>
      </trkpt>
      <trkpt lat="45.25982" lon="-0.76556">
        <ele>3</ele>
        <time>2015-09-12T09:09:07.000Z</time>
      </trkpt>
      <trkpt lat="45.25978" lon="-0.76537">
        <ele>3</ele>
        <time>2015-09-12T09:09:13.000Z</time>
      </trkpt>
      <trkpt lat="45.2597" lon="-0.76535">
        <ele>3.2000000476837</ele>
        <time>2015-09-12T09:09:17.000Z</time>
      </trkpt>
      <trkpt lat="45.25953" lon="-0.76548">
        <ele>3.5999999046326</ele>
        <time>2015-09-12T09:09:25.000Z</time>
      </trkpt>
      <trkpt lat="45.25939" lon="-0.76557">
        <ele>3.7999999523163</ele>
        <time>2015-09-12T09:09:31.000Z</time>
      </trkpt>
      <trkpt lat="45.25924" lon="-0.76568">
        <ele>4.1999998092651</ele>
        <time>2015-09-12T09:09:38.000Z</time>
      </trkpt>
      <trkpt lat="45.25909" lon="-0.76576">
        <ele>4.5999999046326</ele>
        <time>2015-09-12T09:09:45.000Z</time>
      </trkpt>
      <trkpt lat="45.25899" lon="-0.76583">
        <ele>5</ele>
        <time>2015-09-12T09:09:50.000Z</time>
      </trkpt>
      <trkpt lat="45.25884" lon="-0.76592">
        <ele>5.4000000953674</ele>
        <time>2015-09-12T09:09:57.000Z</time>
      </trkpt>
      <trkpt lat="45.25874" lon="-0.76598">
        <ele>5.5999999046326</ele>
        <time>2015-09-12T09:10:02.000Z</time>
      </trkpt>
      <trkpt lat="45.25859" lon="-0.76604">
        <ele>6.1999998092651</ele>
        <time>2015-09-12T09:10:09.000Z</time>
      </trkpt>
      <trkpt lat="45.25842" lon="-0.76607">
        <ele>6.8000001907349</ele>
        <time>2015-09-12T09:10:17.000Z</time>
      </trkpt>
      <trkpt lat="45.25825" lon="-0.76607">
        <ele>7.4000000953674</ele>
        <time>2015-09-12T09:10:25.000Z</time>
      </trkpt>
      <trkpt lat="45.25813" lon="-0.76604">
        <ele>7.5999999046326</ele>
        <time>2015-09-12T09:10:31.000Z</time>
      </trkpt>
      <trkpt lat="45.258" lon="-0.76602">
        <ele>8</ele>
        <time>2015-09-12T09:10:37.000Z</time>
      </trkpt>
      <trkpt lat="45.25789" lon="-0.766">
        <ele>8.1999998092651</ele>
        <time>2015-09-12T09:10:42.000Z</time>
      </trkpt>
      <trkpt lat="45.25778" lon="-0.76598">
        <ele>8.6000003814697</ele>
        <time>2015-09-12T09:10:47.000Z</time>
      </trkpt>
      <trkpt lat="45.25771" lon="-0.76597">
        <ele>9</ele>
        <time>2015-09-12T09:10:51.000Z</time>
      </trkpt>
      <trkpt lat="45.25758" lon="-0.76594">
        <ele>9.3999996185303</ele>
        <time>2015-09-12T09:10:57.000Z</time>
      </trkpt>
      <trkpt lat="45.25745" lon="-0.76592">
        <ele>9.6000003814697</ele>
        <time>2015-09-12T09:11:03.000Z</time>
      </trkpt>
      <trkpt lat="45.25733" lon="-0.76589">
        <ele>10</ele>
        <time>2015-09-12T09:11:09.000Z</time>
      </trkpt>
      <trkpt lat="45.25721" lon="-0.76587">
        <ele>10.199999809265</ele>
        <time>2015-09-12T09:11:15.000Z</time>
      </trkpt>
      <trkpt lat="45.25707" lon="-0.76585">
        <ele>10.39999961853</ele>
        <time>2015-09-12T09:11:21.000Z</time>
      </trkpt>
      <trkpt lat="45.25696" lon="-0.76584">
        <ele>10.60000038147</ele>
        <time>2015-09-12T09:11:26.000Z</time>
      </trkpt>
      <trkpt lat="45.25682" lon="-0.76585">
        <ele>10.800000190735</ele>
        <time>2015-09-12T09:11:32.000Z</time>
      </trkpt>
      <trkpt lat="45.25668" lon="-0.76588">
        <ele>10.800000190735</ele>
        <time>2015-09-12T09:11:38.000Z</time>
      </trkpt>
      <trkpt lat="45.25657" lon="-0.76591">
        <ele>10.800000190735</ele>
        <time>2015-09-12T09:11:43.000Z</time>
      </trkpt>
      <trkpt lat="45.25644" lon="-0.76594">
        <ele>11</ele>
        <time>2015-09-12T09:11:49.000Z</time>
      </trkpt>
      <trkpt lat="45.25632" lon="-0.76598">
        <ele>11</ele>
        <time>2015-09-12T09:11:54.000Z</time>
      </trkpt>
      <trkpt lat="45.25619" lon="-0.76601">
        <ele>11.199999809265</ele>
        <time>2015-09-12T09:12:00.000Z</time>
      </trkpt>
      <trkpt lat="45.25605" lon="-0.76603">
        <ele>11.199999809265</ele>
        <time>2015-09-12T09:12:06.000Z</time>
      </trkpt>
      <trkpt lat="45.25591" lon="-0.76607">
        <ele>11.199999809265</ele>
        <time>2015-09-12T09:12:12.000Z</time>
      </trkpt>
      <trkpt lat="45.2558" lon="-0.76608">
        <ele>11.199999809265</ele>
        <time>2015-09-12T09:12:17.000Z</time>
      </trkpt>
      <trkpt lat="45.25568" lon="-0.76612">
        <ele>11.39999961853</ele>
        <time>2015-09-12T09:12:23.000Z</time>
      </trkpt>
      <trkpt lat="45.25551" lon="-0.76616">
        <ele>11.60000038147</ele>
        <time>2015-09-12T09:12:31.000Z</time>
      </trkpt>
      <trkpt lat="45.25537" lon="-0.76619">
        <ele>11.800000190735</ele>
        <time>2015-09-12T09:12:37.000Z</time>
      </trkpt>
      <trkpt lat="45.25522" lon="-0.76623">
        <ele>12.199999809265</ele>
        <time>2015-09-12T09:12:43.000Z</time>
      </trkpt>
      <trkpt lat="45.25505" lon="-0.76627">
        <ele>12.39999961853</ele>
        <time>2015-09-12T09:12:50.000Z</time>
      </trkpt>
      <trkpt lat="45.25488" lon="-0.76632">
        <ele>12.60000038147</ele>
        <time>2015-09-12T09:12:57.000Z</time>
      </trkpt>
      <trkpt lat="45.25471" lon="-0.76636">
        <ele>12.800000190735</ele>
        <time>2015-09-12T09:13:04.000Z</time>
      </trkpt>
      <trkpt lat="45.25455" lon="-0.7664">
        <ele>13</ele>
        <time>2015-09-12T09:13:10.000Z</time>
      </trkpt>
      <trkpt lat="45.25444" lon="-0.76643">
        <ele>13</ele>
        <time>2015-09-12T09:13:15.000Z</time>
      </trkpt>
      <trkpt lat="45.2543" lon="-0.76648">
        <ele>13.199999809265</ele>
        <time>2015-09-12T09:13:21.000Z</time>
      </trkpt>
      <trkpt lat="45.25418" lon="-0.76652">
        <ele>13.199999809265</ele>
        <time>2015-09-12T09:13:26.000Z</time>
      </trkpt>
      <trkpt lat="45.25404" lon="-0.76657">
        <ele>13.199999809265</ele>
        <time>2015-09-12T09:13:32.000Z</time>
      </trkpt>
      <trkpt lat="45.25391" lon="-0.76663">
        <ele>13.39999961853</ele>
        <time>2015-09-12T09:13:38.000Z</time>
      </trkpt>
      <trkpt lat="45.25377" lon="-0.76667">
        <ele>13.39999961853</ele>
        <time>2015-09-12T09:13:44.000Z</time>
      </trkpt>
      <trkpt lat="45.25366" lon="-0.76671">
        <ele>13.199999809265</ele>
        <time>2015-09-12T09:13:49.000Z</time>
      </trkpt>
      <trkpt lat="45.25352" lon="-0.76677">
        <ele>13.199999809265</ele>
        <time>2015-09-12T09:13:55.000Z</time>
      </trkpt>
      <trkpt lat="45.25334" lon="-0.76686">
        <ele>13</ele>
        <time>2015-09-12T09:14:03.000Z</time>
      </trkpt>
      <trkpt lat="45.25324" lon="-0.76691">
        <ele>13</ele>
        <time>2015-09-12T09:14:08.000Z</time>
      </trkpt>
      <trkpt lat="45.25313" lon="-0.76696">
        <ele>13</ele>
        <time>2015-09-12T09:14:13.000Z</time>
      </trkpt>
      <trkpt lat="45.253" lon="-0.76703">
        <ele>13</ele>
        <time>2015-09-12T09:14:19.000Z</time>
      </trkpt>
      <trkpt lat="45.25285" lon="-0.7671">
        <ele>13.199999809265</ele>
        <time>2015-09-12T09:14:26.000Z</time>
      </trkpt>
      <trkpt lat="45.25272" lon="-0.76716">
        <ele>13.199999809265</ele>
        <time>2015-09-12T09:14:32.000Z</time>
      </trkpt>
      <trkpt lat="45.25256" lon="-0.76724">
        <ele>13.60000038147</ele>
        <time>2015-09-12T09:14:39.000Z</time>
      </trkpt>
      <trkpt lat="45.25243" lon="-0.76731">
        <ele>13.800000190735</ele>
        <time>2015-09-12T09:14:45.000Z</time>
      </trkpt>
      <trkpt lat="45.25226" lon="-0.76732">
        <ele>14</ele>
        <time>2015-09-12T09:14:53.000Z</time>
      </trkpt>
      <trkpt lat="45.25196" lon="-0.76732">
        <ele>14.199999809265</ele>
        <time>2015-09-12T09:15:06.000Z</time>
      </trkpt>
      <trkpt lat="45.25183" lon="-0.76732">
        <ele>14.199999809265</ele>
        <time>2015-09-12T09:15:12.000Z</time>
      </trkpt>
      <trkpt lat="45.25166" lon="-0.76732">
        <ele>14.199999809265</ele>
        <time>2015-09-12T09:15:19.000Z</time>
      </trkpt>
      <trkpt lat="45.25154" lon="-0.76727">
        <ele>14</ele>
        <time>2015-09-12T09:15:25.000Z</time>
      </trkpt>
      <trkpt lat="45.25139" lon="-0.76719">
        <ele>14</ele>
        <time>2015-09-12T09:15:32.000Z</time>
      </trkpt>
      <trkpt lat="45.25126" lon="-0.76716">
        <ele>14</ele>
        <time>2015-09-12T09:15:38.000Z</time>
      </trkpt>
      <trkpt lat="45.25112" lon="-0.76711">
        <ele>13.800000190735</ele>
        <time>2015-09-12T09:15:44.000Z</time>
      </trkpt>
      <trkpt lat="45.25101" lon="-0.76707">
        <ele>13.800000190735</ele>
        <time>2015-09-12T09:15:49.000Z</time>
      </trkpt>
      <trkpt lat="45.25089" lon="-0.76697">
        <ele>13.800000190735</ele>
        <time>2015-09-12T09:15:55.000Z</time>
      </trkpt>
      <trkpt lat="45.25065" lon="-0.76664">
        <ele>12.39999961853</ele>
        <time>2015-09-12T09:16:09.000Z</time>
      </trkpt>
      <trkpt lat="45.25056" lon="-0.76652">
        <ele>11.800000190735</ele>
        <time>2015-09-12T09:16:14.000Z</time>
      </trkpt>
      <trkpt lat="45.25045" lon="-0.76642">
        <ele>11.199999809265</ele>
        <time>2015-09-12T09:16:19.000Z</time>
      </trkpt>
      <trkpt lat="45.25034" lon="-0.76629">
        <ele>10.800000190735</ele>
        <time>2015-09-12T09:16:25.000Z</time>
      </trkpt>
      <trkpt lat="45.25024" lon="-0.76615">
        <ele>10.39999961853</ele>
        <time>2015-09-12T09:16:31.000Z</time>
      </trkpt>
      <trkpt lat="45.25014" lon="-0.76602">
        <ele>10.199999809265</ele>
        <time>2015-09-12T09:16:37.000Z</time>
      </trkpt>
      <trkpt lat="45.25009" lon="-0.76588">
        <ele>10</ele>
        <time>2015-09-12T09:16:42.000Z</time>
      </trkpt>
      <trkpt lat="45.25004" lon="-0.76569">
        <ele>9.3999996185303</ele>
        <time>2015-09-12T09:16:48.000Z</time>
      </trkpt>
      <trkpt lat="45.24998" lon="-0.76528">
        <ele>9</ele>
        <time>2015-09-12T09:17:01.000Z</time>
      </trkpt>
      <trkpt lat="45.24994" lon="-0.76509">
        <ele>8.8000001907349</ele>
        <time>2015-09-12T09:17:07.000Z</time>
      </trkpt>
      <trkpt lat="45.24987" lon="-0.76496">
        <ele>8.3999996185303</ele>
        <time>2015-09-12T09:17:12.000Z</time>
      </trkpt>
      <trkpt lat="45.24975" lon="-0.76487">
        <ele>7.8000001907349</ele>
        <time>2015-09-12T09:17:18.000Z</time>
      </trkpt>
      <trkpt lat="45.24963" lon="-0.76479">
        <ele>7</ele>
        <time>2015-09-12T09:17:24.000Z</time>
      </trkpt>
      <trkpt lat="45.24957" lon="-0.76466">
        <ele>7</ele>
        <time>2015-09-12T09:17:29.000Z</time>
      </trkpt>
      <trkpt lat="45.24955" lon="-0.76453">
        <ele>6.8000001907349</ele>
        <time>2015-09-12T09:17:34.000Z</time>
      </trkpt>
      <trkpt lat="45.24954" lon="-0.76451">
        <ele>6.8000001907349</ele>
        <time>2015-09-12T09:17:36.000Z</time>
      </trkpt>
      <trkpt lat="45.24946" lon="-0.76449">
        <ele>6.8000001907349</ele>
        <time>2015-09-12T09:17:43.000Z</time>
      </trkpt>
      <trkpt lat="45.24937" lon="-0.76448">
        <ele>6.8000001907349</ele>
        <time>2015-09-12T09:17:49.000Z</time>
      </trkpt>
      <trkpt lat="45.24926" lon="-0.76446">
        <ele>6.8000001907349</ele>
        <time>2015-09-12T09:17:55.000Z</time>
      </trkpt>
      <trkpt lat="45.24913" lon="-0.76444">
        <ele>6.5999999046326</ele>
        <time>2015-09-12T09:18:01.000Z</time>
      </trkpt>
      <trkpt lat="45.24905" lon="-0.76444">
        <ele>6.8000001907349</ele>
        <time>2015-09-12T09:18:06.000Z</time>
      </trkpt>
      <trkpt lat="45.24894" lon="-0.76442">
        <ele>7.5999999046326</ele>
        <time>2015-09-12T09:18:11.000Z</time>
      </trkpt>
      <trkpt lat="45.24884" lon="-0.76441">
        <ele>8.3999996185303</ele>
        <time>2015-09-12T09:18:18.000Z</time>
      </trkpt>
      <trkpt lat="45.24874" lon="-0.76439">
        <ele>9.1999998092651</ele>
        <time>2015-09-12T09:18:25.000Z</time>
      </trkpt>
      <trkpt lat="45.24865" lon="-0.76441">
        <ele>9.3999996185303</ele>
        <time>2015-09-12T09:18:31.000Z</time>
      </trkpt>
      <trkpt lat="45.24856" lon="-0.76442">
        <ele>9.6000003814697</ele>
        <time>2015-09-12T09:18:38.000Z</time>
      </trkpt>
      <trkpt lat="45.24848" lon="-0.76443">
        <ele>9.8000001907349</ele>
        <time>2015-09-12T09:18:43.000Z</time>
      </trkpt>
      <trkpt lat="45.24835" lon="-0.76444">
        <ele>10.199999809265</ele>
        <time>2015-09-12T09:18:49.000Z</time>
      </trkpt>
      <trkpt lat="45.24811" lon="-0.76446">
        <ele>10.60000038147</ele>
        <time>2015-09-12T09:19:00.000Z</time>
      </trkpt>
      <trkpt lat="45.24794" lon="-0.76447">
        <ele>10.60000038147</ele>
        <time>2015-09-12T09:19:08.000Z</time>
      </trkpt>
      <trkpt lat="45.24781" lon="-0.7645">
        <ele>10.60000038147</ele>
        <time>2015-09-12T09:19:14.000Z</time>
      </trkpt>
      <trkpt lat="45.24767" lon="-0.76451">
        <ele>10.800000190735</ele>
        <time>2015-09-12T09:19:20.000Z</time>
      </trkpt>
      <trkpt lat="45.24753" lon="-0.76451">
        <ele>11</ele>
        <time>2015-09-12T09:19:26.000Z</time>
      </trkpt>
      <trkpt lat="45.24739" lon="-0.76452">
        <ele>11.199999809265</ele>
        <time>2015-09-12T09:19:32.000Z</time>
      </trkpt>
      <trkpt lat="45.24728" lon="-0.76453">
        <ele>11.199999809265</ele>
        <time>2015-09-12T09:19:37.000Z</time>
      </trkpt>
      <trkpt lat="45.24712" lon="-0.76454">
        <ele>11.39999961853</ele>
        <time>2015-09-12T09:19:44.000Z</time>
      </trkpt>
      <trkpt lat="45.24699" lon="-0.76455">
        <ele>11.800000190735</ele>
        <time>2015-09-12T09:19:50.000Z</time>
      </trkpt>
      <trkpt lat="45.24685" lon="-0.76456">
        <ele>12</ele>
        <time>2015-09-12T09:19:56.000Z</time>
      </trkpt>
      <trkpt lat="45.24668" lon="-0.76457">
        <ele>12.39999961853</ele>
        <time>2015-09-12T09:20:03.000Z</time>
      </trkpt>
      <trkpt lat="45.2466" lon="-0.76451">
        <ele>12.800000190735</ele>
        <time>2015-09-12T09:20:08.000Z</time>
      </trkpt>
      <trkpt lat="45.24658" lon="-0.76435">
        <ele>13</ele>
        <time>2015-09-12T09:20:13.000Z</time>
      </trkpt>
      <trkpt lat="45.24658" lon="-0.76415">
        <ele>13</ele>
        <time>2015-09-12T09:20:19.000Z</time>
      </trkpt>
      <trkpt lat="45.24658" lon="-0.76396">
        <ele>13</ele>
        <time>2015-09-12T09:20:25.000Z</time>
      </trkpt>
      <trkpt lat="45.24658" lon="-0.76378">
        <ele>13.199999809265</ele>
        <time>2015-09-12T09:20:31.000Z</time>
      </trkpt>
      <trkpt lat="45.24659" lon="-0.76358">
        <ele>13.800000190735</ele>
        <time>2015-09-12T09:20:37.000Z</time>
      </trkpt>
      <trkpt lat="45.24658" lon="-0.7634">
        <ele>14.199999809265</ele>
        <time>2015-09-12T09:20:43.000Z</time>
      </trkpt>
      <trkpt lat="45.24657" lon="-0.76322">
        <ele>14.60000038147</ele>
        <time>2015-09-12T09:20:49.000Z</time>
      </trkpt>
      <trkpt lat="45.24654" lon="-0.76306">
        <ele>15</ele>
        <time>2015-09-12T09:20:55.000Z</time>
      </trkpt>
      <trkpt lat="45.24654" lon="-0.763">
        <ele>15</ele>
        <time>2015-09-12T09:20:57.000Z</time>
      </trkpt>
      <trkpt lat="45.24652" lon="-0.76277">
        <ele>15.199999809265</ele>
        <time>2015-09-12T09:21:05.000Z</time>
      </trkpt>
      <trkpt lat="45.24652" lon="-0.76265">
        <ele>15.39999961853</ele>
        <time>2015-09-12T09:21:09.000Z</time>
      </trkpt>
      <trkpt lat="45.24651" lon="-0.76249">
        <ele>15.800000190735</ele>
        <time>2015-09-12T09:21:14.000Z</time>
      </trkpt>
      <trkpt lat="45.2465" lon="-0.76236">
        <ele>16.200000762939</ele>
        <time>2015-09-12T09:21:18.000Z</time>
      </trkpt>
      <trkpt lat="45.2465" lon="-0.76217">
        <ele>16.39999961853</ele>
        <time>2015-09-12T09:21:25.000Z</time>
      </trkpt>
      <trkpt lat="45.24649" lon="-0.76197">
        <ele>16.200000762939</ele>
        <time>2015-09-12T09:21:31.000Z</time>
      </trkpt>
      <trkpt lat="45.2465" lon="-0.7618">
        <ele>16.200000762939</ele>
        <time>2015-09-12T09:21:36.000Z</time>
      </trkpt>
      <trkpt lat="45.24651" lon="-0.76168">
        <ele>16.200000762939</ele>
        <time>2015-09-12T09:21:41.000Z</time>
      </trkpt>
      <trkpt lat="45.24659" lon="-0.76154">
        <ele>16</ele>
        <time>2015-09-12T09:21:49.000Z</time>
      </trkpt>
      <trkpt lat="45.24667" lon="-0.76144">
        <ele>15.60000038147</ele>
        <time>2015-09-12T09:21:56.000Z</time>
      </trkpt>
      <trkpt lat="45.24669" lon="-0.76133">
        <ele>15.60000038147</ele>
        <time>2015-09-12T09:22:02.000Z</time>
      </trkpt>
      <trkpt lat="45.24668" lon="-0.76118">
        <ele>15.39999961853</ele>
        <time>2015-09-12T09:22:10.000Z</time>
      </trkpt>
      <trkpt lat="45.24668" lon="-0.76101">
        <ele>15.199999809265</ele>
        <time>2015-09-12T09:22:16.000Z</time>
      </trkpt>
      <trkpt lat="45.24667" lon="-0.76085">
        <ele>14.60000038147</ele>
        <time>2015-09-12T09:22:21.000Z</time>
      </trkpt>
      <trkpt lat="45.24666" lon="-0.76064">
        <ele>13.800000190735</ele>
        <time>2015-09-12T09:22:27.000Z</time>
      </trkpt>
      <trkpt lat="45.24666" lon="-0.76046">
        <ele>13.60000038147</ele>
        <time>2015-09-12T09:22:32.000Z</time>
      </trkpt>
      <trkpt lat="45.24666" lon="-0.76029">
        <ele>13.60000038147</ele>
        <time>2015-09-12T09:22:37.000Z</time>
      </trkpt>
      <trkpt lat="45.24665" lon="-0.76008">
        <ele>13.39999961853</ele>
        <time>2015-09-12T09:22:43.000Z</time>
      </trkpt>
      <trkpt lat="45.24663" lon="-0.75988">
        <ele>13.199999809265</ele>
        <time>2015-09-12T09:22:49.000Z</time>
      </trkpt>
      <trkpt lat="45.24663" lon="-0.75968">
        <ele>13</ele>
        <time>2015-09-12T09:22:55.000Z</time>
      </trkpt>
      <trkpt lat="45.24662" lon="-0.7595">
        <ele>13</ele>
        <time>2015-09-12T09:23:00.000Z</time>
      </trkpt>
      <trkpt lat="45.24662" lon="-0.7593">
        <ele>12.800000190735</ele>
        <time>2015-09-12T09:23:06.000Z</time>
      </trkpt>
      <trkpt lat="45.2466" lon="-0.7591">
        <ele>12.60000038147</ele>
        <time>2015-09-12T09:23:12.000Z</time>
      </trkpt>
      <trkpt lat="45.24659" lon="-0.75885">
        <ele>12.39999961853</ele>
        <time>2015-09-12T09:23:20.000Z</time>
      </trkpt>
      <trkpt lat="45.24657" lon="-0.75866">
        <ele>12</ele>
        <time>2015-09-12T09:23:26.000Z</time>
      </trkpt>
      <trkpt lat="45.24657" lon="-0.75846">
        <ele>11.800000190735</ele>
        <time>2015-09-12T09:23:32.000Z</time>
      </trkpt>
      <trkpt lat="45.24656" lon="-0.75829">
        <ele>11.60000038147</ele>
        <time>2015-09-12T09:23:37.000Z</time>
      </trkpt>
      <trkpt lat="45.24656" lon="-0.75809">
        <ele>11.39999961853</ele>
        <time>2015-09-12T09:23:43.000Z</time>
      </trkpt>
      <trkpt lat="45.24655" lon="-0.75786">
        <ele>10.800000190735</ele>
        <time>2015-09-12T09:23:50.000Z</time>
      </trkpt>
      <trkpt lat="45.24654" lon="-0.75765">
        <ele>10.60000038147</ele>
        <time>2015-09-12T09:23:56.000Z</time>
      </trkpt>
      <trkpt lat="45.24654" lon="-0.75744">
        <ele>10.199999809265</ele>
        <time>2015-09-12T09:24:02.000Z</time>
      </trkpt>
      <trkpt lat="45.24653" lon="-0.7572">
        <ele>10</ele>
        <time>2015-09-12T09:24:09.000Z</time>
      </trkpt>
      <trkpt lat="45.24652" lon="-0.75697">
        <ele>9.8000001907349</ele>
        <time>2015-09-12T09:24:16.000Z</time>
      </trkpt>
      <trkpt lat="45.24652" lon="-0.75673">
        <ele>9.1999998092651</ele>
        <time>2015-09-12T09:24:23.000Z</time>
      </trkpt>
      <trkpt lat="45.24652" lon="-0.75656">
        <ele>8.8000001907349</ele>
        <time>2015-09-12T09:24:28.000Z</time>
      </trkpt>
      <trkpt lat="45.24651" lon="-0.75637">
        <ele>8.1999998092651</ele>
        <time>2015-09-12T09:24:34.000Z</time>
      </trkpt>
      <trkpt lat="45.2465" lon="-0.75621">
        <ele>7.8000001907349</ele>
        <time>2015-09-12T09:24:39.000Z</time>
      </trkpt>
      <trkpt lat="45.2465" lon="-0.75601">
        <ele>7.4000000953674</ele>
        <time>2015-09-12T09:24:45.000Z</time>
      </trkpt>
      <trkpt lat="45.24649" lon="-0.75581">
        <ele>6.8000001907349</ele>
        <time>2015-09-12T09:24:51.000Z</time>
      </trkpt>
      <trkpt lat="45.24649" lon="-0.75565">
        <ele>6.4000000953674</ele>
        <time>2015-09-12T09:24:56.000Z</time>
      </trkpt>
      <trkpt lat="45.24647" lon="-0.7554">
        <ele>6</ele>
        <time>2015-09-12T09:25:03.000Z</time>
      </trkpt>
      <trkpt lat="45.24647" lon="-0.75522">
        <ele>6.1999998092651</ele>
        <time>2015-09-12T09:25:09.000Z</time>
      </trkpt>
      <trkpt lat="45.24648" lon="-0.755">
        <ele>6.4000000953674</ele>
        <time>2015-09-12T09:25:16.000Z</time>
      </trkpt>
      <trkpt lat="45.24648" lon="-0.75486">
        <ele>6.5999999046326</ele>
        <time>2015-09-12T09:25:20.000Z</time>
      </trkpt>
      <trkpt lat="45.24648" lon="-0.75468">
        <ele>6.8000001907349</ele>
        <time>2015-09-12T09:25:26.000Z</time>
      </trkpt>
      <trkpt lat="45.24648" lon="-0.75451">
        <ele>6.5999999046326</ele>
        <time>2015-09-12T09:25:31.000Z</time>
      </trkpt>
      <trkpt lat="45.24646" lon="-0.75432">
        <ele>6.4000000953674</ele>
        <time>2015-09-12T09:25:37.000Z</time>
      </trkpt>
      <trkpt lat="45.24644" lon="-0.75417">
        <ele>6.1999998092651</ele>
        <time>2015-09-12T09:25:42.000Z</time>
      </trkpt>
      <trkpt lat="45.24643" lon="-0.75403">
        <ele>6</ele>
        <time>2015-09-12T09:25:47.000Z</time>
      </trkpt>
      <trkpt lat="45.24644" lon="-0.75388">
        <ele>5.8000001907349</ele>
        <time>2015-09-12T09:25:52.000Z</time>
      </trkpt>
      <trkpt lat="45.24644" lon="-0.75384">
        <ele>5.8000001907349</ele>
        <time>2015-09-12T09:25:53.000Z</time>
      </trkpt>
      <trkpt lat="45.24642" lon="-0.75378">
        <ele>5.8000001907349</ele>
        <time>2015-09-12T09:25:56.000Z</time>
      </trkpt>
      <trkpt lat="45.24642" lon="-0.7536">
        <ele>5.1999998092651</ele>
        <time>2015-09-12T09:26:03.000Z</time>
      </trkpt>
      <trkpt lat="45.24641" lon="-0.75348">
        <ele>4.8000001907349</ele>
        <time>2015-09-12T09:26:07.000Z</time>
      </trkpt>
      <trkpt lat="45.24639" lon="-0.75333">
        <ele>4.1999998092651</ele>
        <time>2015-09-12T09:26:11.000Z</time>
      </trkpt>
      <trkpt lat="45.24634" lon="-0.75316">
        <ele>3.4000000953674</ele>
        <time>2015-09-12T09:26:16.000Z</time>
      </trkpt>
      <trkpt lat="45.24628" lon="-0.75298">
        <ele>3</ele>
        <time>2015-09-12T09:26:22.000Z</time>
      </trkpt>
      <trkpt lat="45.24627" lon="-0.75295">
        <ele>3</ele>
        <time>2015-09-12T09:26:23.000Z</time>
      </trkpt>
      <trkpt lat="45.24622" lon="-0.75279">
        <ele>3.2000000476837</ele>
        <time>2015-09-12T09:26:28.000Z</time>
      </trkpt>
      <trkpt lat="45.24619" lon="-0.75272">
        <ele>3.2000000476837</ele>
        <time>2015-09-12T09:26:30.000Z</time>
      </trkpt>
      <trkpt lat="45.24609" lon="-0.75251">
        <ele>3.4000000953674</ele>
        <time>2015-09-12T09:26:37.000Z</time>
      </trkpt>
      <trkpt lat="45.246" lon="-0.7523">
        <ele>3.4000000953674</ele>
        <time>2015-09-12T09:26:44.000Z</time>
      </trkpt>
      <trkpt lat="45.24595" lon="-0.75215">
        <ele>3.4000000953674</ele>
        <time>2015-09-12T09:26:49.000Z</time>
      </trkpt>
      <trkpt lat="45.24595" lon="-0.75179">
        <ele>3.4000000953674</ele>
        <time>2015-09-12T09:26:59.000Z</time>
      </trkpt>
      <trkpt lat="45.24597" lon="-0.75157">
        <ele>3.4000000953674</ele>
        <time>2015-09-12T09:27:05.000Z</time>
      </trkpt>
      <trkpt lat="45.24597" lon="-0.75138">
        <ele>3.4000000953674</ele>
        <time>2015-09-12T09:27:10.000Z</time>
      </trkpt>
      <trkpt lat="45.2459" lon="-0.75123">
        <ele>3</ele>
        <time>2015-09-12T09:27:15.000Z</time>
      </trkpt>
      <trkpt lat="45.24577" lon="-0.75117">
        <ele>2.7999999523163</ele>
        <time>2015-09-12T09:27:21.000Z</time>
      </trkpt>
      <trkpt lat="45.24561" lon="-0.75113">
        <ele>3</ele>
        <time>2015-09-12T09:27:27.000Z</time>
      </trkpt>
      <trkpt lat="45.24548" lon="-0.75108">
        <ele>3</ele>
        <time>2015-09-12T09:27:33.000Z</time>
      </trkpt>
      <trkpt lat="45.24534" lon="-0.75104">
        <ele>3</ele>
        <time>2015-09-12T09:27:39.000Z</time>
      </trkpt>
      <trkpt lat="45.24521" lon="-0.751">
        <ele>3</ele>
        <time>2015-09-12T09:27:45.000Z</time>
      </trkpt>
      <trkpt lat="45.24503" lon="-0.75095">
        <ele>3</ele>
        <time>2015-09-12T09:27:53.000Z</time>
      </trkpt>
      <trkpt lat="45.24487" lon="-0.7509">
        <ele>3.2000000476837</ele>
        <time>2015-09-12T09:28:00.000Z</time>
      </trkpt>
      <trkpt lat="45.24475" lon="-0.75086">
        <ele>3.4000000953674</ele>
        <time>2015-09-12T09:28:05.000Z</time>
      </trkpt>
      <trkpt lat="45.24463" lon="-0.75083">
        <ele>3.5999999046326</ele>
        <time>2015-09-12T09:28:10.000Z</time>
      </trkpt>
      <trkpt lat="45.24447" lon="-0.75078">
        <ele>3.2000000476837</ele>
        <time>2015-09-12T09:28:17.000Z</time>
      </trkpt>
      <trkpt lat="45.24431" lon="-0.75074">
        <ele>2.7999999523163</ele>
        <time>2015-09-12T09:28:24.000Z</time>
      </trkpt>
      <trkpt lat="45.24417" lon="-0.75071">
        <ele>2.5999999046326</ele>
        <time>2015-09-12T09:28:30.000Z</time>
      </trkpt>
      <trkpt lat="45.24404" lon="-0.75067">
        <ele>2.4000000953674</ele>
        <time>2015-09-12T09:28:36.000Z</time>
      </trkpt>
      <trkpt lat="45.24389" lon="-0.75064">
        <ele>2.2000000476837</ele>
        <time>2015-09-12T09:28:42.000Z</time>
      </trkpt>
      <trkpt lat="45.24375" lon="-0.75061">
        <ele>2.2000000476837</ele>
        <time>2015-09-12T09:28:48.000Z</time>
      </trkpt>
      <trkpt lat="45.24361" lon="-0.75058">
        <ele>2.2000000476837</ele>
        <time>2015-09-12T09:28:54.000Z</time>
      </trkpt>
      <trkpt lat="45.24347" lon="-0.75055">
        <ele>2.4000000953674</ele>
        <time>2015-09-12T09:29:00.000Z</time>
      </trkpt>
      <trkpt lat="45.24328" lon="-0.75051">
        <ele>2.5999999046326</ele>
        <time>2015-09-12T09:29:08.000Z</time>
      </trkpt>
      <trkpt lat="45.24315" lon="-0.75048">
        <ele>2.5999999046326</ele>
        <time>2015-09-12T09:29:14.000Z</time>
      </trkpt>
      <trkpt lat="45.24303" lon="-0.75046">
        <ele>2.7999999523163</ele>
        <time>2015-09-12T09:29:19.000Z</time>
      </trkpt>
      <trkpt lat="45.2429" lon="-0.75044">
        <ele>2.5999999046326</ele>
        <time>2015-09-12T09:29:25.000Z</time>
      </trkpt>
      <trkpt lat="45.24274" lon="-0.7504">
        <ele>2.4000000953674</ele>
        <time>2015-09-12T09:29:32.000Z</time>
      </trkpt>
      <trkpt lat="45.2426" lon="-0.75037">
        <ele>2.4000000953674</ele>
        <time>2015-09-12T09:29:38.000Z</time>
      </trkpt>
      <trkpt lat="45.24246" lon="-0.75034">
        <ele>2.2000000476837</ele>
        <time>2015-09-12T09:29:44.000Z</time>
      </trkpt>
      <trkpt lat="45.24215" lon="-0.75026">
        <ele>1.6000000238419</ele>
        <time>2015-09-12T09:29:57.000Z</time>
      </trkpt>
      <trkpt lat="45.242" lon="-0.75022">
        <ele>1.6000000238419</ele>
        <time>2015-09-12T09:30:04.000Z</time>
      </trkpt>
      <trkpt lat="45.24186" lon="-0.75018">
        <ele>1.6000000238419</ele>
        <time>2015-09-12T09:30:11.000Z</time>
      </trkpt>
      <trkpt lat="45.24172" lon="-0.75014">
        <ele>1.6000000238419</ele>
        <time>2015-09-12T09:30:17.000Z</time>
      </trkpt>
      <trkpt lat="45.24157" lon="-0.7501">
        <ele>1.7999999523163</ele>
        <time>2015-09-12T09:30:24.000Z</time>
      </trkpt>
      <trkpt lat="45.24144" lon="-0.75006">
        <ele>1.7999999523163</ele>
        <time>2015-09-12T09:30:30.000Z</time>
      </trkpt>
      <trkpt lat="45.24131" lon="-0.75002">
        <ele>2</ele>
        <time>2015-09-12T09:30:36.000Z</time>
      </trkpt>
      <trkpt lat="45.24118" lon="-0.74997">
        <ele>1.6000000238419</ele>
        <time>2015-09-12T09:30:42.000Z</time>
      </trkpt>
      <trkpt lat="45.24104" lon="-0.74993">
        <ele>1</ele>
        <time>2015-09-12T09:30:48.000Z</time>
      </trkpt>
      <trkpt lat="45.24089" lon="-0.74987">
        <ele>1</ele>
        <time>2015-09-12T09:30:55.000Z</time>
      </trkpt>
      <trkpt lat="45.24072" lon="-0.74982">
        <ele>1</ele>
        <time>2015-09-12T09:31:03.000Z</time>
      </trkpt>
      <trkpt lat="45.24059" lon="-0.74977">
        <ele>1</ele>
        <time>2015-09-12T09:31:09.000Z</time>
      </trkpt>
      <trkpt lat="45.24045" lon="-0.74971">
        <ele>1</ele>
        <time>2015-09-12T09:31:15.000Z</time>
      </trkpt>
      <trkpt lat="45.24035" lon="-0.74968">
        <ele>1.2000000476837</ele>
        <time>2015-09-12T09:31:20.000Z</time>
      </trkpt>
      <trkpt lat="45.24023" lon="-0.74963">
        <ele>1.2000000476837</ele>
        <time>2015-09-12T09:31:25.000Z</time>
      </trkpt>
      <trkpt lat="45.24011" lon="-0.74958">
        <ele>1.3999999761581</ele>
        <time>2015-09-12T09:31:30.000Z</time>
      </trkpt>
      <trkpt lat="45.23999" lon="-0.74953">
        <ele>1.6000000238419</ele>
        <time>2015-09-12T09:31:35.000Z</time>
      </trkpt>
      <trkpt lat="45.23982" lon="-0.74947">
        <ele>1.7999999523163</ele>
        <time>2015-09-12T09:31:42.000Z</time>
      </trkpt>
      <trkpt lat="45.23969" lon="-0.74943">
        <ele>1.6000000238419</ele>
        <time>2015-09-12T09:31:48.000Z</time>
      </trkpt>
      <trkpt lat="45.23956" lon="-0.74939">
        <ele>1.7999999523163</ele>
        <time>2015-09-12T09:31:54.000Z</time>
      </trkpt>
      <trkpt lat="45.23944" lon="-0.74934">
        <ele>2.2000000476837</ele>
        <time>2015-09-12T09:32:00.000Z</time>
      </trkpt>
      <trkpt lat="45.23928" lon="-0.74927">
        <ele>2.7999999523163</ele>
        <time>2015-09-12T09:32:07.000Z</time>
      </trkpt>
      <trkpt lat="45.2391" lon="-0.74921">
        <ele>2.7999999523163</ele>
        <time>2015-09-12T09:32:15.000Z</time>
      </trkpt>
      <trkpt lat="45.23894" lon="-0.74915">
        <ele>2.7999999523163</ele>
        <time>2015-09-12T09:32:22.000Z</time>
      </trkpt>
      <trkpt lat="45.23879" lon="-0.7491">
        <ele>2.7999999523163</ele>
        <time>2015-09-12T09:32:29.000Z</time>
      </trkpt>
      <trkpt lat="45.23864" lon="-0.74905">
        <ele>2.4000000953674</ele>
        <time>2015-09-12T09:32:36.000Z</time>
      </trkpt>
      <trkpt lat="45.23848" lon="-0.749">
        <ele>2.2000000476837</ele>
        <time>2015-09-12T09:32:43.000Z</time>
      </trkpt>
      <trkpt lat="45.23835" lon="-0.74895">
        <ele>2.2000000476837</ele>
        <time>2015-09-12T09:32:49.000Z</time>
      </trkpt>
      <trkpt lat="45.23822" lon="-0.7489">
        <ele>2</ele>
        <time>2015-09-12T09:32:55.000Z</time>
      </trkpt>
      <trkpt lat="45.23807" lon="-0.74884">
        <ele>2</ele>
        <time>2015-09-12T09:33:02.000Z</time>
      </trkpt>
      <trkpt lat="45.23792" lon="-0.74878">
        <ele>2</ele>
        <time>2015-09-12T09:33:09.000Z</time>
      </trkpt>
      <trkpt lat="45.23781" lon="-0.74875">
        <ele>2.2000000476837</ele>
        <time>2015-09-12T09:33:14.000Z</time>
      </trkpt>
      <trkpt lat="45.23768" lon="-0.74869">
        <ele>2.4000000953674</ele>
        <time>2015-09-12T09:33:20.000Z</time>
      </trkpt>
      <trkpt lat="45.23749" lon="-0.74863">
        <ele>2.5999999046326</ele>
        <time>2015-09-12T09:33:28.000Z</time>
      </trkpt>
      <trkpt lat="45.23733" lon="-0.74858">
        <ele>2.5999999046326</ele>
        <time>2015-09-12T09:33:36.000Z</time>
      </trkpt>
      <trkpt lat="45.2372" lon="-0.74855">
        <ele>2.5999999046326</ele>
        <time>2015-09-12T09:33:42.000Z</time>
      </trkpt>
      <trkpt lat="45.23707" lon="-0.74852">
        <ele>2.7999999523163</ele>
        <time>2015-09-12T09:33:48.000Z</time>
      </trkpt>
      <trkpt lat="45.23695" lon="-0.74848">
        <ele>3</ele>
        <time>2015-09-12T09:33:54.000Z</time>
      </trkpt>
      <trkpt lat="45.23682" lon="-0.74843">
        <ele>3.2000000476837</ele>
        <time>2015-09-12T09:34:00.000Z</time>
      </trkpt>
      <trkpt lat="45.23667" lon="-0.74839">
        <ele>3.5999999046326</ele>
        <time>2015-09-12T09:34:06.000Z</time>
      </trkpt>
      <trkpt lat="45.23653" lon="-0.74836">
        <ele>4.1999998092651</ele>
        <time>2015-09-12T09:34:12.000Z</time>
      </trkpt>
      <trkpt lat="45.2364" lon="-0.74833">
        <ele>4.5999999046326</ele>
        <time>2015-09-12T09:34:18.000Z</time>
      </trkpt>
      <trkpt lat="45.23626" lon="-0.74829">
        <ele>5</ele>
        <time>2015-09-12T09:34:24.000Z</time>
      </trkpt>
      <trkpt lat="45.23614" lon="-0.74826">
        <ele>5</ele>
        <time>2015-09-12T09:34:29.000Z</time>
      </trkpt>
      <trkpt lat="45.236" lon="-0.74823">
        <ele>5</ele>
        <time>2015-09-12T09:34:35.000Z</time>
      </trkpt>
      <trkpt lat="45.23586" lon="-0.7482">
        <ele>5</ele>
        <time>2015-09-12T09:34:41.000Z</time>
      </trkpt>
      <trkpt lat="45.23571" lon="-0.74818">
        <ele>5</ele>
        <time>2015-09-12T09:34:47.000Z</time>
      </trkpt>
      <trkpt lat="45.23558" lon="-0.74816">
        <ele>5</ele>
        <time>2015-09-12T09:34:53.000Z</time>
      </trkpt>
      <trkpt lat="45.23542" lon="-0.74814">
        <ele>5</ele>
        <time>2015-09-12T09:35:00.000Z</time>
      </trkpt>
      <trkpt lat="45.23525" lon="-0.74812">
        <ele>4.8000001907349</ele>
        <time>2015-09-12T09:35:07.000Z</time>
      </trkpt>
      <trkpt lat="45.23511" lon="-0.7481">
        <ele>4.5999999046326</ele>
        <time>2015-09-12T09:35:13.000Z</time>
      </trkpt>
      <trkpt lat="45.23497" lon="-0.74808">
        <ele>4.4000000953674</ele>
        <time>2015-09-12T09:35:19.000Z</time>
      </trkpt>
      <trkpt lat="45.23484" lon="-0.74806">
        <ele>4.1999998092651</ele>
        <time>2015-09-12T09:35:25.000Z</time>
      </trkpt>
      <trkpt lat="45.23466" lon="-0.74804">
        <ele>4</ele>
        <time>2015-09-12T09:35:33.000Z</time>
      </trkpt>
      <trkpt lat="45.23449" lon="-0.74802">
        <ele>4</ele>
        <time>2015-09-12T09:35:40.000Z</time>
      </trkpt>
      <trkpt lat="45.23433" lon="-0.74801">
        <ele>4</ele>
        <time>2015-09-12T09:35:46.000Z</time>
      </trkpt>
      <trkpt lat="45.23415" lon="-0.74799">
        <ele>3.7999999523163</ele>
        <time>2015-09-12T09:35:54.000Z</time>
      </trkpt>
      <trkpt lat="45.23399" lon="-0.74798">
        <ele>3.7999999523163</ele>
        <time>2015-09-12T09:36:01.000Z</time>
      </trkpt>
      <trkpt lat="45.23383" lon="-0.74796">
        <ele>3.7999999523163</ele>
        <time>2015-09-12T09:36:08.000Z</time>
      </trkpt>
      <trkpt lat="45.2337" lon="-0.74794">
        <ele>3.7999999523163</ele>
        <time>2015-09-12T09:36:14.000Z</time>
      </trkpt>
      <trkpt lat="45.23357" lon="-0.74793">
        <ele>3.7999999523163</ele>
        <time>2015-09-12T09:36:20.000Z</time>
      </trkpt>
      <trkpt lat="45.23344" lon="-0.74792">
        <ele>3.7999999523163</ele>
        <time>2015-09-12T09:36:26.000Z</time>
      </trkpt>
      <trkpt lat="45.2333" lon="-0.74789">
        <ele>3.7999999523163</ele>
        <time>2015-09-12T09:36:32.000Z</time>
      </trkpt>
      <trkpt lat="45.23312" lon="-0.74788">
        <ele>3.7999999523163</ele>
        <time>2015-09-12T09:36:40.000Z</time>
      </trkpt>
      <trkpt lat="45.23299" lon="-0.74786">
        <ele>3.5999999046326</ele>
        <time>2015-09-12T09:36:46.000Z</time>
      </trkpt>
      <trkpt lat="45.23287" lon="-0.74786">
        <ele>3.4000000953674</ele>
        <time>2015-09-12T09:36:52.000Z</time>
      </trkpt>
      <trkpt lat="45.23271" lon="-0.74784">
        <ele>3</ele>
        <time>2015-09-12T09:36:59.000Z</time>
      </trkpt>
      <trkpt lat="45.23259" lon="-0.74782">
        <ele>2.5999999046326</ele>
        <time>2015-09-12T09:37:05.000Z</time>
      </trkpt>
      <trkpt lat="45.2324" lon="-0.7478">
        <ele>2.2000000476837</ele>
        <time>2015-09-12T09:37:13.000Z</time>
      </trkpt>
      <trkpt lat="45.23222" lon="-0.74779">
        <ele>2</ele>
        <time>2015-09-12T09:37:21.000Z</time>
      </trkpt>
      <trkpt lat="45.23207" lon="-0.74776">
        <ele>2</ele>
        <time>2015-09-12T09:37:28.000Z</time>
      </trkpt>
      <trkpt lat="45.23194" lon="-0.74774">
        <ele>1.7999999523163</ele>
        <time>2015-09-12T09:37:34.000Z</time>
      </trkpt>
      <trkpt lat="45.23176" lon="-0.74773">
        <ele>1.6000000238419</ele>
        <time>2015-09-12T09:37:42.000Z</time>
      </trkpt>
      <trkpt lat="45.23163" lon="-0.74771">
        <ele>1.3999999761581</ele>
        <time>2015-09-12T09:37:48.000Z</time>
      </trkpt>
      <trkpt lat="45.23146" lon="-0.74768">
        <ele>1</ele>
        <time>2015-09-12T09:37:56.000Z</time>
      </trkpt>
      <trkpt lat="45.23133" lon="-0.74767">
        <ele>0.60000002384186</ele>
        <time>2015-09-12T09:38:02.000Z</time>
      </trkpt>
      <trkpt lat="45.2312" lon="-0.74765">
        <ele>1</ele>
        <time>2015-09-12T09:38:08.000Z</time>
      </trkpt>
      <trkpt lat="45.23101" lon="-0.74763">
        <ele>1.7999999523163</ele>
        <time>2015-09-12T09:38:17.000Z</time>
      </trkpt>
      <trkpt lat="45.23082" lon="-0.74761">
        <ele>2.7999999523163</ele>
        <time>2015-09-12T09:38:26.000Z</time>
      </trkpt>
      <trkpt lat="45.23069" lon="-0.74758">
        <ele>3.5999999046326</ele>
        <time>2015-09-12T09:38:32.000Z</time>
      </trkpt>
      <trkpt lat="45.23053" lon="-0.74756">
        <ele>4.5999999046326</ele>
        <time>2015-09-12T09:38:39.000Z</time>
      </trkpt>
      <trkpt lat="45.23039" lon="-0.74754">
        <ele>5</ele>
        <time>2015-09-12T09:38:45.000Z</time>
      </trkpt>
      <trkpt lat="45.23025" lon="-0.74753">
        <ele>5.1999998092651</ele>
        <time>2015-09-12T09:38:51.000Z</time>
      </trkpt>
      <trkpt lat="45.22994" lon="-0.74749">
        <ele>5</ele>
        <time>2015-09-12T09:39:05.000Z</time>
      </trkpt>
      <trkpt lat="45.22978" lon="-0.74747">
        <ele>4.8000001907349</ele>
        <time>2015-09-12T09:39:12.000Z</time>
      </trkpt>
      <trkpt lat="45.22964" lon="-0.74745">
        <ele>4.5999999046326</ele>
        <time>2015-09-12T09:39:18.000Z</time>
      </trkpt>
      <trkpt lat="45.22948" lon="-0.74743">
        <ele>4.4000000953674</ele>
        <time>2015-09-12T09:39:25.000Z</time>
      </trkpt>
      <trkpt lat="45.22932" lon="-0.74741">
        <ele>4.4000000953674</ele>
        <time>2015-09-12T09:39:32.000Z</time>
      </trkpt>
      <trkpt lat="45.22922" lon="-0.74739">
        <ele>4.8000001907349</ele>
        <time>2015-09-12T09:39:37.000Z</time>
      </trkpt>
      <trkpt lat="45.22911" lon="-0.74735">
        <ele>5</ele>
        <time>2015-09-12T09:39:42.000Z</time>
      </trkpt>
      <trkpt lat="45.22895" lon="-0.74733">
        <ele>5.4000000953674</ele>
        <time>2015-09-12T09:39:49.000Z</time>
      </trkpt>
      <trkpt lat="45.22883" lon="-0.74731">
        <ele>5.8000001907349</ele>
        <time>2015-09-12T09:39:55.000Z</time>
      </trkpt>
      <trkpt lat="45.22876" lon="-0.74729">
        <ele>5.8000001907349</ele>
        <time>2015-09-12T09:40:01.000Z</time>
      </trkpt>
      <trkpt lat="45.22863" lon="-0.74728">
        <ele>5.8000001907349</ele>
        <time>2015-09-12T09:40:09.000Z</time>
      </trkpt>
      <trkpt lat="45.22848" lon="-0.74727">
        <ele>5.5999999046326</ele>
        <time>2015-09-12T09:40:16.000Z</time>
      </trkpt>
      <trkpt lat="45.22834" lon="-0.74728">
        <ele>5.4000000953674</ele>
        <time>2015-09-12T09:40:22.000Z</time>
      </trkpt>
      <trkpt lat="45.22829" lon="-0.74728">
        <ele>5.4000000953674</ele>
        <time>2015-09-12T09:40:26.000Z</time>
      </trkpt>
      <trkpt lat="45.22828" lon="-0.74729">
        <ele>5.4000000953674</ele>
        <time>2015-09-12T09:40:33.000Z</time>
      </trkpt>
      <trkpt lat="45.22825" lon="-0.74731">
        <ele>5.4000000953674</ele>
        <time>2015-09-12T09:41:15.000Z</time>
      </trkpt>
      <trkpt lat="45.22825" lon="-0.74729">
        <ele>5.4000000953674</ele>
        <time>2015-09-12T09:41:38.000Z</time>
      </trkpt>
      <trkpt lat="45.22823" lon="-0.74729">
        <ele>5.4000000953674</ele>
        <time>2015-09-12T09:41:43.000Z</time>
      </trkpt>
      <trkpt lat="45.2282" lon="-0.74728">
        <ele>5.1999998092651</ele>
        <time>2015-09-12T09:41:48.000Z</time>
      </trkpt>
      <trkpt lat="45.22811" lon="-0.74728">
        <ele>5.1999998092651</ele>
        <time>2015-09-12T09:41:56.000Z</time>
      </trkpt>
      <trkpt lat="45.22804" lon="-0.74727">
        <ele>5</ele>
        <time>2015-09-12T09:42:02.000Z</time>
      </trkpt>
      <trkpt lat="45.22801" lon="-0.74728">
        <ele>5</ele>
        <time>2015-09-12T09:42:06.000Z</time>
      </trkpt>
      <trkpt lat="45.22791" lon="-0.74728">
        <ele>5</ele>
        <time>2015-09-12T09:42:13.000Z</time>
      </trkpt>
      <trkpt lat="45.22789" lon="-0.74728">
        <ele>5</ele>
        <time>2015-09-12T09:42:14.000Z</time>
      </trkpt>
      <trkpt lat="45.22786" lon="-0.74729">
        <ele>5</ele>
        <time>2015-09-12T09:42:19.000Z</time>
      </trkpt>
      <trkpt lat="45.22774" lon="-0.74731">
        <ele>5.1999998092651</ele>
        <time>2015-09-12T09:42:28.000Z</time>
      </trkpt>
      <trkpt lat="45.22761" lon="-0.74731">
        <ele>5.1999998092651</ele>
        <time>2015-09-12T09:42:34.000Z</time>
      </trkpt>
      <trkpt lat="45.22747" lon="-0.74733">
        <ele>5.4000000953674</ele>
        <time>2015-09-12T09:42:40.000Z</time>
      </trkpt>
      <trkpt lat="45.22737" lon="-0.74734">
        <ele>5.5999999046326</ele>
        <time>2015-09-12T09:42:45.000Z</time>
      </trkpt>
      <trkpt lat="45.22726" lon="-0.74736">
        <ele>5.5999999046326</ele>
        <time>2015-09-12T09:42:50.000Z</time>
      </trkpt>
      <trkpt lat="45.22714" lon="-0.74739">
        <ele>5.8000001907349</ele>
        <time>2015-09-12T09:42:56.000Z</time>
      </trkpt>
      <trkpt lat="45.22696" lon="-0.74744">
        <ele>6</ele>
        <time>2015-09-12T09:43:04.000Z</time>
      </trkpt>
      <trkpt lat="45.22683" lon="-0.74746">
        <ele>6</ele>
        <time>2015-09-12T09:43:10.000Z</time>
      </trkpt>
      <trkpt lat="45.22671" lon="-0.74746">
        <ele>5.8000001907349</ele>
        <time>2015-09-12T09:43:16.000Z</time>
      </trkpt>
      <trkpt lat="45.22657" lon="-0.74749">
        <ele>5.5999999046326</ele>
        <time>2015-09-12T09:43:22.000Z</time>
      </trkpt>
      <trkpt lat="45.22646" lon="-0.74753">
        <ele>5.5999999046326</ele>
        <time>2015-09-12T09:43:27.000Z</time>
      </trkpt>
      <trkpt lat="45.22629" lon="-0.74755">
        <ele>5.4000000953674</ele>
        <time>2015-09-12T09:43:34.000Z</time>
      </trkpt>
      <trkpt lat="45.22618" lon="-0.74758">
        <ele>5.4000000953674</ele>
        <time>2015-09-12T09:43:39.000Z</time>
      </trkpt>
      <trkpt lat="45.22607" lon="-0.7476">
        <ele>5.4000000953674</ele>
        <time>2015-09-12T09:43:44.000Z</time>
      </trkpt>
      <trkpt lat="45.22588" lon="-0.74763">
        <ele>5.5999999046326</ele>
        <time>2015-09-12T09:43:52.000Z</time>
      </trkpt>
      <trkpt lat="45.22557" lon="-0.74766">
        <ele>5.1999998092651</ele>
        <time>2015-09-12T09:44:05.000Z</time>
      </trkpt>
      <trkpt lat="45.22539" lon="-0.74769">
        <ele>5.1999998092651</ele>
        <time>2015-09-12T09:44:12.000Z</time>
      </trkpt>
      <trkpt lat="45.22527" lon="-0.74771">
        <ele>5.4000000953674</ele>
        <time>2015-09-12T09:44:17.000Z</time>
      </trkpt>
      <trkpt lat="45.22511" lon="-0.74773">
        <ele>5.5999999046326</ele>
        <time>2015-09-12T09:44:24.000Z</time>
      </trkpt>
      <trkpt lat="45.22494" lon="-0.74776">
        <ele>6</ele>
        <time>2015-09-12T09:44:31.000Z</time>
      </trkpt>
      <trkpt lat="45.22484" lon="-0.74778">
        <ele>6</ele>
        <time>2015-09-12T09:44:35.000Z</time>
      </trkpt>
      <trkpt lat="45.22471" lon="-0.7478">
        <ele>6.1999998092651</ele>
        <time>2015-09-12T09:44:40.000Z</time>
      </trkpt>
      <trkpt lat="45.22457" lon="-0.74782">
        <ele>6</ele>
        <time>2015-09-12T09:44:46.000Z</time>
      </trkpt>
      <trkpt lat="45.22426" lon="-0.74787">
        <ele>5.5999999046326</ele>
        <time>2015-09-12T09:44:59.000Z</time>
      </trkpt>
      <trkpt lat="45.22408" lon="-0.7479">
        <ele>5.1999998092651</ele>
        <time>2015-09-12T09:45:07.000Z</time>
      </trkpt>
      <trkpt lat="45.22394" lon="-0.74791">
        <ele>4.8000001907349</ele>
        <time>2015-09-12T09:45:13.000Z</time>
      </trkpt>
      <trkpt lat="45.2238" lon="-0.74792">
        <ele>4.8000001907349</ele>
        <time>2015-09-12T09:45:19.000Z</time>
      </trkpt>
      <trkpt lat="45.22364" lon="-0.74792">
        <ele>4.5999999046326</ele>
        <time>2015-09-12T09:45:26.000Z</time>
      </trkpt>
      <trkpt lat="45.22347" lon="-0.74794">
        <ele>4.4000000953674</ele>
        <time>2015-09-12T09:45:33.000Z</time>
      </trkpt>
      <trkpt lat="45.2233" lon="-0.74795">
        <ele>4.4000000953674</ele>
        <time>2015-09-12T09:45:41.000Z</time>
      </trkpt>
      <trkpt lat="45.22315" lon="-0.74797">
        <ele>4.1999998092651</ele>
        <time>2015-09-12T09:45:47.000Z</time>
      </trkpt>
      <trkpt lat="45.22295" lon="-0.748">
        <ele>3.7999999523163</ele>
        <time>2015-09-12T09:45:56.000Z</time>
      </trkpt>
      <trkpt lat="45.22281" lon="-0.74804">
        <ele>3.7999999523163</ele>
        <time>2015-09-12T09:46:03.000Z</time>
      </trkpt>
      <trkpt lat="45.22263" lon="-0.74808">
        <ele>3.5999999046326</ele>
        <time>2015-09-12T09:46:11.000Z</time>
      </trkpt>
      <trkpt lat="45.22249" lon="-0.74812">
        <ele>3.5999999046326</ele>
        <time>2015-09-12T09:46:17.000Z</time>
      </trkpt>
      <trkpt lat="45.22232" lon="-0.74817">
        <ele>3.4000000953674</ele>
        <time>2015-09-12T09:46:25.000Z</time>
      </trkpt>
      <trkpt lat="45.22216" lon="-0.74821">
        <ele>3.2000000476837</ele>
        <time>2015-09-12T09:46:32.000Z</time>
      </trkpt>
      <trkpt lat="45.22201" lon="-0.74829">
        <ele>3.2000000476837</ele>
        <time>2015-09-12T09:46:39.000Z</time>
      </trkpt>
      <trkpt lat="45.22187" lon="-0.74832">
        <ele>3</ele>
        <time>2015-09-12T09:46:45.000Z</time>
      </trkpt>
      <trkpt lat="45.22176" lon="-0.74835">
        <ele>3</ele>
        <time>2015-09-12T09:46:51.000Z</time>
      </trkpt>
      <trkpt lat="45.22145" lon="-0.74843">
        <ele>3</ele>
        <time>2015-09-12T09:47:05.000Z</time>
      </trkpt>
      <trkpt lat="45.22131" lon="-0.74846">
        <ele>3</ele>
        <time>2015-09-12T09:47:11.000Z</time>
      </trkpt>
      <trkpt lat="45.22114" lon="-0.74849">
        <ele>3.2000000476837</ele>
        <time>2015-09-12T09:47:19.000Z</time>
      </trkpt>
      <trkpt lat="45.22097" lon="-0.7485">
        <ele>3.4000000953674</ele>
        <time>2015-09-12T09:47:27.000Z</time>
      </trkpt>
      <trkpt lat="45.2208" lon="-0.74852">
        <ele>3.5999999046326</ele>
        <time>2015-09-12T09:47:34.000Z</time>
      </trkpt>
      <trkpt lat="45.22069" lon="-0.74852">
        <ele>3.5999999046326</ele>
        <time>2015-09-12T09:47:39.000Z</time>
      </trkpt>
      <trkpt lat="45.22052" lon="-0.74855">
        <ele>3.5999999046326</ele>
        <time>2015-09-12T09:47:47.000Z</time>
      </trkpt>
      <trkpt lat="45.22037" lon="-0.74858">
        <ele>3.7999999523163</ele>
        <time>2015-09-12T09:47:54.000Z</time>
      </trkpt>
      <trkpt lat="45.22025" lon="-0.74859">
        <ele>4.1999998092651</ele>
        <time>2015-09-12T09:48:00.000Z</time>
      </trkpt>
      <trkpt lat="45.2201" lon="-0.74859">
        <ele>4.5999999046326</ele>
        <time>2015-09-12T09:48:06.000Z</time>
      </trkpt>
      <trkpt lat="45.21994" lon="-0.74861">
        <ele>5</ele>
        <time>2015-09-12T09:48:13.000Z</time>
      </trkpt>
      <trkpt lat="45.21984" lon="-0.74862">
        <ele>5.1999998092651</ele>
        <time>2015-09-12T09:48:18.000Z</time>
      </trkpt>
      <trkpt lat="45.21971" lon="-0.74864">
        <ele>5.5999999046326</ele>
        <time>2015-09-12T09:48:24.000Z</time>
      </trkpt>
      <trkpt lat="45.21955" lon="-0.74866">
        <ele>6</ele>
        <time>2015-09-12T09:48:31.000Z</time>
      </trkpt>
      <trkpt lat="45.21942" lon="-0.74869">
        <ele>6</ele>
        <time>2015-09-12T09:48:37.000Z</time>
      </trkpt>
      <trkpt lat="45.21928" lon="-0.7487">
        <ele>6</ele>
        <time>2015-09-12T09:48:43.000Z</time>
      </trkpt>
      <trkpt lat="45.21915" lon="-0.74871">
        <ele>6</ele>
        <time>2015-09-12T09:48:49.000Z</time>
      </trkpt>
      <trkpt lat="45.21901" lon="-0.74872">
        <ele>6</ele>
        <time>2015-09-12T09:48:55.000Z</time>
      </trkpt>
      <trkpt lat="45.21888" lon="-0.74874">
        <ele>6</ele>
        <time>2015-09-12T09:49:01.000Z</time>
      </trkpt>
      <trkpt lat="45.21877" lon="-0.74877">
        <ele>5.8000001907349</ele>
        <time>2015-09-12T09:49:06.000Z</time>
      </trkpt>
      <trkpt lat="45.21862" lon="-0.7488">
        <ele>5.8000001907349</ele>
        <time>2015-09-12T09:49:13.000Z</time>
      </trkpt>
      <trkpt lat="45.21847" lon="-0.74881">
        <ele>5.5999999046326</ele>
        <time>2015-09-12T09:49:20.000Z</time>
      </trkpt>
      <trkpt lat="45.21836" lon="-0.74881">
        <ele>5.4000000953674</ele>
        <time>2015-09-12T09:49:25.000Z</time>
      </trkpt>
      <trkpt lat="45.21821" lon="-0.74882">
        <ele>5.1999998092651</ele>
        <time>2015-09-12T09:49:32.000Z</time>
      </trkpt>
      <trkpt lat="45.21808" lon="-0.74882">
        <ele>5</ele>
        <time>2015-09-12T09:49:38.000Z</time>
      </trkpt>
      <trkpt lat="45.21794" lon="-0.74883">
        <ele>5</ele>
        <time>2015-09-12T09:49:44.000Z</time>
      </trkpt>
      <trkpt lat="45.21781" lon="-0.74884">
        <ele>5.4000000953674</ele>
        <time>2015-09-12T09:49:50.000Z</time>
      </trkpt>
      <trkpt lat="45.21765" lon="-0.74884">
        <ele>5.5999999046326</ele>
        <time>2015-09-12T09:49:57.000Z</time>
      </trkpt>
      <trkpt lat="45.21737" lon="-0.74885">
        <ele>6.4000000953674</ele>
        <time>2015-09-12T09:50:10.000Z</time>
      </trkpt>
      <trkpt lat="45.21721" lon="-0.74885">
        <ele>6.8000001907349</ele>
        <time>2015-09-12T09:50:17.000Z</time>
      </trkpt>
      <trkpt lat="45.2171" lon="-0.74884">
        <ele>7</ele>
        <time>2015-09-12T09:50:22.000Z</time>
      </trkpt>
      <trkpt lat="45.217" lon="-0.74885">
        <ele>7</ele>
        <time>2015-09-12T09:50:27.000Z</time>
      </trkpt>
      <trkpt lat="45.21684" lon="-0.74884">
        <ele>7</ele>
        <time>2015-09-12T09:50:34.000Z</time>
      </trkpt>
      <trkpt lat="45.21669" lon="-0.74883">
        <ele>7</ele>
        <time>2015-09-12T09:50:41.000Z</time>
      </trkpt>
      <trkpt lat="45.21653" lon="-0.74883">
        <ele>7</ele>
        <time>2015-09-12T09:50:48.000Z</time>
      </trkpt>
      <trkpt lat="45.21642" lon="-0.74883">
        <ele>7</ele>
        <time>2015-09-12T09:50:53.000Z</time>
      </trkpt>
      <trkpt lat="45.2163" lon="-0.74882">
        <ele>6.8000001907349</ele>
        <time>2015-09-12T09:50:59.000Z</time>
      </trkpt>
      <trkpt lat="45.21615" lon="-0.74883">
        <ele>7</ele>
        <time>2015-09-12T09:51:06.000Z</time>
      </trkpt>
      <trkpt lat="45.216" lon="-0.74883">
        <ele>6.8000001907349</ele>
        <time>2015-09-12T09:51:13.000Z</time>
      </trkpt>
      <trkpt lat="45.21588" lon="-0.74883">
        <ele>6.8000001907349</ele>
        <time>2015-09-12T09:51:18.000Z</time>
      </trkpt>
      <trkpt lat="45.21572" lon="-0.74883">
        <ele>6.8000001907349</ele>
        <time>2015-09-12T09:51:25.000Z</time>
      </trkpt>
      <trkpt lat="45.21558" lon="-0.74882">
        <ele>6.8000001907349</ele>
        <time>2015-09-12T09:51:31.000Z</time>
      </trkpt>
      <trkpt lat="45.21543" lon="-0.74883">
        <ele>6.8000001907349</ele>
        <time>2015-09-12T09:51:38.000Z</time>
      </trkpt>
      <trkpt lat="45.21532" lon="-0.74883">
        <ele>6.4000000953674</ele>
        <time>2015-09-12T09:51:43.000Z</time>
      </trkpt>
      <trkpt lat="45.21513" lon="-0.74883">
        <ele>5.5999999046326</ele>
        <time>2015-09-12T09:51:51.000Z</time>
      </trkpt>
      <trkpt lat="45.21498" lon="-0.74882">
        <ele>5</ele>
        <time>2015-09-12T09:51:58.000Z</time>
      </trkpt>
      <trkpt lat="45.21485" lon="-0.74882">
        <ele>4.5999999046326</ele>
        <time>2015-09-12T09:52:04.000Z</time>
      </trkpt>
      <trkpt lat="45.2147" lon="-0.74882">
        <ele>4</ele>
        <time>2015-09-12T09:52:11.000Z</time>
      </trkpt>
      <trkpt lat="45.21459" lon="-0.74881">
        <ele>4</ele>
        <time>2015-09-12T09:52:16.000Z</time>
      </trkpt>
      <trkpt lat="45.21445" lon="-0.7488">
        <ele>4.1999998092651</ele>
        <time>2015-09-12T09:52:22.000Z</time>
      </trkpt>
      <trkpt lat="45.2143" lon="-0.74881">
        <ele>4.4000000953674</ele>
        <time>2015-09-12T09:52:29.000Z</time>
      </trkpt>
      <trkpt lat="45.21414" lon="-0.74881">
        <ele>4.5999999046326</ele>
        <time>2015-09-12T09:52:36.000Z</time>
      </trkpt>
      <trkpt lat="45.21399" lon="-0.74882">
        <ele>4.8000001907349</ele>
        <time>2015-09-12T09:52:42.000Z</time>
      </trkpt>
      <trkpt lat="45.21388" lon="-0.74881">
        <ele>4.8000001907349</ele>
        <time>2015-09-12T09:52:47.000Z</time>
      </trkpt>
      <trkpt lat="45.21377" lon="-0.7488">
        <ele>5</ele>
        <time>2015-09-12T09:52:52.000Z</time>
      </trkpt>
      <trkpt lat="45.21364" lon="-0.7488">
        <ele>5</ele>
        <time>2015-09-12T09:52:58.000Z</time>
      </trkpt>
      <trkpt lat="45.2135" lon="-0.74879">
        <ele>5.1999998092651</ele>
        <time>2015-09-12T09:53:04.000Z</time>
      </trkpt>
      <trkpt lat="45.21335" lon="-0.74881">
        <ele>5.4000000953674</ele>
        <time>2015-09-12T09:53:11.000Z</time>
      </trkpt>
      <trkpt lat="45.21326" lon="-0.74881">
        <ele>5.5999999046326</ele>
        <time>2015-09-12T09:53:15.000Z</time>
      </trkpt>
      <trkpt lat="45.21316" lon="-0.74881">
        <ele>5.5999999046326</ele>
        <time>2015-09-12T09:53:20.000Z</time>
      </trkpt>
      <trkpt lat="45.21299" lon="-0.74881">
        <ele>5.8000001907349</ele>
        <time>2015-09-12T09:53:28.000Z</time>
      </trkpt>
      <trkpt lat="45.21286" lon="-0.7488">
        <ele>5.5999999046326</ele>
        <time>2015-09-12T09:53:34.000Z</time>
      </trkpt>
      <trkpt lat="45.21269" lon="-0.7488">
        <ele>5.1999998092651</ele>
        <time>2015-09-12T09:53:42.000Z</time>
      </trkpt>
      <trkpt lat="45.21253" lon="-0.74879">
        <ele>4.8000001907349</ele>
        <time>2015-09-12T09:53:49.000Z</time>
      </trkpt>
      <trkpt lat="45.21239" lon="-0.74878">
        <ele>4.4000000953674</ele>
        <time>2015-09-12T09:53:56.000Z</time>
      </trkpt>
      <trkpt lat="45.21224" lon="-0.74875">
        <ele>4</ele>
        <time>2015-09-12T09:54:02.000Z</time>
      </trkpt>
      <trkpt lat="45.21194" lon="-0.74872">
        <ele>3.7999999523163</ele>
        <time>2015-09-12T09:54:15.000Z</time>
      </trkpt>
      <trkpt lat="45.21181" lon="-0.7487">
        <ele>4</ele>
        <time>2015-09-12T09:54:21.000Z</time>
      </trkpt>
      <trkpt lat="45.21165" lon="-0.74868">
        <ele>4</ele>
        <time>2015-09-12T09:54:28.000Z</time>
      </trkpt>
      <trkpt lat="45.2115" lon="-0.74866">
        <ele>4.1999998092651</ele>
        <time>2015-09-12T09:54:35.000Z</time>
      </trkpt>
      <trkpt lat="45.21137" lon="-0.74864">
        <ele>4.5999999046326</ele>
        <time>2015-09-12T09:54:41.000Z</time>
      </trkpt>
      <trkpt lat="45.21121" lon="-0.74862">
        <ele>4.5999999046326</ele>
        <time>2015-09-12T09:54:48.000Z</time>
      </trkpt>
      <trkpt lat="45.21107" lon="-0.7486">
        <ele>4.5999999046326</ele>
        <time>2015-09-12T09:54:54.000Z</time>
      </trkpt>
      <trkpt lat="45.2109" lon="-0.74857">
        <ele>4.5999999046326</ele>
        <time>2015-09-12T09:55:01.000Z</time>
      </trkpt>
      <trkpt lat="45.21079" lon="-0.74856">
        <ele>4.5999999046326</ele>
        <time>2015-09-12T09:55:06.000Z</time>
      </trkpt>
      <trkpt lat="45.2106" lon="-0.74852">
        <ele>4.8000001907349</ele>
        <time>2015-09-12T09:55:14.000Z</time>
      </trkpt>
      <trkpt lat="45.21048" lon="-0.74852">
        <ele>5</ele>
        <time>2015-09-12T09:55:20.000Z</time>
      </trkpt>
      <trkpt lat="45.21033" lon="-0.74848">
        <ele>4.8000001907349</ele>
        <time>2015-09-12T09:55:27.000Z</time>
      </trkpt>
      <trkpt lat="45.21017" lon="-0.74846">
        <ele>4.5999999046326</ele>
        <time>2015-09-12T09:55:34.000Z</time>
      </trkpt>
      <trkpt lat="45.21007" lon="-0.74845">
        <ele>4.5999999046326</ele>
        <time>2015-09-12T09:55:39.000Z</time>
      </trkpt>
      <trkpt lat="45.20993" lon="-0.74843">
        <ele>4.4000000953674</ele>
        <time>2015-09-12T09:55:45.000Z</time>
      </trkpt>
      <trkpt lat="45.20981" lon="-0.74842">
        <ele>4.1999998092651</ele>
        <time>2015-09-12T09:55:51.000Z</time>
      </trkpt>
      <trkpt lat="45.20964" lon="-0.74838">
        <ele>4</ele>
        <time>2015-09-12T09:55:59.000Z</time>
      </trkpt>
      <trkpt lat="45.20946" lon="-0.74835">
        <ele>4</ele>
        <time>2015-09-12T09:56:07.000Z</time>
      </trkpt>
      <trkpt lat="45.20931" lon="-0.74833">
        <ele>4</ele>
        <time>2015-09-12T09:56:14.000Z</time>
      </trkpt>
      <trkpt lat="45.20917" lon="-0.74832">
        <ele>4</ele>
        <time>2015-09-12T09:56:21.000Z</time>
      </trkpt>
      <trkpt lat="45.20902" lon="-0.7483">
        <ele>4</ele>
        <time>2015-09-12T09:56:28.000Z</time>
      </trkpt>
      <trkpt lat="45.20889" lon="-0.74827">
        <ele>4</ele>
        <time>2015-09-12T09:56:34.000Z</time>
      </trkpt>
      <trkpt lat="45.20876" lon="-0.74826">
        <ele>4</ele>
        <time>2015-09-12T09:56:40.000Z</time>
      </trkpt>
      <trkpt lat="45.20859" lon="-0.74824">
        <ele>4</ele>
        <time>2015-09-12T09:56:48.000Z</time>
      </trkpt>
      <trkpt lat="45.20844" lon="-0.74822">
        <ele>4</ele>
        <time>2015-09-12T09:56:55.000Z</time>
      </trkpt>
      <trkpt lat="45.2083" lon="-0.74821">
        <ele>4</ele>
        <time>2015-09-12T09:57:02.000Z</time>
      </trkpt>
      <trkpt lat="45.20813" lon="-0.74819">
        <ele>4</ele>
        <time>2015-09-12T09:57:10.000Z</time>
      </trkpt>
      <trkpt lat="45.20797" lon="-0.74816">
        <ele>4</ele>
        <time>2015-09-12T09:57:17.000Z</time>
      </trkpt>
      <trkpt lat="45.20782" lon="-0.74816">
        <ele>4.1999998092651</ele>
        <time>2015-09-12T09:57:24.000Z</time>
      </trkpt>
      <trkpt lat="45.20765" lon="-0.74814">
        <ele>4.5999999046326</ele>
        <time>2015-09-12T09:57:32.000Z</time>
      </trkpt>
      <trkpt lat="45.20747" lon="-0.7481">
        <ele>5</ele>
        <time>2015-09-12T09:57:40.000Z</time>
      </trkpt>
      <trkpt lat="45.20734" lon="-0.74804">
        <ele>5.4000000953674</ele>
        <time>2015-09-12T09:57:46.000Z</time>
      </trkpt>
      <trkpt lat="45.20706" lon="-0.74784">
        <ele>5</ele>
        <time>2015-09-12T09:58:00.000Z</time>
      </trkpt>
      <trkpt lat="45.20694" lon="-0.74779">
        <ele>4.4000000953674</ele>
        <time>2015-09-12T09:58:06.000Z</time>
      </trkpt>
      <trkpt lat="45.2068" lon="-0.74776">
        <ele>3.7999999523163</ele>
        <time>2015-09-12T09:58:13.000Z</time>
      </trkpt>
      <trkpt lat="45.20667" lon="-0.74776">
        <ele>3.4000000953674</ele>
        <time>2015-09-12T09:58:19.000Z</time>
      </trkpt>
      <trkpt lat="45.20655" lon="-0.74781">
        <ele>3.2000000476837</ele>
        <time>2015-09-12T09:58:25.000Z</time>
      </trkpt>
      <trkpt lat="45.20641" lon="-0.74789">
        <ele>3</ele>
        <time>2015-09-12T09:58:32.000Z</time>
      </trkpt>
      <trkpt lat="45.2063" lon="-0.74799">
        <ele>3</ele>
        <time>2015-09-12T09:58:38.000Z</time>
      </trkpt>
      <trkpt lat="45.20619" lon="-0.74813">
        <ele>2.7999999523163</ele>
        <time>2015-09-12T09:58:45.000Z</time>
      </trkpt>
      <trkpt lat="45.2061" lon="-0.74825">
        <ele>2.7999999523163</ele>
        <time>2015-09-12T09:58:51.000Z</time>
      </trkpt>
      <trkpt lat="45.20602" lon="-0.74841">
        <ele>2.5999999046326</ele>
        <time>2015-09-12T09:58:57.000Z</time>
      </trkpt>
      <trkpt lat="45.2059" lon="-0.7486">
        <ele>2.4000000953674</ele>
        <time>2015-09-12T09:59:05.000Z</time>
      </trkpt>
      <trkpt lat="45.20578" lon="-0.74881">
        <ele>2</ele>
        <time>2015-09-12T09:59:13.000Z</time>
      </trkpt>
      <trkpt lat="45.20567" lon="-0.74898">
        <ele>2.2000000476837</ele>
        <time>2015-09-12T09:59:20.000Z</time>
      </trkpt>
      <trkpt lat="45.20559" lon="-0.74912">
        <ele>2.5999999046326</ele>
        <time>2015-09-12T09:59:26.000Z</time>
      </trkpt>
      <trkpt lat="45.20558" lon="-0.74927">
        <ele>3</ele>
        <time>2015-09-12T09:59:31.000Z</time>
      </trkpt>
      <trkpt lat="45.20557" lon="-0.7495">
        <ele>3.4000000953674</ele>
        <time>2015-09-12T09:59:38.000Z</time>
      </trkpt>
      <trkpt lat="45.20554" lon="-0.74968">
        <ele>3.7999999523163</ele>
        <time>2015-09-12T09:59:44.000Z</time>
      </trkpt>
      <trkpt lat="45.20552" lon="-0.74985">
        <ele>4</ele>
        <time>2015-09-12T09:59:50.000Z</time>
      </trkpt>
      <trkpt lat="45.20548" lon="-0.75008">
        <ele>4.4000000953674</ele>
        <time>2015-09-12T09:59:59.000Z</time>
      </trkpt>
      <trkpt lat="45.20545" lon="-0.75028">
        <ele>4.5999999046326</ele>
        <time>2015-09-12T10:00:06.000Z</time>
      </trkpt>
      <trkpt lat="45.20542" lon="-0.75045">
        <ele>4.8000001907349</ele>
        <time>2015-09-12T10:00:11.000Z</time>
      </trkpt>
      <trkpt lat="45.20539" lon="-0.75058">
        <ele>4.8000001907349</ele>
        <time>2015-09-12T10:00:16.000Z</time>
      </trkpt>
      <trkpt lat="45.20536" lon="-0.75078">
        <ele>4.4000000953674</ele>
        <time>2015-09-12T10:00:24.000Z</time>
      </trkpt>
      <trkpt lat="45.20534" lon="-0.75096">
        <ele>4</ele>
        <time>2015-09-12T10:00:30.000Z</time>
      </trkpt>
      <trkpt lat="45.2053" lon="-0.75114">
        <ele>3.5999999046326</ele>
        <time>2015-09-12T10:00:35.000Z</time>
      </trkpt>
      <trkpt lat="45.20527" lon="-0.75136">
        <ele>3</ele>
        <time>2015-09-12T10:00:43.000Z</time>
      </trkpt>
      <trkpt lat="45.20523" lon="-0.75159">
        <ele>3.2000000476837</ele>
        <time>2015-09-12T10:00:50.000Z</time>
      </trkpt>
      <trkpt lat="45.2052" lon="-0.75182">
        <ele>3.4000000953674</ele>
        <time>2015-09-12T10:00:58.000Z</time>
      </trkpt>
      <trkpt lat="45.20516" lon="-0.75205">
        <ele>3.4000000953674</ele>
        <time>2015-09-12T10:01:06.000Z</time>
      </trkpt>
      <trkpt lat="45.20514" lon="-0.75219">
        <ele>3.4000000953674</ele>
        <time>2015-09-12T10:01:13.000Z</time>
      </trkpt>
      <trkpt lat="45.20513" lon="-0.7523">
        <ele>3.2000000476837</ele>
        <time>2015-09-12T10:01:19.000Z</time>
      </trkpt>
      <trkpt lat="45.2051" lon="-0.75246">
        <ele>3.2000000476837</ele>
        <time>2015-09-12T10:01:28.000Z</time>
      </trkpt>
      <trkpt lat="45.20507" lon="-0.75258">
        <ele>3</ele>
        <time>2015-09-12T10:01:34.000Z</time>
      </trkpt>
      <trkpt lat="45.20502" lon="-0.75275">
        <ele>3.2000000476837</ele>
        <time>2015-09-12T10:01:40.000Z</time>
      </trkpt>
      <trkpt lat="45.20499" lon="-0.75293">
        <ele>3.4000000953674</ele>
        <time>2015-09-12T10:01:46.000Z</time>
      </trkpt>
      <trkpt lat="45.20494" lon="-0.75328">
        <ele>3.4000000953674</ele>
        <time>2015-09-12T10:01:56.000Z</time>
      </trkpt>
      <trkpt lat="45.20479" lon="-0.75334">
        <ele>3.2000000476837</ele>
        <time>2015-09-12T10:02:04.000Z</time>
      </trkpt>
      <trkpt lat="45.20469" lon="-0.75328">
        <ele>3</ele>
        <time>2015-09-12T10:02:08.000Z</time>
      </trkpt>
      <trkpt lat="45.20456" lon="-0.7532">
        <ele>3</ele>
        <time>2015-09-12T10:02:14.000Z</time>
      </trkpt>
      <trkpt lat="45.20444" lon="-0.75314">
        <ele>3.4000000953674</ele>
        <time>2015-09-12T10:02:20.000Z</time>
      </trkpt>
      <trkpt lat="45.20428" lon="-0.75307">
        <ele>4.1999998092651</ele>
        <time>2015-09-12T10:02:28.000Z</time>
      </trkpt>
      <trkpt lat="45.20416" lon="-0.75301">
        <ele>4.5999999046326</ele>
        <time>2015-09-12T10:02:35.000Z</time>
      </trkpt>
      <trkpt lat="45.20406" lon="-0.75296">
        <ele>5</ele>
        <time>2015-09-12T10:02:40.000Z</time>
      </trkpt>
      <trkpt lat="45.20396" lon="-0.7529">
        <ele>5.5999999046326</ele>
        <time>2015-09-12T10:02:46.000Z</time>
      </trkpt>
      <trkpt lat="45.20386" lon="-0.75286">
        <ele>5.5999999046326</ele>
        <time>2015-09-12T10:02:50.000Z</time>
      </trkpt>
      <trkpt lat="45.20369" lon="-0.75278">
        <ele>5.8000001907349</ele>
        <time>2015-09-12T10:02:59.000Z</time>
      </trkpt>
      <trkpt lat="45.20353" lon="-0.7527">
        <ele>5.8000001907349</ele>
        <time>2015-09-12T10:03:06.000Z</time>
      </trkpt>
      <trkpt lat="45.20339" lon="-0.75262">
        <ele>6</ele>
        <time>2015-09-12T10:03:14.000Z</time>
      </trkpt>
      <trkpt lat="45.20325" lon="-0.75255">
        <ele>6.1999998092651</ele>
        <time>2015-09-12T10:03:20.000Z</time>
      </trkpt>
      <trkpt lat="45.20313" lon="-0.7525">
        <ele>6.5999999046326</ele>
        <time>2015-09-12T10:03:26.000Z</time>
      </trkpt>
      <trkpt lat="45.203" lon="-0.75243">
        <ele>6.8000001907349</ele>
        <time>2015-09-12T10:03:32.000Z</time>
      </trkpt>
      <trkpt lat="45.20284" lon="-0.75235">
        <ele>7.4000000953674</ele>
        <time>2015-09-12T10:03:41.000Z</time>
      </trkpt>
      <trkpt lat="45.20272" lon="-0.75229">
        <ele>7.4000000953674</ele>
        <time>2015-09-12T10:03:46.000Z</time>
      </trkpt>
      <trkpt lat="45.20257" lon="-0.75222">
        <ele>7.4000000953674</ele>
        <time>2015-09-12T10:03:53.000Z</time>
      </trkpt>
      <trkpt lat="45.20245" lon="-0.75216">
        <ele>7.4000000953674</ele>
        <time>2015-09-12T10:03:59.000Z</time>
      </trkpt>
      <trkpt lat="45.20233" lon="-0.75209">
        <ele>7.4000000953674</ele>
        <time>2015-09-12T10:04:05.000Z</time>
      </trkpt>
      <trkpt lat="45.20222" lon="-0.75203">
        <ele>7.5999999046326</ele>
        <time>2015-09-12T10:04:11.000Z</time>
      </trkpt>
      <trkpt lat="45.2022" lon="-0.75203">
        <ele>7.5999999046326</ele>
        <time>2015-09-12T10:04:13.000Z</time>
      </trkpt>
      <trkpt lat="45.20213" lon="-0.75199">
        <ele>7.8000001907349</ele>
        <time>2015-09-12T10:04:20.000Z</time>
      </trkpt>
      <trkpt lat="45.20211" lon="-0.75198">
        <ele>7.8000001907349</ele>
        <time>2015-09-12T10:04:24.000Z</time>
      </trkpt>
      <trkpt lat="45.20208" lon="-0.75197">
        <ele>7.8000001907349</ele>
        <time>2015-09-12T10:04:30.000Z</time>
      </trkpt>
      <trkpt lat="45.20207" lon="-0.75197">
        <ele>7.8000001907349</ele>
        <time>2015-09-12T10:04:31.000Z</time>
      </trkpt>
      <trkpt lat="45.20201" lon="-0.75197">
        <ele>8</ele>
        <time>2015-09-12T10:04:36.000Z</time>
      </trkpt>
      <trkpt lat="45.20201" lon="-0.75199">
        <ele>8.1999998092651</ele>
        <time>2015-09-12T10:04:43.000Z</time>
      </trkpt>
      <trkpt lat="45.2019" lon="-0.75192">
        <ele>8.3999996185303</ele>
        <time>2015-09-12T10:05:01.000Z</time>
      </trkpt>
      <trkpt lat="45.20188" lon="-0.75192">
        <ele>8.3999996185303</ele>
        <time>2015-09-12T10:05:02.000Z</time>
      </trkpt>
      <trkpt lat="45.20177" lon="-0.75188">
        <ele>8.8000001907349</ele>
        <time>2015-09-12T10:05:11.000Z</time>
      </trkpt>
      <trkpt lat="45.20171" lon="-0.75184">
        <ele>9</ele>
        <time>2015-09-12T10:05:16.000Z</time>
      </trkpt>
      <trkpt lat="45.20163" lon="-0.75181">
        <ele>9.1999998092651</ele>
        <time>2015-09-12T10:05:23.000Z</time>
      </trkpt>
      <trkpt lat="45.20154" lon="-0.75177">
        <ele>9.3999996185303</ele>
        <time>2015-09-12T10:05:30.000Z</time>
      </trkpt>
      <trkpt lat="45.20144" lon="-0.75171">
        <ele>9.3999996185303</ele>
        <time>2015-09-12T10:05:38.000Z</time>
      </trkpt>
      <trkpt lat="45.20143" lon="-0.7517">
        <ele>9.3999996185303</ele>
        <time>2015-09-12T10:05:39.000Z</time>
      </trkpt>
      <trkpt lat="45.20133" lon="-0.75164">
        <ele>9.6000003814697</ele>
        <time>2015-09-12T10:05:46.000Z</time>
      </trkpt>
      <trkpt lat="45.20122" lon="-0.75156">
        <ele>9.3999996185303</ele>
        <time>2015-09-12T10:05:52.000Z</time>
      </trkpt>
      <trkpt lat="45.20109" lon="-0.7515">
        <ele>9.3999996185303</ele>
        <time>2015-09-12T10:05:58.000Z</time>
      </trkpt>
      <trkpt lat="45.20098" lon="-0.75141">
        <ele>9.3999996185303</ele>
        <time>2015-09-12T10:06:03.000Z</time>
      </trkpt>
      <trkpt lat="45.2008" lon="-0.7513">
        <ele>9.6000003814697</ele>
        <time>2015-09-12T10:06:12.000Z</time>
      </trkpt>
      <trkpt lat="45.20069" lon="-0.75122">
        <ele>9.8000001907349</ele>
        <time>2015-09-12T10:06:18.000Z</time>
      </trkpt>
      <trkpt lat="45.20057" lon="-0.75114">
        <ele>9.8000001907349</ele>
        <time>2015-09-12T10:06:24.000Z</time>
      </trkpt>
      <trkpt lat="45.20046" lon="-0.75113">
        <ele>10</ele>
        <time>2015-09-12T10:06:29.000Z</time>
      </trkpt>
      <trkpt lat="45.20036" lon="-0.75117">
        <ele>10.199999809265</ele>
        <time>2015-09-12T10:06:34.000Z</time>
      </trkpt>
      <trkpt lat="45.20022" lon="-0.75117">
        <ele>10.199999809265</ele>
        <time>2015-09-12T10:06:40.000Z</time>
      </trkpt>
      <trkpt lat="45.20009" lon="-0.75119">
        <ele>10.39999961853</ele>
        <time>2015-09-12T10:06:45.000Z</time>
      </trkpt>
      <trkpt lat="45.19996" lon="-0.75119">
        <ele>10.60000038147</ele>
        <time>2015-09-12T10:06:50.000Z</time>
      </trkpt>
      <trkpt lat="45.1998" lon="-0.7512">
        <ele>10.800000190735</ele>
        <time>2015-09-12T10:06:57.000Z</time>
      </trkpt>
      <trkpt lat="45.19969" lon="-0.75119">
        <ele>11.199999809265</ele>
        <time>2015-09-12T10:07:02.000Z</time>
      </trkpt>
      <trkpt lat="45.19958" lon="-0.75118">
        <ele>11.60000038147</ele>
        <time>2015-09-12T10:07:08.000Z</time>
      </trkpt>
      <trkpt lat="45.19944" lon="-0.75114">
        <ele>12</ele>
        <time>2015-09-12T10:07:15.000Z</time>
      </trkpt>
      <trkpt lat="45.19929" lon="-0.75109">
        <ele>12.39999961853</ele>
        <time>2015-09-12T10:07:21.000Z</time>
      </trkpt>
      <trkpt lat="45.19914" lon="-0.75104">
        <ele>13</ele>
        <time>2015-09-12T10:07:29.000Z</time>
      </trkpt>
      <trkpt lat="45.19905" lon="-0.75103">
        <ele>13.199999809265</ele>
        <time>2015-09-12T10:07:34.000Z</time>
      </trkpt>
      <trkpt lat="45.19896" lon="-0.75101">
        <ele>13.39999961853</ele>
        <time>2015-09-12T10:07:39.000Z</time>
      </trkpt>
      <trkpt lat="45.1988" lon="-0.75098">
        <ele>14</ele>
        <time>2015-09-12T10:07:46.000Z</time>
      </trkpt>
      <trkpt lat="45.19865" lon="-0.75096">
        <ele>14.60000038147</ele>
        <time>2015-09-12T10:07:53.000Z</time>
      </trkpt>
      <trkpt lat="45.1985" lon="-0.75094">
        <ele>15.39999961853</ele>
        <time>2015-09-12T10:08:01.000Z</time>
      </trkpt>
      <trkpt lat="45.19835" lon="-0.75091">
        <ele>16</ele>
        <time>2015-09-12T10:08:08.000Z</time>
      </trkpt>
      <trkpt lat="45.19822" lon="-0.7509">
        <ele>16.200000762939</ele>
        <time>2015-09-12T10:08:14.000Z</time>
      </trkpt>
      <trkpt lat="45.19811" lon="-0.75101">
        <ele>16.39999961853</ele>
        <time>2015-09-12T10:08:20.000Z</time>
      </trkpt>
      <trkpt lat="45.19803" lon="-0.75119">
        <ele>16.60000038147</ele>
        <time>2015-09-12T10:08:28.000Z</time>
      </trkpt>
      <trkpt lat="45.19796" lon="-0.75134">
        <ele>17</ele>
        <time>2015-09-12T10:08:34.000Z</time>
      </trkpt>
      <trkpt lat="45.1979" lon="-0.75147">
        <ele>17.200000762939</ele>
        <time>2015-09-12T10:08:39.000Z</time>
      </trkpt>
      <trkpt lat="45.19784" lon="-0.75163">
        <ele>17.200000762939</ele>
        <time>2015-09-12T10:08:44.000Z</time>
      </trkpt>
      <trkpt lat="45.19777" lon="-0.75179">
        <ele>17.39999961853</ele>
        <time>2015-09-12T10:08:50.000Z</time>
      </trkpt>
      <trkpt lat="45.1977" lon="-0.75197">
        <ele>17.60000038147</ele>
        <time>2015-09-12T10:08:57.000Z</time>
      </trkpt>
      <trkpt lat="45.19763" lon="-0.75214">
        <ele>17.799999237061</ele>
        <time>2015-09-12T10:09:04.000Z</time>
      </trkpt>
      <trkpt lat="45.19755" lon="-0.75233">
        <ele>17.799999237061</ele>
        <time>2015-09-12T10:09:10.000Z</time>
      </trkpt>
      <trkpt lat="45.19746" lon="-0.75251">
        <ele>17.799999237061</ele>
        <time>2015-09-12T10:09:17.000Z</time>
      </trkpt>
      <trkpt lat="45.19736" lon="-0.75266">
        <ele>17.799999237061</ele>
        <time>2015-09-12T10:09:23.000Z</time>
      </trkpt>
      <trkpt lat="45.19726" lon="-0.7528">
        <ele>18</ele>
        <time>2015-09-12T10:09:29.000Z</time>
      </trkpt>
      <trkpt lat="45.19717" lon="-0.7529">
        <ele>18</ele>
        <time>2015-09-12T10:09:34.000Z</time>
      </trkpt>
      <trkpt lat="45.19706" lon="-0.75301">
        <ele>18.200000762939</ele>
        <time>2015-09-12T10:09:40.000Z</time>
      </trkpt>
      <trkpt lat="45.19695" lon="-0.7531">
        <ele>18.39999961853</ele>
        <time>2015-09-12T10:09:46.000Z</time>
      </trkpt>
      <trkpt lat="45.19683" lon="-0.7532">
        <ele>18.60000038147</ele>
        <time>2015-09-12T10:09:52.000Z</time>
      </trkpt>
      <trkpt lat="45.19671" lon="-0.75331">
        <ele>19</ele>
        <time>2015-09-12T10:09:59.000Z</time>
      </trkpt>
      <trkpt lat="45.19658" lon="-0.75345">
        <ele>19.200000762939</ele>
        <time>2015-09-12T10:10:06.000Z</time>
      </trkpt>
      <trkpt lat="45.19647" lon="-0.75355">
        <ele>19.60000038147</ele>
        <time>2015-09-12T10:10:12.000Z</time>
      </trkpt>
      <trkpt lat="45.19638" lon="-0.75372">
        <ele>19.799999237061</ele>
        <time>2015-09-12T10:10:19.000Z</time>
      </trkpt>
      <trkpt lat="45.19632" lon="-0.75389">
        <ele>19.799999237061</ele>
        <time>2015-09-12T10:10:25.000Z</time>
      </trkpt>
      <trkpt lat="45.19629" lon="-0.75408">
        <ele>19.799999237061</ele>
        <time>2015-09-12T10:10:31.000Z</time>
      </trkpt>
      <trkpt lat="45.19622" lon="-0.75421">
        <ele>19.799999237061</ele>
        <time>2015-09-12T10:10:36.000Z</time>
      </trkpt>
      <trkpt lat="45.19609" lon="-0.75435">
        <ele>19.799999237061</ele>
        <time>2015-09-12T10:10:43.000Z</time>
      </trkpt>
      <trkpt lat="45.19596" lon="-0.75448">
        <ele>20</ele>
        <time>2015-09-12T10:10:50.000Z</time>
      </trkpt>
      <trkpt lat="45.19583" lon="-0.75467">
        <ele>20.200000762939</ele>
        <time>2015-09-12T10:10:59.000Z</time>
      </trkpt>
      <trkpt lat="45.19572" lon="-0.75488">
        <ele>20.39999961853</ele>
        <time>2015-09-12T10:11:08.000Z</time>
      </trkpt>
      <trkpt lat="45.19564" lon="-0.75502">
        <ele>20.60000038147</ele>
        <time>2015-09-12T10:11:14.000Z</time>
      </trkpt>
      <trkpt lat="45.19555" lon="-0.7552">
        <ele>20.799999237061</ele>
        <time>2015-09-12T10:11:21.000Z</time>
      </trkpt>
      <trkpt lat="45.19545" lon="-0.75538">
        <ele>21</ele>
        <time>2015-09-12T10:11:28.000Z</time>
      </trkpt>
      <trkpt lat="45.19538" lon="-0.75552">
        <ele>21</ele>
        <time>2015-09-12T10:11:34.000Z</time>
      </trkpt>
      <trkpt lat="45.19528" lon="-0.75573">
        <ele>20.60000038147</ele>
        <time>2015-09-12T10:11:42.000Z</time>
      </trkpt>
      <trkpt lat="45.1952" lon="-0.75591">
        <ele>20.39999961853</ele>
        <time>2015-09-12T10:11:49.000Z</time>
      </trkpt>
      <trkpt lat="45.19513" lon="-0.75609">
        <ele>20.200000762939</ele>
        <time>2015-09-12T10:11:56.000Z</time>
      </trkpt>
      <trkpt lat="45.19504" lon="-0.7563">
        <ele>20</ele>
        <time>2015-09-12T10:12:04.000Z</time>
      </trkpt>
      <trkpt lat="45.19498" lon="-0.75646">
        <ele>19.799999237061</ele>
        <time>2015-09-12T10:12:10.000Z</time>
      </trkpt>
      <trkpt lat="45.19492" lon="-0.75665">
        <ele>19.799999237061</ele>
        <time>2015-09-12T10:12:17.000Z</time>
      </trkpt>
      <trkpt lat="45.19486" lon="-0.75684">
        <ele>19.60000038147</ele>
        <time>2015-09-12T10:12:24.000Z</time>
      </trkpt>
      <trkpt lat="45.19481" lon="-0.75705">
        <ele>19.39999961853</ele>
        <time>2015-09-12T10:12:31.000Z</time>
      </trkpt>
      <trkpt lat="45.19477" lon="-0.75726">
        <ele>19.200000762939</ele>
        <time>2015-09-12T10:12:38.000Z</time>
      </trkpt>
      <trkpt lat="45.19472" lon="-0.75746">
        <ele>19.39999961853</ele>
        <time>2015-09-12T10:12:45.000Z</time>
      </trkpt>
      <trkpt lat="45.19467" lon="-0.75767">
        <ele>19.60000038147</ele>
        <time>2015-09-12T10:12:52.000Z</time>
      </trkpt>
      <trkpt lat="45.19462" lon="-0.75787">
        <ele>19.799999237061</ele>
        <time>2015-09-12T10:12:59.000Z</time>
      </trkpt>
      <trkpt lat="45.19457" lon="-0.75806">
        <ele>20</ele>
        <time>2015-09-12T10:13:05.000Z</time>
      </trkpt>
      <trkpt lat="45.19452" lon="-0.75828">
        <ele>19.799999237061</ele>
        <time>2015-09-12T10:13:12.000Z</time>
      </trkpt>
      <trkpt lat="45.19448" lon="-0.7585">
        <ele>19.799999237061</ele>
        <time>2015-09-12T10:13:19.000Z</time>
      </trkpt>
      <trkpt lat="45.19443" lon="-0.7587">
        <ele>19.799999237061</ele>
        <time>2015-09-12T10:13:26.000Z</time>
      </trkpt>
      <trkpt lat="45.19437" lon="-0.75893">
        <ele>19.60000038147</ele>
        <time>2015-09-12T10:13:34.000Z</time>
      </trkpt>
      <trkpt lat="45.19432" lon="-0.7591">
        <ele>19.39999961853</ele>
        <time>2015-09-12T10:13:40.000Z</time>
      </trkpt>
      <trkpt lat="45.19428" lon="-0.7593">
        <ele>19.200000762939</ele>
        <time>2015-09-12T10:13:47.000Z</time>
      </trkpt>
      <trkpt lat="45.19423" lon="-0.75951">
        <ele>19</ele>
        <time>2015-09-12T10:13:54.000Z</time>
      </trkpt>
      <trkpt lat="45.19419" lon="-0.75972">
        <ele>19</ele>
        <time>2015-09-12T10:14:01.000Z</time>
      </trkpt>
      <trkpt lat="45.19415" lon="-0.75993">
        <ele>18.799999237061</ele>
        <time>2015-09-12T10:14:08.000Z</time>
      </trkpt>
      <trkpt lat="45.19412" lon="-0.76015">
        <ele>18.799999237061</ele>
        <time>2015-09-12T10:14:15.000Z</time>
      </trkpt>
      <trkpt lat="45.19408" lon="-0.76037">
        <ele>18.60000038147</ele>
        <time>2015-09-12T10:14:22.000Z</time>
      </trkpt>
      <trkpt lat="45.19405" lon="-0.76056">
        <ele>18.39999961853</ele>
        <time>2015-09-12T10:14:28.000Z</time>
      </trkpt>
      <trkpt lat="45.19402" lon="-0.76076">
        <ele>18.200000762939</ele>
        <time>2015-09-12T10:14:35.000Z</time>
      </trkpt>
      <trkpt lat="45.19397" lon="-0.76096">
        <ele>18.200000762939</ele>
        <time>2015-09-12T10:14:42.000Z</time>
      </trkpt>
      <trkpt lat="45.19391" lon="-0.76119">
        <ele>18.200000762939</ele>
        <time>2015-09-12T10:14:50.000Z</time>
      </trkpt>
      <trkpt lat="45.19386" lon="-0.76135">
        <ele>18</ele>
        <time>2015-09-12T10:14:56.000Z</time>
      </trkpt>
      <trkpt lat="45.19375" lon="-0.76168">
        <ele>18</ele>
        <time>2015-09-12T10:15:09.000Z</time>
      </trkpt>
      <trkpt lat="45.19371" lon="-0.76182">
        <ele>18</ele>
        <time>2015-09-12T10:15:14.000Z</time>
      </trkpt>
      <trkpt lat="45.19364" lon="-0.76202">
        <ele>18.200000762939</ele>
        <time>2015-09-12T10:15:22.000Z</time>
      </trkpt>
      <trkpt lat="45.19359" lon="-0.76221">
        <ele>18.200000762939</ele>
        <time>2015-09-12T10:15:29.000Z</time>
      </trkpt>
      <trkpt lat="45.19354" lon="-0.76234">
        <ele>18.200000762939</ele>
        <time>2015-09-12T10:15:34.000Z</time>
      </trkpt>
      <trkpt lat="45.19351" lon="-0.76251">
        <ele>18.39999961853</ele>
        <time>2015-09-12T10:15:40.000Z</time>
      </trkpt>
      <trkpt lat="45.19348" lon="-0.76267">
        <ele>18.39999961853</ele>
        <time>2015-09-12T10:15:46.000Z</time>
      </trkpt>
      <trkpt lat="45.19344" lon="-0.76291">
        <ele>18.39999961853</ele>
        <time>2015-09-12T10:15:54.000Z</time>
      </trkpt>
      <trkpt lat="45.1934" lon="-0.76312">
        <ele>18.39999961853</ele>
        <time>2015-09-12T10:16:02.000Z</time>
      </trkpt>
      <trkpt lat="45.19338" lon="-0.76331">
        <ele>18.39999961853</ele>
        <time>2015-09-12T10:16:09.000Z</time>
      </trkpt>
      <trkpt lat="45.19334" lon="-0.76352">
        <ele>18.39999961853</ele>
        <time>2015-09-12T10:16:16.000Z</time>
      </trkpt>
      <trkpt lat="45.1933" lon="-0.76373">
        <ele>18.39999961853</ele>
        <time>2015-09-12T10:16:24.000Z</time>
      </trkpt>
      <trkpt lat="45.19323" lon="-0.76394">
        <ele>18.39999961853</ele>
        <time>2015-09-12T10:16:32.000Z</time>
      </trkpt>
      <trkpt lat="45.19316" lon="-0.76412">
        <ele>18.799999237061</ele>
        <time>2015-09-12T10:16:39.000Z</time>
      </trkpt>
      <trkpt lat="45.19309" lon="-0.76426">
        <ele>19.200000762939</ele>
        <time>2015-09-12T10:16:45.000Z</time>
      </trkpt>
      <trkpt lat="45.193" lon="-0.76442">
        <ele>19.60000038147</ele>
        <time>2015-09-12T10:16:51.000Z</time>
      </trkpt>
      <trkpt lat="45.19292" lon="-0.76459">
        <ele>19.799999237061</ele>
        <time>2015-09-12T10:16:59.000Z</time>
      </trkpt>
      <trkpt lat="45.19286" lon="-0.76473">
        <ele>19.799999237061</ele>
        <time>2015-09-12T10:17:05.000Z</time>
      </trkpt>
      <trkpt lat="45.19276" lon="-0.76492">
        <ele>19.799999237061</ele>
        <time>2015-09-12T10:17:13.000Z</time>
      </trkpt>
      <trkpt lat="45.19268" lon="-0.76506">
        <ele>19.39999961853</ele>
        <time>2015-09-12T10:17:19.000Z</time>
      </trkpt>
      <trkpt lat="45.19257" lon="-0.7652">
        <ele>19.200000762939</ele>
        <time>2015-09-12T10:17:26.000Z</time>
      </trkpt>
      <trkpt lat="45.19247" lon="-0.76531">
        <ele>19.200000762939</ele>
        <time>2015-09-12T10:17:32.000Z</time>
      </trkpt>
      <trkpt lat="45.19232" lon="-0.7654">
        <ele>19</ele>
        <time>2015-09-12T10:17:39.000Z</time>
      </trkpt>
      <trkpt lat="45.19217" lon="-0.76547">
        <ele>19</ele>
        <time>2015-09-12T10:17:46.000Z</time>
      </trkpt>
      <trkpt lat="45.19205" lon="-0.7655">
        <ele>19</ele>
        <time>2015-09-12T10:17:52.000Z</time>
      </trkpt>
      <trkpt lat="45.19192" lon="-0.76556">
        <ele>19</ele>
        <time>2015-09-12T10:17:58.000Z</time>
      </trkpt>
      <trkpt lat="45.19175" lon="-0.76564">
        <ele>19</ele>
        <time>2015-09-12T10:18:06.000Z</time>
      </trkpt>
      <trkpt lat="45.19164" lon="-0.76569">
        <ele>19</ele>
        <time>2015-09-12T10:18:11.000Z</time>
      </trkpt>
      <trkpt lat="45.1915" lon="-0.76571">
        <ele>19</ele>
        <time>2015-09-12T10:18:18.000Z</time>
      </trkpt>
      <trkpt lat="45.19135" lon="-0.76569">
        <ele>19</ele>
        <time>2015-09-12T10:18:26.000Z</time>
      </trkpt>
      <trkpt lat="45.19119" lon="-0.76569">
        <ele>19.200000762939</ele>
        <time>2015-09-12T10:18:34.000Z</time>
      </trkpt>
      <trkpt lat="45.19105" lon="-0.76567">
        <ele>19.200000762939</ele>
        <time>2015-09-12T10:18:41.000Z</time>
      </trkpt>
      <trkpt lat="45.19089" lon="-0.7657">
        <ele>19.39999961853</ele>
        <time>2015-09-12T10:18:49.000Z</time>
      </trkpt>
      <trkpt lat="45.19077" lon="-0.76578">
        <ele>19.60000038147</ele>
        <time>2015-09-12T10:18:55.000Z</time>
      </trkpt>
      <trkpt lat="45.19074" lon="-0.76599">
        <ele>19.60000038147</ele>
        <time>2015-09-12T10:19:02.000Z</time>
      </trkpt>
      <trkpt lat="45.1907" lon="-0.76619">
        <ele>19.60000038147</ele>
        <time>2015-09-12T10:19:08.000Z</time>
      </trkpt>
      <trkpt lat="45.19067" lon="-0.76638">
        <ele>19.799999237061</ele>
        <time>2015-09-12T10:19:15.000Z</time>
      </trkpt>
      <trkpt lat="45.19062" lon="-0.76661">
        <ele>19.799999237061</ele>
        <time>2015-09-12T10:19:23.000Z</time>
      </trkpt>
      <trkpt lat="45.19057" lon="-0.76688">
        <ele>19.799999237061</ele>
        <time>2015-09-12T10:19:32.000Z</time>
      </trkpt>
      <trkpt lat="45.19053" lon="-0.76708">
        <ele>19.799999237061</ele>
        <time>2015-09-12T10:19:39.000Z</time>
      </trkpt>
      <trkpt lat="45.19049" lon="-0.76728">
        <ele>19.799999237061</ele>
        <time>2015-09-12T10:19:46.000Z</time>
      </trkpt>
      <trkpt lat="45.19038" lon="-0.76793">
        <ele>20.200000762939</ele>
        <time>2015-09-12T10:20:08.000Z</time>
      </trkpt>
      <trkpt lat="45.19033" lon="-0.76816">
        <ele>20.39999961853</ele>
        <time>2015-09-12T10:20:16.000Z</time>
      </trkpt>
      <trkpt lat="45.19028" lon="-0.76834">
        <ele>20.200000762939</ele>
        <time>2015-09-12T10:20:22.000Z</time>
      </trkpt>
      <trkpt lat="45.1902" lon="-0.76837">
        <ele>20.60000038147</ele>
        <time>2015-09-12T10:20:26.000Z</time>
      </trkpt>
      <trkpt lat="45.19019" lon="-0.76837">
        <ele>20.60000038147</ele>
        <time>2015-09-12T10:20:28.000Z</time>
      </trkpt>
      <trkpt lat="45.19015" lon="-0.76836">
        <ele>21</ele>
        <time>2015-09-12T10:20:35.000Z</time>
      </trkpt>
      <trkpt lat="45.1901" lon="-0.76835">
        <ele>21.200000762939</ele>
        <time>2015-09-12T10:20:41.000Z</time>
      </trkpt>
      <trkpt lat="45.19009" lon="-0.76834">
        <ele>21.200000762939</ele>
        <time>2015-09-12T10:20:46.000Z</time>
      </trkpt>
      <trkpt lat="45.19005" lon="-0.76833">
        <ele>21.39999961853</ele>
        <time>2015-09-12T10:20:52.000Z</time>
      </trkpt>
      <trkpt lat="45.19" lon="-0.76833">
        <ele>21.39999961853</ele>
        <time>2015-09-12T10:20:59.000Z</time>
      </trkpt>
      <trkpt lat="45.18999" lon="-0.76833">
        <ele>21.39999961853</ele>
        <time>2015-09-12T10:21:04.000Z</time>
      </trkpt>
      <trkpt lat="45.19" lon="-0.76836">
        <ele>21.39999961853</ele>
        <time>2015-09-12T10:21:15.000Z</time>
      </trkpt>
      <trkpt lat="45.19" lon="-0.76837">
        <ele>21.39999961853</ele>
        <time>2015-09-12T10:21:49.000Z</time>
      </trkpt>
      <trkpt lat="45.19" lon="-0.76835">
        <ele>21.39999961853</ele>
        <time>2015-09-12T10:22:09.000Z</time>
      </trkpt>
      <trkpt lat="45.19001" lon="-0.76832">
        <ele>21.39999961853</ele>
        <time>2015-09-12T10:22:20.000Z</time>
      </trkpt>
      <trkpt lat="45.18998" lon="-0.76831">
        <ele>21.39999961853</ele>
        <time>2015-09-12T10:23:19.000Z</time>
      </trkpt>
      <trkpt lat="45.18993" lon="-0.76828">
        <ele>21.60000038147</ele>
        <time>2015-09-12T10:23:25.000Z</time>
      </trkpt>
      <trkpt lat="45.18988" lon="-0.76826">
        <ele>21.60000038147</ele>
        <time>2015-09-12T10:23:31.000Z</time>
      </trkpt>
      <trkpt lat="45.18987" lon="-0.76825">
        <ele>21.60000038147</ele>
        <time>2015-09-12T10:23:32.000Z</time>
      </trkpt>
      <trkpt lat="45.18985" lon="-0.76824">
        <ele>21.60000038147</ele>
        <time>2015-09-12T10:23:34.000Z</time>
      </trkpt>
      <trkpt lat="45.18976" lon="-0.76822">
        <ele>21.799999237061</ele>
        <time>2015-09-12T10:23:43.000Z</time>
      </trkpt>
      <trkpt lat="45.18976" lon="-0.76822">
        <ele>21.799999237061</ele>
        <time>2015-09-12T10:23:44.000Z</time>
      </trkpt>
      <trkpt lat="45.18974" lon="-0.76823">
        <ele>22</ele>
        <time>2015-09-12T10:23:50.000Z</time>
      </trkpt>
      <trkpt lat="45.18969" lon="-0.76822">
        <ele>22</ele>
        <time>2015-09-12T10:23:57.000Z</time>
      </trkpt>
      <trkpt lat="45.18965" lon="-0.7682">
        <ele>22.200000762939</ele>
        <time>2015-09-12T10:24:02.000Z</time>
      </trkpt>
      <trkpt lat="45.18959" lon="-0.76824">
        <ele>22.200000762939</ele>
        <time>2015-09-12T10:24:09.000Z</time>
      </trkpt>
      <trkpt lat="45.18958" lon="-0.76824">
        <ele>22.200000762939</ele>
        <time>2015-09-12T10:24:20.000Z</time>
      </trkpt>
      <trkpt lat="45.18959" lon="-0.76822">
        <ele>22.200000762939</ele>
        <time>2015-09-12T10:24:36.000Z</time>
      </trkpt>
      <trkpt lat="45.18961" lon="-0.76817">
        <ele>22.200000762939</ele>
        <time>2015-09-12T10:24:40.000Z</time>
      </trkpt>
      <trkpt lat="45.18961" lon="-0.76811">
        <ele>22</ele>
        <time>2015-09-12T10:24:48.000Z</time>
      </trkpt>
      <trkpt lat="45.1896" lon="-0.7681">
        <ele>22</ele>
        <time>2015-09-12T10:24:49.000Z</time>
      </trkpt>
      <trkpt lat="45.1896" lon="-0.76801">
        <ele>21.799999237061</ele>
        <time>2015-09-12T10:24:55.000Z</time>
      </trkpt>
      <trkpt lat="45.18959" lon="-0.76785">
        <ele>21.60000038147</ele>
        <time>2015-09-12T10:25:03.000Z</time>
      </trkpt>
      <trkpt lat="45.18958" lon="-0.76776">
        <ele>21.200000762939</ele>
        <time>2015-09-12T10:25:07.000Z</time>
      </trkpt>
      <trkpt lat="45.18958" lon="-0.76758">
        <ele>20.799999237061</ele>
        <time>2015-09-12T10:25:13.000Z</time>
      </trkpt>
      <trkpt lat="45.18957" lon="-0.76741">
        <ele>20.39999961853</ele>
        <time>2015-09-12T10:25:19.000Z</time>
      </trkpt>
      <trkpt lat="45.18957" lon="-0.76738">
        <ele>20.39999961853</ele>
        <time>2015-09-12T10:25:20.000Z</time>
      </trkpt>
      <trkpt lat="45.18959" lon="-0.76718">
        <ele>20</ele>
        <time>2015-09-12T10:25:27.000Z</time>
      </trkpt>
      <trkpt lat="45.18958" lon="-0.767">
        <ele>20</ele>
        <time>2015-09-12T10:25:33.000Z</time>
      </trkpt>
      <trkpt lat="45.18958" lon="-0.76691">
        <ele>20</ele>
        <time>2015-09-12T10:25:36.000Z</time>
      </trkpt>
      <trkpt lat="45.18955" lon="-0.76666">
        <ele>20</ele>
        <time>2015-09-12T10:25:44.000Z</time>
      </trkpt>
      <trkpt lat="45.18955" lon="-0.76647">
        <ele>20</ele>
        <time>2015-09-12T10:25:50.000Z</time>
      </trkpt>
      <trkpt lat="45.18954" lon="-0.76632">
        <ele>20.200000762939</ele>
        <time>2015-09-12T10:25:55.000Z</time>
      </trkpt>
      <trkpt lat="45.18953" lon="-0.76607">
        <ele>20.60000038147</ele>
        <time>2015-09-12T10:26:04.000Z</time>
      </trkpt>
      <trkpt lat="45.18952" lon="-0.76589">
        <ele>20.799999237061</ele>
        <time>2015-09-12T10:26:10.000Z</time>
      </trkpt>
      <trkpt lat="45.18951" lon="-0.76567">
        <ele>21.200000762939</ele>
        <time>2015-09-12T10:26:17.000Z</time>
      </trkpt>
      <trkpt lat="45.1895" lon="-0.76549">
        <ele>21</ele>
        <time>2015-09-12T10:26:23.000Z</time>
      </trkpt>
      <trkpt lat="45.18949" lon="-0.76532">
        <ele>20.799999237061</ele>
        <time>2015-09-12T10:26:29.000Z</time>
      </trkpt>
      <trkpt lat="45.18949" lon="-0.76515">
        <ele>20.60000038147</ele>
        <time>2015-09-12T10:26:35.000Z</time>
      </trkpt>
      <trkpt lat="45.18947" lon="-0.76489">
        <ele>20.39999961853</ele>
        <time>2015-09-12T10:26:44.000Z</time>
      </trkpt>
      <trkpt lat="45.18945" lon="-0.76472">
        <ele>20.200000762939</ele>
        <time>2015-09-12T10:26:50.000Z</time>
      </trkpt>
      <trkpt lat="45.18937" lon="-0.7646">
        <ele>20.39999961853</ele>
        <time>2015-09-12T10:26:56.000Z</time>
      </trkpt>
      <trkpt lat="45.18935" lon="-0.76461">
        <ele>20.39999961853</ele>
        <time>2015-09-12T10:26:57.000Z</time>
      </trkpt>
      <trkpt lat="45.18928" lon="-0.76464">
        <ele>20.39999961853</ele>
        <time>2015-09-12T10:27:00.000Z</time>
      </trkpt>
      <trkpt lat="45.18918" lon="-0.76473">
        <ele>20.60000038147</ele>
        <time>2015-09-12T10:27:06.000Z</time>
      </trkpt>
      <trkpt lat="45.18905" lon="-0.76485">
        <ele>20.799999237061</ele>
        <time>2015-09-12T10:27:13.000Z</time>
      </trkpt>
      <trkpt lat="45.18896" lon="-0.76495">
        <ele>21</ele>
        <time>2015-09-12T10:27:19.000Z</time>
      </trkpt>
      <trkpt lat="45.18884" lon="-0.76505">
        <ele>21.39999961853</ele>
        <time>2015-09-12T10:27:26.000Z</time>
      </trkpt>
      <trkpt lat="45.18874" lon="-0.76512">
        <ele>21.39999961853</ele>
        <time>2015-09-12T10:27:32.000Z</time>
      </trkpt>
      <trkpt lat="45.18865" lon="-0.7652">
        <ele>21.200000762939</ele>
        <time>2015-09-12T10:27:37.000Z</time>
      </trkpt>
      <trkpt lat="45.18853" lon="-0.76533">
        <ele>21.200000762939</ele>
        <time>2015-09-12T10:27:44.000Z</time>
      </trkpt>
      <trkpt lat="45.18844" lon="-0.76542">
        <ele>21</ele>
        <time>2015-09-12T10:27:50.000Z</time>
      </trkpt>
      <trkpt lat="45.18834" lon="-0.76552">
        <ele>21</ele>
        <time>2015-09-12T10:27:56.000Z</time>
      </trkpt>
      <trkpt lat="45.18825" lon="-0.76562">
        <ele>20.799999237061</ele>
        <time>2015-09-12T10:28:01.000Z</time>
      </trkpt>
      <trkpt lat="45.1881" lon="-0.76576">
        <ele>20.60000038147</ele>
        <time>2015-09-12T10:28:10.000Z</time>
      </trkpt>
      <trkpt lat="45.18802" lon="-0.76584">
        <ele>20.60000038147</ele>
        <time>2015-09-12T10:28:15.000Z</time>
      </trkpt>
      <trkpt lat="45.18791" lon="-0.76593">
        <ele>20.39999961853</ele>
        <time>2015-09-12T10:28:21.000Z</time>
      </trkpt>
      <trkpt lat="45.18778" lon="-0.76605">
        <ele>20.39999961853</ele>
        <time>2015-09-12T10:28:28.000Z</time>
      </trkpt>
      <trkpt lat="45.18766" lon="-0.76618">
        <ele>20.39999961853</ele>
        <time>2015-09-12T10:28:35.000Z</time>
      </trkpt>
      <trkpt lat="45.18753" lon="-0.76631">
        <ele>20.39999961853</ele>
        <time>2015-09-12T10:28:43.000Z</time>
      </trkpt>
      <trkpt lat="45.18741" lon="-0.76641">
        <ele>20.39999961853</ele>
        <time>2015-09-12T10:28:50.000Z</time>
      </trkpt>
      <trkpt lat="45.18721" lon="-0.76661">
        <ele>20.39999961853</ele>
        <time>2015-09-12T10:29:02.000Z</time>
      </trkpt>
      <trkpt lat="45.18709" lon="-0.76672">
        <ele>20.39999961853</ele>
        <time>2015-09-12T10:29:09.000Z</time>
      </trkpt>
      <trkpt lat="45.18696" lon="-0.76683">
        <ele>21</ele>
        <time>2015-09-12T10:29:16.000Z</time>
      </trkpt>
      <trkpt lat="45.18682" lon="-0.76695">
        <ele>21.39999961853</ele>
        <time>2015-09-12T10:29:24.000Z</time>
      </trkpt>
      <trkpt lat="45.18671" lon="-0.76705">
        <ele>21.799999237061</ele>
        <time>2015-09-12T10:29:30.000Z</time>
      </trkpt>
      <trkpt lat="45.18658" lon="-0.76718">
        <ele>22.200000762939</ele>
        <time>2015-09-12T10:29:38.000Z</time>
      </trkpt>
      <trkpt lat="45.18649" lon="-0.76728">
        <ele>22.39999961853</ele>
        <time>2015-09-12T10:29:44.000Z</time>
      </trkpt>
      <trkpt lat="45.18641" lon="-0.76736">
        <ele>22.60000038147</ele>
        <time>2015-09-12T10:29:49.000Z</time>
      </trkpt>
      <trkpt lat="45.1863" lon="-0.76748">
        <ele>22.60000038147</ele>
        <time>2015-09-12T10:29:56.000Z</time>
      </trkpt>
      <trkpt lat="45.18619" lon="-0.76759">
        <ele>22.60000038147</ele>
        <time>2015-09-12T10:30:03.000Z</time>
      </trkpt>
      <trkpt lat="45.18609" lon="-0.76769">
        <ele>22.39999961853</ele>
        <time>2015-09-12T10:30:09.000Z</time>
      </trkpt>
      <trkpt lat="45.18601" lon="-0.76778">
        <ele>22.39999961853</ele>
        <time>2015-09-12T10:30:14.000Z</time>
      </trkpt>
      <trkpt lat="45.18591" lon="-0.76788">
        <ele>22.200000762939</ele>
        <time>2015-09-12T10:30:20.000Z</time>
      </trkpt>
      <trkpt lat="45.18581" lon="-0.76798">
        <ele>22</ele>
        <time>2015-09-12T10:30:26.000Z</time>
      </trkpt>
      <trkpt lat="45.1857" lon="-0.76806">
        <ele>22</ele>
        <time>2015-09-12T10:30:32.000Z</time>
      </trkpt>
      <trkpt lat="45.18554" lon="-0.76819">
        <ele>21.60000038147</ele>
        <time>2015-09-12T10:30:41.000Z</time>
      </trkpt>
      <trkpt lat="45.18544" lon="-0.76825">
        <ele>21.60000038147</ele>
        <time>2015-09-12T10:30:46.000Z</time>
      </trkpt>
      <trkpt lat="45.1853" lon="-0.76834">
        <ele>21.200000762939</ele>
        <time>2015-09-12T10:30:53.000Z</time>
      </trkpt>
      <trkpt lat="45.18517" lon="-0.76842">
        <ele>21</ele>
        <time>2015-09-12T10:31:00.000Z</time>
      </trkpt>
      <trkpt lat="45.18506" lon="-0.7685">
        <ele>21</ele>
        <time>2015-09-12T10:31:06.000Z</time>
      </trkpt>
      <trkpt lat="45.18498" lon="-0.76856">
        <ele>20.799999237061</ele>
        <time>2015-09-12T10:31:11.000Z</time>
      </trkpt>
      <trkpt lat="45.18483" lon="-0.76867">
        <ele>20.60000038147</ele>
        <time>2015-09-12T10:31:19.000Z</time>
      </trkpt>
      <trkpt lat="45.1847" lon="-0.76876">
        <ele>20.200000762939</ele>
        <time>2015-09-12T10:31:26.000Z</time>
      </trkpt>
      <trkpt lat="45.18459" lon="-0.76884">
        <ele>20</ele>
        <time>2015-09-12T10:31:32.000Z</time>
      </trkpt>
      <trkpt lat="45.18448" lon="-0.76892">
        <ele>20.200000762939</ele>
        <time>2015-09-12T10:31:38.000Z</time>
      </trkpt>
      <trkpt lat="45.18437" lon="-0.76899">
        <ele>20.39999961853</ele>
        <time>2015-09-12T10:31:44.000Z</time>
      </trkpt>
      <trkpt lat="45.18428" lon="-0.76905">
        <ele>20.60000038147</ele>
        <time>2015-09-12T10:31:49.000Z</time>
      </trkpt>
      <trkpt lat="45.18413" lon="-0.76913">
        <ele>20.799999237061</ele>
        <time>2015-09-12T10:31:57.000Z</time>
      </trkpt>
      <trkpt lat="45.18402" lon="-0.76919">
        <ele>21</ele>
        <time>2015-09-12T10:32:02.000Z</time>
      </trkpt>
      <trkpt lat="45.18387" lon="-0.76927">
        <ele>21.39999961853</ele>
        <time>2015-09-12T10:32:11.000Z</time>
      </trkpt>
      <trkpt lat="45.18377" lon="-0.76933">
        <ele>21.60000038147</ele>
        <time>2015-09-12T10:32:16.000Z</time>
      </trkpt>
      <trkpt lat="45.18376" lon="-0.76933">
        <ele>21.60000038147</ele>
        <time>2015-09-12T10:32:17.000Z</time>
      </trkpt>
      <trkpt lat="45.18365" lon="-0.76939">
        <ele>21.799999237061</ele>
        <time>2015-09-12T10:32:23.000Z</time>
      </trkpt>
      <trkpt lat="45.18363" lon="-0.7694">
        <ele>21.799999237061</ele>
        <time>2015-09-12T10:32:24.000Z</time>
      </trkpt>
      <trkpt lat="45.18354" lon="-0.76945">
        <ele>22</ele>
        <time>2015-09-12T10:32:29.000Z</time>
      </trkpt>
      <trkpt lat="45.18346" lon="-0.76949">
        <ele>22.200000762939</ele>
        <time>2015-09-12T10:32:34.000Z</time>
      </trkpt>
      <trkpt lat="45.18344" lon="-0.7695">
        <ele>22.200000762939</ele>
        <time>2015-09-12T10:32:35.000Z</time>
      </trkpt>
      <trkpt lat="45.18333" lon="-0.76957">
        <ele>22.39999961853</ele>
        <time>2015-09-12T10:32:42.000Z</time>
      </trkpt>
      <trkpt lat="45.18322" lon="-0.76964">
        <ele>22.60000038147</ele>
        <time>2015-09-12T10:32:48.000Z</time>
      </trkpt>
      <trkpt lat="45.18292" lon="-0.76979">
        <ele>23</ele>
        <time>2015-09-12T10:33:04.000Z</time>
      </trkpt>
      <trkpt lat="45.18274" lon="-0.76986">
        <ele>22.799999237061</ele>
        <time>2015-09-12T10:33:13.000Z</time>
      </trkpt>
      <trkpt lat="45.18259" lon="-0.76992">
        <ele>23</ele>
        <time>2015-09-12T10:33:21.000Z</time>
      </trkpt>
      <trkpt lat="45.18246" lon="-0.76996">
        <ele>23</ele>
        <time>2015-09-12T10:33:28.000Z</time>
      </trkpt>
      <trkpt lat="45.18235" lon="-0.76998">
        <ele>23</ele>
        <time>2015-09-12T10:33:34.000Z</time>
      </trkpt>
      <trkpt lat="45.1822" lon="-0.77003">
        <ele>23.200000762939</ele>
        <time>2015-09-12T10:33:42.000Z</time>
      </trkpt>
      <trkpt lat="45.18204" lon="-0.77006">
        <ele>23.39999961853</ele>
        <time>2015-09-12T10:33:50.000Z</time>
      </trkpt>
      <trkpt lat="45.18188" lon="-0.77009">
        <ele>23.60000038147</ele>
        <time>2015-09-12T10:33:57.000Z</time>
      </trkpt>
      <trkpt lat="45.18174" lon="-0.77012">
        <ele>24</ele>
        <time>2015-09-12T10:34:04.000Z</time>
      </trkpt>
      <trkpt lat="45.18159" lon="-0.77016">
        <ele>24</ele>
        <time>2015-09-12T10:34:12.000Z</time>
      </trkpt>
      <trkpt lat="45.18142" lon="-0.77019">
        <ele>24</ele>
        <time>2015-09-12T10:34:20.000Z</time>
      </trkpt>
      <trkpt lat="45.18126" lon="-0.77023">
        <ele>24</ele>
        <time>2015-09-12T10:34:28.000Z</time>
      </trkpt>
      <trkpt lat="45.18112" lon="-0.77027">
        <ele>23.799999237061</ele>
        <time>2015-09-12T10:34:35.000Z</time>
      </trkpt>
      <trkpt lat="45.18099" lon="-0.77031">
        <ele>23.60000038147</ele>
        <time>2015-09-12T10:34:42.000Z</time>
      </trkpt>
      <trkpt lat="45.18088" lon="-0.77035">
        <ele>23.60000038147</ele>
        <time>2015-09-12T10:34:48.000Z</time>
      </trkpt>
      <trkpt lat="45.18077" lon="-0.77039">
        <ele>23.39999961853</ele>
        <time>2015-09-12T10:34:54.000Z</time>
      </trkpt>
      <trkpt lat="45.18062" lon="-0.77047">
        <ele>23.200000762939</ele>
        <time>2015-09-12T10:35:01.000Z</time>
      </trkpt>
      <trkpt lat="45.18052" lon="-0.77054">
        <ele>23</ele>
        <time>2015-09-12T10:35:06.000Z</time>
      </trkpt>
      <trkpt lat="45.18035" lon="-0.77066">
        <ele>23</ele>
        <time>2015-09-12T10:35:15.000Z</time>
      </trkpt>
      <trkpt lat="45.18023" lon="-0.77075">
        <ele>23.200000762939</ele>
        <time>2015-09-12T10:35:21.000Z</time>
      </trkpt>
      <trkpt lat="45.1801" lon="-0.77085">
        <ele>23.39999961853</ele>
        <time>2015-09-12T10:35:28.000Z</time>
      </trkpt>
      <trkpt lat="45.18" lon="-0.77092">
        <ele>23.39999961853</ele>
        <time>2015-09-12T10:35:33.000Z</time>
      </trkpt>
      <trkpt lat="45.17989" lon="-0.77102">
        <ele>23.60000038147</ele>
        <time>2015-09-12T10:35:39.000Z</time>
      </trkpt>
      <trkpt lat="45.17975" lon="-0.77112">
        <ele>23.60000038147</ele>
        <time>2015-09-12T10:35:47.000Z</time>
      </trkpt>
      <trkpt lat="45.17961" lon="-0.77122">
        <ele>23.799999237061</ele>
        <time>2015-09-12T10:35:55.000Z</time>
      </trkpt>
      <trkpt lat="45.17946" lon="-0.77132">
        <ele>24.200000762939</ele>
        <time>2015-09-12T10:36:03.000Z</time>
      </trkpt>
      <trkpt lat="45.17928" lon="-0.77146">
        <ele>24.39999961853</ele>
        <time>2015-09-12T10:36:12.000Z</time>
      </trkpt>
      <trkpt lat="45.17916" lon="-0.77155">
        <ele>24.60000038147</ele>
        <time>2015-09-12T10:36:19.000Z</time>
      </trkpt>
      <trkpt lat="45.17903" lon="-0.77165">
        <ele>24.799999237061</ele>
        <time>2015-09-12T10:36:27.000Z</time>
      </trkpt>
      <trkpt lat="45.17893" lon="-0.77174">
        <ele>24.799999237061</ele>
        <time>2015-09-12T10:36:33.000Z</time>
      </trkpt>
      <trkpt lat="45.17882" lon="-0.77183">
        <ele>25</ele>
        <time>2015-09-12T10:36:39.000Z</time>
      </trkpt>
      <trkpt lat="45.17871" lon="-0.77193">
        <ele>25</ele>
        <time>2015-09-12T10:36:45.000Z</time>
      </trkpt>
      <trkpt lat="45.17861" lon="-0.77202">
        <ele>25</ele>
        <time>2015-09-12T10:36:51.000Z</time>
      </trkpt>
      <trkpt lat="45.17849" lon="-0.77217">
        <ele>25</ele>
        <time>2015-09-12T10:36:59.000Z</time>
      </trkpt>
      <trkpt lat="45.17839" lon="-0.77229">
        <ele>25</ele>
        <time>2015-09-12T10:37:06.000Z</time>
      </trkpt>
      <trkpt lat="45.17829" lon="-0.77243">
        <ele>25</ele>
        <time>2015-09-12T10:37:13.000Z</time>
      </trkpt>
      <trkpt lat="45.17819" lon="-0.77259">
        <ele>25</ele>
        <time>2015-09-12T10:37:21.000Z</time>
      </trkpt>
      <trkpt lat="45.17811" lon="-0.77271">
        <ele>25</ele>
        <time>2015-09-12T10:37:27.000Z</time>
      </trkpt>
      <trkpt lat="45.17802" lon="-0.77282">
        <ele>25</ele>
        <time>2015-09-12T10:37:33.000Z</time>
      </trkpt>
      <trkpt lat="45.17794" lon="-0.77294">
        <ele>25</ele>
        <time>2015-09-12T10:37:39.000Z</time>
      </trkpt>
      <trkpt lat="45.17786" lon="-0.77304">
        <ele>25.39999961853</ele>
        <time>2015-09-12T10:37:45.000Z</time>
      </trkpt>
      <trkpt lat="45.1778" lon="-0.77311">
        <ele>25.60000038147</ele>
        <time>2015-09-12T10:37:49.000Z</time>
      </trkpt>
      <trkpt lat="45.17773" lon="-0.77322">
        <ele>25.60000038147</ele>
        <time>2015-09-12T10:37:55.000Z</time>
      </trkpt>
      <trkpt lat="45.17763" lon="-0.77334">
        <ele>25.799999237061</ele>
        <time>2015-09-12T10:38:02.000Z</time>
      </trkpt>
      <trkpt lat="45.17753" lon="-0.77345">
        <ele>26</ele>
        <time>2015-09-12T10:38:08.000Z</time>
      </trkpt>
      <trkpt lat="45.17743" lon="-0.77355">
        <ele>26.200000762939</ele>
        <time>2015-09-12T10:38:14.000Z</time>
      </trkpt>
      <trkpt lat="45.17734" lon="-0.77364">
        <ele>26.39999961853</ele>
        <time>2015-09-12T10:38:19.000Z</time>
      </trkpt>
      <trkpt lat="45.17722" lon="-0.77374">
        <ele>26.799999237061</ele>
        <time>2015-09-12T10:38:26.000Z</time>
      </trkpt>
      <trkpt lat="45.17712" lon="-0.77383">
        <ele>27</ele>
        <time>2015-09-12T10:38:32.000Z</time>
      </trkpt>
      <trkpt lat="45.17706" lon="-0.77388">
        <ele>27</ele>
        <time>2015-09-12T10:38:35.000Z</time>
      </trkpt>
      <trkpt lat="45.17695" lon="-0.77396">
        <ele>27.200000762939</ele>
        <time>2015-09-12T10:38:41.000Z</time>
      </trkpt>
      <trkpt lat="45.17683" lon="-0.77404">
        <ele>27.39999961853</ele>
        <time>2015-09-12T10:38:48.000Z</time>
      </trkpt>
      <trkpt lat="45.17673" lon="-0.7741">
        <ele>27.39999961853</ele>
        <time>2015-09-12T10:38:54.000Z</time>
      </trkpt>
      <trkpt lat="45.17656" lon="-0.77418">
        <ele>27.60000038147</ele>
        <time>2015-09-12T10:39:03.000Z</time>
      </trkpt>
      <trkpt lat="45.17647" lon="-0.77422">
        <ele>27.799999237061</ele>
        <time>2015-09-12T10:39:08.000Z</time>
      </trkpt>
      <trkpt lat="45.17632" lon="-0.77426">
        <ele>28</ele>
        <time>2015-09-12T10:39:15.000Z</time>
      </trkpt>
      <trkpt lat="45.17629" lon="-0.77427">
        <ele>28</ele>
        <time>2015-09-12T10:39:20.000Z</time>
      </trkpt>
      <trkpt lat="45.17625" lon="-0.7743">
        <ele>28</ele>
        <time>2015-09-12T10:39:24.000Z</time>
      </trkpt>
      <trkpt lat="45.17616" lon="-0.77434">
        <ele>28</ele>
        <time>2015-09-12T10:39:32.000Z</time>
      </trkpt>
      <trkpt lat="45.17614" lon="-0.77431">
        <ele>28</ele>
        <time>2015-09-12T10:39:39.000Z</time>
      </trkpt>
      <trkpt lat="45.17611" lon="-0.77433">
        <ele>28</ele>
        <time>2015-09-12T10:39:50.000Z</time>
      </trkpt>
      <trkpt lat="45.17608" lon="-0.77434">
        <ele>28</ele>
        <time>2015-09-12T10:39:57.000Z</time>
      </trkpt>
      <trkpt lat="45.17608" lon="-0.77435">
        <ele>28</ele>
        <time>2015-09-12T10:40:06.000Z</time>
      </trkpt>
      <trkpt lat="45.17609" lon="-0.77435">
        <ele>28</ele>
        <time>2015-09-12T10:40:24.000Z</time>
      </trkpt>
      <trkpt lat="45.17608" lon="-0.77437">
        <ele>28</ele>
        <time>2015-09-12T10:41:03.000Z</time>
      </trkpt>
      <trkpt lat="45.17605" lon="-0.77439">
        <ele>28</ele>
        <time>2015-09-12T10:41:10.000Z</time>
      </trkpt>
      <trkpt lat="45.17602" lon="-0.77439">
        <ele>28</ele>
        <time>2015-09-12T10:41:15.000Z</time>
      </trkpt>
      <trkpt lat="45.17595" lon="-0.77443">
        <ele>28</ele>
        <time>2015-09-12T10:41:21.000Z</time>
      </trkpt>
      <trkpt lat="45.17588" lon="-0.77445">
        <ele>28</ele>
        <time>2015-09-12T10:41:28.000Z</time>
      </trkpt>
      <trkpt lat="45.17576" lon="-0.7745">
        <ele>28</ele>
        <time>2015-09-12T10:41:35.000Z</time>
      </trkpt>
      <trkpt lat="45.17564" lon="-0.77454">
        <ele>28</ele>
        <time>2015-09-12T10:41:42.000Z</time>
      </trkpt>
      <trkpt lat="45.17549" lon="-0.77461">
        <ele>28</ele>
        <time>2015-09-12T10:41:50.000Z</time>
      </trkpt>
      <trkpt lat="45.17536" lon="-0.77468">
        <ele>27.799999237061</ele>
        <time>2015-09-12T10:41:57.000Z</time>
      </trkpt>
      <trkpt lat="45.17528" lon="-0.77475">
        <ele>27.60000038147</ele>
        <time>2015-09-12T10:42:02.000Z</time>
      </trkpt>
      <trkpt lat="45.17513" lon="-0.77488">
        <ele>27.39999961853</ele>
        <time>2015-09-12T10:42:10.000Z</time>
      </trkpt>
      <trkpt lat="45.17503" lon="-0.77496">
        <ele>27.200000762939</ele>
        <time>2015-09-12T10:42:16.000Z</time>
      </trkpt>
      <trkpt lat="45.17491" lon="-0.77506">
        <ele>27.200000762939</ele>
        <time>2015-09-12T10:42:22.000Z</time>
      </trkpt>
      <trkpt lat="45.1748" lon="-0.77515">
        <ele>27</ele>
        <time>2015-09-12T10:42:28.000Z</time>
      </trkpt>
      <trkpt lat="45.17467" lon="-0.77525">
        <ele>26.799999237061</ele>
        <time>2015-09-12T10:42:35.000Z</time>
      </trkpt>
      <trkpt lat="45.17456" lon="-0.77536">
        <ele>26.799999237061</ele>
        <time>2015-09-12T10:42:41.000Z</time>
      </trkpt>
      <trkpt lat="45.17448" lon="-0.77541">
        <ele>26.60000038147</ele>
        <time>2015-09-12T10:42:45.000Z</time>
      </trkpt>
      <trkpt lat="45.17439" lon="-0.77549">
        <ele>26.60000038147</ele>
        <time>2015-09-12T10:42:50.000Z</time>
      </trkpt>
      <trkpt lat="45.17429" lon="-0.77558">
        <ele>26.60000038147</ele>
        <time>2015-09-12T10:42:55.000Z</time>
      </trkpt>
      <trkpt lat="45.17415" lon="-0.77573">
        <ele>26.200000762939</ele>
        <time>2015-09-12T10:43:03.000Z</time>
      </trkpt>
      <trkpt lat="45.17403" lon="-0.77584">
        <ele>26</ele>
        <time>2015-09-12T10:43:09.000Z</time>
      </trkpt>
      <trkpt lat="45.17393" lon="-0.77594">
        <ele>25.799999237061</ele>
        <time>2015-09-12T10:43:15.000Z</time>
      </trkpt>
      <trkpt lat="45.17383" lon="-0.77605">
        <ele>25.39999961853</ele>
        <time>2015-09-12T10:43:21.000Z</time>
      </trkpt>
      <trkpt lat="45.17374" lon="-0.77613">
        <ele>25.200000762939</ele>
        <time>2015-09-12T10:43:26.000Z</time>
      </trkpt>
      <trkpt lat="45.17366" lon="-0.7762">
        <ele>25.200000762939</ele>
        <time>2015-09-12T10:43:30.000Z</time>
      </trkpt>
      <trkpt lat="45.17352" lon="-0.77632">
        <ele>25</ele>
        <time>2015-09-12T10:43:38.000Z</time>
      </trkpt>
      <trkpt lat="45.17338" lon="-0.77644">
        <ele>25</ele>
        <time>2015-09-12T10:43:45.000Z</time>
      </trkpt>
      <trkpt lat="45.17326" lon="-0.77654">
        <ele>25</ele>
        <time>2015-09-12T10:43:51.000Z</time>
      </trkpt>
      <trkpt lat="45.17315" lon="-0.77663">
        <ele>25</ele>
        <time>2015-09-12T10:43:57.000Z</time>
      </trkpt>
      <trkpt lat="45.17304" lon="-0.77671">
        <ele>25</ele>
        <time>2015-09-12T10:44:03.000Z</time>
      </trkpt>
      <trkpt lat="45.17294" lon="-0.77681">
        <ele>25</ele>
        <time>2015-09-12T10:44:09.000Z</time>
      </trkpt>
      <trkpt lat="45.17282" lon="-0.7769">
        <ele>25</ele>
        <time>2015-09-12T10:44:15.000Z</time>
      </trkpt>
      <trkpt lat="45.17271" lon="-0.77698">
        <ele>25</ele>
        <time>2015-09-12T10:44:21.000Z</time>
      </trkpt>
      <trkpt lat="45.17261" lon="-0.77706">
        <ele>25</ele>
        <time>2015-09-12T10:44:26.000Z</time>
      </trkpt>
      <trkpt lat="45.1725" lon="-0.77715">
        <ele>25</ele>
        <time>2015-09-12T10:44:32.000Z</time>
      </trkpt>
      <trkpt lat="45.17241" lon="-0.77723">
        <ele>25</ele>
        <time>2015-09-12T10:44:36.000Z</time>
      </trkpt>
      <trkpt lat="45.17231" lon="-0.77732">
        <ele>25</ele>
        <time>2015-09-12T10:44:42.000Z</time>
      </trkpt>
      <trkpt lat="45.17219" lon="-0.77743">
        <ele>25</ele>
        <time>2015-09-12T10:44:49.000Z</time>
      </trkpt>
      <trkpt lat="45.17209" lon="-0.77753">
        <ele>25</ele>
        <time>2015-09-12T10:44:55.000Z</time>
      </trkpt>
      <trkpt lat="45.17194" lon="-0.77764">
        <ele>25.200000762939</ele>
        <time>2015-09-12T10:45:03.000Z</time>
      </trkpt>
      <trkpt lat="45.17186" lon="-0.77772">
        <ele>25.39999961853</ele>
        <time>2015-09-12T10:45:08.000Z</time>
      </trkpt>
      <trkpt lat="45.17173" lon="-0.77785">
        <ele>25.39999961853</ele>
        <time>2015-09-12T10:45:15.000Z</time>
      </trkpt>
      <trkpt lat="45.17163" lon="-0.77795">
        <ele>25.60000038147</ele>
        <time>2015-09-12T10:45:21.000Z</time>
      </trkpt>
      <trkpt lat="45.17153" lon="-0.77804">
        <ele>25.799999237061</ele>
        <time>2015-09-12T10:45:27.000Z</time>
      </trkpt>
      <trkpt lat="45.17143" lon="-0.77814">
        <ele>26</ele>
        <time>2015-09-12T10:45:33.000Z</time>
      </trkpt>
      <trkpt lat="45.17133" lon="-0.77826">
        <ele>26.200000762939</ele>
        <time>2015-09-12T10:45:39.000Z</time>
      </trkpt>
      <trkpt lat="45.1712" lon="-0.77841">
        <ele>26.39999961853</ele>
        <time>2015-09-12T10:45:47.000Z</time>
      </trkpt>
      <trkpt lat="45.17109" lon="-0.77856">
        <ele>26.60000038147</ele>
        <time>2015-09-12T10:45:54.000Z</time>
      </trkpt>
      <trkpt lat="45.17099" lon="-0.77867">
        <ele>26.799999237061</ele>
        <time>2015-09-12T10:46:00.000Z</time>
      </trkpt>
      <trkpt lat="45.17089" lon="-0.7788">
        <ele>26.799999237061</ele>
        <time>2015-09-12T10:46:06.000Z</time>
      </trkpt>
      <trkpt lat="45.17078" lon="-0.77895">
        <ele>27</ele>
        <time>2015-09-12T10:46:13.000Z</time>
      </trkpt>
      <trkpt lat="45.17069" lon="-0.77908">
        <ele>26.799999237061</ele>
        <time>2015-09-12T10:46:19.000Z</time>
      </trkpt>
      <trkpt lat="45.17056" lon="-0.77923">
        <ele>26.60000038147</ele>
        <time>2015-09-12T10:46:27.000Z</time>
      </trkpt>
      <trkpt lat="45.17049" lon="-0.77931">
        <ele>26.39999961853</ele>
        <time>2015-09-12T10:46:32.000Z</time>
      </trkpt>
      <trkpt lat="45.17041" lon="-0.77944">
        <ele>26.39999961853</ele>
        <time>2015-09-12T10:46:37.000Z</time>
      </trkpt>
      <trkpt lat="45.17028" lon="-0.7796">
        <ele>26.200000762939</ele>
        <time>2015-09-12T10:46:45.000Z</time>
      </trkpt>
      <trkpt lat="45.17018" lon="-0.77972">
        <ele>26</ele>
        <time>2015-09-12T10:46:51.000Z</time>
      </trkpt>
      <trkpt lat="45.17008" lon="-0.77985">
        <ele>26</ele>
        <time>2015-09-12T10:46:57.000Z</time>
      </trkpt>
      <trkpt lat="45.16997" lon="-0.77999">
        <ele>26</ele>
        <time>2015-09-12T10:47:04.000Z</time>
      </trkpt>
      <trkpt lat="45.16987" lon="-0.78012">
        <ele>26</ele>
        <time>2015-09-12T10:47:10.000Z</time>
      </trkpt>
      <trkpt lat="45.16977" lon="-0.78024">
        <ele>26</ele>
        <time>2015-09-12T10:47:16.000Z</time>
      </trkpt>
      <trkpt lat="45.1697" lon="-0.78033">
        <ele>26</ele>
        <time>2015-09-12T10:47:21.000Z</time>
      </trkpt>
      <trkpt lat="45.16961" lon="-0.78045">
        <ele>26</ele>
        <time>2015-09-12T10:47:27.000Z</time>
      </trkpt>
      <trkpt lat="45.16952" lon="-0.78056">
        <ele>26</ele>
        <time>2015-09-12T10:47:33.000Z</time>
      </trkpt>
      <trkpt lat="45.16942" lon="-0.78068">
        <ele>25.799999237061</ele>
        <time>2015-09-12T10:47:39.000Z</time>
      </trkpt>
      <trkpt lat="45.16933" lon="-0.7808">
        <ele>25.60000038147</ele>
        <time>2015-09-12T10:47:45.000Z</time>
      </trkpt>
      <trkpt lat="45.16926" lon="-0.7809">
        <ele>25.60000038147</ele>
        <time>2015-09-12T10:47:50.000Z</time>
      </trkpt>
      <trkpt lat="45.1691" lon="-0.7811">
        <ele>25.39999961853</ele>
        <time>2015-09-12T10:48:00.000Z</time>
      </trkpt>
      <trkpt lat="45.169" lon="-0.78121">
        <ele>25.200000762939</ele>
        <time>2015-09-12T10:48:06.000Z</time>
      </trkpt>
      <trkpt lat="45.1689" lon="-0.78132">
        <ele>25.200000762939</ele>
        <time>2015-09-12T10:48:12.000Z</time>
      </trkpt>
      <trkpt lat="45.16882" lon="-0.78145">
        <ele>25</ele>
        <time>2015-09-12T10:48:18.000Z</time>
      </trkpt>
      <trkpt lat="45.16874" lon="-0.78155">
        <ele>25</ele>
        <time>2015-09-12T10:48:23.000Z</time>
      </trkpt>
      <trkpt lat="45.16866" lon="-0.78165">
        <ele>24.799999237061</ele>
        <time>2015-09-12T10:48:28.000Z</time>
      </trkpt>
      <trkpt lat="45.16855" lon="-0.7818">
        <ele>24.799999237061</ele>
        <time>2015-09-12T10:48:35.000Z</time>
      </trkpt>
      <trkpt lat="45.16845" lon="-0.78192">
        <ele>24.60000038147</ele>
        <time>2015-09-12T10:48:41.000Z</time>
      </trkpt>
      <trkpt lat="45.16838" lon="-0.78203">
        <ele>24.60000038147</ele>
        <time>2015-09-12T10:48:46.000Z</time>
      </trkpt>
      <trkpt lat="45.16828" lon="-0.78214">
        <ele>24.39999961853</ele>
        <time>2015-09-12T10:48:52.000Z</time>
      </trkpt>
      <trkpt lat="45.16817" lon="-0.78229">
        <ele>24.39999961853</ele>
        <time>2015-09-12T10:48:59.000Z</time>
      </trkpt>
      <trkpt lat="45.16808" lon="-0.78242">
        <ele>24.39999961853</ele>
        <time>2015-09-12T10:49:05.000Z</time>
      </trkpt>
      <trkpt lat="45.16798" lon="-0.78253">
        <ele>24.39999961853</ele>
        <time>2015-09-12T10:49:11.000Z</time>
      </trkpt>
      <trkpt lat="45.1679" lon="-0.78266">
        <ele>24.39999961853</ele>
        <time>2015-09-12T10:49:17.000Z</time>
      </trkpt>
      <trkpt lat="45.16781" lon="-0.78278">
        <ele>24.60000038147</ele>
        <time>2015-09-12T10:49:23.000Z</time>
      </trkpt>
      <trkpt lat="45.16773" lon="-0.78289">
        <ele>24.60000038147</ele>
        <time>2015-09-12T10:49:28.000Z</time>
      </trkpt>
      <trkpt lat="45.16762" lon="-0.78306">
        <ele>24.60000038147</ele>
        <time>2015-09-12T10:49:36.000Z</time>
      </trkpt>
      <trkpt lat="45.16752" lon="-0.78319">
        <ele>24.60000038147</ele>
        <time>2015-09-12T10:49:43.000Z</time>
      </trkpt>
      <trkpt lat="45.16744" lon="-0.78333">
        <ele>24.799999237061</ele>
        <time>2015-09-12T10:49:49.000Z</time>
      </trkpt>
      <trkpt lat="45.16737" lon="-0.78345">
        <ele>24.799999237061</ele>
        <time>2015-09-12T10:49:55.000Z</time>
      </trkpt>
      <trkpt lat="45.16732" lon="-0.78356">
        <ele>24.799999237061</ele>
        <time>2015-09-12T10:50:01.000Z</time>
      </trkpt>
      <trkpt lat="45.16726" lon="-0.78368">
        <ele>25</ele>
        <time>2015-09-12T10:50:10.000Z</time>
      </trkpt>
      <trkpt lat="45.16719" lon="-0.78379">
        <ele>25</ele>
        <time>2015-09-12T10:50:19.000Z</time>
      </trkpt>
      <trkpt lat="45.16714" lon="-0.78389">
        <ele>25</ele>
        <time>2015-09-12T10:50:26.000Z</time>
      </trkpt>
      <trkpt lat="45.16707" lon="-0.78401">
        <ele>25.200000762939</ele>
        <time>2015-09-12T10:50:34.000Z</time>
      </trkpt>
      <trkpt lat="45.16701" lon="-0.78412">
        <ele>25.39999961853</ele>
        <time>2015-09-12T10:50:42.000Z</time>
      </trkpt>
      <trkpt lat="45.16681" lon="-0.78446">
        <ele>26</ele>
        <time>2015-09-12T10:51:05.000Z</time>
      </trkpt>
      <trkpt lat="45.16673" lon="-0.78461">
        <ele>26.200000762939</ele>
        <time>2015-09-12T10:51:15.000Z</time>
      </trkpt>
      <trkpt lat="45.16666" lon="-0.78471">
        <ele>26.39999961853</ele>
        <time>2015-09-12T10:51:22.000Z</time>
      </trkpt>
      <trkpt lat="45.16658" lon="-0.78485">
        <ele>26.60000038147</ele>
        <time>2015-09-12T10:51:31.000Z</time>
      </trkpt>
      <trkpt lat="45.16647" lon="-0.78504">
        <ele>26.60000038147</ele>
        <time>2015-09-12T10:51:44.000Z</time>
      </trkpt>
      <trkpt lat="45.16639" lon="-0.7852">
        <ele>26.799999237061</ele>
        <time>2015-09-12T10:51:54.000Z</time>
      </trkpt>
      <trkpt lat="45.1663" lon="-0.78535">
        <ele>26.799999237061</ele>
        <time>2015-09-12T10:52:04.000Z</time>
      </trkpt>
      <trkpt lat="45.16621" lon="-0.7855">
        <ele>26.799999237061</ele>
        <time>2015-09-12T10:52:14.000Z</time>
      </trkpt>
      <trkpt lat="45.16611" lon="-0.78566">
        <ele>26.799999237061</ele>
        <time>2015-09-12T10:52:25.000Z</time>
      </trkpt>
      <trkpt lat="45.16604" lon="-0.78578">
        <ele>26.60000038147</ele>
        <time>2015-09-12T10:52:33.000Z</time>
      </trkpt>
      <trkpt lat="45.16598" lon="-0.78586">
        <ele>26.60000038147</ele>
        <time>2015-09-12T10:52:39.000Z</time>
      </trkpt>
      <trkpt lat="45.1659" lon="-0.786">
        <ele>26.60000038147</ele>
        <time>2015-09-12T10:52:48.000Z</time>
      </trkpt>
      <trkpt lat="45.16581" lon="-0.78616">
        <ele>26.39999961853</ele>
        <time>2015-09-12T10:52:58.000Z</time>
      </trkpt>
      <trkpt lat="45.16574" lon="-0.78629">
        <ele>26.39999961853</ele>
        <time>2015-09-12T10:53:07.000Z</time>
      </trkpt>
      <trkpt lat="45.16564" lon="-0.78645">
        <ele>26.200000762939</ele>
        <time>2015-09-12T10:53:17.000Z</time>
      </trkpt>
      <trkpt lat="45.16555" lon="-0.78659">
        <ele>25.799999237061</ele>
        <time>2015-09-12T10:53:27.000Z</time>
      </trkpt>
      <trkpt lat="45.16547" lon="-0.78672">
        <ele>25.60000038147</ele>
        <time>2015-09-12T10:53:36.000Z</time>
      </trkpt>
      <trkpt lat="45.16539" lon="-0.78686">
        <ele>25.39999961853</ele>
        <time>2015-09-12T10:53:43.000Z</time>
      </trkpt>
      <trkpt lat="45.16529" lon="-0.78701">
        <ele>25.200000762939</ele>
        <time>2015-09-12T10:53:50.000Z</time>
      </trkpt>
      <trkpt lat="45.1652" lon="-0.78715">
        <ele>25</ele>
        <time>2015-09-12T10:53:56.000Z</time>
      </trkpt>
      <trkpt lat="45.16511" lon="-0.78725">
        <ele>25</ele>
        <time>2015-09-12T10:54:02.000Z</time>
      </trkpt>
      <trkpt lat="45.16495" lon="-0.78741">
        <ele>24.799999237061</ele>
        <time>2015-09-12T10:54:11.000Z</time>
      </trkpt>
      <trkpt lat="45.16493" lon="-0.78742">
        <ele>24.799999237061</ele>
        <time>2015-09-12T10:54:12.000Z</time>
      </trkpt>
      <trkpt lat="45.1649" lon="-0.78742">
        <ele>24.799999237061</ele>
        <time>2015-09-12T10:54:14.000Z</time>
      </trkpt>
      <trkpt lat="45.16481" lon="-0.78725">
        <ele>25</ele>
        <time>2015-09-12T10:54:21.000Z</time>
      </trkpt>
      <trkpt lat="45.16474" lon="-0.78708">
        <ele>25.200000762939</ele>
        <time>2015-09-12T10:54:27.000Z</time>
      </trkpt>
      <trkpt lat="45.16467" lon="-0.78696">
        <ele>25</ele>
        <time>2015-09-12T10:54:32.000Z</time>
      </trkpt>
      <trkpt lat="45.16457" lon="-0.7868">
        <ele>25.200000762939</ele>
        <time>2015-09-12T10:54:39.000Z</time>
      </trkpt>
      <trkpt lat="45.16448" lon="-0.78682">
        <ele>25.799999237061</ele>
        <time>2015-09-12T10:54:44.000Z</time>
      </trkpt>
      <trkpt lat="45.16442" lon="-0.78689">
        <ele>26.200000762939</ele>
        <time>2015-09-12T10:54:48.000Z</time>
      </trkpt>
      <trkpt lat="45.16432" lon="-0.78703">
        <ele>26.799999237061</ele>
        <time>2015-09-12T10:54:58.000Z</time>
      </trkpt>
      <trkpt lat="45.16426" lon="-0.78713">
        <ele>27</ele>
        <time>2015-09-12T10:55:06.000Z</time>
      </trkpt>
      <trkpt lat="45.16426" lon="-0.78714">
        <ele>27.200000762939</ele>
        <time>2015-09-12T10:55:07.000Z</time>
      </trkpt>
      <trkpt lat="45.16423" lon="-0.7872">
        <ele>27.200000762939</ele>
        <time>2015-09-12T10:55:13.000Z</time>
      </trkpt>
      <trkpt lat="45.16422" lon="-0.78722">
        <ele>27.39999961853</ele>
        <time>2015-09-12T10:55:15.000Z</time>
      </trkpt>
      <trkpt lat="45.16419" lon="-0.78732">
        <ele>27</ele>
        <time>2015-09-12T10:55:21.000Z</time>
      </trkpt>
      <trkpt lat="45.1642" lon="-0.78739">
        <ele>26.60000038147</ele>
        <time>2015-09-12T10:55:25.000Z</time>
      </trkpt>
      <trkpt lat="45.1642" lon="-0.7874">
        <ele>26.60000038147</ele>
        <time>2015-09-12T10:55:26.000Z</time>
      </trkpt>
      <trkpt lat="45.16421" lon="-0.78751">
        <ele>26</ele>
        <time>2015-09-12T10:55:33.000Z</time>
      </trkpt>
      <trkpt lat="45.16423" lon="-0.78762">
        <ele>25.39999961853</ele>
        <time>2015-09-12T10:55:39.000Z</time>
      </trkpt>
      <trkpt lat="45.16428" lon="-0.78775">
        <ele>25.200000762939</ele>
        <time>2015-09-12T10:55:47.000Z</time>
      </trkpt>
      <trkpt lat="45.16436" lon="-0.7879">
        <ele>24.799999237061</ele>
        <time>2015-09-12T10:55:57.000Z</time>
      </trkpt>
      <trkpt lat="45.16442" lon="-0.78802">
        <ele>24.39999961853</ele>
        <time>2015-09-12T10:56:05.000Z</time>
      </trkpt>
      <trkpt lat="45.16446" lon="-0.78813">
        <ele>24</ele>
        <time>2015-09-12T10:56:12.000Z</time>
      </trkpt>
      <trkpt lat="45.16439" lon="-0.78827">
        <ele>23.799999237061</ele>
        <time>2015-09-12T10:56:22.000Z</time>
      </trkpt>
      <trkpt lat="45.16436" lon="-0.78829">
        <ele>23.799999237061</ele>
        <time>2015-09-12T10:56:26.000Z</time>
      </trkpt>
      <trkpt lat="45.1643" lon="-0.78829">
        <ele>23.799999237061</ele>
        <time>2015-09-12T10:56:32.000Z</time>
      </trkpt>
      <trkpt lat="45.1643" lon="-0.78826">
        <ele>24</ele>
        <time>2015-09-12T10:57:31.000Z</time>
      </trkpt>
      <trkpt lat="45.16429" lon="-0.78833">
        <ele>23.799999237061</ele>
        <time>2015-09-12T10:57:58.000Z</time>
      </trkpt>
      <trkpt lat="45.16427" lon="-0.78837">
        <ele>23.60000038147</ele>
        <time>2015-09-12T10:58:04.000Z</time>
      </trkpt>
      <trkpt lat="45.16426" lon="-0.78837">
        <ele>23.60000038147</ele>
        <time>2015-09-12T10:58:12.000Z</time>
      </trkpt>
      <trkpt lat="45.16421" lon="-0.78843">
        <ele>23.60000038147</ele>
        <time>2015-09-12T10:58:19.000Z</time>
      </trkpt>
      <trkpt lat="45.16417" lon="-0.78849">
        <ele>23.39999961853</ele>
        <time>2015-09-12T10:58:26.000Z</time>
      </trkpt>
      <trkpt lat="45.1641" lon="-0.78857">
        <ele>23.39999961853</ele>
        <time>2015-09-12T10:58:35.000Z</time>
      </trkpt>
      <trkpt lat="45.164" lon="-0.78869">
        <ele>23.200000762939</ele>
        <time>2015-09-12T10:58:46.000Z</time>
      </trkpt>
      <trkpt lat="45.1639" lon="-0.78883">
        <ele>23</ele>
        <time>2015-09-12T10:58:57.000Z</time>
      </trkpt>
      <trkpt lat="45.16385" lon="-0.7889">
        <ele>23</ele>
        <time>2015-09-12T10:59:03.000Z</time>
      </trkpt>
      <trkpt lat="45.16378" lon="-0.78899">
        <ele>22.799999237061</ele>
        <time>2015-09-12T10:59:11.000Z</time>
      </trkpt>
      <trkpt lat="45.16369" lon="-0.78909">
        <ele>22.799999237061</ele>
        <time>2015-09-12T10:59:20.000Z</time>
      </trkpt>
      <trkpt lat="45.16359" lon="-0.78921">
        <ele>22.60000038147</ele>
        <time>2015-09-12T10:59:29.000Z</time>
      </trkpt>
      <trkpt lat="45.1635" lon="-0.78932">
        <ele>22.39999961853</ele>
        <time>2015-09-12T10:59:35.000Z</time>
      </trkpt>
      <trkpt lat="45.16338" lon="-0.78945">
        <ele>22.39999961853</ele>
        <time>2015-09-12T10:59:42.000Z</time>
      </trkpt>
      <trkpt lat="45.16327" lon="-0.78958">
        <ele>22.200000762939</ele>
        <time>2015-09-12T10:59:49.000Z</time>
      </trkpt>
      <trkpt lat="45.16316" lon="-0.7897">
        <ele>22</ele>
        <time>2015-09-12T10:59:56.000Z</time>
      </trkpt>
      <trkpt lat="45.16304" lon="-0.78978">
        <ele>22</ele>
        <time>2015-09-12T11:00:03.000Z</time>
      </trkpt>
      <trkpt lat="45.16289" lon="-0.78984">
        <ele>22</ele>
        <time>2015-09-12T11:00:11.000Z</time>
      </trkpt>
      <trkpt lat="45.16276" lon="-0.78988">
        <ele>22</ele>
        <time>2015-09-12T11:00:17.000Z</time>
      </trkpt>
      <trkpt lat="45.16261" lon="-0.78993">
        <ele>22</ele>
        <time>2015-09-12T11:00:25.000Z</time>
      </trkpt>
      <trkpt lat="45.16249" lon="-0.78996">
        <ele>22</ele>
        <time>2015-09-12T11:00:31.000Z</time>
      </trkpt>
      <trkpt lat="45.16237" lon="-0.79">
        <ele>22</ele>
        <time>2015-09-12T11:00:37.000Z</time>
      </trkpt>
      <trkpt lat="45.16226" lon="-0.79003">
        <ele>22</ele>
        <time>2015-09-12T11:00:43.000Z</time>
      </trkpt>
      <trkpt lat="45.16215" lon="-0.79007">
        <ele>22</ele>
        <time>2015-09-12T11:00:49.000Z</time>
      </trkpt>
      <trkpt lat="45.16196" lon="-0.79011">
        <ele>22</ele>
        <time>2015-09-12T11:00:58.000Z</time>
      </trkpt>
      <trkpt lat="45.16181" lon="-0.79015">
        <ele>22</ele>
        <time>2015-09-12T11:01:05.000Z</time>
      </trkpt>
      <trkpt lat="45.16169" lon="-0.79019">
        <ele>22</ele>
        <time>2015-09-12T11:01:11.000Z</time>
      </trkpt>
      <trkpt lat="45.16156" lon="-0.79023">
        <ele>22</ele>
        <time>2015-09-12T11:01:17.000Z</time>
      </trkpt>
      <trkpt lat="45.16144" lon="-0.79027">
        <ele>22.200000762939</ele>
        <time>2015-09-12T11:01:23.000Z</time>
      </trkpt>
      <trkpt lat="45.16132" lon="-0.7903">
        <ele>22.200000762939</ele>
        <time>2015-09-12T11:01:29.000Z</time>
      </trkpt>
      <trkpt lat="45.16118" lon="-0.79034">
        <ele>22.200000762939</ele>
        <time>2015-09-12T11:01:36.000Z</time>
      </trkpt>
      <trkpt lat="45.16106" lon="-0.79038">
        <ele>22</ele>
        <time>2015-09-12T11:01:42.000Z</time>
      </trkpt>
      <trkpt lat="45.16094" lon="-0.79042">
        <ele>21.799999237061</ele>
        <time>2015-09-12T11:01:48.000Z</time>
      </trkpt>
      <trkpt lat="45.16084" lon="-0.79045">
        <ele>21.60000038147</ele>
        <time>2015-09-12T11:01:53.000Z</time>
      </trkpt>
      <trkpt lat="45.16071" lon="-0.79049">
        <ele>21.39999961853</ele>
        <time>2015-09-12T11:01:59.000Z</time>
      </trkpt>
      <trkpt lat="45.16055" lon="-0.79053">
        <ele>21.200000762939</ele>
        <time>2015-09-12T11:02:07.000Z</time>
      </trkpt>
      <trkpt lat="45.16043" lon="-0.79057">
        <ele>21</ele>
        <time>2015-09-12T11:02:13.000Z</time>
      </trkpt>
      <trkpt lat="45.16032" lon="-0.79059">
        <ele>20.799999237061</ele>
        <time>2015-09-12T11:02:19.000Z</time>
      </trkpt>
      <trkpt lat="45.16022" lon="-0.79062">
        <ele>20.799999237061</ele>
        <time>2015-09-12T11:02:24.000Z</time>
      </trkpt>
      <trkpt lat="45.1601" lon="-0.79066">
        <ele>20.799999237061</ele>
        <time>2015-09-12T11:02:30.000Z</time>
      </trkpt>
      <trkpt lat="45.15998" lon="-0.7907">
        <ele>20.60000038147</ele>
        <time>2015-09-12T11:02:36.000Z</time>
      </trkpt>
      <trkpt lat="45.15985" lon="-0.79074">
        <ele>20.60000038147</ele>
        <time>2015-09-12T11:02:42.000Z</time>
      </trkpt>
      <trkpt lat="45.15975" lon="-0.79077">
        <ele>20.39999961853</ele>
        <time>2015-09-12T11:02:47.000Z</time>
      </trkpt>
      <trkpt lat="45.15957" lon="-0.79082">
        <ele>20.39999961853</ele>
        <time>2015-09-12T11:02:56.000Z</time>
      </trkpt>
      <trkpt lat="45.15941" lon="-0.79088">
        <ele>20.39999961853</ele>
        <time>2015-09-12T11:03:04.000Z</time>
      </trkpt>
      <trkpt lat="45.15931" lon="-0.79091">
        <ele>20.39999961853</ele>
        <time>2015-09-12T11:03:09.000Z</time>
      </trkpt>
      <trkpt lat="45.15919" lon="-0.79096">
        <ele>20.60000038147</ele>
        <time>2015-09-12T11:03:15.000Z</time>
      </trkpt>
      <trkpt lat="45.15911" lon="-0.79097">
        <ele>20.60000038147</ele>
        <time>2015-09-12T11:03:19.000Z</time>
      </trkpt>
      <trkpt lat="45.15898" lon="-0.79101">
        <ele>20.799999237061</ele>
        <time>2015-09-12T11:03:26.000Z</time>
      </trkpt>
      <trkpt lat="45.15886" lon="-0.79104">
        <ele>21</ele>
        <time>2015-09-12T11:03:32.000Z</time>
      </trkpt>
      <trkpt lat="45.15872" lon="-0.79108">
        <ele>21</ele>
        <time>2015-09-12T11:03:39.000Z</time>
      </trkpt>
      <trkpt lat="45.15862" lon="-0.7911">
        <ele>20.799999237061</ele>
        <time>2015-09-12T11:03:44.000Z</time>
      </trkpt>
      <trkpt lat="45.1585" lon="-0.79112">
        <ele>20.60000038147</ele>
        <time>2015-09-12T11:03:50.000Z</time>
      </trkpt>
      <trkpt lat="45.15836" lon="-0.79114">
        <ele>20.60000038147</ele>
        <time>2015-09-12T11:03:57.000Z</time>
      </trkpt>
      <trkpt lat="45.15825" lon="-0.79114">
        <ele>20.39999961853</ele>
        <time>2015-09-12T11:04:03.000Z</time>
      </trkpt>
      <trkpt lat="45.15811" lon="-0.79113">
        <ele>20.200000762939</ele>
        <time>2015-09-12T11:04:10.000Z</time>
      </trkpt>
      <trkpt lat="45.15801" lon="-0.79109">
        <ele>20</ele>
        <time>2015-09-12T11:04:15.000Z</time>
      </trkpt>
      <trkpt lat="45.15789" lon="-0.79103">
        <ele>19.799999237061</ele>
        <time>2015-09-12T11:04:21.000Z</time>
      </trkpt>
      <trkpt lat="45.15781" lon="-0.7909">
        <ele>19.60000038147</ele>
        <time>2015-09-12T11:04:27.000Z</time>
      </trkpt>
      <trkpt lat="45.15776" lon="-0.79072">
        <ele>19.60000038147</ele>
        <time>2015-09-12T11:04:34.000Z</time>
      </trkpt>
      <trkpt lat="45.15771" lon="-0.79054">
        <ele>19.799999237061</ele>
        <time>2015-09-12T11:04:41.000Z</time>
      </trkpt>
      <trkpt lat="45.15768" lon="-0.79042">
        <ele>19.60000038147</ele>
        <time>2015-09-12T11:04:46.000Z</time>
      </trkpt>
      <trkpt lat="45.15764" lon="-0.79029">
        <ele>19.60000038147</ele>
        <time>2015-09-12T11:04:51.000Z</time>
      </trkpt>
      <trkpt lat="45.15758" lon="-0.79011">
        <ele>19.60000038147</ele>
        <time>2015-09-12T11:04:58.000Z</time>
      </trkpt>
      <trkpt lat="45.15752" lon="-0.78991">
        <ele>20</ele>
        <time>2015-09-12T11:05:06.000Z</time>
      </trkpt>
      <trkpt lat="45.15747" lon="-0.78973">
        <ele>20.60000038147</ele>
        <time>2015-09-12T11:05:13.000Z</time>
      </trkpt>
      <trkpt lat="45.15741" lon="-0.78954">
        <ele>20.39999961853</ele>
        <time>2015-09-12T11:05:20.000Z</time>
      </trkpt>
      <trkpt lat="45.15735" lon="-0.78939">
        <ele>20.39999961853</ele>
        <time>2015-09-12T11:05:26.000Z</time>
      </trkpt>
      <trkpt lat="45.15729" lon="-0.7892">
        <ele>20.60000038147</ele>
        <time>2015-09-12T11:05:33.000Z</time>
      </trkpt>
      <trkpt lat="45.15723" lon="-0.78901">
        <ele>20.799999237061</ele>
        <time>2015-09-12T11:05:41.000Z</time>
      </trkpt>
      <trkpt lat="45.15716" lon="-0.7888">
        <ele>21</ele>
        <time>2015-09-12T11:05:49.000Z</time>
      </trkpt>
      <trkpt lat="45.15709" lon="-0.78859">
        <ele>21</ele>
        <time>2015-09-12T11:05:57.000Z</time>
      </trkpt>
      <trkpt lat="45.15702" lon="-0.7884">
        <ele>20.799999237061</ele>
        <time>2015-09-12T11:06:05.000Z</time>
      </trkpt>
      <trkpt lat="45.15698" lon="-0.78826">
        <ele>20.799999237061</ele>
        <time>2015-09-12T11:06:11.000Z</time>
      </trkpt>
      <trkpt lat="45.15694" lon="-0.78812">
        <ele>21</ele>
        <time>2015-09-12T11:06:16.000Z</time>
      </trkpt>
      <trkpt lat="45.15687" lon="-0.78789">
        <ele>20.799999237061</ele>
        <time>2015-09-12T11:06:25.000Z</time>
      </trkpt>
      <trkpt lat="45.15682" lon="-0.78774">
        <ele>20.60000038147</ele>
        <time>2015-09-12T11:06:31.000Z</time>
      </trkpt>
      <trkpt lat="45.15676" lon="-0.78755">
        <ele>20.39999961853</ele>
        <time>2015-09-12T11:06:38.000Z</time>
      </trkpt>
      <trkpt lat="45.1567" lon="-0.78737">
        <ele>20.799999237061</ele>
        <time>2015-09-12T11:06:45.000Z</time>
      </trkpt>
      <trkpt lat="45.15663" lon="-0.78717">
        <ele>21</ele>
        <time>2015-09-12T11:06:53.000Z</time>
      </trkpt>
      <trkpt lat="45.15656" lon="-0.78695">
        <ele>21</ele>
        <time>2015-09-12T11:07:01.000Z</time>
      </trkpt>
      <trkpt lat="45.15648" lon="-0.78671">
        <ele>20.60000038147</ele>
        <time>2015-09-12T11:07:10.000Z</time>
      </trkpt>
      <trkpt lat="45.15643" lon="-0.78654">
        <ele>20.200000762939</ele>
        <time>2015-09-12T11:07:16.000Z</time>
      </trkpt>
      <trkpt lat="45.15638" lon="-0.78639">
        <ele>19.799999237061</ele>
        <time>2015-09-12T11:07:22.000Z</time>
      </trkpt>
      <trkpt lat="45.15632" lon="-0.78622">
        <ele>19.799999237061</ele>
        <time>2015-09-12T11:07:28.000Z</time>
      </trkpt>
      <trkpt lat="45.15627" lon="-0.78604">
        <ele>19.200000762939</ele>
        <time>2015-09-12T11:07:35.000Z</time>
      </trkpt>
      <trkpt lat="45.15621" lon="-0.78588">
        <ele>18.799999237061</ele>
        <time>2015-09-12T11:07:41.000Z</time>
      </trkpt>
      <trkpt lat="45.15616" lon="-0.78572">
        <ele>18.60000038147</ele>
        <time>2015-09-12T11:07:47.000Z</time>
      </trkpt>
      <trkpt lat="45.1561" lon="-0.78555">
        <ele>18.60000038147</ele>
        <time>2015-09-12T11:07:54.000Z</time>
      </trkpt>
      <trkpt lat="45.15605" lon="-0.78537">
        <ele>19.39999961853</ele>
        <time>2015-09-12T11:08:01.000Z</time>
      </trkpt>
      <trkpt lat="45.156" lon="-0.78523">
        <ele>20.200000762939</ele>
        <time>2015-09-12T11:08:07.000Z</time>
      </trkpt>
      <trkpt lat="45.15593" lon="-0.78511">
        <ele>20.799999237061</ele>
        <time>2015-09-12T11:08:12.000Z</time>
      </trkpt>
      <trkpt lat="45.15584" lon="-0.78499">
        <ele>21.200000762939</ele>
        <time>2015-09-12T11:08:18.000Z</time>
      </trkpt>
      <trkpt lat="45.15572" lon="-0.78493">
        <ele>21.39999961853</ele>
        <time>2015-09-12T11:08:24.000Z</time>
      </trkpt>
      <trkpt lat="45.15559" lon="-0.78491">
        <ele>21.60000038147</ele>
        <time>2015-09-12T11:08:30.000Z</time>
      </trkpt>
      <trkpt lat="45.15546" lon="-0.78491">
        <ele>21.799999237061</ele>
        <time>2015-09-12T11:08:36.000Z</time>
      </trkpt>
      <trkpt lat="45.15544" lon="-0.78491">
        <ele>21.799999237061</ele>
        <time>2015-09-12T11:08:37.000Z</time>
      </trkpt>
      <trkpt lat="45.15531" lon="-0.78492">
        <ele>22</ele>
        <time>2015-09-12T11:08:43.000Z</time>
      </trkpt>
      <trkpt lat="45.15519" lon="-0.78493">
        <ele>22</ele>
        <time>2015-09-12T11:08:49.000Z</time>
      </trkpt>
      <trkpt lat="45.15506" lon="-0.78495">
        <ele>22.200000762939</ele>
        <time>2015-09-12T11:08:56.000Z</time>
      </trkpt>
      <trkpt lat="45.15496" lon="-0.78496">
        <ele>22.200000762939</ele>
        <time>2015-09-12T11:09:01.000Z</time>
      </trkpt>
      <trkpt lat="45.15482" lon="-0.78498">
        <ele>22.39999961853</ele>
        <time>2015-09-12T11:09:08.000Z</time>
      </trkpt>
      <trkpt lat="45.1547" lon="-0.785">
        <ele>22.60000038147</ele>
        <time>2015-09-12T11:09:14.000Z</time>
      </trkpt>
      <trkpt lat="45.1546" lon="-0.78503">
        <ele>22.60000038147</ele>
        <time>2015-09-12T11:09:19.000Z</time>
      </trkpt>
      <trkpt lat="45.15447" lon="-0.78512">
        <ele>22.39999961853</ele>
        <time>2015-09-12T11:09:26.000Z</time>
      </trkpt>
      <trkpt lat="45.15437" lon="-0.78514">
        <ele>22.200000762939</ele>
        <time>2015-09-12T11:09:31.000Z</time>
      </trkpt>
      <trkpt lat="45.15435" lon="-0.78513">
        <ele>22.200000762939</ele>
        <time>2015-09-12T11:09:32.000Z</time>
      </trkpt>
      <trkpt lat="45.15435" lon="-0.78494">
        <ele>22.200000762939</ele>
        <time>2015-09-12T11:09:40.000Z</time>
      </trkpt>
      <trkpt lat="45.15439" lon="-0.78477">
        <ele>22.200000762939</ele>
        <time>2015-09-12T11:09:46.000Z</time>
      </trkpt>
      <trkpt lat="45.15444" lon="-0.7846">
        <ele>22</ele>
        <time>2015-09-12T11:09:52.000Z</time>
      </trkpt>
      <trkpt lat="45.1545" lon="-0.7844">
        <ele>21.799999237061</ele>
        <time>2015-09-12T11:09:59.000Z</time>
      </trkpt>
      <trkpt lat="45.15455" lon="-0.78423">
        <ele>21.60000038147</ele>
        <time>2015-09-12T11:10:05.000Z</time>
      </trkpt>
      <trkpt lat="45.15461" lon="-0.78407">
        <ele>21.39999961853</ele>
        <time>2015-09-12T11:10:11.000Z</time>
      </trkpt>
      <trkpt lat="45.15465" lon="-0.7839">
        <ele>21</ele>
        <time>2015-09-12T11:10:17.000Z</time>
      </trkpt>
      <trkpt lat="45.1547" lon="-0.78377">
        <ele>20.799999237061</ele>
        <time>2015-09-12T11:10:22.000Z</time>
      </trkpt>
      <trkpt lat="45.15475" lon="-0.78364">
        <ele>20.60000038147</ele>
        <time>2015-09-12T11:10:27.000Z</time>
      </trkpt>
      <trkpt lat="45.15475" lon="-0.78361">
        <ele>20.60000038147</ele>
        <time>2015-09-12T11:10:28.000Z</time>
      </trkpt>
      <trkpt lat="45.1548" lon="-0.78344">
        <ele>20.60000038147</ele>
        <time>2015-09-12T11:10:34.000Z</time>
      </trkpt>
      <trkpt lat="45.15485" lon="-0.78327">
        <ele>20.39999961853</ele>
        <time>2015-09-12T11:10:40.000Z</time>
      </trkpt>
      <trkpt lat="45.1549" lon="-0.78304">
        <ele>20.39999961853</ele>
        <time>2015-09-12T11:10:48.000Z</time>
      </trkpt>
      <trkpt lat="45.15482" lon="-0.78289">
        <ele>20.60000038147</ele>
        <time>2015-09-12T11:10:55.000Z</time>
      </trkpt>
      <trkpt lat="45.1547" lon="-0.78279">
        <ele>21</ele>
        <time>2015-09-12T11:11:02.000Z</time>
      </trkpt>
      <trkpt lat="45.15461" lon="-0.7827">
        <ele>21.39999961853</ele>
        <time>2015-09-12T11:11:07.000Z</time>
      </trkpt>
      <trkpt lat="45.15449" lon="-0.78258">
        <ele>21.39999961853</ele>
        <time>2015-09-12T11:11:14.000Z</time>
      </trkpt>
      <trkpt lat="45.1544" lon="-0.78251">
        <ele>21.39999961853</ele>
        <time>2015-09-12T11:11:19.000Z</time>
      </trkpt>
      <trkpt lat="45.15431" lon="-0.78243">
        <ele>21.39999961853</ele>
        <time>2015-09-12T11:11:24.000Z</time>
      </trkpt>
      <trkpt lat="45.15423" lon="-0.78235">
        <ele>21.39999961853</ele>
        <time>2015-09-12T11:11:29.000Z</time>
      </trkpt>
      <trkpt lat="45.15413" lon="-0.78225">
        <ele>21.39999961853</ele>
        <time>2015-09-12T11:11:35.000Z</time>
      </trkpt>
      <trkpt lat="45.15404" lon="-0.78217">
        <ele>21.200000762939</ele>
        <time>2015-09-12T11:11:40.000Z</time>
      </trkpt>
      <trkpt lat="45.1539" lon="-0.78205">
        <ele>20.799999237061</ele>
        <time>2015-09-12T11:11:47.000Z</time>
      </trkpt>
      <trkpt lat="45.1538" lon="-0.78196">
        <ele>20.39999961853</ele>
        <time>2015-09-12T11:11:53.000Z</time>
      </trkpt>
      <trkpt lat="45.15366" lon="-0.78183">
        <ele>19.799999237061</ele>
        <time>2015-09-12T11:12:01.000Z</time>
      </trkpt>
      <trkpt lat="45.15357" lon="-0.78176">
        <ele>19.39999961853</ele>
        <time>2015-09-12T11:12:06.000Z</time>
      </trkpt>
      <trkpt lat="45.15345" lon="-0.78166">
        <ele>19</ele>
        <time>2015-09-12T11:12:13.000Z</time>
      </trkpt>
      <trkpt lat="45.15334" lon="-0.78155">
        <ele>19</ele>
        <time>2015-09-12T11:12:20.000Z</time>
      </trkpt>
      <trkpt lat="45.15324" lon="-0.78148">
        <ele>19</ele>
        <time>2015-09-12T11:12:25.000Z</time>
      </trkpt>
      <trkpt lat="45.15314" lon="-0.78139">
        <ele>19</ele>
        <time>2015-09-12T11:12:31.000Z</time>
      </trkpt>
      <trkpt lat="45.15306" lon="-0.78132">
        <ele>19</ele>
        <time>2015-09-12T11:12:36.000Z</time>
      </trkpt>
      <trkpt lat="45.15297" lon="-0.78123">
        <ele>19</ele>
        <time>2015-09-12T11:12:41.000Z</time>
      </trkpt>
      <trkpt lat="45.15287" lon="-0.78113">
        <ele>19</ele>
        <time>2015-09-12T11:12:47.000Z</time>
      </trkpt>
      <trkpt lat="45.15266" lon="-0.78094">
        <ele>19.39999961853</ele>
        <time>2015-09-12T11:12:59.000Z</time>
      </trkpt>
      <trkpt lat="45.15254" lon="-0.78083">
        <ele>19.39999961853</ele>
        <time>2015-09-12T11:13:06.000Z</time>
      </trkpt>
      <trkpt lat="45.15245" lon="-0.78075">
        <ele>19.200000762939</ele>
        <time>2015-09-12T11:13:11.000Z</time>
      </trkpt>
      <trkpt lat="45.15233" lon="-0.78067">
        <ele>19.200000762939</ele>
        <time>2015-09-12T11:13:18.000Z</time>
      </trkpt>
      <trkpt lat="45.15228" lon="-0.78065">
        <ele>19.200000762939</ele>
        <time>2015-09-12T11:13:21.000Z</time>
      </trkpt>
      <trkpt lat="45.15219" lon="-0.78061">
        <ele>19</ele>
        <time>2015-09-12T11:13:26.000Z</time>
      </trkpt>
      <trkpt lat="45.15208" lon="-0.78058">
        <ele>19</ele>
        <time>2015-09-12T11:13:32.000Z</time>
      </trkpt>
      <trkpt lat="45.15195" lon="-0.78051">
        <ele>19.39999961853</ele>
        <time>2015-09-12T11:13:39.000Z</time>
      </trkpt>
      <trkpt lat="45.15185" lon="-0.78044">
        <ele>19.39999961853</ele>
        <time>2015-09-12T11:13:44.000Z</time>
      </trkpt>
      <trkpt lat="45.15172" lon="-0.78029">
        <ele>19.60000038147</ele>
        <time>2015-09-12T11:13:52.000Z</time>
      </trkpt>
      <trkpt lat="45.15164" lon="-0.78016">
        <ele>19.799999237061</ele>
        <time>2015-09-12T11:13:58.000Z</time>
      </trkpt>
      <trkpt lat="45.15163" lon="-0.78015">
        <ele>19.799999237061</ele>
        <time>2015-09-12T11:13:59.000Z</time>
      </trkpt>
      <trkpt lat="45.15156" lon="-0.78003">
        <ele>20.200000762939</ele>
        <time>2015-09-12T11:14:05.000Z</time>
      </trkpt>
      <trkpt lat="45.15155" lon="-0.78001">
        <ele>20.39999961853</ele>
        <time>2015-09-12T11:14:06.000Z</time>
      </trkpt>
      <trkpt lat="45.15152" lon="-0.77995">
        <ele>20.60000038147</ele>
        <time>2015-09-12T11:14:11.000Z</time>
      </trkpt>
      <trkpt lat="45.15144" lon="-0.77984">
        <ele>21</ele>
        <time>2015-09-12T11:14:20.000Z</time>
      </trkpt>
      <trkpt lat="45.15137" lon="-0.7798">
        <ele>21.39999961853</ele>
        <time>2015-09-12T11:14:27.000Z</time>
      </trkpt>
      <trkpt lat="45.15135" lon="-0.77979">
        <ele>21.60000038147</ele>
        <time>2015-09-12T11:14:29.000Z</time>
      </trkpt>
      <trkpt lat="45.15131" lon="-0.77979">
        <ele>21.799999237061</ele>
        <time>2015-09-12T11:14:35.000Z</time>
      </trkpt>
      <trkpt lat="45.15126" lon="-0.77982">
        <ele>21.799999237061</ele>
        <time>2015-09-12T11:14:44.000Z</time>
      </trkpt>
      <trkpt lat="45.15124" lon="-0.77984">
        <ele>21.799999237061</ele>
        <time>2015-09-12T11:14:46.000Z</time>
      </trkpt>
      <trkpt lat="45.15122" lon="-0.7799">
        <ele>21.799999237061</ele>
        <time>2015-09-12T11:14:50.000Z</time>
      </trkpt>
      <trkpt lat="45.1512" lon="-0.77994">
        <ele>21.799999237061</ele>
        <time>2015-09-12T11:14:58.000Z</time>
      </trkpt>
      <trkpt lat="45.15118" lon="-0.77991">
        <ele>21.799999237061</ele>
        <time>2015-09-12T11:15:33.000Z</time>
      </trkpt>
      <trkpt lat="45.15116" lon="-0.77981">
        <ele>21.799999237061</ele>
        <time>2015-09-12T11:17:48.000Z</time>
      </trkpt>
      <trkpt lat="45.15115" lon="-0.7798">
        <ele>21.799999237061</ele>
        <time>2015-09-12T11:17:49.000Z</time>
      </trkpt>
      <trkpt lat="45.15115" lon="-0.77977">
        <ele>21.799999237061</ele>
        <time>2015-09-12T11:17:51.000Z</time>
      </trkpt>
      <trkpt lat="45.15115" lon="-0.77972">
        <ele>21.799999237061</ele>
        <time>2015-09-12T11:17:55.000Z</time>
      </trkpt>
      <trkpt lat="45.15114" lon="-0.77968">
        <ele>21.60000038147</ele>
        <time>2015-09-12T11:18:03.000Z</time>
      </trkpt>
      <trkpt lat="45.15112" lon="-0.77967">
        <ele>21.60000038147</ele>
        <time>2015-09-12T11:18:10.000Z</time>
      </trkpt>
      <trkpt lat="45.15111" lon="-0.77969">
        <ele>21.60000038147</ele>
        <time>2015-09-12T11:18:35.000Z</time>
      </trkpt>
      <trkpt lat="45.15114" lon="-0.77967">
        <ele>21.60000038147</ele>
        <time>2015-09-12T11:19:14.000Z</time>
      </trkpt>
      <trkpt lat="45.15113" lon="-0.77956">
        <ele>21</ele>
        <time>2015-09-12T11:19:22.000Z</time>
      </trkpt>
      <trkpt lat="45.15113" lon="-0.77953">
        <ele>21</ele>
        <time>2015-09-12T11:19:24.000Z</time>
      </trkpt>
      <trkpt lat="45.15111" lon="-0.77946">
        <ele>20.60000038147</ele>
        <time>2015-09-12T11:19:30.000Z</time>
      </trkpt>
      <trkpt lat="45.1511" lon="-0.77945">
        <ele>20.60000038147</ele>
        <time>2015-09-12T11:19:31.000Z</time>
      </trkpt>
      <trkpt lat="45.15105" lon="-0.77941">
        <ele>20.200000762939</ele>
        <time>2015-09-12T11:19:39.000Z</time>
      </trkpt>
      <trkpt lat="45.15102" lon="-0.77938">
        <ele>20</ele>
        <time>2015-09-12T11:19:43.000Z</time>
      </trkpt>
      <trkpt lat="45.15096" lon="-0.77933">
        <ele>19.799999237061</ele>
        <time>2015-09-12T11:19:50.000Z</time>
      </trkpt>
      <trkpt lat="45.1509" lon="-0.77929">
        <ele>19.60000038147</ele>
        <time>2015-09-12T11:19:57.000Z</time>
      </trkpt>
      <trkpt lat="45.15086" lon="-0.77924">
        <ele>19.39999961853</ele>
        <time>2015-09-12T11:20:08.000Z</time>
      </trkpt>
      <trkpt lat="45.15085" lon="-0.77922">
        <ele>19.39999961853</ele>
        <time>2015-09-12T11:20:27.000Z</time>
      </trkpt>
      <trkpt lat="45.15085" lon="-0.77923">
        <ele>19.39999961853</ele>
        <time>2015-09-12T11:20:35.000Z</time>
      </trkpt>
      <trkpt lat="45.15084" lon="-0.77922">
        <ele>19.39999961853</ele>
        <time>2015-09-12T11:21:19.000Z</time>
      </trkpt>
      <trkpt lat="45.15078" lon="-0.77917">
        <ele>19.60000038147</ele>
        <time>2015-09-12T11:21:27.000Z</time>
      </trkpt>
      <trkpt lat="45.15076" lon="-0.77914">
        <ele>19.60000038147</ele>
        <time>2015-09-12T11:21:31.000Z</time>
      </trkpt>
      <trkpt lat="45.15074" lon="-0.77911">
        <ele>19.60000038147</ele>
        <time>2015-09-12T11:21:34.000Z</time>
      </trkpt>
      <trkpt lat="45.15072" lon="-0.77908">
        <ele>19.60000038147</ele>
        <time>2015-09-12T11:21:38.000Z</time>
      </trkpt>
      <trkpt lat="45.15071" lon="-0.77903">
        <ele>19.60000038147</ele>
        <time>2015-09-12T11:21:42.000Z</time>
      </trkpt>
      <trkpt lat="45.1507" lon="-0.77894">
        <ele>19.39999961853</ele>
        <time>2015-09-12T11:21:49.000Z</time>
      </trkpt>
      <trkpt lat="45.1507" lon="-0.77891">
        <ele>19.39999961853</ele>
        <time>2015-09-12T11:21:51.000Z</time>
      </trkpt>
      <trkpt lat="45.1507" lon="-0.77878">
        <ele>19</ele>
        <time>2015-09-12T11:22:01.000Z</time>
      </trkpt>
      <trkpt lat="45.15072" lon="-0.77866">
        <ele>18.60000038147</ele>
        <time>2015-09-12T11:22:10.000Z</time>
      </trkpt>
      <trkpt lat="45.15073" lon="-0.77858">
        <ele>18.200000762939</ele>
        <time>2015-09-12T11:22:17.000Z</time>
      </trkpt>
      <trkpt lat="45.15074" lon="-0.77855">
        <ele>18</ele>
        <time>2015-09-12T11:22:19.000Z</time>
      </trkpt>
      <trkpt lat="45.15076" lon="-0.77849">
        <ele>17.799999237061</ele>
        <time>2015-09-12T11:22:24.000Z</time>
      </trkpt>
      <trkpt lat="45.15079" lon="-0.7784">
        <ele>17.200000762939</ele>
        <time>2015-09-12T11:22:32.000Z</time>
      </trkpt>
      <trkpt lat="45.15082" lon="-0.77832">
        <ele>16.799999237061</ele>
        <time>2015-09-12T11:22:40.000Z</time>
      </trkpt>
      <trkpt lat="45.15083" lon="-0.77822">
        <ele>16.39999961853</ele>
        <time>2015-09-12T11:22:47.000Z</time>
      </trkpt>
      <trkpt lat="45.15107" lon="-0.77786">
        <ele>15.199999809265</ele>
        <time>2015-09-12T11:23:08.000Z</time>
      </trkpt>
      <trkpt lat="45.15114" lon="-0.77777">
        <ele>15.199999809265</ele>
        <time>2015-09-12T11:23:12.000Z</time>
      </trkpt>
      <trkpt lat="45.15122" lon="-0.77763">
        <ele>15</ele>
        <time>2015-09-12T11:23:19.000Z</time>
      </trkpt>
      <trkpt lat="45.1513" lon="-0.77751">
        <ele>15</ele>
        <time>2015-09-12T11:23:25.000Z</time>
      </trkpt>
      <trkpt lat="45.15131" lon="-0.7775">
        <ele>15</ele>
        <time>2015-09-12T11:23:26.000Z</time>
      </trkpt>
      <trkpt lat="45.15134" lon="-0.77742">
        <ele>15.199999809265</ele>
        <time>2015-09-12T11:23:31.000Z</time>
      </trkpt>
      <trkpt lat="45.15137" lon="-0.77736">
        <ele>15.199999809265</ele>
        <time>2015-09-12T11:23:34.000Z</time>
      </trkpt>
      <trkpt lat="45.15138" lon="-0.77736">
        <ele>15.199999809265</ele>
        <time>2015-09-12T11:23:35.000Z</time>
      </trkpt>
      <trkpt lat="45.15142" lon="-0.77729">
        <ele>15.39999961853</ele>
        <time>2015-09-12T11:23:40.000Z</time>
      </trkpt>
      <trkpt lat="45.15143" lon="-0.77727">
        <ele>15.39999961853</ele>
        <time>2015-09-12T11:23:41.000Z</time>
      </trkpt>
      <trkpt lat="45.15151" lon="-0.7772">
        <ele>15.60000038147</ele>
        <time>2015-09-12T11:23:46.000Z</time>
      </trkpt>
      <trkpt lat="45.15152" lon="-0.77719">
        <ele>15.60000038147</ele>
        <time>2015-09-12T11:23:47.000Z</time>
      </trkpt>
      <trkpt lat="45.15161" lon="-0.77711">
        <ele>15.800000190735</ele>
        <time>2015-09-12T11:23:53.000Z</time>
      </trkpt>
      <trkpt lat="45.15162" lon="-0.7771">
        <ele>15.800000190735</ele>
        <time>2015-09-12T11:23:54.000Z</time>
      </trkpt>
      <trkpt lat="45.15167" lon="-0.7771">
        <ele>16</ele>
        <time>2015-09-12T11:23:58.000Z</time>
      </trkpt>
      <trkpt lat="45.15178" lon="-0.77701">
        <ele>16.200000762939</ele>
        <time>2015-09-12T11:24:05.000Z</time>
      </trkpt>
      <trkpt lat="45.15184" lon="-0.77696">
        <ele>16.39999961853</ele>
        <time>2015-09-12T11:24:09.000Z</time>
      </trkpt>
      <trkpt lat="45.1519" lon="-0.77689">
        <ele>16.60000038147</ele>
        <time>2015-09-12T11:24:14.000Z</time>
      </trkpt>
      <trkpt lat="45.15196" lon="-0.77684">
        <ele>16.60000038147</ele>
        <time>2015-09-12T11:24:18.000Z</time>
      </trkpt>
      <trkpt lat="45.15204" lon="-0.77678">
        <ele>16.799999237061</ele>
        <time>2015-09-12T11:24:23.000Z</time>
      </trkpt>
      <trkpt lat="45.15213" lon="-0.7767">
        <ele>17</ele>
        <time>2015-09-12T11:24:28.000Z</time>
      </trkpt>
      <trkpt lat="45.15228" lon="-0.77658">
        <ele>17.200000762939</ele>
        <time>2015-09-12T11:24:36.000Z</time>
      </trkpt>
      <trkpt lat="45.15237" lon="-0.77646">
        <ele>17.39999961853</ele>
        <time>2015-09-12T11:24:42.000Z</time>
      </trkpt>
      <trkpt lat="45.15234" lon="-0.77633">
        <ele>17.200000762939</ele>
        <time>2015-09-12T11:24:47.000Z</time>
      </trkpt>
      <trkpt lat="45.15228" lon="-0.77617">
        <ele>17</ele>
        <time>2015-09-12T11:24:54.000Z</time>
      </trkpt>
      <trkpt lat="45.15221" lon="-0.77606">
        <ele>16.799999237061</ele>
        <time>2015-09-12T11:25:00.000Z</time>
      </trkpt>
      <trkpt lat="45.15213" lon="-0.77592">
        <ele>16.39999961853</ele>
        <time>2015-09-12T11:25:07.000Z</time>
      </trkpt>
      <trkpt lat="45.15207" lon="-0.77579">
        <ele>16.200000762939</ele>
        <time>2015-09-12T11:25:13.000Z</time>
      </trkpt>
      <trkpt lat="45.152" lon="-0.77562">
        <ele>16</ele>
        <time>2015-09-12T11:25:21.000Z</time>
      </trkpt>
      <trkpt lat="45.15194" lon="-0.77546">
        <ele>16.39999961853</ele>
        <time>2015-09-12T11:25:28.000Z</time>
      </trkpt>
      <trkpt lat="45.15187" lon="-0.77531">
        <ele>16.60000038147</ele>
        <time>2015-09-12T11:25:35.000Z</time>
      </trkpt>
      <trkpt lat="45.15181" lon="-0.77518">
        <ele>16.799999237061</ele>
        <time>2015-09-12T11:25:41.000Z</time>
      </trkpt>
      <trkpt lat="45.15177" lon="-0.77506">
        <ele>17</ele>
        <time>2015-09-12T11:25:46.000Z</time>
      </trkpt>
      <trkpt lat="45.15173" lon="-0.77488">
        <ele>17.60000038147</ele>
        <time>2015-09-12T11:25:53.000Z</time>
      </trkpt>
      <trkpt lat="45.1517" lon="-0.7747">
        <ele>18</ele>
        <time>2015-09-12T11:26:00.000Z</time>
      </trkpt>
      <trkpt lat="45.15169" lon="-0.77455">
        <ele>18.200000762939</ele>
        <time>2015-09-12T11:26:06.000Z</time>
      </trkpt>
      <trkpt lat="45.15168" lon="-0.77438">
        <ele>18.39999961853</ele>
        <time>2015-09-12T11:26:12.000Z</time>
      </trkpt>
      <trkpt lat="45.15168" lon="-0.77423">
        <ele>18.39999961853</ele>
        <time>2015-09-12T11:26:18.000Z</time>
      </trkpt>
      <trkpt lat="45.15168" lon="-0.77404">
        <ele>18.200000762939</ele>
        <time>2015-09-12T11:26:25.000Z</time>
      </trkpt>
      <trkpt lat="45.15167" lon="-0.77385">
        <ele>18</ele>
        <time>2015-09-12T11:26:32.000Z</time>
      </trkpt>
      <trkpt lat="45.15166" lon="-0.77366">
        <ele>18</ele>
        <time>2015-09-12T11:26:39.000Z</time>
      </trkpt>
      <trkpt lat="45.15165" lon="-0.77347">
        <ele>18</ele>
        <time>2015-09-12T11:26:46.000Z</time>
      </trkpt>
      <trkpt lat="45.15164" lon="-0.7733">
        <ele>18</ele>
        <time>2015-09-12T11:26:53.000Z</time>
      </trkpt>
      <trkpt lat="45.15163" lon="-0.77311">
        <ele>18</ele>
        <time>2015-09-12T11:27:00.000Z</time>
      </trkpt>
      <trkpt lat="45.15162" lon="-0.77289">
        <ele>17.799999237061</ele>
        <time>2015-09-12T11:27:08.000Z</time>
      </trkpt>
      <trkpt lat="45.15162" lon="-0.77287">
        <ele>17.799999237061</ele>
        <time>2015-09-12T11:27:09.000Z</time>
      </trkpt>
      <trkpt lat="45.15161" lon="-0.77269">
        <ele>17.60000038147</ele>
        <time>2015-09-12T11:27:16.000Z</time>
      </trkpt>
      <trkpt lat="45.15157" lon="-0.77258">
        <ele>17.60000038147</ele>
        <time>2015-09-12T11:27:21.000Z</time>
      </trkpt>
      <trkpt lat="45.15154" lon="-0.77256">
        <ele>17.60000038147</ele>
        <time>2015-09-12T11:27:23.000Z</time>
      </trkpt>
      <trkpt lat="45.15143" lon="-0.77255">
        <ele>17.799999237061</ele>
        <time>2015-09-12T11:27:29.000Z</time>
      </trkpt>
      <trkpt lat="45.15141" lon="-0.77254">
        <ele>17.799999237061</ele>
        <time>2015-09-12T11:27:31.000Z</time>
      </trkpt>
      <trkpt lat="45.15134" lon="-0.7725">
        <ele>18</ele>
        <time>2015-09-12T11:27:38.000Z</time>
      </trkpt>
      <trkpt lat="45.15133" lon="-0.7725">
        <ele>18</ele>
        <time>2015-09-12T11:27:39.000Z</time>
      </trkpt>
      <trkpt lat="45.15122" lon="-0.77248">
        <ele>18</ele>
        <time>2015-09-12T11:27:48.000Z</time>
      </trkpt>
      <trkpt lat="45.15121" lon="-0.77247">
        <ele>18</ele>
        <time>2015-09-12T11:27:49.000Z</time>
      </trkpt>
      <trkpt lat="45.15109" lon="-0.77246">
        <ele>17.799999237061</ele>
        <time>2015-09-12T11:27:59.000Z</time>
      </trkpt>
      <trkpt lat="45.15106" lon="-0.77246">
        <ele>17.799999237061</ele>
        <time>2015-09-12T11:28:02.000Z</time>
      </trkpt>
      <trkpt lat="45.15099" lon="-0.77246">
        <ele>17.799999237061</ele>
        <time>2015-09-12T11:28:08.000Z</time>
      </trkpt>
      <trkpt lat="45.1509" lon="-0.77248">
        <ele>17.799999237061</ele>
        <time>2015-09-12T11:28:14.000Z</time>
      </trkpt>
      <trkpt lat="45.15088" lon="-0.77248">
        <ele>17.799999237061</ele>
        <time>2015-09-12T11:28:15.000Z</time>
      </trkpt>
      <trkpt lat="45.15083" lon="-0.77249">
        <ele>17.799999237061</ele>
        <time>2015-09-12T11:28:18.000Z</time>
      </trkpt>
      <trkpt lat="45.15069" lon="-0.7725">
        <ele>18</ele>
        <time>2015-09-12T11:28:25.000Z</time>
      </trkpt>
      <trkpt lat="45.15058" lon="-0.77253">
        <ele>18</ele>
        <time>2015-09-12T11:28:31.000Z</time>
      </trkpt>
      <trkpt lat="45.15051" lon="-0.77254">
        <ele>18.200000762939</ele>
        <time>2015-09-12T11:28:35.000Z</time>
      </trkpt>
      <trkpt lat="45.15043" lon="-0.77255">
        <ele>18.200000762939</ele>
        <time>2015-09-12T11:28:40.000Z</time>
      </trkpt>
      <trkpt lat="45.15035" lon="-0.77258">
        <ele>18.200000762939</ele>
        <time>2015-09-12T11:28:45.000Z</time>
      </trkpt>
      <trkpt lat="45.15031" lon="-0.77259">
        <ele>18.200000762939</ele>
        <time>2015-09-12T11:28:47.000Z</time>
      </trkpt>
      <trkpt lat="45.14999" lon="-0.77262">
        <ele>18</ele>
        <time>2015-09-12T11:29:03.000Z</time>
      </trkpt>
      <trkpt lat="45.14988" lon="-0.77263">
        <ele>17.799999237061</ele>
        <time>2015-09-12T11:29:08.000Z</time>
      </trkpt>
      <trkpt lat="45.14978" lon="-0.77262">
        <ele>17.799999237061</ele>
        <time>2015-09-12T11:29:12.000Z</time>
      </trkpt>
      <trkpt lat="45.14968" lon="-0.77264">
        <ele>17.60000038147</ele>
        <time>2015-09-12T11:29:17.000Z</time>
      </trkpt>
      <trkpt lat="45.14952" lon="-0.77265">
        <ele>17.39999961853</ele>
        <time>2015-09-12T11:29:24.000Z</time>
      </trkpt>
      <trkpt lat="45.14939" lon="-0.77266">
        <ele>17.39999961853</ele>
        <time>2015-09-12T11:29:30.000Z</time>
      </trkpt>
      <trkpt lat="45.14928" lon="-0.77268">
        <ele>17.39999961853</ele>
        <time>2015-09-12T11:29:36.000Z</time>
      </trkpt>
      <trkpt lat="45.1492" lon="-0.77269">
        <ele>17.39999961853</ele>
        <time>2015-09-12T11:29:41.000Z</time>
      </trkpt>
      <trkpt lat="45.1492" lon="-0.77269">
        <ele>17.39999961853</ele>
        <time>2015-09-12T11:29:42.000Z</time>
      </trkpt>
      <trkpt lat="45.14912" lon="-0.77265">
        <ele>17.39999961853</ele>
        <time>2015-09-12T11:29:49.000Z</time>
      </trkpt>
      <trkpt lat="45.14911" lon="-0.77265">
        <ele>17.39999961853</ele>
        <time>2015-09-12T11:29:50.000Z</time>
      </trkpt>
      <trkpt lat="45.14907" lon="-0.77266">
        <ele>17.39999961853</ele>
        <time>2015-09-12T11:29:53.000Z</time>
      </trkpt>
      <trkpt lat="45.14905" lon="-0.77267">
        <ele>17.39999961853</ele>
        <time>2015-09-12T11:29:56.000Z</time>
      </trkpt>
      <trkpt lat="45.149" lon="-0.77264">
        <ele>17.200000762939</ele>
        <time>2015-09-12T11:30:01.000Z</time>
      </trkpt>
      <trkpt lat="45.14895" lon="-0.77255">
        <ele>17.200000762939</ele>
        <time>2015-09-12T11:30:07.000Z</time>
      </trkpt>
      <trkpt lat="45.14895" lon="-0.77253">
        <ele>17.200000762939</ele>
        <time>2015-09-12T11:30:08.000Z</time>
      </trkpt>
      <trkpt lat="45.1489" lon="-0.77244">
        <ele>17.200000762939</ele>
        <time>2015-09-12T11:30:15.000Z</time>
      </trkpt>
      <trkpt lat="45.14883" lon="-0.77235">
        <ele>17</ele>
        <time>2015-09-12T11:30:21.000Z</time>
      </trkpt>
      <trkpt lat="45.14882" lon="-0.77233">
        <ele>17</ele>
        <time>2015-09-12T11:30:22.000Z</time>
      </trkpt>
      <trkpt lat="45.14881" lon="-0.77223">
        <ele>17</ele>
        <time>2015-09-12T11:30:27.000Z</time>
      </trkpt>
      <trkpt lat="45.14886" lon="-0.77214">
        <ele>17.200000762939</ele>
        <time>2015-09-12T11:30:32.000Z</time>
      </trkpt>
      <trkpt lat="45.14891" lon="-0.77198">
        <ele>17</ele>
        <time>2015-09-12T11:30:37.000Z</time>
      </trkpt>
      <trkpt lat="45.14889" lon="-0.77178">
        <ele>16.799999237061</ele>
        <time>2015-09-12T11:30:43.000Z</time>
      </trkpt>
      <trkpt lat="45.14888" lon="-0.77164">
        <ele>16.60000038147</ele>
        <time>2015-09-12T11:30:48.000Z</time>
      </trkpt>
      <trkpt lat="45.14886" lon="-0.77142">
        <ele>16.200000762939</ele>
        <time>2015-09-12T11:30:55.000Z</time>
      </trkpt>
      <trkpt lat="45.14889" lon="-0.77129">
        <ele>16.39999961853</ele>
        <time>2015-09-12T11:31:00.000Z</time>
      </trkpt>
      <trkpt lat="45.14895" lon="-0.77114">
        <ele>16.799999237061</ele>
        <time>2015-09-12T11:31:07.000Z</time>
      </trkpt>
      <trkpt lat="45.14896" lon="-0.77112">
        <ele>16.799999237061</ele>
        <time>2015-09-12T11:31:08.000Z</time>
      </trkpt>
      <trkpt lat="45.14898" lon="-0.77106">
        <ele>16.799999237061</ele>
        <time>2015-09-12T11:31:11.000Z</time>
      </trkpt>
      <trkpt lat="45.14906" lon="-0.77091">
        <ele>17.200000762939</ele>
        <time>2015-09-12T11:31:17.000Z</time>
      </trkpt>
      <trkpt lat="45.14914" lon="-0.77076">
        <ele>17.60000038147</ele>
        <time>2015-09-12T11:31:23.000Z</time>
      </trkpt>
      <trkpt lat="45.14924" lon="-0.77061">
        <ele>18</ele>
        <time>2015-09-12T11:31:30.000Z</time>
      </trkpt>
      <trkpt lat="45.14932" lon="-0.77047">
        <ele>18.39999961853</ele>
        <time>2015-09-12T11:31:36.000Z</time>
      </trkpt>
      <trkpt lat="45.14941" lon="-0.77028">
        <ele>18.60000038147</ele>
        <time>2015-09-12T11:31:44.000Z</time>
      </trkpt>
      <trkpt lat="45.14941" lon="-0.77013">
        <ele>18.60000038147</ele>
        <time>2015-09-12T11:31:50.000Z</time>
      </trkpt>
      <trkpt lat="45.14938" lon="-0.76998">
        <ele>18.39999961853</ele>
        <time>2015-09-12T11:31:56.000Z</time>
      </trkpt>
      <trkpt lat="45.14933" lon="-0.7698">
        <ele>18.39999961853</ele>
        <time>2015-09-12T11:32:03.000Z</time>
      </trkpt>
      <trkpt lat="45.1493" lon="-0.76967">
        <ele>18.200000762939</ele>
        <time>2015-09-12T11:32:08.000Z</time>
      </trkpt>
      <trkpt lat="45.14926" lon="-0.76946">
        <ele>18.200000762939</ele>
        <time>2015-09-12T11:32:15.000Z</time>
      </trkpt>
      <trkpt lat="45.14922" lon="-0.76927">
        <ele>18</ele>
        <time>2015-09-12T11:32:22.000Z</time>
      </trkpt>
      <trkpt lat="45.1492" lon="-0.76909">
        <ele>18.39999961853</ele>
        <time>2015-09-12T11:32:29.000Z</time>
      </trkpt>
      <trkpt lat="45.14917" lon="-0.7689">
        <ele>19</ele>
        <time>2015-09-12T11:32:36.000Z</time>
      </trkpt>
      <trkpt lat="45.14916" lon="-0.76875">
        <ele>19.200000762939</ele>
        <time>2015-09-12T11:32:41.000Z</time>
      </trkpt>
      <trkpt lat="45.14914" lon="-0.76854">
        <ele>19.39999961853</ele>
        <time>2015-09-12T11:32:48.000Z</time>
      </trkpt>
      <trkpt lat="45.14914" lon="-0.76839">
        <ele>19.200000762939</ele>
        <time>2015-09-12T11:32:53.000Z</time>
      </trkpt>
      <trkpt lat="45.14913" lon="-0.7682">
        <ele>19</ele>
        <time>2015-09-12T11:32:59.000Z</time>
      </trkpt>
      <trkpt lat="45.14912" lon="-0.76795">
        <ele>18.799999237061</ele>
        <time>2015-09-12T11:33:07.000Z</time>
      </trkpt>
      <trkpt lat="45.14912" lon="-0.76778">
        <ele>18.799999237061</ele>
        <time>2015-09-12T11:33:13.000Z</time>
      </trkpt>
      <trkpt lat="45.14913" lon="-0.76759">
        <ele>19</ele>
        <time>2015-09-12T11:33:20.000Z</time>
      </trkpt>
      <trkpt lat="45.14915" lon="-0.76736">
        <ele>19.200000762939</ele>
        <time>2015-09-12T11:33:28.000Z</time>
      </trkpt>
      <trkpt lat="45.14918" lon="-0.76715">
        <ele>19.60000038147</ele>
        <time>2015-09-12T11:33:35.000Z</time>
      </trkpt>
      <trkpt lat="45.14922" lon="-0.76699">
        <ele>19.799999237061</ele>
        <time>2015-09-12T11:33:41.000Z</time>
      </trkpt>
      <trkpt lat="45.14927" lon="-0.7668">
        <ele>20</ele>
        <time>2015-09-12T11:33:48.000Z</time>
      </trkpt>
      <trkpt lat="45.14931" lon="-0.76661">
        <ele>20.200000762939</ele>
        <time>2015-09-12T11:33:54.000Z</time>
      </trkpt>
      <trkpt lat="45.14935" lon="-0.76646">
        <ele>20.39999961853</ele>
        <time>2015-09-12T11:34:00.000Z</time>
      </trkpt>
      <trkpt lat="45.1494" lon="-0.76625">
        <ele>20.39999961853</ele>
        <time>2015-09-12T11:34:07.000Z</time>
      </trkpt>
      <trkpt lat="45.14943" lon="-0.76611">
        <ele>20.200000762939</ele>
        <time>2015-09-12T11:34:12.000Z</time>
      </trkpt>
      <trkpt lat="45.14948" lon="-0.76589">
        <ele>20.200000762939</ele>
        <time>2015-09-12T11:34:20.000Z</time>
      </trkpt>
      <trkpt lat="45.14952" lon="-0.76573">
        <ele>20</ele>
        <time>2015-09-12T11:34:26.000Z</time>
      </trkpt>
      <trkpt lat="45.14956" lon="-0.76556">
        <ele>20</ele>
        <time>2015-09-12T11:34:32.000Z</time>
      </trkpt>
      <trkpt lat="45.14961" lon="-0.76538">
        <ele>19.799999237061</ele>
        <time>2015-09-12T11:34:39.000Z</time>
      </trkpt>
      <trkpt lat="45.14965" lon="-0.76518">
        <ele>19.60000038147</ele>
        <time>2015-09-12T11:34:46.000Z</time>
      </trkpt>
      <trkpt lat="45.1497" lon="-0.76495">
        <ele>19.200000762939</ele>
        <time>2015-09-12T11:34:54.000Z</time>
      </trkpt>
      <trkpt lat="45.14976" lon="-0.76473">
        <ele>19</ele>
        <time>2015-09-12T11:35:02.000Z</time>
      </trkpt>
      <trkpt lat="45.14982" lon="-0.76449">
        <ele>18.799999237061</ele>
        <time>2015-09-12T11:35:11.000Z</time>
      </trkpt>
      <trkpt lat="45.14986" lon="-0.76433">
        <ele>18.60000038147</ele>
        <time>2015-09-12T11:35:17.000Z</time>
      </trkpt>
      <trkpt lat="45.1499" lon="-0.76413">
        <ele>18.39999961853</ele>
        <time>2015-09-12T11:35:24.000Z</time>
      </trkpt>
      <trkpt lat="45.14993" lon="-0.76399">
        <ele>18.200000762939</ele>
        <time>2015-09-12T11:35:29.000Z</time>
      </trkpt>
      <trkpt lat="45.14998" lon="-0.7638">
        <ele>17.799999237061</ele>
        <time>2015-09-12T11:35:36.000Z</time>
      </trkpt>
      <trkpt lat="45.15001" lon="-0.76364">
        <ele>17.39999961853</ele>
        <time>2015-09-12T11:35:42.000Z</time>
      </trkpt>
      <trkpt lat="45.15005" lon="-0.76348">
        <ele>17</ele>
        <time>2015-09-12T11:35:48.000Z</time>
      </trkpt>
      <trkpt lat="45.15009" lon="-0.7633">
        <ele>16.60000038147</ele>
        <time>2015-09-12T11:35:55.000Z</time>
      </trkpt>
      <trkpt lat="45.15012" lon="-0.76316">
        <ele>16.200000762939</ele>
        <time>2015-09-12T11:36:00.000Z</time>
      </trkpt>
      <trkpt lat="45.15017" lon="-0.76299">
        <ele>16</ele>
        <time>2015-09-12T11:36:06.000Z</time>
      </trkpt>
      <trkpt lat="45.15021" lon="-0.7628">
        <ele>16.200000762939</ele>
        <time>2015-09-12T11:36:13.000Z</time>
      </trkpt>
      <trkpt lat="45.15026" lon="-0.76263">
        <ele>16.39999961853</ele>
        <time>2015-09-12T11:36:19.000Z</time>
      </trkpt>
      <trkpt lat="45.1503" lon="-0.76247">
        <ele>16.60000038147</ele>
        <time>2015-09-12T11:36:25.000Z</time>
      </trkpt>
      <trkpt lat="45.15036" lon="-0.76229">
        <ele>17</ele>
        <time>2015-09-12T11:36:32.000Z</time>
      </trkpt>
      <trkpt lat="45.15042" lon="-0.76215">
        <ele>16.799999237061</ele>
        <time>2015-09-12T11:36:38.000Z</time>
      </trkpt>
      <trkpt lat="45.15048" lon="-0.762">
        <ele>16.799999237061</ele>
        <time>2015-09-12T11:36:44.000Z</time>
      </trkpt>
      <trkpt lat="45.15053" lon="-0.76188">
        <ele>16.799999237061</ele>
        <time>2015-09-12T11:36:49.000Z</time>
      </trkpt>
      <trkpt lat="45.15061" lon="-0.76169">
        <ele>16.60000038147</ele>
        <time>2015-09-12T11:36:57.000Z</time>
      </trkpt>
      <trkpt lat="45.15067" lon="-0.76157">
        <ele>16.60000038147</ele>
        <time>2015-09-12T11:37:02.000Z</time>
      </trkpt>
      <trkpt lat="45.15072" lon="-0.76142">
        <ele>16.39999961853</ele>
        <time>2015-09-12T11:37:08.000Z</time>
      </trkpt>
      <trkpt lat="45.15075" lon="-0.76129">
        <ele>16.39999961853</ele>
        <time>2015-09-12T11:37:13.000Z</time>
      </trkpt>
      <trkpt lat="45.15075" lon="-0.76127">
        <ele>16.39999961853</ele>
        <time>2015-09-12T11:37:14.000Z</time>
      </trkpt>
      <trkpt lat="45.15069" lon="-0.7611">
        <ele>16.39999961853</ele>
        <time>2015-09-12T11:37:21.000Z</time>
      </trkpt>
      <trkpt lat="45.15063" lon="-0.76095">
        <ele>16.60000038147</ele>
        <time>2015-09-12T11:37:28.000Z</time>
      </trkpt>
      <trkpt lat="45.15058" lon="-0.76082">
        <ele>16.60000038147</ele>
        <time>2015-09-12T11:37:34.000Z</time>
      </trkpt>
      <trkpt lat="45.15054" lon="-0.76067">
        <ele>16.799999237061</ele>
        <time>2015-09-12T11:37:40.000Z</time>
      </trkpt>
      <trkpt lat="45.15049" lon="-0.76055">
        <ele>17</ele>
        <time>2015-09-12T11:37:45.000Z</time>
      </trkpt>
      <trkpt lat="45.15044" lon="-0.76036">
        <ele>17</ele>
        <time>2015-09-12T11:37:52.000Z</time>
      </trkpt>
      <trkpt lat="45.1504" lon="-0.76026">
        <ele>17</ele>
        <time>2015-09-12T11:37:56.000Z</time>
      </trkpt>
      <trkpt lat="45.15038" lon="-0.76019">
        <ele>17</ele>
        <time>2015-09-12T11:38:01.000Z</time>
      </trkpt>
      <trkpt lat="45.15036" lon="-0.7601">
        <ele>17</ele>
        <time>2015-09-12T11:38:07.000Z</time>
      </trkpt>
      <trkpt lat="45.15033" lon="-0.76">
        <ele>16.799999237061</ele>
        <time>2015-09-12T11:38:14.000Z</time>
      </trkpt>
      <trkpt lat="45.1503" lon="-0.75989">
        <ele>16.799999237061</ele>
        <time>2015-09-12T11:38:21.000Z</time>
      </trkpt>
      <trkpt lat="45.15027" lon="-0.75977">
        <ele>17</ele>
        <time>2015-09-12T11:38:28.000Z</time>
      </trkpt>
      <trkpt lat="45.15025" lon="-0.75964">
        <ele>17</ele>
        <time>2015-09-12T11:38:35.000Z</time>
      </trkpt>
      <trkpt lat="45.15022" lon="-0.7595">
        <ele>17</ele>
        <time>2015-09-12T11:38:43.000Z</time>
      </trkpt>
      <trkpt lat="45.15019" lon="-0.75935">
        <ele>17</ele>
        <time>2015-09-12T11:38:52.000Z</time>
      </trkpt>
      <trkpt lat="45.15017" lon="-0.75921">
        <ele>17</ele>
        <time>2015-09-12T11:39:00.000Z</time>
      </trkpt>
      <trkpt lat="45.15014" lon="-0.75902">
        <ele>17</ele>
        <time>2015-09-12T11:39:11.000Z</time>
      </trkpt>
      <trkpt lat="45.15013" lon="-0.75888">
        <ele>17</ele>
        <time>2015-09-12T11:39:19.000Z</time>
      </trkpt>
      <trkpt lat="45.1501" lon="-0.75869">
        <ele>17.200000762939</ele>
        <time>2015-09-12T11:39:29.000Z</time>
      </trkpt>
      <trkpt lat="45.15006" lon="-0.75848">
        <ele>17.39999961853</ele>
        <time>2015-09-12T11:39:40.000Z</time>
      </trkpt>
      <trkpt lat="45.15004" lon="-0.75832">
        <ele>17.60000038147</ele>
        <time>2015-09-12T11:39:49.000Z</time>
      </trkpt>
      <trkpt lat="45.15002" lon="-0.75819">
        <ele>17.39999961853</ele>
        <time>2015-09-12T11:39:56.000Z</time>
      </trkpt>
      <trkpt lat="45.15" lon="-0.75805">
        <ele>17.39999961853</ele>
        <time>2015-09-12T11:40:04.000Z</time>
      </trkpt>
      <trkpt lat="45.14998" lon="-0.75788">
        <ele>17.39999961853</ele>
        <time>2015-09-12T11:40:13.000Z</time>
      </trkpt>
      <trkpt lat="45.14996" lon="-0.75773">
        <ele>17.39999961853</ele>
        <time>2015-09-12T11:40:21.000Z</time>
      </trkpt>
      <trkpt lat="45.14993" lon="-0.75753">
        <ele>17.60000038147</ele>
        <time>2015-09-12T11:40:31.000Z</time>
      </trkpt>
      <trkpt lat="45.1499" lon="-0.75728">
        <ele>18</ele>
        <time>2015-09-12T11:40:44.000Z</time>
      </trkpt>
      <trkpt lat="45.14987" lon="-0.75707">
        <ele>17.799999237061</ele>
        <time>2015-09-12T11:40:55.000Z</time>
      </trkpt>
      <trkpt lat="45.14985" lon="-0.75691">
        <ele>17.60000038147</ele>
        <time>2015-09-12T11:41:04.000Z</time>
      </trkpt>
      <trkpt lat="45.14982" lon="-0.75675">
        <ele>17.39999961853</ele>
        <time>2015-09-12T11:41:12.000Z</time>
      </trkpt>
      <trkpt lat="45.14979" lon="-0.75656">
        <ele>17.200000762939</ele>
        <time>2015-09-12T11:41:22.000Z</time>
      </trkpt>
      <trkpt lat="45.14976" lon="-0.75638">
        <ele>17</ele>
        <time>2015-09-12T11:41:31.000Z</time>
      </trkpt>
      <trkpt lat="45.14973" lon="-0.7562">
        <ele>16.60000038147</ele>
        <time>2015-09-12T11:41:41.000Z</time>
      </trkpt>
      <trkpt lat="45.1497" lon="-0.75605">
        <ele>16.60000038147</ele>
        <time>2015-09-12T11:41:49.000Z</time>
      </trkpt>
      <trkpt lat="45.14964" lon="-0.75584">
        <ele>16.39999961853</ele>
        <time>2015-09-12T11:42:01.000Z</time>
      </trkpt>
      <trkpt lat="45.14958" lon="-0.75565">
        <ele>16.200000762939</ele>
        <time>2015-09-12T11:42:12.000Z</time>
      </trkpt>
      <trkpt lat="45.14953" lon="-0.75551">
        <ele>16.200000762939</ele>
        <time>2015-09-12T11:42:21.000Z</time>
      </trkpt>
      <trkpt lat="45.14945" lon="-0.75534">
        <ele>16.200000762939</ele>
        <time>2015-09-12T11:42:31.000Z</time>
      </trkpt>
      <trkpt lat="45.14941" lon="-0.75524">
        <ele>16.200000762939</ele>
        <time>2015-09-12T11:42:38.000Z</time>
      </trkpt>
      <trkpt lat="45.14936" lon="-0.75514">
        <ele>16.200000762939</ele>
        <time>2015-09-12T11:42:44.000Z</time>
      </trkpt>
      <trkpt lat="45.14931" lon="-0.75502">
        <ele>16.39999961853</ele>
        <time>2015-09-12T11:42:51.000Z</time>
      </trkpt>
      <trkpt lat="45.14924" lon="-0.75486">
        <ele>16.799999237061</ele>
        <time>2015-09-12T11:43:01.000Z</time>
      </trkpt>
      <trkpt lat="45.14911" lon="-0.75469">
        <ele>17.200000762939</ele>
        <time>2015-09-12T11:43:14.000Z</time>
      </trkpt>
      <trkpt lat="45.14903" lon="-0.75459">
        <ele>17.39999961853</ele>
        <time>2015-09-12T11:43:22.000Z</time>
      </trkpt>
      <trkpt lat="45.14894" lon="-0.7545">
        <ele>17.60000038147</ele>
        <time>2015-09-12T11:43:30.000Z</time>
      </trkpt>
      <trkpt lat="45.14882" lon="-0.75441">
        <ele>17.799999237061</ele>
        <time>2015-09-12T11:43:40.000Z</time>
      </trkpt>
      <trkpt lat="45.14871" lon="-0.75432">
        <ele>18</ele>
        <time>2015-09-12T11:43:50.000Z</time>
      </trkpt>
      <trkpt lat="45.1486" lon="-0.75425">
        <ele>18.200000762939</ele>
        <time>2015-09-12T11:43:59.000Z</time>
      </trkpt>
      <trkpt lat="45.14853" lon="-0.75419">
        <ele>18.200000762939</ele>
        <time>2015-09-12T11:44:06.000Z</time>
      </trkpt>
      <trkpt lat="45.14841" lon="-0.75409">
        <ele>18.200000762939</ele>
        <time>2015-09-12T11:44:16.000Z</time>
      </trkpt>
      <trkpt lat="45.1483" lon="-0.75399">
        <ele>18.200000762939</ele>
        <time>2015-09-12T11:44:25.000Z</time>
      </trkpt>
      <trkpt lat="45.14818" lon="-0.75389">
        <ele>18</ele>
        <time>2015-09-12T11:44:36.000Z</time>
      </trkpt>
      <trkpt lat="45.14807" lon="-0.75378">
        <ele>17.799999237061</ele>
        <time>2015-09-12T11:44:45.000Z</time>
      </trkpt>
      <trkpt lat="45.14797" lon="-0.75365">
        <ele>18</ele>
        <time>2015-09-12T11:44:52.000Z</time>
      </trkpt>
      <trkpt lat="45.14787" lon="-0.75349">
        <ele>18</ele>
        <time>2015-09-12T11:45:00.000Z</time>
      </trkpt>
      <trkpt lat="45.14779" lon="-0.75327">
        <ele>18.200000762939</ele>
        <time>2015-09-12T11:45:08.000Z</time>
      </trkpt>
      <trkpt lat="45.14776" lon="-0.75309">
        <ele>18</ele>
        <time>2015-09-12T11:45:15.000Z</time>
      </trkpt>
      <trkpt lat="45.14774" lon="-0.75287">
        <ele>17.60000038147</ele>
        <time>2015-09-12T11:45:23.000Z</time>
      </trkpt>
      <trkpt lat="45.14772" lon="-0.75263">
        <ele>17</ele>
        <time>2015-09-12T11:45:31.000Z</time>
      </trkpt>
      <trkpt lat="45.1477" lon="-0.75243">
        <ele>16.60000038147</ele>
        <time>2015-09-12T11:45:39.000Z</time>
      </trkpt>
      <trkpt lat="45.14763" lon="-0.75235">
        <ele>16.799999237061</ele>
        <time>2015-09-12T11:45:44.000Z</time>
      </trkpt>
      <trkpt lat="45.14753" lon="-0.75234">
        <ele>17</ele>
        <time>2015-09-12T11:45:49.000Z</time>
      </trkpt>
      <trkpt lat="45.14743" lon="-0.75233">
        <ele>17.200000762939</ele>
        <time>2015-09-12T11:45:54.000Z</time>
      </trkpt>
      <trkpt lat="45.14732" lon="-0.75231">
        <ele>17.60000038147</ele>
        <time>2015-09-12T11:46:00.000Z</time>
      </trkpt>
      <trkpt lat="45.14716" lon="-0.7523">
        <ele>17.799999237061</ele>
        <time>2015-09-12T11:46:08.000Z</time>
      </trkpt>
      <trkpt lat="45.14705" lon="-0.75229">
        <ele>18</ele>
        <time>2015-09-12T11:46:14.000Z</time>
      </trkpt>
      <trkpt lat="45.14693" lon="-0.75228">
        <ele>18.200000762939</ele>
        <time>2015-09-12T11:46:20.000Z</time>
      </trkpt>
      <trkpt lat="45.14682" lon="-0.75227">
        <ele>18.39999961853</ele>
        <time>2015-09-12T11:46:26.000Z</time>
      </trkpt>
      <trkpt lat="45.14668" lon="-0.75226">
        <ele>18.60000038147</ele>
        <time>2015-09-12T11:46:33.000Z</time>
      </trkpt>
      <trkpt lat="45.14653" lon="-0.75223">
        <ele>18.60000038147</ele>
        <time>2015-09-12T11:46:41.000Z</time>
      </trkpt>
      <trkpt lat="45.14644" lon="-0.75221">
        <ele>18.799999237061</ele>
        <time>2015-09-12T11:46:46.000Z</time>
      </trkpt>
      <trkpt lat="45.1463" lon="-0.7522">
        <ele>19</ele>
        <time>2015-09-12T11:46:53.000Z</time>
      </trkpt>
      <trkpt lat="45.1462" lon="-0.75218">
        <ele>19</ele>
        <time>2015-09-12T11:46:59.000Z</time>
      </trkpt>
      <trkpt lat="45.14607" lon="-0.75217">
        <ele>19</ele>
        <time>2015-09-12T11:47:06.000Z</time>
      </trkpt>
      <trkpt lat="45.14594" lon="-0.75216">
        <ele>18.799999237061</ele>
        <time>2015-09-12T11:47:12.000Z</time>
      </trkpt>
      <trkpt lat="45.14582" lon="-0.75215">
        <ele>18.799999237061</ele>
        <time>2015-09-12T11:47:18.000Z</time>
      </trkpt>
      <trkpt lat="45.14571" lon="-0.75213">
        <ele>18.799999237061</ele>
        <time>2015-09-12T11:47:24.000Z</time>
      </trkpt>
      <trkpt lat="45.14563" lon="-0.75213">
        <ele>18.799999237061</ele>
        <time>2015-09-12T11:47:28.000Z</time>
      </trkpt>
      <trkpt lat="45.14549" lon="-0.7521">
        <ele>18.799999237061</ele>
        <time>2015-09-12T11:47:35.000Z</time>
      </trkpt>
      <trkpt lat="45.14536" lon="-0.75209">
        <ele>18.799999237061</ele>
        <time>2015-09-12T11:47:42.000Z</time>
      </trkpt>
      <trkpt lat="45.14523" lon="-0.75206">
        <ele>18.60000038147</ele>
        <time>2015-09-12T11:47:49.000Z</time>
      </trkpt>
      <trkpt lat="45.14511" lon="-0.75202">
        <ele>18.39999961853</ele>
        <time>2015-09-12T11:47:56.000Z</time>
      </trkpt>
      <trkpt lat="45.14508" lon="-0.75191">
        <ele>18.200000762939</ele>
        <time>2015-09-12T11:48:02.000Z</time>
      </trkpt>
      <trkpt lat="45.14509" lon="-0.75176">
        <ele>18</ele>
        <time>2015-09-12T11:48:11.000Z</time>
      </trkpt>
      <trkpt lat="45.1451" lon="-0.75164">
        <ele>18.200000762939</ele>
        <time>2015-09-12T11:48:20.000Z</time>
      </trkpt>
      <trkpt lat="45.1451" lon="-0.75162">
        <ele>18.200000762939</ele>
        <time>2015-09-12T11:48:22.000Z</time>
      </trkpt>
      <trkpt lat="45.1451" lon="-0.75156">
        <ele>18.39999961853</ele>
        <time>2015-09-12T11:48:29.000Z</time>
      </trkpt>
      <trkpt lat="45.14511" lon="-0.75149">
        <ele>18.60000038147</ele>
        <time>2015-09-12T11:48:35.000Z</time>
      </trkpt>
      <trkpt lat="45.14513" lon="-0.75138">
        <ele>18.799999237061</ele>
        <time>2015-09-12T11:48:43.000Z</time>
      </trkpt>
      <trkpt lat="45.14513" lon="-0.75137">
        <ele>18.799999237061</ele>
        <time>2015-09-12T11:48:44.000Z</time>
      </trkpt>
      <trkpt lat="45.14513" lon="-0.75132">
        <ele>18.60000038147</ele>
        <time>2015-09-12T11:48:48.000Z</time>
      </trkpt>
      <trkpt lat="45.14512" lon="-0.75128">
        <ele>18.60000038147</ele>
        <time>2015-09-12T11:48:52.000Z</time>
      </trkpt>
      <trkpt lat="45.14512" lon="-0.75117">
        <ele>18.200000762939</ele>
        <time>2015-09-12T11:49:00.000Z</time>
      </trkpt>
      <trkpt lat="45.14511" lon="-0.75116">
        <ele>18.200000762939</ele>
        <time>2015-09-12T11:49:07.000Z</time>
      </trkpt>
      <trkpt lat="45.14514" lon="-0.75115">
        <ele>18.200000762939</ele>
        <time>2015-09-12T11:49:59.000Z</time>
      </trkpt>
      <trkpt lat="45.14515" lon="-0.75116">
        <ele>18.200000762939</ele>
        <time>2015-09-12T11:51:36.000Z</time>
      </trkpt>
      <trkpt lat="45.14515" lon="-0.75117">
        <ele>18.200000762939</ele>
        <time>2015-09-12T11:51:41.000Z</time>
      </trkpt>
      <trkpt lat="45.14518" lon="-0.75118">
        <ele>18.200000762939</ele>
        <time>2015-09-12T11:52:06.000Z</time>
      </trkpt>
      <trkpt lat="45.14518" lon="-0.75118">
        <ele>18.200000762939</ele>
        <time>2015-09-12T11:52:16.000Z</time>
      </trkpt>
      <trkpt lat="45.14519" lon="-0.75114">
        <ele>18</ele>
        <time>2015-09-12T11:52:21.000Z</time>
      </trkpt>
      <trkpt lat="45.14519" lon="-0.75104">
        <ele>17.799999237061</ele>
        <time>2015-09-12T11:52:28.000Z</time>
      </trkpt>
      <trkpt lat="45.1452" lon="-0.75093">
        <ele>17.39999961853</ele>
        <time>2015-09-12T11:52:36.000Z</time>
      </trkpt>
      <trkpt lat="45.14522" lon="-0.7508">
        <ele>17.200000762939</ele>
        <time>2015-09-12T11:52:44.000Z</time>
      </trkpt>
      <trkpt lat="45.14522" lon="-0.75076">
        <ele>17</ele>
        <time>2015-09-12T11:52:46.000Z</time>
      </trkpt>
      <trkpt lat="45.14524" lon="-0.75065">
        <ele>16.799999237061</ele>
        <time>2015-09-12T11:52:53.000Z</time>
      </trkpt>
      <trkpt lat="45.14525" lon="-0.75052">
        <ele>16.60000038147</ele>
        <time>2015-09-12T11:52:58.000Z</time>
      </trkpt>
      <trkpt lat="45.14529" lon="-0.75025">
        <ele>15.800000190735</ele>
        <time>2015-09-12T11:53:06.000Z</time>
      </trkpt>
      <trkpt lat="45.14533" lon="-0.75001">
        <ele>15.199999809265</ele>
        <time>2015-09-12T11:53:14.000Z</time>
      </trkpt>
      <trkpt lat="45.14535" lon="-0.74986">
        <ele>14.60000038147</ele>
        <time>2015-09-12T11:53:19.000Z</time>
      </trkpt>
      <trkpt lat="45.14538" lon="-0.74967">
        <ele>14.199999809265</ele>
        <time>2015-09-12T11:53:26.000Z</time>
      </trkpt>
      <trkpt lat="45.14542" lon="-0.74951">
        <ele>14</ele>
        <time>2015-09-12T11:53:32.000Z</time>
      </trkpt>
      <trkpt lat="45.14546" lon="-0.74933">
        <ele>14</ele>
        <time>2015-09-12T11:53:39.000Z</time>
      </trkpt>
      <trkpt lat="45.14549" lon="-0.74918">
        <ele>14</ele>
        <time>2015-09-12T11:53:45.000Z</time>
      </trkpt>
      <trkpt lat="45.14553" lon="-0.749">
        <ele>14</ele>
        <time>2015-09-12T11:53:52.000Z</time>
      </trkpt>
      <trkpt lat="45.14554" lon="-0.74898">
        <ele>14</ele>
        <time>2015-09-12T11:53:53.000Z</time>
      </trkpt>
      <trkpt lat="45.1458" lon="-0.74905">
        <ele>14</ele>
        <time>2015-09-12T11:54:07.000Z</time>
      </trkpt>
      <trkpt lat="45.14593" lon="-0.7491">
        <ele>14</ele>
        <time>2015-09-12T11:54:14.000Z</time>
      </trkpt>
      <trkpt lat="45.14603" lon="-0.74913">
        <ele>14</ele>
        <time>2015-09-12T11:54:19.000Z</time>
      </trkpt>
      <trkpt lat="45.14618" lon="-0.74916">
        <ele>14.199999809265</ele>
        <time>2015-09-12T11:54:26.000Z</time>
      </trkpt>
      <trkpt lat="45.14626" lon="-0.74919">
        <ele>14.39999961853</ele>
        <time>2015-09-12T11:54:30.000Z</time>
      </trkpt>
      <trkpt lat="45.14635" lon="-0.74922">
        <ele>14.60000038147</ele>
        <time>2015-09-12T11:54:35.000Z</time>
      </trkpt>
      <trkpt lat="45.14639" lon="-0.74924">
        <ele>14.60000038147</ele>
        <time>2015-09-12T11:54:37.000Z</time>
      </trkpt>
      <trkpt lat="45.14649" lon="-0.74927">
        <ele>14.800000190735</ele>
        <time>2015-09-12T11:54:43.000Z</time>
      </trkpt>
      <trkpt lat="45.14653" lon="-0.74928">
        <ele>14.800000190735</ele>
        <time>2015-09-12T11:54:45.000Z</time>
      </trkpt>
      <trkpt lat="45.14665" lon="-0.74934">
        <ele>15</ele>
        <time>2015-09-12T11:54:51.000Z</time>
      </trkpt>
      <trkpt lat="45.14667" lon="-0.74934">
        <ele>15</ele>
        <time>2015-09-12T11:54:52.000Z</time>
      </trkpt>
      <trkpt lat="45.14678" lon="-0.74938">
        <ele>15</ele>
        <time>2015-09-12T11:54:58.000Z</time>
      </trkpt>
      <trkpt lat="45.1469" lon="-0.74942">
        <ele>15</ele>
        <time>2015-09-12T11:55:04.000Z</time>
      </trkpt>
      <trkpt lat="45.14701" lon="-0.74945">
        <ele>15</ele>
        <time>2015-09-12T11:55:10.000Z</time>
      </trkpt>
      <trkpt lat="45.1471" lon="-0.74949">
        <ele>15</ele>
        <time>2015-09-12T11:55:15.000Z</time>
      </trkpt>
      <trkpt lat="45.14725" lon="-0.74952">
        <ele>15</ele>
        <time>2015-09-12T11:55:22.000Z</time>
      </trkpt>
      <trkpt lat="45.14735" lon="-0.74955">
        <ele>15</ele>
        <time>2015-09-12T11:55:27.000Z</time>
      </trkpt>
      <trkpt lat="45.14748" lon="-0.74959">
        <ele>14.60000038147</ele>
        <time>2015-09-12T11:55:34.000Z</time>
      </trkpt>
      <trkpt lat="45.1475" lon="-0.74959">
        <ele>14.60000038147</ele>
        <time>2015-09-12T11:55:35.000Z</time>
      </trkpt>
      <trkpt lat="45.1476" lon="-0.74951">
        <ele>14.60000038147</ele>
        <time>2015-09-12T11:55:41.000Z</time>
      </trkpt>
      <trkpt lat="45.14763" lon="-0.74946">
        <ele>14.60000038147</ele>
        <time>2015-09-12T11:55:43.000Z</time>
      </trkpt>
      <trkpt lat="45.1477" lon="-0.74927">
        <ele>14.800000190735</ele>
        <time>2015-09-12T11:55:50.000Z</time>
      </trkpt>
      <trkpt lat="45.14776" lon="-0.7491">
        <ele>15</ele>
        <time>2015-09-12T11:55:56.000Z</time>
      </trkpt>
      <trkpt lat="45.14777" lon="-0.74907">
        <ele>15</ele>
        <time>2015-09-12T11:55:57.000Z</time>
      </trkpt>
      <trkpt lat="45.14785" lon="-0.74889">
        <ele>15</ele>
        <time>2015-09-12T11:56:04.000Z</time>
      </trkpt>
      <trkpt lat="45.14792" lon="-0.74876">
        <ele>15</ele>
        <time>2015-09-12T11:56:09.000Z</time>
      </trkpt>
      <trkpt lat="45.14797" lon="-0.74864">
        <ele>15</ele>
        <time>2015-09-12T11:56:14.000Z</time>
      </trkpt>
      <trkpt lat="45.14804" lon="-0.74849">
        <ele>14.800000190735</ele>
        <time>2015-09-12T11:56:20.000Z</time>
      </trkpt>
      <trkpt lat="45.14814" lon="-0.74833">
        <ele>14.800000190735</ele>
        <time>2015-09-12T11:56:27.000Z</time>
      </trkpt>
      <trkpt lat="45.14821" lon="-0.74821">
        <ele>14.60000038147</ele>
        <time>2015-09-12T11:56:32.000Z</time>
      </trkpt>
      <trkpt lat="45.1483" lon="-0.74804">
        <ele>14.60000038147</ele>
        <time>2015-09-12T11:56:39.000Z</time>
      </trkpt>
      <trkpt lat="45.14837" lon="-0.74789">
        <ele>14.199999809265</ele>
        <time>2015-09-12T11:56:45.000Z</time>
      </trkpt>
      <trkpt lat="45.14844" lon="-0.74774">
        <ele>13.60000038147</ele>
        <time>2015-09-12T11:56:51.000Z</time>
      </trkpt>
      <trkpt lat="45.14846" lon="-0.74769">
        <ele>13.60000038147</ele>
        <time>2015-09-12T11:56:53.000Z</time>
      </trkpt>
      <trkpt lat="45.1485" lon="-0.74757">
        <ele>13.199999809265</ele>
        <time>2015-09-12T11:56:57.000Z</time>
      </trkpt>
      <trkpt lat="45.14855" lon="-0.74732">
        <ele>12.60000038147</ele>
        <time>2015-09-12T11:57:05.000Z</time>
      </trkpt>
      <trkpt lat="45.1486" lon="-0.74708">
        <ele>12.39999961853</ele>
        <time>2015-09-12T11:57:13.000Z</time>
      </trkpt>
      <trkpt lat="45.14863" lon="-0.7469">
        <ele>12.60000038147</ele>
        <time>2015-09-12T11:57:19.000Z</time>
      </trkpt>
      <trkpt lat="45.14865" lon="-0.74675">
        <ele>12.60000038147</ele>
        <time>2015-09-12T11:57:24.000Z</time>
      </trkpt>
      <trkpt lat="45.14868" lon="-0.74657">
        <ele>12.800000190735</ele>
        <time>2015-09-12T11:57:30.000Z</time>
      </trkpt>
      <trkpt lat="45.14869" lon="-0.74638">
        <ele>13</ele>
        <time>2015-09-12T11:57:37.000Z</time>
      </trkpt>
      <trkpt lat="45.1487" lon="-0.74624">
        <ele>13.199999809265</ele>
        <time>2015-09-12T11:57:42.000Z</time>
      </trkpt>
      <trkpt lat="45.1487" lon="-0.74617">
        <ele>13.39999961853</ele>
        <time>2015-09-12T11:57:44.000Z</time>
      </trkpt>
      <trkpt lat="45.14867" lon="-0.74599">
        <ele>13.800000190735</ele>
        <time>2015-09-12T11:57:50.000Z</time>
      </trkpt>
      <trkpt lat="45.14863" lon="-0.74579">
        <ele>14.199999809265</ele>
        <time>2015-09-12T11:57:57.000Z</time>
      </trkpt>
      <trkpt lat="45.14858" lon="-0.7456">
        <ele>14.199999809265</ele>
        <time>2015-09-12T11:58:04.000Z</time>
      </trkpt>
      <trkpt lat="45.14853" lon="-0.74543">
        <ele>14.199999809265</ele>
        <time>2015-09-12T11:58:10.000Z</time>
      </trkpt>
      <trkpt lat="45.14849" lon="-0.74529">
        <ele>14</ele>
        <time>2015-09-12T11:58:16.000Z</time>
      </trkpt>
      <trkpt lat="45.14846" lon="-0.74517">
        <ele>13.800000190735</ele>
        <time>2015-09-12T11:58:21.000Z</time>
      </trkpt>
      <trkpt lat="45.14841" lon="-0.745">
        <ele>13.800000190735</ele>
        <time>2015-09-12T11:58:28.000Z</time>
      </trkpt>
      <trkpt lat="45.14837" lon="-0.74484">
        <ele>14.199999809265</ele>
        <time>2015-09-12T11:58:34.000Z</time>
      </trkpt>
      <trkpt lat="45.14833" lon="-0.7447">
        <ele>14.39999961853</ele>
        <time>2015-09-12T11:58:40.000Z</time>
      </trkpt>
      <trkpt lat="45.1483" lon="-0.74453">
        <ele>14.39999961853</ele>
        <time>2015-09-12T11:58:46.000Z</time>
      </trkpt>
      <trkpt lat="45.14825" lon="-0.74435">
        <ele>14.39999961853</ele>
        <time>2015-09-12T11:58:53.000Z</time>
      </trkpt>
      <trkpt lat="45.14823" lon="-0.74422">
        <ele>14.60000038147</ele>
        <time>2015-09-12T11:58:59.000Z</time>
      </trkpt>
      <trkpt lat="45.14823" lon="-0.74421">
        <ele>14.60000038147</ele>
        <time>2015-09-12T11:59:00.000Z</time>
      </trkpt>
      <trkpt lat="45.14822" lon="-0.7442">
        <ele>14.60000038147</ele>
        <time>2015-09-12T11:59:01.000Z</time>
      </trkpt>
      <trkpt lat="45.14819" lon="-0.74408">
        <ele>14.800000190735</ele>
        <time>2015-09-12T11:59:06.000Z</time>
      </trkpt>
      <trkpt lat="45.14814" lon="-0.74397">
        <ele>14.800000190735</ele>
        <time>2015-09-12T11:59:11.000Z</time>
      </trkpt>
      <trkpt lat="45.14808" lon="-0.74381">
        <ele>15</ele>
        <time>2015-09-12T11:59:18.000Z</time>
      </trkpt>
      <trkpt lat="45.14804" lon="-0.74365">
        <ele>15.199999809265</ele>
        <time>2015-09-12T11:59:24.000Z</time>
      </trkpt>
      <trkpt lat="45.14798" lon="-0.74351">
        <ele>15.39999961853</ele>
        <time>2015-09-12T11:59:30.000Z</time>
      </trkpt>
      <trkpt lat="45.14791" lon="-0.74333">
        <ele>15.60000038147</ele>
        <time>2015-09-12T11:59:38.000Z</time>
      </trkpt>
      <trkpt lat="45.14786" lon="-0.74321">
        <ele>15.39999961853</ele>
        <time>2015-09-12T11:59:44.000Z</time>
      </trkpt>
      <trkpt lat="45.14779" lon="-0.74314">
        <ele>15.39999961853</ele>
        <time>2015-09-12T11:59:49.000Z</time>
      </trkpt>
      <trkpt lat="45.1477" lon="-0.74307">
        <ele>15.39999961853</ele>
        <time>2015-09-12T11:59:55.000Z</time>
      </trkpt>
      <trkpt lat="45.14763" lon="-0.74293">
        <ele>15.39999961853</ele>
        <time>2015-09-12T12:00:01.000Z</time>
      </trkpt>
      <trkpt lat="45.1476" lon="-0.74281">
        <ele>15.39999961853</ele>
        <time>2015-09-12T12:00:07.000Z</time>
      </trkpt>
      <trkpt lat="45.14755" lon="-0.74265">
        <ele>15.60000038147</ele>
        <time>2015-09-12T12:00:14.000Z</time>
      </trkpt>
      <trkpt lat="45.14752" lon="-0.74258">
        <ele>15.60000038147</ele>
        <time>2015-09-12T12:00:17.000Z</time>
      </trkpt>
      <trkpt lat="45.14746" lon="-0.74243">
        <ele>15.800000190735</ele>
        <time>2015-09-12T12:00:23.000Z</time>
      </trkpt>
      <trkpt lat="45.14743" lon="-0.74232">
        <ele>16.200000762939</ele>
        <time>2015-09-12T12:00:28.000Z</time>
      </trkpt>
      <trkpt lat="45.14741" lon="-0.74223">
        <ele>16.39999961853</ele>
        <time>2015-09-12T12:00:32.000Z</time>
      </trkpt>
      <trkpt lat="45.14739" lon="-0.74219">
        <ele>16.39999961853</ele>
        <time>2015-09-12T12:00:34.000Z</time>
      </trkpt>
      <trkpt lat="45.14727" lon="-0.74208">
        <ele>16.200000762939</ele>
        <time>2015-09-12T12:00:42.000Z</time>
      </trkpt>
      <trkpt lat="45.1472" lon="-0.742">
        <ele>16.200000762939</ele>
        <time>2015-09-12T12:00:47.000Z</time>
      </trkpt>
      <trkpt lat="45.1472" lon="-0.74187">
        <ele>16.200000762939</ele>
        <time>2015-09-12T12:00:53.000Z</time>
      </trkpt>
      <trkpt lat="45.14724" lon="-0.74175">
        <ele>16.200000762939</ele>
        <time>2015-09-12T12:00:58.000Z</time>
      </trkpt>
      <trkpt lat="45.14725" lon="-0.74172">
        <ele>16.200000762939</ele>
        <time>2015-09-12T12:00:59.000Z</time>
      </trkpt>
      <trkpt lat="45.14734" lon="-0.74148">
        <ele>16.200000762939</ele>
        <time>2015-09-12T12:01:09.000Z</time>
      </trkpt>
      <trkpt lat="45.1473" lon="-0.74118">
        <ele>16</ele>
        <time>2015-09-12T12:01:21.000Z</time>
      </trkpt>
      <trkpt lat="45.14726" lon="-0.74105">
        <ele>16</ele>
        <time>2015-09-12T12:01:27.000Z</time>
      </trkpt>
      <trkpt lat="45.14722" lon="-0.74087">
        <ele>16</ele>
        <time>2015-09-12T12:01:34.000Z</time>
      </trkpt>
      <trkpt lat="45.14717" lon="-0.74068">
        <ele>16</ele>
        <time>2015-09-12T12:01:41.000Z</time>
      </trkpt>
      <trkpt lat="45.14711" lon="-0.74047">
        <ele>16</ele>
        <time>2015-09-12T12:01:50.000Z</time>
      </trkpt>
      <trkpt lat="45.14707" lon="-0.74029">
        <ele>16</ele>
        <time>2015-09-12T12:01:57.000Z</time>
      </trkpt>
      <trkpt lat="45.14703" lon="-0.74008">
        <ele>16</ele>
        <time>2015-09-12T12:02:05.000Z</time>
      </trkpt>
      <trkpt lat="45.14699" lon="-0.7399">
        <ele>15.800000190735</ele>
        <time>2015-09-12T12:02:12.000Z</time>
      </trkpt>
      <trkpt lat="45.14692" lon="-0.73953">
        <ele>15.60000038147</ele>
        <time>2015-09-12T12:02:26.000Z</time>
      </trkpt>
      <trkpt lat="45.1469" lon="-0.73938">
        <ele>15.39999961853</ele>
        <time>2015-09-12T12:02:32.000Z</time>
      </trkpt>
      <trkpt lat="45.14688" lon="-0.73921">
        <ele>15.199999809265</ele>
        <time>2015-09-12T12:02:38.000Z</time>
      </trkpt>
      <trkpt lat="45.14686" lon="-0.73905">
        <ele>15</ele>
        <time>2015-09-12T12:02:44.000Z</time>
      </trkpt>
      <trkpt lat="45.14683" lon="-0.73891">
        <ele>15</ele>
        <time>2015-09-12T12:02:49.000Z</time>
      </trkpt>
      <trkpt lat="45.14678" lon="-0.73884">
        <ele>15</ele>
        <time>2015-09-12T12:02:52.000Z</time>
      </trkpt>
      <trkpt lat="45.14661" lon="-0.73881">
        <ele>15</ele>
        <time>2015-09-12T12:03:01.000Z</time>
      </trkpt>
      <trkpt lat="45.1465" lon="-0.73879">
        <ele>15</ele>
        <time>2015-09-12T12:03:07.000Z</time>
      </trkpt>
      <trkpt lat="45.14638" lon="-0.73879">
        <ele>15</ele>
        <time>2015-09-12T12:03:13.000Z</time>
      </trkpt>
      <trkpt lat="45.14624" lon="-0.73876">
        <ele>14.800000190735</ele>
        <time>2015-09-12T12:03:19.000Z</time>
      </trkpt>
      <trkpt lat="45.14614" lon="-0.73874">
        <ele>14.800000190735</ele>
        <time>2015-09-12T12:03:24.000Z</time>
      </trkpt>
      <trkpt lat="45.14601" lon="-0.73873">
        <ele>14.800000190735</ele>
        <time>2015-09-12T12:03:30.000Z</time>
      </trkpt>
      <trkpt lat="45.14586" lon="-0.73871">
        <ele>14.800000190735</ele>
        <time>2015-09-12T12:03:37.000Z</time>
      </trkpt>
      <trkpt lat="45.14572" lon="-0.73869">
        <ele>14.800000190735</ele>
        <time>2015-09-12T12:03:44.000Z</time>
      </trkpt>
      <trkpt lat="45.14544" lon="-0.73869">
        <ele>14.800000190735</ele>
        <time>2015-09-12T12:03:58.000Z</time>
      </trkpt>
      <trkpt lat="45.14532" lon="-0.73868">
        <ele>14.800000190735</ele>
        <time>2015-09-12T12:04:04.000Z</time>
      </trkpt>
      <trkpt lat="45.14517" lon="-0.73864">
        <ele>14.800000190735</ele>
        <time>2015-09-12T12:04:11.000Z</time>
      </trkpt>
      <trkpt lat="45.1451" lon="-0.73863">
        <ele>14.800000190735</ele>
        <time>2015-09-12T12:04:14.000Z</time>
      </trkpt>
      <trkpt lat="45.14505" lon="-0.73848">
        <ele>14.60000038147</ele>
        <time>2015-09-12T12:04:20.000Z</time>
      </trkpt>
      <trkpt lat="45.14505" lon="-0.73836">
        <ele>14.199999809265</ele>
        <time>2015-09-12T12:04:25.000Z</time>
      </trkpt>
      <trkpt lat="45.14502" lon="-0.73821">
        <ele>14</ele>
        <time>2015-09-12T12:04:31.000Z</time>
      </trkpt>
      <trkpt lat="45.14503" lon="-0.73804">
        <ele>13.60000038147</ele>
        <time>2015-09-12T12:04:37.000Z</time>
      </trkpt>
      <trkpt lat="45.14505" lon="-0.73781">
        <ele>13.60000038147</ele>
        <time>2015-09-12T12:04:44.000Z</time>
      </trkpt>
      <trkpt lat="45.14505" lon="-0.73771">
        <ele>13.60000038147</ele>
        <time>2015-09-12T12:04:48.000Z</time>
      </trkpt>
      <trkpt lat="45.14508" lon="-0.73753">
        <ele>13.60000038147</ele>
        <time>2015-09-12T12:04:55.000Z</time>
      </trkpt>
      <trkpt lat="45.14509" lon="-0.73736">
        <ele>13.39999961853</ele>
        <time>2015-09-12T12:05:01.000Z</time>
      </trkpt>
      <trkpt lat="45.1451" lon="-0.73717">
        <ele>13.199999809265</ele>
        <time>2015-09-12T12:05:08.000Z</time>
      </trkpt>
      <trkpt lat="45.14513" lon="-0.73697">
        <ele>13</ele>
        <time>2015-09-12T12:05:15.000Z</time>
      </trkpt>
      <trkpt lat="45.14514" lon="-0.73679">
        <ele>12.800000190735</ele>
        <time>2015-09-12T12:05:21.000Z</time>
      </trkpt>
      <trkpt lat="45.14517" lon="-0.73656">
        <ele>12.39999961853</ele>
        <time>2015-09-12T12:05:29.000Z</time>
      </trkpt>
      <trkpt lat="45.14518" lon="-0.73635">
        <ele>12</ele>
        <time>2015-09-12T12:05:36.000Z</time>
      </trkpt>
      <trkpt lat="45.14517" lon="-0.73615">
        <ele>11.800000190735</ele>
        <time>2015-09-12T12:05:43.000Z</time>
      </trkpt>
      <trkpt lat="45.14513" lon="-0.73603">
        <ele>11.39999961853</ele>
        <time>2015-09-12T12:05:48.000Z</time>
      </trkpt>
      <trkpt lat="45.14496" lon="-0.73587">
        <ele>11</ele>
        <time>2015-09-12T12:05:58.000Z</time>
      </trkpt>
      <trkpt lat="45.14481" lon="-0.73576">
        <ele>11</ele>
        <time>2015-09-12T12:06:06.000Z</time>
      </trkpt>
      <trkpt lat="45.14472" lon="-0.73566">
        <ele>11</ele>
        <time>2015-09-12T12:06:12.000Z</time>
      </trkpt>
      <trkpt lat="45.1447" lon="-0.73556">
        <ele>11</ele>
        <time>2015-09-12T12:06:18.000Z</time>
      </trkpt>
      <trkpt lat="45.1447" lon="-0.73551">
        <ele>11.199999809265</ele>
        <time>2015-09-12T12:06:22.000Z</time>
      </trkpt>
      <trkpt lat="45.1447" lon="-0.73542">
        <ele>11.199999809265</ele>
        <time>2015-09-12T12:06:28.000Z</time>
      </trkpt>
      <trkpt lat="45.14469" lon="-0.7354">
        <ele>11.199999809265</ele>
        <time>2015-09-12T12:06:30.000Z</time>
      </trkpt>
      <trkpt lat="45.14468" lon="-0.73538">
        <ele>11.199999809265</ele>
        <time>2015-09-12T12:06:32.000Z</time>
      </trkpt>
      <trkpt lat="45.14465" lon="-0.73534">
        <ele>11.39999961853</ele>
        <time>2015-09-12T12:06:36.000Z</time>
      </trkpt>
      <trkpt lat="45.14458" lon="-0.73527">
        <ele>11.60000038147</ele>
        <time>2015-09-12T12:06:45.000Z</time>
      </trkpt>
      <trkpt lat="45.14457" lon="-0.73525">
        <ele>11.60000038147</ele>
        <time>2015-09-12T12:06:48.000Z</time>
      </trkpt>
      <trkpt lat="45.14454" lon="-0.73519">
        <ele>11.60000038147</ele>
        <time>2015-09-12T12:06:56.000Z</time>
      </trkpt>
      <trkpt lat="45.14452" lon="-0.73518">
        <ele>11.60000038147</ele>
        <time>2015-09-12T12:07:02.000Z</time>
      </trkpt>
      <trkpt lat="45.14451" lon="-0.73514">
        <ele>11.800000190735</ele>
        <time>2015-09-12T12:07:16.000Z</time>
      </trkpt>
      <trkpt lat="45.14452" lon="-0.73509">
        <ele>11.800000190735</ele>
        <time>2015-09-12T12:09:10.000Z</time>
      </trkpt>
      <trkpt lat="45.14451" lon="-0.73509">
        <ele>11.800000190735</ele>
        <time>2015-09-12T12:09:16.000Z</time>
      </trkpt>
      <trkpt lat="45.14454" lon="-0.73507">
        <ele>12</ele>
        <time>2015-09-12T12:10:43.000Z</time>
      </trkpt>
      <trkpt lat="45.14457" lon="-0.73501">
        <ele>12.199999809265</ele>
        <time>2015-09-12T12:10:50.000Z</time>
      </trkpt>
      <trkpt lat="45.14457" lon="-0.735">
        <ele>12.199999809265</ele>
        <time>2015-09-12T12:10:55.000Z</time>
      </trkpt>
      <trkpt lat="45.14461" lon="-0.73499">
        <ele>12.199999809265</ele>
        <time>2015-09-12T12:11:01.000Z</time>
      </trkpt>
      <trkpt lat="45.14462" lon="-0.73496">
        <ele>12.39999961853</ele>
        <time>2015-09-12T12:11:08.000Z</time>
      </trkpt>
      <trkpt lat="45.14461" lon="-0.73496">
        <ele>12.39999961853</ele>
        <time>2015-09-12T12:12:04.000Z</time>
      </trkpt>
      <trkpt lat="45.14457" lon="-0.73499">
        <ele>12.199999809265</ele>
        <time>2015-09-12T12:12:20.000Z</time>
      </trkpt>
      <trkpt lat="45.14455" lon="-0.73496">
        <ele>12.199999809265</ele>
        <time>2015-09-12T12:12:25.000Z</time>
      </trkpt>
      <trkpt lat="45.14455" lon="-0.73492">
        <ele>12.39999961853</ele>
        <time>2015-09-12T12:12:27.000Z</time>
      </trkpt>
      <trkpt lat="45.14456" lon="-0.73485">
        <ele>12.60000038147</ele>
        <time>2015-09-12T12:12:32.000Z</time>
      </trkpt>
      <trkpt lat="45.14454" lon="-0.73471">
        <ele>12.60000038147</ele>
        <time>2015-09-12T12:12:40.000Z</time>
      </trkpt>
      <trkpt lat="45.14451" lon="-0.7346">
        <ele>12.199999809265</ele>
        <time>2015-09-12T12:12:48.000Z</time>
      </trkpt>
      <trkpt lat="45.14445" lon="-0.73452">
        <ele>11.60000038147</ele>
        <time>2015-09-12T12:12:55.000Z</time>
      </trkpt>
      <trkpt lat="45.14442" lon="-0.73451">
        <ele>11.39999961853</ele>
        <time>2015-09-12T12:12:59.000Z</time>
      </trkpt>
      <trkpt lat="45.14439" lon="-0.73451">
        <ele>11.199999809265</ele>
        <time>2015-09-12T12:13:01.000Z</time>
      </trkpt>
      <trkpt lat="45.14433" lon="-0.7345">
        <ele>10.800000190735</ele>
        <time>2015-09-12T12:13:07.000Z</time>
      </trkpt>
      <trkpt lat="45.14432" lon="-0.73449">
        <ele>10.800000190735</ele>
        <time>2015-09-12T12:13:09.000Z</time>
      </trkpt>
      <trkpt lat="45.14428" lon="-0.73442">
        <ele>10.39999961853</ele>
        <time>2015-09-12T12:13:15.000Z</time>
      </trkpt>
      <trkpt lat="45.14421" lon="-0.73431">
        <ele>9.6000003814697</ele>
        <time>2015-09-12T12:13:24.000Z</time>
      </trkpt>
      <trkpt lat="45.14418" lon="-0.73421">
        <ele>9.3999996185303</ele>
        <time>2015-09-12T12:13:32.000Z</time>
      </trkpt>
      <trkpt lat="45.14417" lon="-0.73409">
        <ele>9.3999996185303</ele>
        <time>2015-09-12T12:13:37.000Z</time>
      </trkpt>
      <trkpt lat="45.14418" lon="-0.73394">
        <ele>9.3999996185303</ele>
        <time>2015-09-12T12:13:43.000Z</time>
      </trkpt>
      <trkpt lat="45.14417" lon="-0.73389">
        <ele>9.3999996185303</ele>
        <time>2015-09-12T12:13:45.000Z</time>
      </trkpt>
      <trkpt lat="45.14422" lon="-0.73374">
        <ele>9.1999998092651</ele>
        <time>2015-09-12T12:13:52.000Z</time>
      </trkpt>
      <trkpt lat="45.14427" lon="-0.73343">
        <ele>8.8000001907349</ele>
        <time>2015-09-12T12:14:05.000Z</time>
      </trkpt>
      <trkpt lat="45.14431" lon="-0.73328">
        <ele>8.6000003814697</ele>
        <time>2015-09-12T12:14:11.000Z</time>
      </trkpt>
      <trkpt lat="45.14436" lon="-0.73315">
        <ele>8.3999996185303</ele>
        <time>2015-09-12T12:14:16.000Z</time>
      </trkpt>
      <trkpt lat="45.14441" lon="-0.73303">
        <ele>8.1999998092651</ele>
        <time>2015-09-12T12:14:22.000Z</time>
      </trkpt>
      <trkpt lat="45.14443" lon="-0.733">
        <ele>8.1999998092651</ele>
        <time>2015-09-12T12:14:23.000Z</time>
      </trkpt>
      <trkpt lat="45.14448" lon="-0.73289">
        <ele>8</ele>
        <time>2015-09-12T12:14:29.000Z</time>
      </trkpt>
      <trkpt lat="45.14451" lon="-0.73281">
        <ele>7.8000001907349</ele>
        <time>2015-09-12T12:14:33.000Z</time>
      </trkpt>
      <trkpt lat="45.14453" lon="-0.7327">
        <ele>7.5999999046326</ele>
        <time>2015-09-12T12:14:38.000Z</time>
      </trkpt>
      <trkpt lat="45.14458" lon="-0.73263">
        <ele>7.4000000953674</ele>
        <time>2015-09-12T12:14:42.000Z</time>
      </trkpt>
      <trkpt lat="45.1446" lon="-0.73261">
        <ele>7.4000000953674</ele>
        <time>2015-09-12T12:14:43.000Z</time>
      </trkpt>
      <trkpt lat="45.14462" lon="-0.73256">
        <ele>7.1999998092651</ele>
        <time>2015-09-12T12:14:46.000Z</time>
      </trkpt>
      <trkpt lat="45.14466" lon="-0.73248">
        <ele>7</ele>
        <time>2015-09-12T12:14:50.000Z</time>
      </trkpt>
      <trkpt lat="45.14473" lon="-0.73236">
        <ele>6.4000000953674</ele>
        <time>2015-09-12T12:14:56.000Z</time>
      </trkpt>
      <trkpt lat="45.1448" lon="-0.73227">
        <ele>6</ele>
        <time>2015-09-12T12:15:02.000Z</time>
      </trkpt>
      <trkpt lat="45.14488" lon="-0.73221">
        <ele>5.5999999046326</ele>
        <time>2015-09-12T12:15:07.000Z</time>
      </trkpt>
      <trkpt lat="45.14496" lon="-0.73216">
        <ele>5.5999999046326</ele>
        <time>2015-09-12T12:15:11.000Z</time>
      </trkpt>
      <trkpt lat="45.14507" lon="-0.73212">
        <ele>5.4000000953674</ele>
        <time>2015-09-12T12:15:18.000Z</time>
      </trkpt>
      <trkpt lat="45.14518" lon="-0.73211">
        <ele>5.4000000953674</ele>
        <time>2015-09-12T12:15:25.000Z</time>
      </trkpt>
      <trkpt lat="45.14531" lon="-0.7321">
        <ele>5.1999998092651</ele>
        <time>2015-09-12T12:15:32.000Z</time>
      </trkpt>
      <trkpt lat="45.14542" lon="-0.7321">
        <ele>5</ele>
        <time>2015-09-12T12:15:39.000Z</time>
      </trkpt>
      <trkpt lat="45.14543" lon="-0.7321">
        <ele>5</ele>
        <time>2015-09-12T12:15:40.000Z</time>
      </trkpt>
      <trkpt lat="45.14551" lon="-0.7321">
        <ele>4.8000001907349</ele>
        <time>2015-09-12T12:15:47.000Z</time>
      </trkpt>
      <trkpt lat="45.14555" lon="-0.73213">
        <ele>4.8000001907349</ele>
        <time>2015-09-12T12:15:50.000Z</time>
      </trkpt>
      <trkpt lat="45.14556" lon="-0.73215">
        <ele>4.8000001907349</ele>
        <time>2015-09-12T12:15:51.000Z</time>
      </trkpt>
      <trkpt lat="45.1456" lon="-0.73228">
        <ele>5.1999998092651</ele>
        <time>2015-09-12T12:15:57.000Z</time>
      </trkpt>
      <trkpt lat="45.14561" lon="-0.73251">
        <ele>6</ele>
        <time>2015-09-12T12:16:06.000Z</time>
      </trkpt>
      <trkpt lat="45.14563" lon="-0.73263">
        <ele>6.5999999046326</ele>
        <time>2015-09-12T12:16:11.000Z</time>
      </trkpt>
      <trkpt lat="45.14563" lon="-0.73279">
        <ele>7</ele>
        <time>2015-09-12T12:16:17.000Z</time>
      </trkpt>
      <trkpt lat="45.14564" lon="-0.73298">
        <ele>7.5999999046326</ele>
        <time>2015-09-12T12:16:24.000Z</time>
      </trkpt>
      <trkpt lat="45.14564" lon="-0.73312">
        <ele>8</ele>
        <time>2015-09-12T12:16:29.000Z</time>
      </trkpt>
      <trkpt lat="45.14566" lon="-0.73326">
        <ele>8.6000003814697</ele>
        <time>2015-09-12T12:16:35.000Z</time>
      </trkpt>
      <trkpt lat="45.14566" lon="-0.73339">
        <ele>9</ele>
        <time>2015-09-12T12:16:40.000Z</time>
      </trkpt>
      <trkpt lat="45.14567" lon="-0.73353">
        <ele>9.6000003814697</ele>
        <time>2015-09-12T12:16:45.000Z</time>
      </trkpt>
      <trkpt lat="45.1457" lon="-0.73406">
        <ele>11.199999809265</ele>
        <time>2015-09-12T12:17:06.000Z</time>
      </trkpt>
      <trkpt lat="45.14572" lon="-0.73421">
        <ele>11.39999961853</ele>
        <time>2015-09-12T12:17:12.000Z</time>
      </trkpt>
      <trkpt lat="45.14572" lon="-0.73432">
        <ele>11.60000038147</ele>
        <time>2015-09-12T12:17:16.000Z</time>
      </trkpt>
      <trkpt lat="45.14574" lon="-0.7345">
        <ele>11.800000190735</ele>
        <time>2015-09-12T12:17:23.000Z</time>
      </trkpt>
      <trkpt lat="45.14575" lon="-0.73457">
        <ele>12</ele>
        <time>2015-09-12T12:17:26.000Z</time>
      </trkpt>
      <trkpt lat="45.14575" lon="-0.7347">
        <ele>12.39999961853</ele>
        <time>2015-09-12T12:17:31.000Z</time>
      </trkpt>
      <trkpt lat="45.14577" lon="-0.73487">
        <ele>12.39999961853</ele>
        <time>2015-09-12T12:17:38.000Z</time>
      </trkpt>
      <trkpt lat="45.1458" lon="-0.73505">
        <ele>12.39999961853</ele>
        <time>2015-09-12T12:17:45.000Z</time>
      </trkpt>
      <trkpt lat="45.14581" lon="-0.73507">
        <ele>12.39999961853</ele>
        <time>2015-09-12T12:17:46.000Z</time>
      </trkpt>
      <trkpt lat="45.14591" lon="-0.73512">
        <ele>12.60000038147</ele>
        <time>2015-09-12T12:17:54.000Z</time>
      </trkpt>
      <trkpt lat="45.14605" lon="-0.73507">
        <ele>12.800000190735</ele>
        <time>2015-09-12T12:18:01.000Z</time>
      </trkpt>
      <trkpt lat="45.14631" lon="-0.73498">
        <ele>13.39999961853</ele>
        <time>2015-09-12T12:18:15.000Z</time>
      </trkpt>
      <trkpt lat="45.14643" lon="-0.73495">
        <ele>13.199999809265</ele>
        <time>2015-09-12T12:18:22.000Z</time>
      </trkpt>
      <trkpt lat="45.14655" lon="-0.73491">
        <ele>13.199999809265</ele>
        <time>2015-09-12T12:18:29.000Z</time>
      </trkpt>
      <trkpt lat="45.14671" lon="-0.73488">
        <ele>13.199999809265</ele>
        <time>2015-09-12T12:18:37.000Z</time>
      </trkpt>
      <trkpt lat="45.14683" lon="-0.73487">
        <ele>13.199999809265</ele>
        <time>2015-09-12T12:18:43.000Z</time>
      </trkpt>
      <trkpt lat="45.14692" lon="-0.73487">
        <ele>13.199999809265</ele>
        <time>2015-09-12T12:18:48.000Z</time>
      </trkpt>
      <trkpt lat="45.14715" lon="-0.73487">
        <ele>13.199999809265</ele>
        <time>2015-09-12T12:19:00.000Z</time>
      </trkpt>
      <trkpt lat="45.14732" lon="-0.73486">
        <ele>13.39999961853</ele>
        <time>2015-09-12T12:19:08.000Z</time>
      </trkpt>
      <trkpt lat="45.14741" lon="-0.73486">
        <ele>13.60000038147</ele>
        <time>2015-09-12T12:19:13.000Z</time>
      </trkpt>
      <trkpt lat="45.14748" lon="-0.73484">
        <ele>13.60000038147</ele>
        <time>2015-09-12T12:19:17.000Z</time>
      </trkpt>
      <trkpt lat="45.1476" lon="-0.73482">
        <ele>13.800000190735</ele>
        <time>2015-09-12T12:19:23.000Z</time>
      </trkpt>
      <trkpt lat="45.1477" lon="-0.73482">
        <ele>13.800000190735</ele>
        <time>2015-09-12T12:19:28.000Z</time>
      </trkpt>
      <trkpt lat="45.14783" lon="-0.7348">
        <ele>14</ele>
        <time>2015-09-12T12:19:35.000Z</time>
      </trkpt>
      <trkpt lat="45.14797" lon="-0.7348">
        <ele>14</ele>
        <time>2015-09-12T12:19:42.000Z</time>
      </trkpt>
      <trkpt lat="45.1481" lon="-0.7348">
        <ele>13.800000190735</ele>
        <time>2015-09-12T12:19:49.000Z</time>
      </trkpt>
      <trkpt lat="45.14835" lon="-0.73479">
        <ele>13.199999809265</ele>
        <time>2015-09-12T12:20:02.000Z</time>
      </trkpt>
      <trkpt lat="45.1485" lon="-0.73479">
        <ele>12.800000190735</ele>
        <time>2015-09-12T12:20:10.000Z</time>
      </trkpt>
      <trkpt lat="45.14862" lon="-0.73479">
        <ele>12.39999961853</ele>
        <time>2015-09-12T12:20:17.000Z</time>
      </trkpt>
      <trkpt lat="45.14875" lon="-0.73478">
        <ele>12.199999809265</ele>
        <time>2015-09-12T12:20:24.000Z</time>
      </trkpt>
      <trkpt lat="45.14889" lon="-0.73479">
        <ele>12.39999961853</ele>
        <time>2015-09-12T12:20:31.000Z</time>
      </trkpt>
      <trkpt lat="45.14898" lon="-0.73478">
        <ele>12.60000038147</ele>
        <time>2015-09-12T12:20:36.000Z</time>
      </trkpt>
      <trkpt lat="45.14907" lon="-0.73478">
        <ele>12.60000038147</ele>
        <time>2015-09-12T12:20:41.000Z</time>
      </trkpt>
      <trkpt lat="45.14922" lon="-0.73478">
        <ele>12.800000190735</ele>
        <time>2015-09-12T12:20:49.000Z</time>
      </trkpt>
      <trkpt lat="45.14945" lon="-0.73474">
        <ele>13</ele>
        <time>2015-09-12T12:21:00.000Z</time>
      </trkpt>
      <trkpt lat="45.14961" lon="-0.73473">
        <ele>13</ele>
        <time>2015-09-12T12:21:08.000Z</time>
      </trkpt>
      <trkpt lat="45.14974" lon="-0.7347">
        <ele>13.199999809265</ele>
        <time>2015-09-12T12:21:15.000Z</time>
      </trkpt>
      <trkpt lat="45.14987" lon="-0.73468">
        <ele>13.39999961853</ele>
        <time>2015-09-12T12:21:22.000Z</time>
      </trkpt>
      <trkpt lat="45.15001" lon="-0.73465">
        <ele>13.39999961853</ele>
        <time>2015-09-12T12:21:30.000Z</time>
      </trkpt>
      <trkpt lat="45.1501" lon="-0.73463">
        <ele>13.60000038147</ele>
        <time>2015-09-12T12:21:36.000Z</time>
      </trkpt>
      <trkpt lat="45.1502" lon="-0.73461">
        <ele>13.800000190735</ele>
        <time>2015-09-12T12:21:45.000Z</time>
      </trkpt>
      <trkpt lat="45.15028" lon="-0.73459">
        <ele>13.800000190735</ele>
        <time>2015-09-12T12:21:52.000Z</time>
      </trkpt>
      <trkpt lat="45.15039" lon="-0.73456">
        <ele>14</ele>
        <time>2015-09-12T12:22:01.000Z</time>
      </trkpt>
      <trkpt lat="45.15049" lon="-0.73454">
        <ele>13.800000190735</ele>
        <time>2015-09-12T12:22:09.000Z</time>
      </trkpt>
      <trkpt lat="45.15058" lon="-0.73454">
        <ele>13.60000038147</ele>
        <time>2015-09-12T12:22:16.000Z</time>
      </trkpt>
      <trkpt lat="45.15071" lon="-0.73451">
        <ele>13.39999961853</ele>
        <time>2015-09-12T12:22:25.000Z</time>
      </trkpt>
      <trkpt lat="45.1508" lon="-0.73449">
        <ele>13.39999961853</ele>
        <time>2015-09-12T12:22:33.000Z</time>
      </trkpt>
      <trkpt lat="45.15091" lon="-0.73452">
        <ele>13.199999809265</ele>
        <time>2015-09-12T12:22:42.000Z</time>
      </trkpt>
      <trkpt lat="45.15095" lon="-0.73461">
        <ele>13.199999809265</ele>
        <time>2015-09-12T12:22:49.000Z</time>
      </trkpt>
      <trkpt lat="45.15095" lon="-0.7347">
        <ele>13.39999961853</ele>
        <time>2015-09-12T12:22:57.000Z</time>
      </trkpt>
      <trkpt lat="45.15094" lon="-0.73474">
        <ele>13.39999961853</ele>
        <time>2015-09-12T12:23:18.000Z</time>
      </trkpt>
      <trkpt lat="45.15094" lon="-0.73481">
        <ele>13.199999809265</ele>
        <time>2015-09-12T12:23:26.000Z</time>
      </trkpt>
      <trkpt lat="45.15093" lon="-0.7349">
        <ele>13.199999809265</ele>
        <time>2015-09-12T12:23:31.000Z</time>
      </trkpt>
      <trkpt lat="45.15092" lon="-0.73496">
        <ele>13.199999809265</ele>
        <time>2015-09-12T12:23:35.000Z</time>
      </trkpt>
      <trkpt lat="45.15093" lon="-0.735">
        <ele>13</ele>
        <time>2015-09-12T12:23:42.000Z</time>
      </trkpt>
      <trkpt lat="45.15092" lon="-0.73502">
        <ele>13</ele>
        <time>2015-09-12T12:23:44.000Z</time>
      </trkpt>
      <trkpt lat="45.1509" lon="-0.73514">
        <ele>13</ele>
        <time>2015-09-12T12:23:53.000Z</time>
      </trkpt>
      <trkpt lat="45.15089" lon="-0.73524">
        <ele>13.199999809265</ele>
        <time>2015-09-12T12:24:01.000Z</time>
      </trkpt>
      <trkpt lat="45.15089" lon="-0.7353">
        <ele>13.199999809265</ele>
        <time>2015-09-12T12:24:07.000Z</time>
      </trkpt>
      <trkpt lat="45.15088" lon="-0.73542">
        <ele>13.39999961853</ele>
        <time>2015-09-12T12:24:15.000Z</time>
      </trkpt>
      <trkpt lat="45.15087" lon="-0.73555">
        <ele>13.60000038147</ele>
        <time>2015-09-12T12:24:24.000Z</time>
      </trkpt>
      <trkpt lat="45.15087" lon="-0.73566">
        <ele>13.60000038147</ele>
        <time>2015-09-12T12:24:32.000Z</time>
      </trkpt>
      <trkpt lat="45.15087" lon="-0.7357">
        <ele>13.60000038147</ele>
        <time>2015-09-12T12:24:38.000Z</time>
      </trkpt>
      <trkpt lat="45.15085" lon="-0.73582">
        <ele>13.39999961853</ele>
        <time>2015-09-12T12:24:47.000Z</time>
      </trkpt>
      <trkpt lat="45.15083" lon="-0.73592">
        <ele>13.39999961853</ele>
        <time>2015-09-12T12:24:55.000Z</time>
      </trkpt>
      <trkpt lat="45.15082" lon="-0.73602">
        <ele>13.39999961853</ele>
        <time>2015-09-12T12:25:02.000Z</time>
      </trkpt>
      <trkpt lat="45.1508" lon="-0.73616">
        <ele>13.60000038147</ele>
        <time>2015-09-12T12:25:12.000Z</time>
      </trkpt>
      <trkpt lat="45.15079" lon="-0.73624">
        <ele>13.60000038147</ele>
        <time>2015-09-12T12:25:18.000Z</time>
      </trkpt>
      <trkpt lat="45.15078" lon="-0.7363">
        <ele>13.800000190735</ele>
        <time>2015-09-12T12:25:22.000Z</time>
      </trkpt>
      <trkpt lat="45.15077" lon="-0.73638">
        <ele>13.800000190735</ele>
        <time>2015-09-12T12:25:27.000Z</time>
      </trkpt>
      <trkpt lat="45.15074" lon="-0.73654">
        <ele>14</ele>
        <time>2015-09-12T12:25:37.000Z</time>
      </trkpt>
      <trkpt lat="45.15071" lon="-0.73662">
        <ele>14.199999809265</ele>
        <time>2015-09-12T12:25:43.000Z</time>
      </trkpt>
      <trkpt lat="45.15069" lon="-0.73672">
        <ele>14.39999961853</ele>
        <time>2015-09-12T12:25:50.000Z</time>
      </trkpt>
      <trkpt lat="45.15065" lon="-0.7369">
        <ele>14.800000190735</ele>
        <time>2015-09-12T12:26:01.000Z</time>
      </trkpt>
      <trkpt lat="45.15063" lon="-0.73703">
        <ele>15</ele>
        <time>2015-09-12T12:26:10.000Z</time>
      </trkpt>
      <trkpt lat="45.15061" lon="-0.73711">
        <ele>15</ele>
        <time>2015-09-12T12:26:16.000Z</time>
      </trkpt>
      <trkpt lat="45.15059" lon="-0.73727">
        <ele>15</ele>
        <time>2015-09-12T12:26:26.000Z</time>
      </trkpt>
      <trkpt lat="45.15057" lon="-0.73743">
        <ele>15</ele>
        <time>2015-09-12T12:26:36.000Z</time>
      </trkpt>
      <trkpt lat="45.15054" lon="-0.73759">
        <ele>15</ele>
        <time>2015-09-12T12:26:47.000Z</time>
      </trkpt>
      <trkpt lat="45.15052" lon="-0.73773">
        <ele>15</ele>
        <time>2015-09-12T12:26:56.000Z</time>
      </trkpt>
      <trkpt lat="45.1505" lon="-0.73782">
        <ele>15</ele>
        <time>2015-09-12T12:27:05.000Z</time>
      </trkpt>
      <trkpt lat="45.15049" lon="-0.73792">
        <ele>15</ele>
        <time>2015-09-12T12:27:12.000Z</time>
      </trkpt>
      <trkpt lat="45.15047" lon="-0.73804">
        <ele>15</ele>
        <time>2015-09-12T12:27:20.000Z</time>
      </trkpt>
      <trkpt lat="45.15043" lon="-0.73819">
        <ele>15</ele>
        <time>2015-09-12T12:27:30.000Z</time>
      </trkpt>
      <trkpt lat="45.15038" lon="-0.73836">
        <ele>15</ele>
        <time>2015-09-12T12:27:41.000Z</time>
      </trkpt>
      <trkpt lat="45.15035" lon="-0.73851">
        <ele>15.199999809265</ele>
        <time>2015-09-12T12:27:50.000Z</time>
      </trkpt>
      <trkpt lat="45.15032" lon="-0.73864">
        <ele>15.199999809265</ele>
        <time>2015-09-12T12:27:59.000Z</time>
      </trkpt>
      <trkpt lat="45.15032" lon="-0.73868">
        <ele>15.199999809265</ele>
        <time>2015-09-12T12:28:06.000Z</time>
      </trkpt>
      <trkpt lat="45.1503" lon="-0.73872">
        <ele>15.199999809265</ele>
        <time>2015-09-12T12:28:15.000Z</time>
      </trkpt>
      <trkpt lat="45.15025" lon="-0.73887">
        <ele>15.199999809265</ele>
        <time>2015-09-12T12:28:25.000Z</time>
      </trkpt>
      <trkpt lat="45.15021" lon="-0.739">
        <ele>15.199999809265</ele>
        <time>2015-09-12T12:28:33.000Z</time>
      </trkpt>
      <trkpt lat="45.15017" lon="-0.73915">
        <ele>15</ele>
        <time>2015-09-12T12:28:43.000Z</time>
      </trkpt>
      <trkpt lat="45.15014" lon="-0.73927">
        <ele>15.199999809265</ele>
        <time>2015-09-12T12:28:51.000Z</time>
      </trkpt>
      <trkpt lat="45.15006" lon="-0.73961">
        <ele>15.800000190735</ele>
        <time>2015-09-12T12:29:13.000Z</time>
      </trkpt>
      <trkpt lat="45.15002" lon="-0.73977">
        <ele>16</ele>
        <time>2015-09-12T12:29:23.000Z</time>
      </trkpt>
      <trkpt lat="45.15" lon="-0.73986">
        <ele>16.200000762939</ele>
        <time>2015-09-12T12:29:29.000Z</time>
      </trkpt>
      <trkpt lat="45.14997" lon="-0.73997">
        <ele>16.200000762939</ele>
        <time>2015-09-12T12:29:37.000Z</time>
      </trkpt>
      <trkpt lat="45.14994" lon="-0.7401">
        <ele>16.200000762939</ele>
        <time>2015-09-12T12:29:47.000Z</time>
      </trkpt>
      <trkpt lat="45.14991" lon="-0.74026">
        <ele>16.39999961853</ele>
        <time>2015-09-12T12:29:58.000Z</time>
      </trkpt>
      <trkpt lat="45.14989" lon="-0.74042">
        <ele>16.200000762939</ele>
        <time>2015-09-12T12:30:08.000Z</time>
      </trkpt>
      <trkpt lat="45.14989" lon="-0.74055">
        <ele>16</ele>
        <time>2015-09-12T12:30:17.000Z</time>
      </trkpt>
      <trkpt lat="45.1499" lon="-0.74066">
        <ele>16.200000762939</ele>
        <time>2015-09-12T12:30:23.000Z</time>
      </trkpt>
      <trkpt lat="45.14993" lon="-0.74077">
        <ele>16.200000762939</ele>
        <time>2015-09-12T12:30:30.000Z</time>
      </trkpt>
      <trkpt lat="45.14999" lon="-0.74078">
        <ele>16.200000762939</ele>
        <time>2015-09-12T12:30:35.000Z</time>
      </trkpt>
      <trkpt lat="45.15008" lon="-0.74073">
        <ele>16.200000762939</ele>
        <time>2015-09-12T12:30:43.000Z</time>
      </trkpt>
      <trkpt lat="45.15009" lon="-0.74073">
        <ele>16.200000762939</ele>
        <time>2015-09-12T12:30:44.000Z</time>
      </trkpt>
      <trkpt lat="45.15012" lon="-0.74072">
        <ele>16.200000762939</ele>
        <time>2015-09-12T12:30:47.000Z</time>
      </trkpt>
      <trkpt lat="45.15022" lon="-0.74066">
        <ele>16.200000762939</ele>
        <time>2015-09-12T12:30:55.000Z</time>
      </trkpt>
      <trkpt lat="45.15032" lon="-0.74061">
        <ele>16</ele>
        <time>2015-09-12T12:31:01.000Z</time>
      </trkpt>
      <trkpt lat="45.15043" lon="-0.74056">
        <ele>16</ele>
        <time>2015-09-12T12:31:07.000Z</time>
      </trkpt>
      <trkpt lat="45.15053" lon="-0.74051">
        <ele>16</ele>
        <time>2015-09-12T12:31:13.000Z</time>
      </trkpt>
      <trkpt lat="45.15063" lon="-0.74045">
        <ele>16.200000762939</ele>
        <time>2015-09-12T12:31:19.000Z</time>
      </trkpt>
      <trkpt lat="45.15075" lon="-0.74039">
        <ele>16.39999961853</ele>
        <time>2015-09-12T12:31:26.000Z</time>
      </trkpt>
      <trkpt lat="45.15086" lon="-0.74034">
        <ele>16.60000038147</ele>
        <time>2015-09-12T12:31:33.000Z</time>
      </trkpt>
      <trkpt lat="45.15096" lon="-0.74029">
        <ele>16.60000038147</ele>
        <time>2015-09-12T12:31:39.000Z</time>
      </trkpt>
      <trkpt lat="45.15106" lon="-0.74025">
        <ele>16.799999237061</ele>
        <time>2015-09-12T12:31:45.000Z</time>
      </trkpt>
      <trkpt lat="45.15117" lon="-0.74019">
        <ele>16.799999237061</ele>
        <time>2015-09-12T12:31:51.000Z</time>
      </trkpt>
      <trkpt lat="45.15125" lon="-0.74014">
        <ele>17</ele>
        <time>2015-09-12T12:31:56.000Z</time>
      </trkpt>
      <trkpt lat="45.15136" lon="-0.74009">
        <ele>16.799999237061</ele>
        <time>2015-09-12T12:32:02.000Z</time>
      </trkpt>
      <trkpt lat="45.15144" lon="-0.74004">
        <ele>16.60000038147</ele>
        <time>2015-09-12T12:32:08.000Z</time>
      </trkpt>
      <trkpt lat="45.15152" lon="-0.74">
        <ele>16.39999961853</ele>
        <time>2015-09-12T12:32:13.000Z</time>
      </trkpt>
      <trkpt lat="45.15162" lon="-0.73994">
        <ele>16.200000762939</ele>
        <time>2015-09-12T12:32:19.000Z</time>
      </trkpt>
      <trkpt lat="45.15172" lon="-0.73988">
        <ele>16</ele>
        <time>2015-09-12T12:32:25.000Z</time>
      </trkpt>
      <trkpt lat="45.15183" lon="-0.73982">
        <ele>15.60000038147</ele>
        <time>2015-09-12T12:32:31.000Z</time>
      </trkpt>
      <trkpt lat="45.15194" lon="-0.73977">
        <ele>15.39999961853</ele>
        <time>2015-09-12T12:32:36.000Z</time>
      </trkpt>
      <trkpt lat="45.15205" lon="-0.73972">
        <ele>15.199999809265</ele>
        <time>2015-09-12T12:32:42.000Z</time>
      </trkpt>
      <trkpt lat="45.15214" lon="-0.73968">
        <ele>15</ele>
        <time>2015-09-12T12:32:47.000Z</time>
      </trkpt>
      <trkpt lat="45.15223" lon="-0.73964">
        <ele>14.800000190735</ele>
        <time>2015-09-12T12:32:52.000Z</time>
      </trkpt>
      <trkpt lat="45.15234" lon="-0.7396">
        <ele>14.800000190735</ele>
        <time>2015-09-12T12:32:58.000Z</time>
      </trkpt>
      <trkpt lat="45.15248" lon="-0.73956">
        <ele>14.60000038147</ele>
        <time>2015-09-12T12:33:06.000Z</time>
      </trkpt>
      <trkpt lat="45.1526" lon="-0.73953">
        <ele>14.60000038147</ele>
        <time>2015-09-12T12:33:12.000Z</time>
      </trkpt>
      <trkpt lat="45.15272" lon="-0.73951">
        <ele>14.60000038147</ele>
        <time>2015-09-12T12:33:19.000Z</time>
      </trkpt>
      <trkpt lat="45.15283" lon="-0.73949">
        <ele>14.39999961853</ele>
        <time>2015-09-12T12:33:25.000Z</time>
      </trkpt>
      <trkpt lat="45.15294" lon="-0.73948">
        <ele>14.39999961853</ele>
        <time>2015-09-12T12:33:31.000Z</time>
      </trkpt>
      <trkpt lat="45.15305" lon="-0.73947">
        <ele>14.199999809265</ele>
        <time>2015-09-12T12:33:37.000Z</time>
      </trkpt>
      <trkpt lat="45.15316" lon="-0.73946">
        <ele>13.800000190735</ele>
        <time>2015-09-12T12:33:43.000Z</time>
      </trkpt>
      <trkpt lat="45.15327" lon="-0.73945">
        <ele>14</ele>
        <time>2015-09-12T12:33:49.000Z</time>
      </trkpt>
      <trkpt lat="45.15338" lon="-0.73944">
        <ele>14.199999809265</ele>
        <time>2015-09-12T12:33:55.000Z</time>
      </trkpt>
      <trkpt lat="45.1535" lon="-0.73943">
        <ele>14.39999961853</ele>
        <time>2015-09-12T12:34:01.000Z</time>
      </trkpt>
      <trkpt lat="45.15363" lon="-0.73941">
        <ele>14.60000038147</ele>
        <time>2015-09-12T12:34:08.000Z</time>
      </trkpt>
      <trkpt lat="45.15376" lon="-0.73939">
        <ele>14.60000038147</ele>
        <time>2015-09-12T12:34:15.000Z</time>
      </trkpt>
      <trkpt lat="45.15387" lon="-0.73937">
        <ele>14.39999961853</ele>
        <time>2015-09-12T12:34:21.000Z</time>
      </trkpt>
      <trkpt lat="45.15405" lon="-0.73933">
        <ele>14</ele>
        <time>2015-09-12T12:34:30.000Z</time>
      </trkpt>
      <trkpt lat="45.15421" lon="-0.73932">
        <ele>13.60000038147</ele>
        <time>2015-09-12T12:34:38.000Z</time>
      </trkpt>
      <trkpt lat="45.15433" lon="-0.7393">
        <ele>13.199999809265</ele>
        <time>2015-09-12T12:34:44.000Z</time>
      </trkpt>
      <trkpt lat="45.15443" lon="-0.73929">
        <ele>13</ele>
        <time>2015-09-12T12:34:49.000Z</time>
      </trkpt>
      <trkpt lat="45.15457" lon="-0.73929">
        <ele>12.60000038147</ele>
        <time>2015-09-12T12:34:56.000Z</time>
      </trkpt>
      <trkpt lat="45.15469" lon="-0.73925">
        <ele>12</ele>
        <time>2015-09-12T12:35:02.000Z</time>
      </trkpt>
      <trkpt lat="45.15481" lon="-0.73923">
        <ele>11.39999961853</ele>
        <time>2015-09-12T12:35:08.000Z</time>
      </trkpt>
      <trkpt lat="45.15491" lon="-0.73923">
        <ele>11</ele>
        <time>2015-09-12T12:35:13.000Z</time>
      </trkpt>
      <trkpt lat="45.15503" lon="-0.73921">
        <ele>10.60000038147</ele>
        <time>2015-09-12T12:35:19.000Z</time>
      </trkpt>
      <trkpt lat="45.15515" lon="-0.73921">
        <ele>10</ele>
        <time>2015-09-12T12:35:25.000Z</time>
      </trkpt>
      <trkpt lat="45.15527" lon="-0.7392">
        <ele>9.6000003814697</ele>
        <time>2015-09-12T12:35:31.000Z</time>
      </trkpt>
      <trkpt lat="45.15538" lon="-0.73918">
        <ele>9.1999998092651</ele>
        <time>2015-09-12T12:35:37.000Z</time>
      </trkpt>
      <trkpt lat="45.1555" lon="-0.73917">
        <ele>9</ele>
        <time>2015-09-12T12:35:43.000Z</time>
      </trkpt>
      <trkpt lat="45.15564" lon="-0.73915">
        <ele>9.6000003814697</ele>
        <time>2015-09-12T12:35:50.000Z</time>
      </trkpt>
      <trkpt lat="45.15578" lon="-0.73912">
        <ele>10.199999809265</ele>
        <time>2015-09-12T12:35:57.000Z</time>
      </trkpt>
      <trkpt lat="45.15588" lon="-0.7391">
        <ele>10.39999961853</ele>
        <time>2015-09-12T12:36:02.000Z</time>
      </trkpt>
      <trkpt lat="45.15604" lon="-0.73909">
        <ele>11.199999809265</ele>
        <time>2015-09-12T12:36:10.000Z</time>
      </trkpt>
      <trkpt lat="45.15613" lon="-0.73907">
        <ele>11.199999809265</ele>
        <time>2015-09-12T12:36:15.000Z</time>
      </trkpt>
      <trkpt lat="45.15622" lon="-0.73905">
        <ele>11</ele>
        <time>2015-09-12T12:36:20.000Z</time>
      </trkpt>
      <trkpt lat="45.15624" lon="-0.73904">
        <ele>10.800000190735</ele>
        <time>2015-09-12T12:36:22.000Z</time>
      </trkpt>
      <trkpt lat="45.15632" lon="-0.73902">
        <ele>10.800000190735</ele>
        <time>2015-09-12T12:36:27.000Z</time>
      </trkpt>
      <trkpt lat="45.15638" lon="-0.73901">
        <ele>10.800000190735</ele>
        <time>2015-09-12T12:36:31.000Z</time>
      </trkpt>
      <trkpt lat="45.1564" lon="-0.73901">
        <ele>10.60000038147</ele>
        <time>2015-09-12T12:36:32.000Z</time>
      </trkpt>
      <trkpt lat="45.15647" lon="-0.73899">
        <ele>10.60000038147</ele>
        <time>2015-09-12T12:36:36.000Z</time>
      </trkpt>
      <trkpt lat="45.15652" lon="-0.73898">
        <ele>10.60000038147</ele>
        <time>2015-09-12T12:36:39.000Z</time>
      </trkpt>
      <trkpt lat="45.15668" lon="-0.73901">
        <ele>10.39999961853</ele>
        <time>2015-09-12T12:36:47.000Z</time>
      </trkpt>
      <trkpt lat="45.15677" lon="-0.73901">
        <ele>10.199999809265</ele>
        <time>2015-09-12T12:36:54.000Z</time>
      </trkpt>
      <trkpt lat="45.15688" lon="-0.73901">
        <ele>10.199999809265</ele>
        <time>2015-09-12T12:37:03.000Z</time>
      </trkpt>
      <trkpt lat="45.15695" lon="-0.73901">
        <ele>10</ele>
        <time>2015-09-12T12:37:09.000Z</time>
      </trkpt>
      <trkpt lat="45.15705" lon="-0.73902">
        <ele>10.39999961853</ele>
        <time>2015-09-12T12:37:17.000Z</time>
      </trkpt>
      <trkpt lat="45.15711" lon="-0.73903">
        <ele>10.60000038147</ele>
        <time>2015-09-12T12:37:23.000Z</time>
      </trkpt>
      <trkpt lat="45.15719" lon="-0.73904">
        <ele>10.800000190735</ele>
        <time>2015-09-12T12:37:31.000Z</time>
      </trkpt>
      <trkpt lat="45.15727" lon="-0.73906">
        <ele>10.800000190735</ele>
        <time>2015-09-12T12:37:39.000Z</time>
      </trkpt>
      <trkpt lat="45.15736" lon="-0.73908">
        <ele>11</ele>
        <time>2015-09-12T12:37:48.000Z</time>
      </trkpt>
      <trkpt lat="45.15741" lon="-0.73909">
        <ele>11.199999809265</ele>
        <time>2015-09-12T12:37:53.000Z</time>
      </trkpt>
      <trkpt lat="45.15753" lon="-0.73911">
        <ele>11.39999961853</ele>
        <time>2015-09-12T12:38:05.000Z</time>
      </trkpt>
      <trkpt lat="45.15763" lon="-0.73913">
        <ele>11.60000038147</ele>
        <time>2015-09-12T12:38:14.000Z</time>
      </trkpt>
      <trkpt lat="45.15773" lon="-0.73915">
        <ele>11.60000038147</ele>
        <time>2015-09-12T12:38:23.000Z</time>
      </trkpt>
      <trkpt lat="45.15783" lon="-0.73917">
        <ele>11.800000190735</ele>
        <time>2015-09-12T12:38:32.000Z</time>
      </trkpt>
      <trkpt lat="45.15791" lon="-0.73918">
        <ele>11.800000190735</ele>
        <time>2015-09-12T12:38:39.000Z</time>
      </trkpt>
      <trkpt lat="45.15799" lon="-0.7392">
        <ele>12</ele>
        <time>2015-09-12T12:38:47.000Z</time>
      </trkpt>
      <trkpt lat="45.15804" lon="-0.73921">
        <ele>12.199999809265</ele>
        <time>2015-09-12T12:38:52.000Z</time>
      </trkpt>
      <trkpt lat="45.15814" lon="-0.73923">
        <ele>12.60000038147</ele>
        <time>2015-09-12T12:39:00.000Z</time>
      </trkpt>
      <trkpt lat="45.15825" lon="-0.73925">
        <ele>13</ele>
        <time>2015-09-12T12:39:10.000Z</time>
      </trkpt>
      <trkpt lat="45.15833" lon="-0.73927">
        <ele>13.39999961853</ele>
        <time>2015-09-12T12:39:17.000Z</time>
      </trkpt>
      <trkpt lat="45.15844" lon="-0.73929">
        <ele>13.60000038147</ele>
        <time>2015-09-12T12:39:27.000Z</time>
      </trkpt>
      <trkpt lat="45.15855" lon="-0.73932">
        <ele>13.800000190735</ele>
        <time>2015-09-12T12:39:37.000Z</time>
      </trkpt>
      <trkpt lat="45.15865" lon="-0.73934">
        <ele>13.800000190735</ele>
        <time>2015-09-12T12:39:46.000Z</time>
      </trkpt>
      <trkpt lat="45.15876" lon="-0.73936">
        <ele>14</ele>
        <time>2015-09-12T12:39:55.000Z</time>
      </trkpt>
      <trkpt lat="45.15886" lon="-0.73938">
        <ele>14.199999809265</ele>
        <time>2015-09-12T12:40:03.000Z</time>
      </trkpt>
      <trkpt lat="45.15896" lon="-0.7394">
        <ele>14.39999961853</ele>
        <time>2015-09-12T12:40:12.000Z</time>
      </trkpt>
      <trkpt lat="45.15906" lon="-0.73943">
        <ele>14.60000038147</ele>
        <time>2015-09-12T12:40:21.000Z</time>
      </trkpt>
      <trkpt lat="45.15919" lon="-0.73945">
        <ele>15</ele>
        <time>2015-09-12T12:40:31.000Z</time>
      </trkpt>
      <trkpt lat="45.15927" lon="-0.73946">
        <ele>15.199999809265</ele>
        <time>2015-09-12T12:40:39.000Z</time>
      </trkpt>
      <trkpt lat="45.15936" lon="-0.73947">
        <ele>15.39999961853</ele>
        <time>2015-09-12T12:40:47.000Z</time>
      </trkpt>
      <trkpt lat="45.15946" lon="-0.73948">
        <ele>15.60000038147</ele>
        <time>2015-09-12T12:40:56.000Z</time>
      </trkpt>
      <trkpt lat="45.15957" lon="-0.73948">
        <ele>16</ele>
        <time>2015-09-12T12:41:06.000Z</time>
      </trkpt>
      <trkpt lat="45.15968" lon="-0.73947">
        <ele>16</ele>
        <time>2015-09-12T12:41:15.000Z</time>
      </trkpt>
      <trkpt lat="45.15974" lon="-0.73947">
        <ele>16</ele>
        <time>2015-09-12T12:41:20.000Z</time>
      </trkpt>
      <trkpt lat="45.15984" lon="-0.73947">
        <ele>16</ele>
        <time>2015-09-12T12:41:28.000Z</time>
      </trkpt>
      <trkpt lat="45.15996" lon="-0.73947">
        <ele>15.800000190735</ele>
        <time>2015-09-12T12:41:38.000Z</time>
      </trkpt>
      <trkpt lat="45.16005" lon="-0.73947">
        <ele>15.800000190735</ele>
        <time>2015-09-12T12:41:46.000Z</time>
      </trkpt>
      <trkpt lat="45.16018" lon="-0.73947">
        <ele>15.60000038147</ele>
        <time>2015-09-12T12:41:56.000Z</time>
      </trkpt>
      <trkpt lat="45.16037" lon="-0.73946">
        <ele>15.39999961853</ele>
        <time>2015-09-12T12:42:12.000Z</time>
      </trkpt>
      <trkpt lat="45.1605" lon="-0.73946">
        <ele>15.199999809265</ele>
        <time>2015-09-12T12:42:22.000Z</time>
      </trkpt>
      <trkpt lat="45.1606" lon="-0.73947">
        <ele>15</ele>
        <time>2015-09-12T12:42:31.000Z</time>
      </trkpt>
      <trkpt lat="45.16074" lon="-0.73948">
        <ele>15</ele>
        <time>2015-09-12T12:42:42.000Z</time>
      </trkpt>
      <trkpt lat="45.1608" lon="-0.7395">
        <ele>15</ele>
        <time>2015-09-12T12:42:48.000Z</time>
      </trkpt>
      <trkpt lat="45.16084" lon="-0.7395">
        <ele>15</ele>
        <time>2015-09-12T12:42:51.000Z</time>
      </trkpt>
      <trkpt lat="45.16107" lon="-0.73955">
        <ele>15</ele>
        <time>2015-09-12T12:43:12.000Z</time>
      </trkpt>
      <trkpt lat="45.16119" lon="-0.7396">
        <ele>15</ele>
        <time>2015-09-12T12:43:23.000Z</time>
      </trkpt>
      <trkpt lat="45.16124" lon="-0.73961">
        <ele>15</ele>
        <time>2015-09-12T12:43:27.000Z</time>
      </trkpt>
      <trkpt lat="45.16126" lon="-0.7396">
        <ele>15</ele>
        <time>2015-09-12T12:43:31.000Z</time>
      </trkpt>
      <trkpt lat="45.16126" lon="-0.73959">
        <ele>15</ele>
        <time>2015-09-12T12:43:37.000Z</time>
      </trkpt>
      <trkpt lat="45.16126" lon="-0.7396">
        <ele>15</ele>
        <time>2015-09-12T12:43:55.000Z</time>
      </trkpt>
      <trkpt lat="45.1613" lon="-0.73963">
        <ele>15</ele>
        <time>2015-09-12T12:44:02.000Z</time>
      </trkpt>
      <trkpt lat="45.16139" lon="-0.73967">
        <ele>14.800000190735</ele>
        <time>2015-09-12T12:44:10.000Z</time>
      </trkpt>
      <trkpt lat="45.1615" lon="-0.73972">
        <ele>14.800000190735</ele>
        <time>2015-09-12T12:44:20.000Z</time>
      </trkpt>
      <trkpt lat="45.16161" lon="-0.73975">
        <ele>14.60000038147</ele>
        <time>2015-09-12T12:44:30.000Z</time>
      </trkpt>
      <trkpt lat="45.16172" lon="-0.7398">
        <ele>14.39999961853</ele>
        <time>2015-09-12T12:44:40.000Z</time>
      </trkpt>
      <trkpt lat="45.16184" lon="-0.73984">
        <ele>14.39999961853</ele>
        <time>2015-09-12T12:44:50.000Z</time>
      </trkpt>
      <trkpt lat="45.16194" lon="-0.73987">
        <ele>14.199999809265</ele>
        <time>2015-09-12T12:44:59.000Z</time>
      </trkpt>
      <trkpt lat="45.16206" lon="-0.73992">
        <ele>14.39999961853</ele>
        <time>2015-09-12T12:45:09.000Z</time>
      </trkpt>
      <trkpt lat="45.16214" lon="-0.73995">
        <ele>14.60000038147</ele>
        <time>2015-09-12T12:45:16.000Z</time>
      </trkpt>
      <trkpt lat="45.16221" lon="-0.73997">
        <ele>14.800000190735</ele>
        <time>2015-09-12T12:45:23.000Z</time>
      </trkpt>
      <trkpt lat="45.16224" lon="-0.73998">
        <ele>14.800000190735</ele>
        <time>2015-09-12T12:45:33.000Z</time>
      </trkpt>
      <trkpt lat="45.16234" lon="-0.74002">
        <ele>15</ele>
        <time>2015-09-12T12:45:42.000Z</time>
      </trkpt>
      <trkpt lat="45.16238" lon="-0.74004">
        <ele>15.199999809265</ele>
        <time>2015-09-12T12:45:46.000Z</time>
      </trkpt>
      <trkpt lat="45.1624" lon="-0.74003">
        <ele>15.199999809265</ele>
        <time>2015-09-12T12:45:52.000Z</time>
      </trkpt>
      <trkpt lat="45.16243" lon="-0.74004">
        <ele>15.199999809265</ele>
        <time>2015-09-12T12:46:10.000Z</time>
      </trkpt>
      <trkpt lat="45.1625" lon="-0.74007">
        <ele>15.39999961853</ele>
        <time>2015-09-12T12:46:17.000Z</time>
      </trkpt>
      <trkpt lat="45.16261" lon="-0.7401">
        <ele>15.39999961853</ele>
        <time>2015-09-12T12:46:25.000Z</time>
      </trkpt>
      <trkpt lat="45.1627" lon="-0.74014">
        <ele>15.60000038147</ele>
        <time>2015-09-12T12:46:33.000Z</time>
      </trkpt>
      <trkpt lat="45.16279" lon="-0.74018">
        <ele>15.60000038147</ele>
        <time>2015-09-12T12:46:41.000Z</time>
      </trkpt>
      <trkpt lat="45.16288" lon="-0.74022">
        <ele>15.60000038147</ele>
        <time>2015-09-12T12:46:49.000Z</time>
      </trkpt>
      <trkpt lat="45.16302" lon="-0.74028">
        <ele>15.800000190735</ele>
        <time>2015-09-12T12:46:58.000Z</time>
      </trkpt>
      <trkpt lat="45.16318" lon="-0.74034">
        <ele>16</ele>
        <time>2015-09-12T12:47:07.000Z</time>
      </trkpt>
      <trkpt lat="45.16329" lon="-0.74038">
        <ele>16</ele>
        <time>2015-09-12T12:47:14.000Z</time>
      </trkpt>
      <trkpt lat="45.16339" lon="-0.7404">
        <ele>16</ele>
        <time>2015-09-12T12:47:20.000Z</time>
      </trkpt>
      <trkpt lat="45.16346" lon="-0.74041">
        <ele>16</ele>
        <time>2015-09-12T12:47:24.000Z</time>
      </trkpt>
      <trkpt lat="45.16353" lon="-0.74042">
        <ele>16</ele>
        <time>2015-09-12T12:47:28.000Z</time>
      </trkpt>
      <trkpt lat="45.16365" lon="-0.74044">
        <ele>16</ele>
        <time>2015-09-12T12:47:36.000Z</time>
      </trkpt>
      <trkpt lat="45.16379" lon="-0.74044">
        <ele>16</ele>
        <time>2015-09-12T12:47:44.000Z</time>
      </trkpt>
      <trkpt lat="45.16389" lon="-0.74042">
        <ele>15.800000190735</ele>
        <time>2015-09-12T12:47:49.000Z</time>
      </trkpt>
      <trkpt lat="45.16402" lon="-0.74039">
        <ele>15.60000038147</ele>
        <time>2015-09-12T12:47:56.000Z</time>
      </trkpt>
      <trkpt lat="45.16412" lon="-0.74039">
        <ele>15.39999961853</ele>
        <time>2015-09-12T12:48:01.000Z</time>
      </trkpt>
      <trkpt lat="45.16426" lon="-0.7404">
        <ele>15.199999809265</ele>
        <time>2015-09-12T12:48:09.000Z</time>
      </trkpt>
      <trkpt lat="45.16435" lon="-0.74043">
        <ele>15.199999809265</ele>
        <time>2015-09-12T12:48:14.000Z</time>
      </trkpt>
      <trkpt lat="45.16446" lon="-0.74047">
        <ele>15</ele>
        <time>2015-09-12T12:48:20.000Z</time>
      </trkpt>
      <trkpt lat="45.16458" lon="-0.74051">
        <ele>15</ele>
        <time>2015-09-12T12:48:27.000Z</time>
      </trkpt>
      <trkpt lat="45.16473" lon="-0.74054">
        <ele>14.199999809265</ele>
        <time>2015-09-12T12:48:36.000Z</time>
      </trkpt>
      <trkpt lat="45.16488" lon="-0.74059">
        <ele>13.39999961853</ele>
        <time>2015-09-12T12:48:44.000Z</time>
      </trkpt>
      <trkpt lat="45.165" lon="-0.74063">
        <ele>12.60000038147</ele>
        <time>2015-09-12T12:48:50.000Z</time>
      </trkpt>
      <trkpt lat="45.1651" lon="-0.74076">
        <ele>11.800000190735</ele>
        <time>2015-09-12T12:48:57.000Z</time>
      </trkpt>
      <trkpt lat="45.16515" lon="-0.74089">
        <ele>11.39999961853</ele>
        <time>2015-09-12T12:49:03.000Z</time>
      </trkpt>
      <trkpt lat="45.16519" lon="-0.74101">
        <ele>11.39999961853</ele>
        <time>2015-09-12T12:49:09.000Z</time>
      </trkpt>
      <trkpt lat="45.16533" lon="-0.74112">
        <ele>11</ele>
        <time>2015-09-12T12:49:17.000Z</time>
      </trkpt>
      <trkpt lat="45.16545" lon="-0.74123">
        <ele>10.800000190735</ele>
        <time>2015-09-12T12:49:24.000Z</time>
      </trkpt>
      <trkpt lat="45.16556" lon="-0.74139">
        <ele>11.199999809265</ele>
        <time>2015-09-12T12:49:31.000Z</time>
      </trkpt>
      <trkpt lat="45.16566" lon="-0.74153">
        <ele>11.800000190735</ele>
        <time>2015-09-12T12:49:38.000Z</time>
      </trkpt>
      <trkpt lat="45.16575" lon="-0.74166">
        <ele>12</ele>
        <time>2015-09-12T12:49:44.000Z</time>
      </trkpt>
      <trkpt lat="45.16582" lon="-0.74174">
        <ele>12.39999961853</ele>
        <time>2015-09-12T12:49:49.000Z</time>
      </trkpt>
      <trkpt lat="45.16593" lon="-0.74186">
        <ele>12.60000038147</ele>
        <time>2015-09-12T12:49:56.000Z</time>
      </trkpt>
      <trkpt lat="45.16605" lon="-0.742">
        <ele>12.800000190735</ele>
        <time>2015-09-12T12:50:05.000Z</time>
      </trkpt>
      <trkpt lat="45.16612" lon="-0.74208">
        <ele>12.800000190735</ele>
        <time>2015-09-12T12:50:11.000Z</time>
      </trkpt>
      <trkpt lat="45.16622" lon="-0.74215">
        <ele>13</ele>
        <time>2015-09-12T12:50:18.000Z</time>
      </trkpt>
      <trkpt lat="45.16634" lon="-0.74223">
        <ele>13.199999809265</ele>
        <time>2015-09-12T12:50:26.000Z</time>
      </trkpt>
      <trkpt lat="45.16644" lon="-0.7423">
        <ele>13.39999961853</ele>
        <time>2015-09-12T12:50:33.000Z</time>
      </trkpt>
      <trkpt lat="45.16657" lon="-0.74235">
        <ele>13.60000038147</ele>
        <time>2015-09-12T12:50:41.000Z</time>
      </trkpt>
      <trkpt lat="45.16669" lon="-0.74241">
        <ele>13.800000190735</ele>
        <time>2015-09-12T12:50:48.000Z</time>
      </trkpt>
      <trkpt lat="45.16684" lon="-0.74248">
        <ele>14</ele>
        <time>2015-09-12T12:50:56.000Z</time>
      </trkpt>
      <trkpt lat="45.16696" lon="-0.74253">
        <ele>13.800000190735</ele>
        <time>2015-09-12T12:51:03.000Z</time>
      </trkpt>
      <trkpt lat="45.16708" lon="-0.7426">
        <ele>13.60000038147</ele>
        <time>2015-09-12T12:51:10.000Z</time>
      </trkpt>
      <trkpt lat="45.16716" lon="-0.74265">
        <ele>13.39999961853</ele>
        <time>2015-09-12T12:51:15.000Z</time>
      </trkpt>
      <trkpt lat="45.16725" lon="-0.74273">
        <ele>13.39999961853</ele>
        <time>2015-09-12T12:51:21.000Z</time>
      </trkpt>
      <trkpt lat="45.16736" lon="-0.74285">
        <ele>13.199999809265</ele>
        <time>2015-09-12T12:51:29.000Z</time>
      </trkpt>
      <trkpt lat="45.16746" lon="-0.74297">
        <ele>13</ele>
        <time>2015-09-12T12:51:36.000Z</time>
      </trkpt>
      <trkpt lat="45.16755" lon="-0.74308">
        <ele>13</ele>
        <time>2015-09-12T12:51:43.000Z</time>
      </trkpt>
      <trkpt lat="45.16764" lon="-0.74317">
        <ele>13.199999809265</ele>
        <time>2015-09-12T12:51:49.000Z</time>
      </trkpt>
      <trkpt lat="45.16774" lon="-0.74329">
        <ele>13.199999809265</ele>
        <time>2015-09-12T12:51:56.000Z</time>
      </trkpt>
      <trkpt lat="45.16783" lon="-0.74341">
        <ele>13.199999809265</ele>
        <time>2015-09-12T12:52:03.000Z</time>
      </trkpt>
      <trkpt lat="45.16788" lon="-0.74352">
        <ele>13</ele>
        <time>2015-09-12T12:52:08.000Z</time>
      </trkpt>
      <trkpt lat="45.16798" lon="-0.74367">
        <ele>13</ele>
        <time>2015-09-12T12:52:16.000Z</time>
      </trkpt>
      <trkpt lat="45.16806" lon="-0.7438">
        <ele>13</ele>
        <time>2015-09-12T12:52:23.000Z</time>
      </trkpt>
      <trkpt lat="45.16811" lon="-0.74392">
        <ele>13.199999809265</ele>
        <time>2015-09-12T12:52:29.000Z</time>
      </trkpt>
      <trkpt lat="45.16818" lon="-0.74405">
        <ele>13.39999961853</ele>
        <time>2015-09-12T12:52:35.000Z</time>
      </trkpt>
      <trkpt lat="45.16825" lon="-0.74421">
        <ele>13.800000190735</ele>
        <time>2015-09-12T12:52:42.000Z</time>
      </trkpt>
      <trkpt lat="45.16831" lon="-0.74438">
        <ele>14</ele>
        <time>2015-09-12T12:52:50.000Z</time>
      </trkpt>
      <trkpt lat="45.16837" lon="-0.74453">
        <ele>14</ele>
        <time>2015-09-12T12:52:57.000Z</time>
      </trkpt>
      <trkpt lat="45.16844" lon="-0.74467">
        <ele>14</ele>
        <time>2015-09-12T12:53:04.000Z</time>
      </trkpt>
      <trkpt lat="45.16851" lon="-0.7448">
        <ele>14.199999809265</ele>
        <time>2015-09-12T12:53:10.000Z</time>
      </trkpt>
      <trkpt lat="45.16856" lon="-0.74493">
        <ele>14.199999809265</ele>
        <time>2015-09-12T12:53:16.000Z</time>
      </trkpt>
      <trkpt lat="45.16861" lon="-0.74509">
        <ele>14.199999809265</ele>
        <time>2015-09-12T12:53:23.000Z</time>
      </trkpt>
      <trkpt lat="45.16866" lon="-0.74525">
        <ele>14.199999809265</ele>
        <time>2015-09-12T12:53:30.000Z</time>
      </trkpt>
      <trkpt lat="45.16873" lon="-0.74544">
        <ele>14</ele>
        <time>2015-09-12T12:53:38.000Z</time>
      </trkpt>
      <trkpt lat="45.16878" lon="-0.7456">
        <ele>14</ele>
        <time>2015-09-12T12:53:45.000Z</time>
      </trkpt>
      <trkpt lat="45.16884" lon="-0.74575">
        <ele>14.199999809265</ele>
        <time>2015-09-12T12:53:52.000Z</time>
      </trkpt>
      <trkpt lat="45.1689" lon="-0.74592">
        <ele>14.39999961853</ele>
        <time>2015-09-12T12:54:00.000Z</time>
      </trkpt>
      <trkpt lat="45.16896" lon="-0.74605">
        <ele>14.60000038147</ele>
        <time>2015-09-12T12:54:06.000Z</time>
      </trkpt>
      <trkpt lat="45.16901" lon="-0.7462">
        <ele>14.800000190735</ele>
        <time>2015-09-12T12:54:13.000Z</time>
      </trkpt>
      <trkpt lat="45.1691" lon="-0.74634">
        <ele>15</ele>
        <time>2015-09-12T12:54:20.000Z</time>
      </trkpt>
      <trkpt lat="45.16919" lon="-0.74646">
        <ele>15</ele>
        <time>2015-09-12T12:54:26.000Z</time>
      </trkpt>
      <trkpt lat="45.1693" lon="-0.74655">
        <ele>14.800000190735</ele>
        <time>2015-09-12T12:54:33.000Z</time>
      </trkpt>
      <trkpt lat="45.16941" lon="-0.74664">
        <ele>14.60000038147</ele>
        <time>2015-09-12T12:54:40.000Z</time>
      </trkpt>
      <trkpt lat="45.16955" lon="-0.74673">
        <ele>14.60000038147</ele>
        <time>2015-09-12T12:54:48.000Z</time>
      </trkpt>
      <trkpt lat="45.1698" lon="-0.74688">
        <ele>14.39999961853</ele>
        <time>2015-09-12T12:55:03.000Z</time>
      </trkpt>
      <trkpt lat="45.16992" lon="-0.74696">
        <ele>14.199999809265</ele>
        <time>2015-09-12T12:55:10.000Z</time>
      </trkpt>
      <trkpt lat="45.17002" lon="-0.74702">
        <ele>14.199999809265</ele>
        <time>2015-09-12T12:55:16.000Z</time>
      </trkpt>
      <trkpt lat="45.17014" lon="-0.74708">
        <ele>14.199999809265</ele>
        <time>2015-09-12T12:55:23.000Z</time>
      </trkpt>
      <trkpt lat="45.17025" lon="-0.74713">
        <ele>14</ele>
        <time>2015-09-12T12:55:31.000Z</time>
      </trkpt>
      <trkpt lat="45.17036" lon="-0.74717">
        <ele>14</ele>
        <time>2015-09-12T12:55:40.000Z</time>
      </trkpt>
      <trkpt lat="45.17046" lon="-0.74721">
        <ele>14</ele>
        <time>2015-09-12T12:55:49.000Z</time>
      </trkpt>
      <trkpt lat="45.17061" lon="-0.74728">
        <ele>13.60000038147</ele>
        <time>2015-09-12T12:56:01.000Z</time>
      </trkpt>
      <trkpt lat="45.17069" lon="-0.74732">
        <ele>13.39999961853</ele>
        <time>2015-09-12T12:56:08.000Z</time>
      </trkpt>
      <trkpt lat="45.17072" lon="-0.74734">
        <ele>13.39999961853</ele>
        <time>2015-09-12T12:56:11.000Z</time>
      </trkpt>
      <trkpt lat="45.1708" lon="-0.74738">
        <ele>13.199999809265</ele>
        <time>2015-09-12T12:56:18.000Z</time>
      </trkpt>
      <trkpt lat="45.17093" lon="-0.74744">
        <ele>12.800000190735</ele>
        <time>2015-09-12T12:56:28.000Z</time>
      </trkpt>
      <trkpt lat="45.17098" lon="-0.74747">
        <ele>12.800000190735</ele>
        <time>2015-09-12T12:56:32.000Z</time>
      </trkpt>
      <trkpt lat="45.17104" lon="-0.74752">
        <ele>12.60000038147</ele>
        <time>2015-09-12T12:56:37.000Z</time>
      </trkpt>
      <trkpt lat="45.17113" lon="-0.74756">
        <ele>12.39999961853</ele>
        <time>2015-09-12T12:56:45.000Z</time>
      </trkpt>
      <trkpt lat="45.17122" lon="-0.74762">
        <ele>12</ele>
        <time>2015-09-12T12:56:53.000Z</time>
      </trkpt>
      <trkpt lat="45.17134" lon="-0.74769">
        <ele>11.39999961853</ele>
        <time>2015-09-12T12:57:03.000Z</time>
      </trkpt>
      <trkpt lat="45.17144" lon="-0.74776">
        <ele>10.800000190735</ele>
        <time>2015-09-12T12:57:12.000Z</time>
      </trkpt>
      <trkpt lat="45.17152" lon="-0.74781">
        <ele>10.199999809265</ele>
        <time>2015-09-12T12:57:20.000Z</time>
      </trkpt>
      <trkpt lat="45.17159" lon="-0.74785">
        <ele>9.8000001907349</ele>
        <time>2015-09-12T12:57:27.000Z</time>
      </trkpt>
      <trkpt lat="45.17169" lon="-0.74792">
        <ele>9.1999998092651</ele>
        <time>2015-09-12T12:57:36.000Z</time>
      </trkpt>
      <trkpt lat="45.17179" lon="-0.74798">
        <ele>8.6000003814697</ele>
        <time>2015-09-12T12:57:46.000Z</time>
      </trkpt>
      <trkpt lat="45.17181" lon="-0.748">
        <ele>8.3999996185303</ele>
        <time>2015-09-12T12:57:49.000Z</time>
      </trkpt>
      <trkpt lat="45.17185" lon="-0.74803">
        <ele>8.1999998092651</ele>
        <time>2015-09-12T12:57:53.000Z</time>
      </trkpt>
      <trkpt lat="45.17202" lon="-0.74814">
        <ele>7.1999998092651</ele>
        <time>2015-09-12T12:58:09.000Z</time>
      </trkpt>
      <trkpt lat="45.17214" lon="-0.74822">
        <ele>7.1999998092651</ele>
        <time>2015-09-12T12:58:20.000Z</time>
      </trkpt>
      <trkpt lat="45.1722" lon="-0.74826">
        <ele>7.4000000953674</ele>
        <time>2015-09-12T12:58:26.000Z</time>
      </trkpt>
      <trkpt lat="45.17231" lon="-0.74834">
        <ele>7.8000001907349</ele>
        <time>2015-09-12T12:58:37.000Z</time>
      </trkpt>
      <trkpt lat="45.17241" lon="-0.74842">
        <ele>8.1999998092651</ele>
        <time>2015-09-12T12:58:46.000Z</time>
      </trkpt>
      <trkpt lat="45.17253" lon="-0.7485">
        <ele>8.6000003814697</ele>
        <time>2015-09-12T12:58:57.000Z</time>
      </trkpt>
      <trkpt lat="45.17257" lon="-0.74852">
        <ele>8.8000001907349</ele>
        <time>2015-09-12T12:59:04.000Z</time>
      </trkpt>
      <trkpt lat="45.17259" lon="-0.74854">
        <ele>9</ele>
        <time>2015-09-12T13:00:36.000Z</time>
      </trkpt>
      <trkpt lat="45.17268" lon="-0.74862">
        <ele>9.8000001907349</ele>
        <time>2015-09-12T13:00:45.000Z</time>
      </trkpt>
      <trkpt lat="45.17274" lon="-0.74867">
        <ele>10.199999809265</ele>
        <time>2015-09-12T13:00:51.000Z</time>
      </trkpt>
      <trkpt lat="45.17281" lon="-0.74871">
        <ele>10.800000190735</ele>
        <time>2015-09-12T13:00:57.000Z</time>
      </trkpt>
      <trkpt lat="45.1729" lon="-0.74877">
        <ele>11.39999961853</ele>
        <time>2015-09-12T13:01:05.000Z</time>
      </trkpt>
      <trkpt lat="45.17298" lon="-0.74883">
        <ele>12</ele>
        <time>2015-09-12T13:01:13.000Z</time>
      </trkpt>
      <trkpt lat="45.17306" lon="-0.74889">
        <ele>12.199999809265</ele>
        <time>2015-09-12T13:01:21.000Z</time>
      </trkpt>
      <trkpt lat="45.17313" lon="-0.74895">
        <ele>12.39999961853</ele>
        <time>2015-09-12T13:01:28.000Z</time>
      </trkpt>
      <trkpt lat="45.17321" lon="-0.74899">
        <ele>12.39999961853</ele>
        <time>2015-09-12T13:01:36.000Z</time>
      </trkpt>
      <trkpt lat="45.17331" lon="-0.74904">
        <ele>12.60000038147</ele>
        <time>2015-09-12T13:01:45.000Z</time>
      </trkpt>
      <trkpt lat="45.17341" lon="-0.74908">
        <ele>12.800000190735</ele>
        <time>2015-09-12T13:01:54.000Z</time>
      </trkpt>
      <trkpt lat="45.1735" lon="-0.74912">
        <ele>13</ele>
        <time>2015-09-12T13:02:02.000Z</time>
      </trkpt>
      <trkpt lat="45.1736" lon="-0.74915">
        <ele>13.199999809265</ele>
        <time>2015-09-12T13:02:11.000Z</time>
      </trkpt>
      <trkpt lat="45.17368" lon="-0.74918">
        <ele>13.199999809265</ele>
        <time>2015-09-12T13:02:19.000Z</time>
      </trkpt>
      <trkpt lat="45.17376" lon="-0.7492">
        <ele>13.39999961853</ele>
        <time>2015-09-12T13:02:26.000Z</time>
      </trkpt>
      <trkpt lat="45.17388" lon="-0.74924">
        <ele>13.60000038147</ele>
        <time>2015-09-12T13:02:37.000Z</time>
      </trkpt>
      <trkpt lat="45.17396" lon="-0.74927">
        <ele>14</ele>
        <time>2015-09-12T13:02:45.000Z</time>
      </trkpt>
      <trkpt lat="45.17407" lon="-0.7493">
        <ele>14.199999809265</ele>
        <time>2015-09-12T13:02:55.000Z</time>
      </trkpt>
      <trkpt lat="45.17419" lon="-0.74934">
        <ele>14.60000038147</ele>
        <time>2015-09-12T13:03:06.000Z</time>
      </trkpt>
      <trkpt lat="45.17433" lon="-0.74939">
        <ele>15.60000038147</ele>
        <time>2015-09-12T13:03:20.000Z</time>
      </trkpt>
      <trkpt lat="45.17441" lon="-0.74943">
        <ele>16</ele>
        <time>2015-09-12T13:03:28.000Z</time>
      </trkpt>
      <trkpt lat="45.17455" lon="-0.7495">
        <ele>17</ele>
        <time>2015-09-12T13:03:40.000Z</time>
      </trkpt>
      <trkpt lat="45.17463" lon="-0.74955">
        <ele>17.60000038147</ele>
        <time>2015-09-12T13:03:48.000Z</time>
      </trkpt>
      <trkpt lat="45.17472" lon="-0.74961">
        <ele>18.200000762939</ele>
        <time>2015-09-12T13:03:57.000Z</time>
      </trkpt>
      <trkpt lat="45.1748" lon="-0.74967">
        <ele>18.60000038147</ele>
        <time>2015-09-12T13:04:05.000Z</time>
      </trkpt>
      <trkpt lat="45.17489" lon="-0.74973">
        <ele>19</ele>
        <time>2015-09-12T13:04:14.000Z</time>
      </trkpt>
      <trkpt lat="45.17501" lon="-0.74981">
        <ele>19.39999961853</ele>
        <time>2015-09-12T13:04:25.000Z</time>
      </trkpt>
      <trkpt lat="45.17507" lon="-0.74985">
        <ele>19.39999961853</ele>
        <time>2015-09-12T13:04:31.000Z</time>
      </trkpt>
      <trkpt lat="45.17518" lon="-0.74994">
        <ele>19.799999237061</ele>
        <time>2015-09-12T13:04:42.000Z</time>
      </trkpt>
      <trkpt lat="45.17539" lon="-0.75008">
        <ele>19.60000038147</ele>
        <time>2015-09-12T13:05:02.000Z</time>
      </trkpt>
      <trkpt lat="45.17549" lon="-0.75016">
        <ele>19</ele>
        <time>2015-09-12T13:05:12.000Z</time>
      </trkpt>
      <trkpt lat="45.17558" lon="-0.75022">
        <ele>18.39999961853</ele>
        <time>2015-09-12T13:05:21.000Z</time>
      </trkpt>
      <trkpt lat="45.17567" lon="-0.75029">
        <ele>17.60000038147</ele>
        <time>2015-09-12T13:05:31.000Z</time>
      </trkpt>
      <trkpt lat="45.17576" lon="-0.75036">
        <ele>17</ele>
        <time>2015-09-12T13:05:41.000Z</time>
      </trkpt>
      <trkpt lat="45.17583" lon="-0.7504">
        <ele>16.39999961853</ele>
        <time>2015-09-12T13:05:49.000Z</time>
      </trkpt>
      <trkpt lat="45.17589" lon="-0.75046">
        <ele>16</ele>
        <time>2015-09-12T13:05:58.000Z</time>
      </trkpt>
      <trkpt lat="45.17593" lon="-0.75049">
        <ele>15.800000190735</ele>
        <time>2015-09-12T13:06:07.000Z</time>
      </trkpt>
      <trkpt lat="45.17593" lon="-0.75049">
        <ele>15.800000190735</ele>
        <time>2015-09-12T13:06:27.000Z</time>
      </trkpt>
      <trkpt lat="45.17596" lon="-0.75053">
        <ele>15.60000038147</ele>
        <time>2015-09-12T13:06:36.000Z</time>
      </trkpt>
      <trkpt lat="45.17601" lon="-0.7506">
        <ele>15.199999809265</ele>
        <time>2015-09-12T13:06:43.000Z</time>
      </trkpt>
      <trkpt lat="45.17609" lon="-0.75066">
        <ele>14.800000190735</ele>
        <time>2015-09-12T13:06:51.000Z</time>
      </trkpt>
      <trkpt lat="45.17619" lon="-0.75077">
        <ele>14.60000038147</ele>
        <time>2015-09-12T13:07:02.000Z</time>
      </trkpt>
      <trkpt lat="45.17623" lon="-0.7508">
        <ele>14.60000038147</ele>
        <time>2015-09-12T13:07:09.000Z</time>
      </trkpt>
      <trkpt lat="45.17629" lon="-0.75083">
        <ele>14.60000038147</ele>
        <time>2015-09-12T13:07:15.000Z</time>
      </trkpt>
      <trkpt lat="45.17639" lon="-0.7509">
        <ele>14.39999961853</ele>
        <time>2015-09-12T13:07:25.000Z</time>
      </trkpt>
      <trkpt lat="45.17647" lon="-0.75096">
        <ele>14.39999961853</ele>
        <time>2015-09-12T13:07:35.000Z</time>
      </trkpt>
      <trkpt lat="45.17654" lon="-0.75101">
        <ele>14.199999809265</ele>
        <time>2015-09-12T13:07:44.000Z</time>
      </trkpt>
      <trkpt lat="45.1766" lon="-0.75106">
        <ele>14.199999809265</ele>
        <time>2015-09-12T13:07:52.000Z</time>
      </trkpt>
      <trkpt lat="45.17666" lon="-0.75112">
        <ele>14</ele>
        <time>2015-09-12T13:08:00.000Z</time>
      </trkpt>
      <trkpt lat="45.17667" lon="-0.75113">
        <ele>14</ele>
        <time>2015-09-12T13:08:02.000Z</time>
      </trkpt>
      <trkpt lat="45.17668" lon="-0.75114">
        <ele>14</ele>
        <time>2015-09-12T13:08:04.000Z</time>
      </trkpt>
      <trkpt lat="45.17672" lon="-0.75115">
        <ele>13.800000190735</ele>
        <time>2015-09-12T13:08:08.000Z</time>
      </trkpt>
      <trkpt lat="45.17681" lon="-0.75121">
        <ele>13.800000190735</ele>
        <time>2015-09-12T13:08:17.000Z</time>
      </trkpt>
      <trkpt lat="45.17689" lon="-0.75127">
        <ele>13.60000038147</ele>
        <time>2015-09-12T13:08:26.000Z</time>
      </trkpt>
      <trkpt lat="45.17695" lon="-0.75134">
        <ele>13.39999961853</ele>
        <time>2015-09-12T13:08:34.000Z</time>
      </trkpt>
      <trkpt lat="45.17698" lon="-0.7514">
        <ele>13.60000038147</ele>
        <time>2015-09-12T13:08:39.000Z</time>
      </trkpt>
      <trkpt lat="45.17698" lon="-0.75144">
        <ele>13.60000038147</ele>
        <time>2015-09-12T13:08:47.000Z</time>
      </trkpt>
      <trkpt lat="45.17702" lon="-0.75147">
        <ele>13.39999961853</ele>
        <time>2015-09-12T13:09:57.000Z</time>
      </trkpt>
      <trkpt lat="45.17705" lon="-0.75149">
        <ele>13.39999961853</ele>
        <time>2015-09-12T13:10:04.000Z</time>
      </trkpt>
      <trkpt lat="45.17706" lon="-0.75151">
        <ele>13.199999809265</ele>
        <time>2015-09-12T13:10:14.000Z</time>
      </trkpt>
      <trkpt lat="45.1771" lon="-0.75153">
        <ele>13</ele>
        <time>2015-09-12T13:10:21.000Z</time>
      </trkpt>
      <trkpt lat="45.17719" lon="-0.75159">
        <ele>12.800000190735</ele>
        <time>2015-09-12T13:10:31.000Z</time>
      </trkpt>
      <trkpt lat="45.17724" lon="-0.75163">
        <ele>12.60000038147</ele>
        <time>2015-09-12T13:10:38.000Z</time>
      </trkpt>
      <trkpt lat="45.17731" lon="-0.75168">
        <ele>12.60000038147</ele>
        <time>2015-09-12T13:10:46.000Z</time>
      </trkpt>
      <trkpt lat="45.17738" lon="-0.75173">
        <ele>12.39999961853</ele>
        <time>2015-09-12T13:10:53.000Z</time>
      </trkpt>
      <trkpt lat="45.17742" lon="-0.75178">
        <ele>12.199999809265</ele>
        <time>2015-09-12T13:10:58.000Z</time>
      </trkpt>
      <trkpt lat="45.17753" lon="-0.75185">
        <ele>12</ele>
        <time>2015-09-12T13:11:09.000Z</time>
      </trkpt>
      <trkpt lat="45.17762" lon="-0.75188">
        <ele>12</ele>
        <time>2015-09-12T13:11:18.000Z</time>
      </trkpt>
      <trkpt lat="45.17765" lon="-0.75191">
        <ele>12</ele>
        <time>2015-09-12T13:11:24.000Z</time>
      </trkpt>
      <trkpt lat="45.1777" lon="-0.75192">
        <ele>12</ele>
        <time>2015-09-12T13:11:30.000Z</time>
      </trkpt>
      <trkpt lat="45.1778" lon="-0.75197">
        <ele>11.800000190735</ele>
        <time>2015-09-12T13:11:40.000Z</time>
      </trkpt>
      <trkpt lat="45.17789" lon="-0.752">
        <ele>11.800000190735</ele>
        <time>2015-09-12T13:11:49.000Z</time>
      </trkpt>
      <trkpt lat="45.1781" lon="-0.75206">
        <ele>11.199999809265</ele>
        <time>2015-09-12T13:12:09.000Z</time>
      </trkpt>
      <trkpt lat="45.17816" lon="-0.75207">
        <ele>11</ele>
        <time>2015-09-12T13:12:15.000Z</time>
      </trkpt>
      <trkpt lat="45.17825" lon="-0.75207">
        <ele>10.800000190735</ele>
        <time>2015-09-12T13:12:22.000Z</time>
      </trkpt>
      <trkpt lat="45.17834" lon="-0.75207">
        <ele>10.39999961853</ele>
        <time>2015-09-12T13:12:30.000Z</time>
      </trkpt>
      <trkpt lat="45.1784" lon="-0.75209">
        <ele>10.199999809265</ele>
        <time>2015-09-12T13:12:35.000Z</time>
      </trkpt>
      <trkpt lat="45.17846" lon="-0.75209">
        <ele>10</ele>
        <time>2015-09-12T13:12:42.000Z</time>
      </trkpt>
      <trkpt lat="45.17856" lon="-0.7521">
        <ele>9.6000003814697</ele>
        <time>2015-09-12T13:12:51.000Z</time>
      </trkpt>
      <trkpt lat="45.17868" lon="-0.7521">
        <ele>9.1999998092651</ele>
        <time>2015-09-12T13:13:01.000Z</time>
      </trkpt>
      <trkpt lat="45.17878" lon="-0.7521">
        <ele>8.8000001907349</ele>
        <time>2015-09-12T13:13:10.000Z</time>
      </trkpt>
      <trkpt lat="45.17886" lon="-0.7521">
        <ele>8.8000001907349</ele>
        <time>2015-09-12T13:13:17.000Z</time>
      </trkpt>
      <trkpt lat="45.17894" lon="-0.7521">
        <ele>9</ele>
        <time>2015-09-12T13:13:24.000Z</time>
      </trkpt>
      <trkpt lat="45.17905" lon="-0.7521">
        <ele>9.1999998092651</ele>
        <time>2015-09-12T13:13:31.000Z</time>
      </trkpt>
      <trkpt lat="45.17914" lon="-0.7521">
        <ele>9.3999996185303</ele>
        <time>2015-09-12T13:13:38.000Z</time>
      </trkpt>
      <trkpt lat="45.17925" lon="-0.7521">
        <ele>9.8000001907349</ele>
        <time>2015-09-12T13:13:46.000Z</time>
      </trkpt>
      <trkpt lat="45.17933" lon="-0.75211">
        <ele>10</ele>
        <time>2015-09-12T13:13:52.000Z</time>
      </trkpt>
      <trkpt lat="45.17944" lon="-0.75209">
        <ele>10.199999809265</ele>
        <time>2015-09-12T13:13:59.000Z</time>
      </trkpt>
      <trkpt lat="45.17958" lon="-0.7521">
        <ele>10.60000038147</ele>
        <time>2015-09-12T13:14:08.000Z</time>
      </trkpt>
      <trkpt lat="45.17972" lon="-0.75209">
        <ele>11.39999961853</ele>
        <time>2015-09-12T13:14:16.000Z</time>
      </trkpt>
      <trkpt lat="45.17987" lon="-0.75209">
        <ele>12</ele>
        <time>2015-09-12T13:14:25.000Z</time>
      </trkpt>
      <trkpt lat="45.18" lon="-0.75208">
        <ele>12.60000038147</ele>
        <time>2015-09-12T13:14:33.000Z</time>
      </trkpt>
      <trkpt lat="45.18009" lon="-0.75206">
        <ele>13</ele>
        <time>2015-09-12T13:14:39.000Z</time>
      </trkpt>
      <trkpt lat="45.18018" lon="-0.75204">
        <ele>13.60000038147</ele>
        <time>2015-09-12T13:14:46.000Z</time>
      </trkpt>
      <trkpt lat="45.18029" lon="-0.75202">
        <ele>14</ele>
        <time>2015-09-12T13:14:56.000Z</time>
      </trkpt>
      <trkpt lat="45.18038" lon="-0.75201">
        <ele>14.39999961853</ele>
        <time>2015-09-12T13:15:04.000Z</time>
      </trkpt>
      <trkpt lat="45.18041" lon="-0.75201">
        <ele>14.60000038147</ele>
        <time>2015-09-12T13:15:12.000Z</time>
      </trkpt>
      <trkpt lat="45.18043" lon="-0.75203">
        <ele>14.800000190735</ele>
        <time>2015-09-12T13:15:18.000Z</time>
      </trkpt>
      <trkpt lat="45.18044" lon="-0.75203">
        <ele>14.800000190735</ele>
        <time>2015-09-12T13:15:23.000Z</time>
      </trkpt>
      <trkpt lat="45.18049" lon="-0.75203">
        <ele>14.60000038147</ele>
        <time>2015-09-12T13:15:44.000Z</time>
      </trkpt>
      <trkpt lat="45.18051" lon="-0.75201">
        <ele>14.39999961853</ele>
        <time>2015-09-12T13:15:46.000Z</time>
      </trkpt>
      <trkpt lat="45.18059" lon="-0.75202">
        <ele>14</ele>
        <time>2015-09-12T13:15:54.000Z</time>
      </trkpt>
      <trkpt lat="45.18065" lon="-0.75201">
        <ele>13.60000038147</ele>
        <time>2015-09-12T13:16:01.000Z</time>
      </trkpt>
      <trkpt lat="45.18074" lon="-0.75201">
        <ele>13.39999961853</ele>
        <time>2015-09-12T13:16:10.000Z</time>
      </trkpt>
      <trkpt lat="45.18079" lon="-0.75202">
        <ele>13.199999809265</ele>
        <time>2015-09-12T13:16:14.000Z</time>
      </trkpt>
      <trkpt lat="45.18089" lon="-0.75207">
        <ele>13.199999809265</ele>
        <time>2015-09-12T13:16:22.000Z</time>
      </trkpt>
      <trkpt lat="45.1809" lon="-0.75207">
        <ele>13.199999809265</ele>
        <time>2015-09-12T13:16:23.000Z</time>
      </trkpt>
      <trkpt lat="45.18097" lon="-0.75209">
        <ele>13.199999809265</ele>
        <time>2015-09-12T13:16:28.000Z</time>
      </trkpt>
      <trkpt lat="45.18102" lon="-0.75211">
        <ele>13.199999809265</ele>
        <time>2015-09-12T13:16:33.000Z</time>
      </trkpt>
      <trkpt lat="45.18115" lon="-0.75217">
        <ele>13.199999809265</ele>
        <time>2015-09-12T13:16:42.000Z</time>
      </trkpt>
      <trkpt lat="45.18124" lon="-0.7522">
        <ele>13</ele>
        <time>2015-09-12T13:16:47.000Z</time>
      </trkpt>
      <trkpt lat="45.18135" lon="-0.75225">
        <ele>12.800000190735</ele>
        <time>2015-09-12T13:16:54.000Z</time>
      </trkpt>
      <trkpt lat="45.18147" lon="-0.75229">
        <ele>12.39999961853</ele>
        <time>2015-09-12T13:17:01.000Z</time>
      </trkpt>
      <trkpt lat="45.18155" lon="-0.75234">
        <ele>12</ele>
        <time>2015-09-12T13:17:07.000Z</time>
      </trkpt>
      <trkpt lat="45.18165" lon="-0.75237">
        <ele>11.60000038147</ele>
        <time>2015-09-12T13:17:13.000Z</time>
      </trkpt>
      <trkpt lat="45.18177" lon="-0.75242">
        <ele>11.199999809265</ele>
        <time>2015-09-12T13:17:20.000Z</time>
      </trkpt>
      <trkpt lat="45.18187" lon="-0.75246">
        <ele>10.800000190735</ele>
        <time>2015-09-12T13:17:25.000Z</time>
      </trkpt>
      <trkpt lat="45.18198" lon="-0.7525">
        <ele>10.39999961853</ele>
        <time>2015-09-12T13:17:31.000Z</time>
      </trkpt>
      <trkpt lat="45.18208" lon="-0.75255">
        <ele>10.199999809265</ele>
        <time>2015-09-12T13:17:36.000Z</time>
      </trkpt>
      <trkpt lat="45.18219" lon="-0.75261">
        <ele>10</ele>
        <time>2015-09-12T13:17:42.000Z</time>
      </trkpt>
      <trkpt lat="45.1823" lon="-0.75268">
        <ele>10.199999809265</ele>
        <time>2015-09-12T13:17:48.000Z</time>
      </trkpt>
      <trkpt lat="45.18243" lon="-0.75276">
        <ele>10.39999961853</ele>
        <time>2015-09-12T13:17:56.000Z</time>
      </trkpt>
      <trkpt lat="45.18267" lon="-0.75288">
        <ele>10.60000038147</ele>
        <time>2015-09-12T13:18:10.000Z</time>
      </trkpt>
      <trkpt lat="45.18278" lon="-0.75292">
        <ele>10.800000190735</ele>
        <time>2015-09-12T13:18:16.000Z</time>
      </trkpt>
      <trkpt lat="45.1829" lon="-0.75295">
        <ele>11</ele>
        <time>2015-09-12T13:18:22.000Z</time>
      </trkpt>
      <trkpt lat="45.18301" lon="-0.75298">
        <ele>11</ele>
        <time>2015-09-12T13:18:29.000Z</time>
      </trkpt>
      <trkpt lat="45.18311" lon="-0.75298">
        <ele>11</ele>
        <time>2015-09-12T13:18:35.000Z</time>
      </trkpt>
      <trkpt lat="45.18319" lon="-0.75296">
        <ele>11.199999809265</ele>
        <time>2015-09-12T13:18:40.000Z</time>
      </trkpt>
      <trkpt lat="45.1833" lon="-0.75296">
        <ele>11.199999809265</ele>
        <time>2015-09-12T13:18:46.000Z</time>
      </trkpt>
      <trkpt lat="45.18343" lon="-0.75292">
        <ele>11.199999809265</ele>
        <time>2015-09-12T13:18:53.000Z</time>
      </trkpt>
      <trkpt lat="45.18354" lon="-0.75286">
        <ele>11.199999809265</ele>
        <time>2015-09-12T13:19:00.000Z</time>
      </trkpt>
      <trkpt lat="45.18366" lon="-0.75281">
        <ele>11.199999809265</ele>
        <time>2015-09-12T13:19:06.000Z</time>
      </trkpt>
      <trkpt lat="45.18373" lon="-0.75277">
        <ele>11.39999961853</ele>
        <time>2015-09-12T13:19:10.000Z</time>
      </trkpt>
      <trkpt lat="45.1839" lon="-0.75272">
        <ele>11.39999961853</ele>
        <time>2015-09-12T13:19:18.000Z</time>
      </trkpt>
      <trkpt lat="45.184" lon="-0.75269">
        <ele>11.39999961853</ele>
        <time>2015-09-12T13:19:23.000Z</time>
      </trkpt>
      <trkpt lat="45.18414" lon="-0.75263">
        <ele>11.39999961853</ele>
        <time>2015-09-12T13:19:31.000Z</time>
      </trkpt>
      <trkpt lat="45.18425" lon="-0.7526">
        <ele>11.60000038147</ele>
        <time>2015-09-12T13:19:37.000Z</time>
      </trkpt>
      <trkpt lat="45.18435" lon="-0.75257">
        <ele>11.60000038147</ele>
        <time>2015-09-12T13:19:42.000Z</time>
      </trkpt>
      <trkpt lat="45.18445" lon="-0.75253">
        <ele>11.60000038147</ele>
        <time>2015-09-12T13:19:47.000Z</time>
      </trkpt>
      <trkpt lat="45.1847" lon="-0.75246">
        <ele>11.39999961853</ele>
        <time>2015-09-12T13:20:00.000Z</time>
      </trkpt>
      <trkpt lat="45.18483" lon="-0.75242">
        <ele>10.800000190735</ele>
        <time>2015-09-12T13:20:07.000Z</time>
      </trkpt>
      <trkpt lat="45.18496" lon="-0.75237">
        <ele>10.199999809265</ele>
        <time>2015-09-12T13:20:14.000Z</time>
      </trkpt>
      <trkpt lat="45.18507" lon="-0.75237">
        <ele>9.8000001907349</ele>
        <time>2015-09-12T13:20:21.000Z</time>
      </trkpt>
      <trkpt lat="45.18521" lon="-0.75238">
        <ele>9.1999998092651</ele>
        <time>2015-09-12T13:20:29.000Z</time>
      </trkpt>
      <trkpt lat="45.18533" lon="-0.7524">
        <ele>9</ele>
        <time>2015-09-12T13:20:36.000Z</time>
      </trkpt>
      <trkpt lat="45.18549" lon="-0.75241">
        <ele>8.8000001907349</ele>
        <time>2015-09-12T13:20:44.000Z</time>
      </trkpt>
      <trkpt lat="45.18559" lon="-0.75244">
        <ele>9</ele>
        <time>2015-09-12T13:20:50.000Z</time>
      </trkpt>
      <trkpt lat="45.18586" lon="-0.75251">
        <ele>9.6000003814697</ele>
        <time>2015-09-12T13:21:03.000Z</time>
      </trkpt>
      <trkpt lat="45.186" lon="-0.75252">
        <ele>9.8000001907349</ele>
        <time>2015-09-12T13:21:10.000Z</time>
      </trkpt>
      <trkpt lat="45.18613" lon="-0.75255">
        <ele>9.6000003814697</ele>
        <time>2015-09-12T13:21:17.000Z</time>
      </trkpt>
      <trkpt lat="45.18622" lon="-0.75256">
        <ele>9.3999996185303</ele>
        <time>2015-09-12T13:21:22.000Z</time>
      </trkpt>
      <trkpt lat="45.18636" lon="-0.75258">
        <ele>9.8000001907349</ele>
        <time>2015-09-12T13:21:30.000Z</time>
      </trkpt>
      <trkpt lat="45.18646" lon="-0.75263">
        <ele>10.199999809265</ele>
        <time>2015-09-12T13:21:36.000Z</time>
      </trkpt>
      <trkpt lat="45.18661" lon="-0.75267">
        <ele>10.800000190735</ele>
        <time>2015-09-12T13:21:44.000Z</time>
      </trkpt>
      <trkpt lat="45.18675" lon="-0.75273">
        <ele>11</ele>
        <time>2015-09-12T13:21:52.000Z</time>
      </trkpt>
      <trkpt lat="45.18685" lon="-0.75274">
        <ele>11</ele>
        <time>2015-09-12T13:21:57.000Z</time>
      </trkpt>
      <trkpt lat="45.18699" lon="-0.75277">
        <ele>11.199999809265</ele>
        <time>2015-09-12T13:22:05.000Z</time>
      </trkpt>
      <trkpt lat="45.1871" lon="-0.75278">
        <ele>11.199999809265</ele>
        <time>2015-09-12T13:22:11.000Z</time>
      </trkpt>
      <trkpt lat="45.18724" lon="-0.75281">
        <ele>11.60000038147</ele>
        <time>2015-09-12T13:22:19.000Z</time>
      </trkpt>
      <trkpt lat="45.18729" lon="-0.75282">
        <ele>11.60000038147</ele>
        <time>2015-09-12T13:22:22.000Z</time>
      </trkpt>
      <trkpt lat="45.18739" lon="-0.75284">
        <ele>12</ele>
        <time>2015-09-12T13:22:29.000Z</time>
      </trkpt>
      <trkpt lat="45.18745" lon="-0.75286">
        <ele>12.199999809265</ele>
        <time>2015-09-12T13:22:33.000Z</time>
      </trkpt>
      <trkpt lat="45.18754" lon="-0.7529">
        <ele>12.60000038147</ele>
        <time>2015-09-12T13:22:41.000Z</time>
      </trkpt>
      <trkpt lat="45.18761" lon="-0.75291">
        <ele>12.800000190735</ele>
        <time>2015-09-12T13:22:48.000Z</time>
      </trkpt>
      <trkpt lat="45.18771" lon="-0.75293">
        <ele>13.199999809265</ele>
        <time>2015-09-12T13:22:57.000Z</time>
      </trkpt>
      <trkpt lat="45.18784" lon="-0.75298">
        <ele>13.60000038147</ele>
        <time>2015-09-12T13:23:09.000Z</time>
      </trkpt>
      <trkpt lat="45.18795" lon="-0.75304">
        <ele>14</ele>
        <time>2015-09-12T13:23:19.000Z</time>
      </trkpt>
      <trkpt lat="45.18806" lon="-0.75311">
        <ele>14.39999961853</ele>
        <time>2015-09-12T13:23:28.000Z</time>
      </trkpt>
      <trkpt lat="45.18815" lon="-0.75315">
        <ele>14.800000190735</ele>
        <time>2015-09-12T13:23:36.000Z</time>
      </trkpt>
      <trkpt lat="45.18826" lon="-0.75322">
        <ele>15.199999809265</ele>
        <time>2015-09-12T13:23:45.000Z</time>
      </trkpt>
      <trkpt lat="45.18838" lon="-0.75328">
        <ele>15.60000038147</ele>
        <time>2015-09-12T13:23:55.000Z</time>
      </trkpt>
      <trkpt lat="45.18849" lon="-0.75333">
        <ele>16</ele>
        <time>2015-09-12T13:24:04.000Z</time>
      </trkpt>
      <trkpt lat="45.18863" lon="-0.75336">
        <ele>16.200000762939</ele>
        <time>2015-09-12T13:24:14.000Z</time>
      </trkpt>
      <trkpt lat="45.18872" lon="-0.75336">
        <ele>16.39999961853</ele>
        <time>2015-09-12T13:24:21.000Z</time>
      </trkpt>
      <trkpt lat="45.18884" lon="-0.75336">
        <ele>16.39999961853</ele>
        <time>2015-09-12T13:24:30.000Z</time>
      </trkpt>
      <trkpt lat="45.18889" lon="-0.75339">
        <ele>16.60000038147</ele>
        <time>2015-09-12T13:24:35.000Z</time>
      </trkpt>
      <trkpt lat="45.18895" lon="-0.75352">
        <ele>16.799999237061</ele>
        <time>2015-09-12T13:24:44.000Z</time>
      </trkpt>
      <trkpt lat="45.18897" lon="-0.75368">
        <ele>17</ele>
        <time>2015-09-12T13:24:53.000Z</time>
      </trkpt>
      <trkpt lat="45.18898" lon="-0.75384">
        <ele>17.39999961853</ele>
        <time>2015-09-12T13:25:02.000Z</time>
      </trkpt>
      <trkpt lat="45.189" lon="-0.75397">
        <ele>17.799999237061</ele>
        <time>2015-09-12T13:25:10.000Z</time>
      </trkpt>
      <trkpt lat="45.18901" lon="-0.75411">
        <ele>18.200000762939</ele>
        <time>2015-09-12T13:25:18.000Z</time>
      </trkpt>
      <trkpt lat="45.18904" lon="-0.7543">
        <ele>18.60000038147</ele>
        <time>2015-09-12T13:25:28.000Z</time>
      </trkpt>
      <trkpt lat="45.18908" lon="-0.75443">
        <ele>19</ele>
        <time>2015-09-12T13:25:36.000Z</time>
      </trkpt>
      <trkpt lat="45.1891" lon="-0.75452">
        <ele>19.39999961853</ele>
        <time>2015-09-12T13:25:41.000Z</time>
      </trkpt>
      <trkpt lat="45.18912" lon="-0.75462">
        <ele>19.799999237061</ele>
        <time>2015-09-12T13:25:46.000Z</time>
      </trkpt>
      <trkpt lat="45.18915" lon="-0.75468">
        <ele>20.200000762939</ele>
        <time>2015-09-12T13:25:50.000Z</time>
      </trkpt>
      <trkpt lat="45.18915" lon="-0.75472">
        <ele>20.39999961853</ele>
        <time>2015-09-12T13:25:52.000Z</time>
      </trkpt>
      <trkpt lat="45.18923" lon="-0.75482">
        <ele>20.799999237061</ele>
        <time>2015-09-12T13:26:00.000Z</time>
      </trkpt>
      <trkpt lat="45.18924" lon="-0.75483">
        <ele>20.799999237061</ele>
        <time>2015-09-12T13:26:01.000Z</time>
      </trkpt>
      <trkpt lat="45.1893" lon="-0.75491">
        <ele>21.200000762939</ele>
        <time>2015-09-12T13:26:08.000Z</time>
      </trkpt>
      <trkpt lat="45.18941" lon="-0.75499">
        <ele>21.60000038147</ele>
        <time>2015-09-12T13:26:17.000Z</time>
      </trkpt>
      <trkpt lat="45.18951" lon="-0.75506">
        <ele>21.799999237061</ele>
        <time>2015-09-12T13:26:26.000Z</time>
      </trkpt>
      <trkpt lat="45.18962" lon="-0.75513">
        <ele>22</ele>
        <time>2015-09-12T13:26:35.000Z</time>
      </trkpt>
      <trkpt lat="45.18969" lon="-0.75517">
        <ele>22.200000762939</ele>
        <time>2015-09-12T13:26:42.000Z</time>
      </trkpt>
      <trkpt lat="45.18977" lon="-0.75521">
        <ele>22.39999961853</ele>
        <time>2015-09-12T13:26:50.000Z</time>
      </trkpt>
      <trkpt lat="45.18989" lon="-0.75529">
        <ele>22.60000038147</ele>
        <time>2015-09-12T13:27:01.000Z</time>
      </trkpt>
      <trkpt lat="45.18999" lon="-0.75535">
        <ele>22.39999961853</ele>
        <time>2015-09-12T13:27:09.000Z</time>
      </trkpt>
      <trkpt lat="45.19009" lon="-0.75543">
        <ele>22.200000762939</ele>
        <time>2015-09-12T13:27:18.000Z</time>
      </trkpt>
      <trkpt lat="45.19019" lon="-0.75551">
        <ele>22</ele>
        <time>2015-09-12T13:27:27.000Z</time>
      </trkpt>
      <trkpt lat="45.1903" lon="-0.75557">
        <ele>22</ele>
        <time>2015-09-12T13:27:36.000Z</time>
      </trkpt>
      <trkpt lat="45.1904" lon="-0.75559">
        <ele>22</ele>
        <time>2015-09-12T13:27:45.000Z</time>
      </trkpt>
      <trkpt lat="45.19043" lon="-0.75559">
        <ele>22</ele>
        <time>2015-09-12T13:27:50.000Z</time>
      </trkpt>
      <trkpt lat="45.19052" lon="-0.75562">
        <ele>21.799999237061</ele>
        <time>2015-09-12T13:27:58.000Z</time>
      </trkpt>
      <trkpt lat="45.19062" lon="-0.75558">
        <ele>21.799999237061</ele>
        <time>2015-09-12T13:28:07.000Z</time>
      </trkpt>
      <trkpt lat="45.19066" lon="-0.75557">
        <ele>21.799999237061</ele>
        <time>2015-09-12T13:28:13.000Z</time>
      </trkpt>
      <trkpt lat="45.19067" lon="-0.75551">
        <ele>21.799999237061</ele>
        <time>2015-09-12T13:28:18.000Z</time>
      </trkpt>
      <trkpt lat="45.1907" lon="-0.75544">
        <ele>21.799999237061</ele>
        <time>2015-09-12T13:28:28.000Z</time>
      </trkpt>
      <trkpt lat="45.19073" lon="-0.75537">
        <ele>21.799999237061</ele>
        <time>2015-09-12T13:28:37.000Z</time>
      </trkpt>
      <trkpt lat="45.19074" lon="-0.75529">
        <ele>22</ele>
        <time>2015-09-12T13:28:44.000Z</time>
      </trkpt>
      <trkpt lat="45.19077" lon="-0.75522">
        <ele>22</ele>
        <time>2015-09-12T13:28:53.000Z</time>
      </trkpt>
      <trkpt lat="45.1908" lon="-0.75521">
        <ele>22</ele>
        <time>2015-09-12T13:29:01.000Z</time>
      </trkpt>
      <trkpt lat="45.19081" lon="-0.75525">
        <ele>22</ele>
        <time>2015-09-12T13:29:11.000Z</time>
      </trkpt>
      <trkpt lat="45.1908" lon="-0.75522">
        <ele>22</ele>
        <time>2015-09-12T13:31:29.000Z</time>
      </trkpt>
      <trkpt lat="45.19083" lon="-0.75519">
        <ele>22</ele>
        <time>2015-09-12T13:31:38.000Z</time>
      </trkpt>
      <trkpt lat="45.19089" lon="-0.75517">
        <ele>22</ele>
        <time>2015-09-12T13:31:45.000Z</time>
      </trkpt>
      <trkpt lat="45.19097" lon="-0.75518">
        <ele>21.799999237061</ele>
        <time>2015-09-12T13:31:53.000Z</time>
      </trkpt>
      <trkpt lat="45.19107" lon="-0.75518">
        <ele>21.60000038147</ele>
        <time>2015-09-12T13:32:02.000Z</time>
      </trkpt>
      <trkpt lat="45.19109" lon="-0.75518">
        <ele>21.60000038147</ele>
        <time>2015-09-12T13:32:04.000Z</time>
      </trkpt>
      <trkpt lat="45.19113" lon="-0.75516">
        <ele>21.60000038147</ele>
        <time>2015-09-12T13:32:08.000Z</time>
      </trkpt>
      <trkpt lat="45.1912" lon="-0.75509">
        <ele>21.60000038147</ele>
        <time>2015-09-12T13:32:15.000Z</time>
      </trkpt>
      <trkpt lat="45.19129" lon="-0.75504">
        <ele>21.60000038147</ele>
        <time>2015-09-12T13:32:23.000Z</time>
      </trkpt>
      <trkpt lat="45.19141" lon="-0.75504">
        <ele>20.799999237061</ele>
        <time>2015-09-12T13:32:32.000Z</time>
      </trkpt>
      <trkpt lat="45.19151" lon="-0.75504">
        <ele>20.200000762939</ele>
        <time>2015-09-12T13:32:40.000Z</time>
      </trkpt>
      <trkpt lat="45.1916" lon="-0.75504">
        <ele>19.60000038147</ele>
        <time>2015-09-12T13:32:47.000Z</time>
      </trkpt>
      <trkpt lat="45.19172" lon="-0.75501">
        <ele>19</ele>
        <time>2015-09-12T13:32:56.000Z</time>
      </trkpt>
      <trkpt lat="45.19181" lon="-0.75491">
        <ele>18.60000038147</ele>
        <time>2015-09-12T13:33:05.000Z</time>
      </trkpt>
      <trkpt lat="45.19183" lon="-0.75481">
        <ele>18.60000038147</ele>
        <time>2015-09-12T13:33:11.000Z</time>
      </trkpt>
      <trkpt lat="45.19182" lon="-0.75464">
        <ele>18.799999237061</ele>
        <time>2015-09-12T13:33:21.000Z</time>
      </trkpt>
      <trkpt lat="45.19181" lon="-0.75447">
        <ele>19</ele>
        <time>2015-09-12T13:33:31.000Z</time>
      </trkpt>
      <trkpt lat="45.1918" lon="-0.75432">
        <ele>19.39999961853</ele>
        <time>2015-09-12T13:33:40.000Z</time>
      </trkpt>
      <trkpt lat="45.19178" lon="-0.75417">
        <ele>19.60000038147</ele>
        <time>2015-09-12T13:33:50.000Z</time>
      </trkpt>
      <trkpt lat="45.19178" lon="-0.75409">
        <ele>19.60000038147</ele>
        <time>2015-09-12T13:33:57.000Z</time>
      </trkpt>
      <trkpt lat="45.19178" lon="-0.75407">
        <ele>19.60000038147</ele>
        <time>2015-09-12T13:34:03.000Z</time>
      </trkpt>
      <trkpt lat="45.19179" lon="-0.75403">
        <ele>19.60000038147</ele>
        <time>2015-09-12T13:34:10.000Z</time>
      </trkpt>
      <trkpt lat="45.19178" lon="-0.75396">
        <ele>19.60000038147</ele>
        <time>2015-09-12T13:34:26.000Z</time>
      </trkpt>
      <trkpt lat="45.19177" lon="-0.75392">
        <ele>19.60000038147</ele>
        <time>2015-09-12T13:34:29.000Z</time>
      </trkpt>
      <trkpt lat="45.19175" lon="-0.75385">
        <ele>19.60000038147</ele>
        <time>2015-09-12T13:34:35.000Z</time>
      </trkpt>
      <trkpt lat="45.19173" lon="-0.75378">
        <ele>19.60000038147</ele>
        <time>2015-09-12T13:34:40.000Z</time>
      </trkpt>
      <trkpt lat="45.19172" lon="-0.75376">
        <ele>19.60000038147</ele>
        <time>2015-09-12T13:34:42.000Z</time>
      </trkpt>
      <trkpt lat="45.1917" lon="-0.75361">
        <ele>19.39999961853</ele>
        <time>2015-09-12T13:34:51.000Z</time>
      </trkpt>
      <trkpt lat="45.19166" lon="-0.75348">
        <ele>19.200000762939</ele>
        <time>2015-09-12T13:35:00.000Z</time>
      </trkpt>
      <trkpt lat="45.19162" lon="-0.75333">
        <ele>18.799999237061</ele>
        <time>2015-09-12T13:35:10.000Z</time>
      </trkpt>
      <trkpt lat="45.19161" lon="-0.75321">
        <ele>18.39999961853</ele>
        <time>2015-09-12T13:35:17.000Z</time>
      </trkpt>
      <trkpt lat="45.19158" lon="-0.75306">
        <ele>18</ele>
        <time>2015-09-12T13:35:26.000Z</time>
      </trkpt>
      <trkpt lat="45.19154" lon="-0.75291">
        <ele>18</ele>
        <time>2015-09-12T13:35:35.000Z</time>
      </trkpt>
      <trkpt lat="45.19151" lon="-0.75278">
        <ele>18</ele>
        <time>2015-09-12T13:35:43.000Z</time>
      </trkpt>
      <trkpt lat="45.19148" lon="-0.75262">
        <ele>17.799999237061</ele>
        <time>2015-09-12T13:35:50.000Z</time>
      </trkpt>
      <trkpt lat="45.19143" lon="-0.75239">
        <ele>17.200000762939</ele>
        <time>2015-09-12T13:35:57.000Z</time>
      </trkpt>
      <trkpt lat="45.19143" lon="-0.75236">
        <ele>17.200000762939</ele>
        <time>2015-09-12T13:35:58.000Z</time>
      </trkpt>
      <trkpt lat="45.19143" lon="-0.75233">
        <ele>17.200000762939</ele>
        <time>2015-09-12T13:36:02.000Z</time>
      </trkpt>
      <trkpt lat="45.19144" lon="-0.75232">
        <ele>17</ele>
        <time>2015-09-12T13:36:03.000Z</time>
      </trkpt>
      <trkpt lat="45.19137" lon="-0.75214">
        <ele>16.799999237061</ele>
        <time>2015-09-12T13:36:12.000Z</time>
      </trkpt>
      <trkpt lat="45.19133" lon="-0.75199">
        <ele>16.60000038147</ele>
        <time>2015-09-12T13:36:18.000Z</time>
      </trkpt>
      <trkpt lat="45.19128" lon="-0.75184">
        <ele>16.60000038147</ele>
        <time>2015-09-12T13:36:24.000Z</time>
      </trkpt>
      <trkpt lat="45.19124" lon="-0.75167">
        <ele>16.39999961853</ele>
        <time>2015-09-12T13:36:31.000Z</time>
      </trkpt>
      <trkpt lat="45.1912" lon="-0.75152">
        <ele>16.200000762939</ele>
        <time>2015-09-12T13:36:37.000Z</time>
      </trkpt>
      <trkpt lat="45.19115" lon="-0.75139">
        <ele>15.800000190735</ele>
        <time>2015-09-12T13:36:42.000Z</time>
      </trkpt>
      <trkpt lat="45.19109" lon="-0.75115">
        <ele>14.60000038147</ele>
        <time>2015-09-12T13:36:51.000Z</time>
      </trkpt>
      <trkpt lat="45.19104" lon="-0.75097">
        <ele>13.800000190735</ele>
        <time>2015-09-12T13:36:58.000Z</time>
      </trkpt>
      <trkpt lat="45.19101" lon="-0.75075">
        <ele>12.800000190735</ele>
        <time>2015-09-12T13:37:07.000Z</time>
      </trkpt>
      <trkpt lat="45.19099" lon="-0.75057">
        <ele>12.39999961853</ele>
        <time>2015-09-12T13:37:14.000Z</time>
      </trkpt>
      <trkpt lat="45.19096" lon="-0.75035">
        <ele>12</ele>
        <time>2015-09-12T13:37:22.000Z</time>
      </trkpt>
      <trkpt lat="45.19094" lon="-0.75016">
        <ele>11.39999961853</ele>
        <time>2015-09-12T13:37:29.000Z</time>
      </trkpt>
      <trkpt lat="45.19092" lon="-0.7499">
        <ele>11.199999809265</ele>
        <time>2015-09-12T13:37:38.000Z</time>
      </trkpt>
      <trkpt lat="45.19089" lon="-0.74973">
        <ele>11</ele>
        <time>2015-09-12T13:37:44.000Z</time>
      </trkpt>
      <trkpt lat="45.19091" lon="-0.74952">
        <ele>10.60000038147</ele>
        <time>2015-09-12T13:37:51.000Z</time>
      </trkpt>
      <trkpt lat="45.19097" lon="-0.74941">
        <ele>10.39999961853</ele>
        <time>2015-09-12T13:37:56.000Z</time>
      </trkpt>
      <trkpt lat="45.19105" lon="-0.74936">
        <ele>10.199999809265</ele>
        <time>2015-09-12T13:38:01.000Z</time>
      </trkpt>
      <trkpt lat="45.19116" lon="-0.7493">
        <ele>9.8000001907349</ele>
        <time>2015-09-12T13:38:07.000Z</time>
      </trkpt>
      <trkpt lat="45.19126" lon="-0.74924">
        <ele>9.3999996185303</ele>
        <time>2015-09-12T13:38:13.000Z</time>
      </trkpt>
      <trkpt lat="45.19137" lon="-0.7492">
        <ele>9.1999998092651</ele>
        <time>2015-09-12T13:38:19.000Z</time>
      </trkpt>
      <trkpt lat="45.19147" lon="-0.74916">
        <ele>8.8000001907349</ele>
        <time>2015-09-12T13:38:25.000Z</time>
      </trkpt>
      <trkpt lat="45.19156" lon="-0.74912">
        <ele>8.6000003814697</ele>
        <time>2015-09-12T13:38:30.000Z</time>
      </trkpt>
      <trkpt lat="45.1917" lon="-0.74908">
        <ele>8.1999998092651</ele>
        <time>2015-09-12T13:38:37.000Z</time>
      </trkpt>
      <trkpt lat="45.19181" lon="-0.74907">
        <ele>8</ele>
        <time>2015-09-12T13:38:42.000Z</time>
      </trkpt>
      <trkpt lat="45.19183" lon="-0.74906">
        <ele>8</ele>
        <time>2015-09-12T13:38:43.000Z</time>
      </trkpt>
      <trkpt lat="45.19195" lon="-0.74906">
        <ele>7.5999999046326</ele>
        <time>2015-09-12T13:38:49.000Z</time>
      </trkpt>
      <trkpt lat="45.19214" lon="-0.74903">
        <ele>7</ele>
        <time>2015-09-12T13:38:58.000Z</time>
      </trkpt>
      <trkpt lat="45.19228" lon="-0.74902">
        <ele>6.5999999046326</ele>
        <time>2015-09-12T13:39:05.000Z</time>
      </trkpt>
      <trkpt lat="45.1924" lon="-0.74902">
        <ele>6.4000000953674</ele>
        <time>2015-09-12T13:39:11.000Z</time>
      </trkpt>
      <trkpt lat="45.19257" lon="-0.74901">
        <ele>6</ele>
        <time>2015-09-12T13:39:19.000Z</time>
      </trkpt>
      <trkpt lat="45.19266" lon="-0.74903">
        <ele>5.5999999046326</ele>
        <time>2015-09-12T13:39:24.000Z</time>
      </trkpt>
      <trkpt lat="45.19279" lon="-0.7491">
        <ele>5.4000000953674</ele>
        <time>2015-09-12T13:39:30.000Z</time>
      </trkpt>
      <trkpt lat="45.19292" lon="-0.74917">
        <ele>5.4000000953674</ele>
        <time>2015-09-12T13:39:36.000Z</time>
      </trkpt>
      <trkpt lat="45.19301" lon="-0.74914">
        <ele>5.4000000953674</ele>
        <time>2015-09-12T13:39:41.000Z</time>
      </trkpt>
      <trkpt lat="45.19313" lon="-0.74911">
        <ele>5.5999999046326</ele>
        <time>2015-09-12T13:39:47.000Z</time>
      </trkpt>
      <trkpt lat="45.19342" lon="-0.74916">
        <ele>6</ele>
        <time>2015-09-12T13:40:02.000Z</time>
      </trkpt>
      <trkpt lat="45.19355" lon="-0.74919">
        <ele>6.4000000953674</ele>
        <time>2015-09-12T13:40:09.000Z</time>
      </trkpt>
      <trkpt lat="45.19368" lon="-0.74921">
        <ele>7.1999998092651</ele>
        <time>2015-09-12T13:40:16.000Z</time>
      </trkpt>
      <trkpt lat="45.1938" lon="-0.74923">
        <ele>7.8000001907349</ele>
        <time>2015-09-12T13:40:23.000Z</time>
      </trkpt>
      <trkpt lat="45.19391" lon="-0.74925">
        <ele>8.1999998092651</ele>
        <time>2015-09-12T13:40:29.000Z</time>
      </trkpt>
      <trkpt lat="45.19403" lon="-0.74927">
        <ele>8.8000001907349</ele>
        <time>2015-09-12T13:40:36.000Z</time>
      </trkpt>
      <trkpt lat="45.19405" lon="-0.74927">
        <ele>8.8000001907349</ele>
        <time>2015-09-12T13:40:38.000Z</time>
      </trkpt>
      <trkpt lat="45.19413" lon="-0.74932">
        <ele>9.3999996185303</ele>
        <time>2015-09-12T13:40:44.000Z</time>
      </trkpt>
      <trkpt lat="45.1942" lon="-0.74934">
        <ele>9.8000001907349</ele>
        <time>2015-09-12T13:40:49.000Z</time>
      </trkpt>
      <trkpt lat="45.19432" lon="-0.74938">
        <ele>10.39999961853</ele>
        <time>2015-09-12T13:40:56.000Z</time>
      </trkpt>
      <trkpt lat="45.19449" lon="-0.74941">
        <ele>11.199999809265</ele>
        <time>2015-09-12T13:41:05.000Z</time>
      </trkpt>
      <trkpt lat="45.19461" lon="-0.74944">
        <ele>11.60000038147</ele>
        <time>2015-09-12T13:41:11.000Z</time>
      </trkpt>
      <trkpt lat="45.19474" lon="-0.74946">
        <ele>12.199999809265</ele>
        <time>2015-09-12T13:41:18.000Z</time>
      </trkpt>
      <trkpt lat="45.19486" lon="-0.74948">
        <ele>12.39999961853</ele>
        <time>2015-09-12T13:41:25.000Z</time>
      </trkpt>
      <trkpt lat="45.19497" lon="-0.74951">
        <ele>12.60000038147</ele>
        <time>2015-09-12T13:41:31.000Z</time>
      </trkpt>
      <trkpt lat="45.19509" lon="-0.74953">
        <ele>12.60000038147</ele>
        <time>2015-09-12T13:41:38.000Z</time>
      </trkpt>
      <trkpt lat="45.19523" lon="-0.74956">
        <ele>12.60000038147</ele>
        <time>2015-09-12T13:41:45.000Z</time>
      </trkpt>
      <trkpt lat="45.19533" lon="-0.7496">
        <ele>12.800000190735</ele>
        <time>2015-09-12T13:41:51.000Z</time>
      </trkpt>
      <trkpt lat="45.19544" lon="-0.74961">
        <ele>12.800000190735</ele>
        <time>2015-09-12T13:41:57.000Z</time>
      </trkpt>
      <trkpt lat="45.19556" lon="-0.74963">
        <ele>13</ele>
        <time>2015-09-12T13:42:04.000Z</time>
      </trkpt>
      <trkpt lat="45.19566" lon="-0.74966">
        <ele>13.199999809265</ele>
        <time>2015-09-12T13:42:09.000Z</time>
      </trkpt>
      <trkpt lat="45.19578" lon="-0.74969">
        <ele>13.39999961853</ele>
        <time>2015-09-12T13:42:15.000Z</time>
      </trkpt>
      <trkpt lat="45.1959" lon="-0.74971">
        <ele>13.60000038147</ele>
        <time>2015-09-12T13:42:21.000Z</time>
      </trkpt>
      <trkpt lat="45.19603" lon="-0.7497">
        <ele>13.60000038147</ele>
        <time>2015-09-12T13:42:28.000Z</time>
      </trkpt>
      <trkpt lat="45.19606" lon="-0.74969">
        <ele>13.60000038147</ele>
        <time>2015-09-12T13:42:30.000Z</time>
      </trkpt>
      <trkpt lat="45.19612" lon="-0.74968">
        <ele>13.800000190735</ele>
        <time>2015-09-12T13:42:33.000Z</time>
      </trkpt>
      <trkpt lat="45.19619" lon="-0.74961">
        <ele>13.60000038147</ele>
        <time>2015-09-12T13:42:38.000Z</time>
      </trkpt>
      <trkpt lat="45.19629" lon="-0.74956">
        <ele>13.60000038147</ele>
        <time>2015-09-12T13:42:43.000Z</time>
      </trkpt>
      <trkpt lat="45.19638" lon="-0.74948">
        <ele>13.39999961853</ele>
        <time>2015-09-12T13:42:48.000Z</time>
      </trkpt>
      <trkpt lat="45.19648" lon="-0.74939">
        <ele>13.199999809265</ele>
        <time>2015-09-12T13:42:53.000Z</time>
      </trkpt>
      <trkpt lat="45.19656" lon="-0.74929">
        <ele>13</ele>
        <time>2015-09-12T13:42:58.000Z</time>
      </trkpt>
      <trkpt lat="45.19667" lon="-0.74919">
        <ele>12.800000190735</ele>
        <time>2015-09-12T13:43:04.000Z</time>
      </trkpt>
      <trkpt lat="45.19678" lon="-0.74912">
        <ele>12.60000038147</ele>
        <time>2015-09-12T13:43:10.000Z</time>
      </trkpt>
      <trkpt lat="45.19694" lon="-0.74907">
        <ele>12.39999961853</ele>
        <time>2015-09-12T13:43:18.000Z</time>
      </trkpt>
      <trkpt lat="45.19706" lon="-0.74907">
        <ele>12.60000038147</ele>
        <time>2015-09-12T13:43:24.000Z</time>
      </trkpt>
      <trkpt lat="45.19719" lon="-0.74907">
        <ele>13</ele>
        <time>2015-09-12T13:43:31.000Z</time>
      </trkpt>
      <trkpt lat="45.19732" lon="-0.74908">
        <ele>13.39999961853</ele>
        <time>2015-09-12T13:43:38.000Z</time>
      </trkpt>
      <trkpt lat="45.19743" lon="-0.74911">
        <ele>14</ele>
        <time>2015-09-12T13:43:44.000Z</time>
      </trkpt>
      <trkpt lat="45.19754" lon="-0.74911">
        <ele>14.39999961853</ele>
        <time>2015-09-12T13:43:49.000Z</time>
      </trkpt>
      <trkpt lat="45.19765" lon="-0.74911">
        <ele>14.800000190735</ele>
        <time>2015-09-12T13:43:55.000Z</time>
      </trkpt>
      <trkpt lat="45.19777" lon="-0.7491">
        <ele>15</ele>
        <time>2015-09-12T13:44:01.000Z</time>
      </trkpt>
      <trkpt lat="45.19791" lon="-0.74913">
        <ele>15.199999809265</ele>
        <time>2015-09-12T13:44:08.000Z</time>
      </trkpt>
      <trkpt lat="45.19805" lon="-0.74913">
        <ele>15.39999961853</ele>
        <time>2015-09-12T13:44:15.000Z</time>
      </trkpt>
      <trkpt lat="45.19816" lon="-0.74914">
        <ele>15.60000038147</ele>
        <time>2015-09-12T13:44:21.000Z</time>
      </trkpt>
      <trkpt lat="45.19825" lon="-0.74915">
        <ele>15.60000038147</ele>
        <time>2015-09-12T13:44:26.000Z</time>
      </trkpt>
      <trkpt lat="45.19834" lon="-0.74916">
        <ele>15.800000190735</ele>
        <time>2015-09-12T13:44:31.000Z</time>
      </trkpt>
      <trkpt lat="45.19846" lon="-0.74918">
        <ele>16</ele>
        <time>2015-09-12T13:44:37.000Z</time>
      </trkpt>
      <trkpt lat="45.19854" lon="-0.74921">
        <ele>16</ele>
        <time>2015-09-12T13:44:42.000Z</time>
      </trkpt>
      <trkpt lat="45.19863" lon="-0.74906">
        <ele>16</ele>
        <time>2015-09-12T13:44:48.000Z</time>
      </trkpt>
      <trkpt lat="45.19868" lon="-0.74896">
        <ele>16</ele>
        <time>2015-09-12T13:44:52.000Z</time>
      </trkpt>
      <trkpt lat="45.19879" lon="-0.74885">
        <ele>16</ele>
        <time>2015-09-12T13:45:00.000Z</time>
      </trkpt>
      <trkpt lat="45.19885" lon="-0.74887">
        <ele>15.800000190735</ele>
        <time>2015-09-12T13:45:03.000Z</time>
      </trkpt>
      <trkpt lat="45.19895" lon="-0.7489">
        <ele>15.60000038147</ele>
        <time>2015-09-12T13:45:08.000Z</time>
      </trkpt>
      <trkpt lat="45.19897" lon="-0.7489">
        <ele>15.60000038147</ele>
        <time>2015-09-12T13:45:09.000Z</time>
      </trkpt>
      <trkpt lat="45.19902" lon="-0.74892">
        <ele>15.39999961853</ele>
        <time>2015-09-12T13:45:13.000Z</time>
      </trkpt>
      <trkpt lat="45.19908" lon="-0.74891">
        <ele>15.199999809265</ele>
        <time>2015-09-12T13:45:20.000Z</time>
      </trkpt>
      <trkpt lat="45.19909" lon="-0.74892">
        <ele>15.199999809265</ele>
        <time>2015-09-12T13:45:21.000Z</time>
      </trkpt>
      <trkpt lat="45.19914" lon="-0.74893">
        <ele>15.199999809265</ele>
        <time>2015-09-12T13:45:24.000Z</time>
      </trkpt>
      <trkpt lat="45.1992" lon="-0.74893">
        <ele>15</ele>
        <time>2015-09-12T13:45:28.000Z</time>
      </trkpt>
      <trkpt lat="45.19921" lon="-0.74894">
        <ele>15</ele>
        <time>2015-09-12T13:45:29.000Z</time>
      </trkpt>
      <trkpt lat="45.19928" lon="-0.74897">
        <ele>14.800000190735</ele>
        <time>2015-09-12T13:45:34.000Z</time>
      </trkpt>
      <trkpt lat="45.19928" lon="-0.74898">
        <ele>14.800000190735</ele>
        <time>2015-09-12T13:45:35.000Z</time>
      </trkpt>
      <trkpt lat="45.19933" lon="-0.74899">
        <ele>14.60000038147</ele>
        <time>2015-09-12T13:45:41.000Z</time>
      </trkpt>
      <trkpt lat="45.19934" lon="-0.74899">
        <ele>14.60000038147</ele>
        <time>2015-09-12T13:45:42.000Z</time>
      </trkpt>
      <trkpt lat="45.19936" lon="-0.74897">
        <ele>14.60000038147</ele>
        <time>2015-09-12T13:45:45.000Z</time>
      </trkpt>
      <trkpt lat="45.19927" lon="-0.74889">
        <ele>14.800000190735</ele>
        <time>2015-09-12T13:48:06.000Z</time>
      </trkpt>
      <trkpt lat="45.19927" lon="-0.74891">
        <ele>14.800000190735</ele>
        <time>2015-09-12T13:48:23.000Z</time>
      </trkpt>
      <trkpt lat="45.19934" lon="-0.7489">
        <ele>14.60000038147</ele>
        <time>2015-09-12T13:50:48.000Z</time>
      </trkpt>
      <trkpt lat="45.19937" lon="-0.74894">
        <ele>14.60000038147</ele>
        <time>2015-09-12T13:51:04.000Z</time>
      </trkpt>
      <trkpt lat="45.19941" lon="-0.74896">
        <ele>14.39999961853</ele>
        <time>2015-09-12T13:51:08.000Z</time>
      </trkpt>
      <trkpt lat="45.19945" lon="-0.74897">
        <ele>14.39999961853</ele>
        <time>2015-09-12T13:51:11.000Z</time>
      </trkpt>
      <trkpt lat="45.19953" lon="-0.74902">
        <ele>14.199999809265</ele>
        <time>2015-09-12T13:51:17.000Z</time>
      </trkpt>
      <trkpt lat="45.1996" lon="-0.74908">
        <ele>14.199999809265</ele>
        <time>2015-09-12T13:51:21.000Z</time>
      </trkpt>
      <trkpt lat="45.19973" lon="-0.74922">
        <ele>14</ele>
        <time>2015-09-12T13:51:29.000Z</time>
      </trkpt>
      <trkpt lat="45.19982" lon="-0.7493">
        <ele>13.800000190735</ele>
        <time>2015-09-12T13:51:35.000Z</time>
      </trkpt>
      <trkpt lat="45.19985" lon="-0.74931">
        <ele>13.60000038147</ele>
        <time>2015-09-12T13:51:37.000Z</time>
      </trkpt>
      <trkpt lat="45.19991" lon="-0.7493">
        <ele>13.39999961853</ele>
        <time>2015-09-12T13:51:42.000Z</time>
      </trkpt>
      <trkpt lat="45.19994" lon="-0.7492">
        <ele>13.199999809265</ele>
        <time>2015-09-12T13:51:46.000Z</time>
      </trkpt>
      <trkpt lat="45.19995" lon="-0.74909">
        <ele>13</ele>
        <time>2015-09-12T13:51:50.000Z</time>
      </trkpt>
      <trkpt lat="45.19998" lon="-0.74899">
        <ele>12.800000190735</ele>
        <time>2015-09-12T13:51:54.000Z</time>
      </trkpt>
      <trkpt lat="45.19999" lon="-0.74896">
        <ele>12.800000190735</ele>
        <time>2015-09-12T13:51:55.000Z</time>
      </trkpt>
      <trkpt lat="45.2" lon="-0.7489">
        <ele>12.60000038147</ele>
        <time>2015-09-12T13:51:57.000Z</time>
      </trkpt>
      <trkpt lat="45.20002" lon="-0.74882">
        <ele>12.60000038147</ele>
        <time>2015-09-12T13:52:00.000Z</time>
      </trkpt>
      <trkpt lat="45.20003" lon="-0.7488">
        <ele>12.60000038147</ele>
        <time>2015-09-12T13:52:01.000Z</time>
      </trkpt>
      <trkpt lat="45.2001" lon="-0.74855">
        <ele>12.199999809265</ele>
        <time>2015-09-12T13:52:10.000Z</time>
      </trkpt>
      <trkpt lat="45.20013" lon="-0.74838">
        <ele>12.199999809265</ele>
        <time>2015-09-12T13:52:16.000Z</time>
      </trkpt>
      <trkpt lat="45.20014" lon="-0.74821">
        <ele>12.199999809265</ele>
        <time>2015-09-12T13:52:22.000Z</time>
      </trkpt>
      <trkpt lat="45.20014" lon="-0.74813">
        <ele>12.199999809265</ele>
        <time>2015-09-12T13:52:25.000Z</time>
      </trkpt>
      <trkpt lat="45.20016" lon="-0.74799">
        <ele>12</ele>
        <time>2015-09-12T13:52:30.000Z</time>
      </trkpt>
      <trkpt lat="45.20015" lon="-0.7479">
        <ele>11.800000190735</ele>
        <time>2015-09-12T13:52:33.000Z</time>
      </trkpt>
      <trkpt lat="45.20019" lon="-0.74766">
        <ele>11.39999961853</ele>
        <time>2015-09-12T13:52:41.000Z</time>
      </trkpt>
      <trkpt lat="45.20022" lon="-0.74762">
        <ele>11.39999961853</ele>
        <time>2015-09-12T13:52:43.000Z</time>
      </trkpt>
      <trkpt lat="45.20028" lon="-0.74762">
        <ele>11.199999809265</ele>
        <time>2015-09-12T13:52:47.000Z</time>
      </trkpt>
      <trkpt lat="45.2004" lon="-0.74764">
        <ele>10.800000190735</ele>
        <time>2015-09-12T13:52:54.000Z</time>
      </trkpt>
      <trkpt lat="45.20049" lon="-0.74766">
        <ele>10.39999961853</ele>
        <time>2015-09-12T13:52:59.000Z</time>
      </trkpt>
      <trkpt lat="45.20064" lon="-0.7477">
        <ele>9.3999996185303</ele>
        <time>2015-09-12T13:53:06.000Z</time>
      </trkpt>
      <trkpt lat="45.20074" lon="-0.74774">
        <ele>8.8000001907349</ele>
        <time>2015-09-12T13:53:11.000Z</time>
      </trkpt>
      <trkpt lat="45.20082" lon="-0.74776">
        <ele>8.6000003814697</ele>
        <time>2015-09-12T13:53:15.000Z</time>
      </trkpt>
      <trkpt lat="45.20096" lon="-0.74785">
        <ele>8</ele>
        <time>2015-09-12T13:53:22.000Z</time>
      </trkpt>
      <trkpt lat="45.20099" lon="-0.74786">
        <ele>8</ele>
        <time>2015-09-12T13:53:23.000Z</time>
      </trkpt>
      <trkpt lat="45.20113" lon="-0.74791">
        <ele>7.4000000953674</ele>
        <time>2015-09-12T13:53:30.000Z</time>
      </trkpt>
      <trkpt lat="45.20127" lon="-0.74797">
        <ele>6.8000001907349</ele>
        <time>2015-09-12T13:53:37.000Z</time>
      </trkpt>
      <trkpt lat="45.2014" lon="-0.74802">
        <ele>6.8000001907349</ele>
        <time>2015-09-12T13:53:43.000Z</time>
      </trkpt>
      <trkpt lat="45.20154" lon="-0.74807">
        <ele>6.8000001907349</ele>
        <time>2015-09-12T13:53:50.000Z</time>
      </trkpt>
      <trkpt lat="45.2017" lon="-0.74813">
        <ele>6.5999999046326</ele>
        <time>2015-09-12T13:53:57.000Z</time>
      </trkpt>
      <trkpt lat="45.20178" lon="-0.74816">
        <ele>6.5999999046326</ele>
        <time>2015-09-12T13:54:01.000Z</time>
      </trkpt>
      <trkpt lat="45.20195" lon="-0.74822">
        <ele>6.4000000953674</ele>
        <time>2015-09-12T13:54:08.000Z</time>
      </trkpt>
      <trkpt lat="45.20208" lon="-0.74828">
        <ele>6.5999999046326</ele>
        <time>2015-09-12T13:54:14.000Z</time>
      </trkpt>
      <trkpt lat="45.20222" lon="-0.74833">
        <ele>6.8000001907349</ele>
        <time>2015-09-12T13:54:20.000Z</time>
      </trkpt>
      <trkpt lat="45.2024" lon="-0.74838">
        <ele>7.1999998092651</ele>
        <time>2015-09-12T13:54:28.000Z</time>
      </trkpt>
      <trkpt lat="45.20252" lon="-0.74843">
        <ele>7.4000000953674</ele>
        <time>2015-09-12T13:54:34.000Z</time>
      </trkpt>
      <trkpt lat="45.20264" lon="-0.74846">
        <ele>7.1999998092651</ele>
        <time>2015-09-12T13:54:39.000Z</time>
      </trkpt>
      <trkpt lat="45.20278" lon="-0.74851">
        <ele>6.8000001907349</ele>
        <time>2015-09-12T13:54:45.000Z</time>
      </trkpt>
      <trkpt lat="45.20287" lon="-0.74854">
        <ele>6.5999999046326</ele>
        <time>2015-09-12T13:54:49.000Z</time>
      </trkpt>
      <trkpt lat="45.20306" lon="-0.74861">
        <ele>6</ele>
        <time>2015-09-12T13:54:57.000Z</time>
      </trkpt>
      <trkpt lat="45.20321" lon="-0.74868">
        <ele>5.5999999046326</ele>
        <time>2015-09-12T13:55:04.000Z</time>
      </trkpt>
      <trkpt lat="45.20333" lon="-0.74872">
        <ele>5.5999999046326</ele>
        <time>2015-09-12T13:55:09.000Z</time>
      </trkpt>
      <trkpt lat="45.20349" lon="-0.74879">
        <ele>5.4000000953674</ele>
        <time>2015-09-12T13:55:16.000Z</time>
      </trkpt>
      <trkpt lat="45.2036" lon="-0.74882">
        <ele>5.1999998092651</ele>
        <time>2015-09-12T13:55:21.000Z</time>
      </trkpt>
      <trkpt lat="45.20371" lon="-0.74884">
        <ele>5</ele>
        <time>2015-09-12T13:55:26.000Z</time>
      </trkpt>
      <trkpt lat="45.20386" lon="-0.7489">
        <ele>4.8000001907349</ele>
        <time>2015-09-12T13:55:32.000Z</time>
      </trkpt>
      <trkpt lat="45.20403" lon="-0.74896">
        <ele>4.4000000953674</ele>
        <time>2015-09-12T13:55:39.000Z</time>
      </trkpt>
      <trkpt lat="45.20422" lon="-0.74905">
        <ele>4</ele>
        <time>2015-09-12T13:55:47.000Z</time>
      </trkpt>
      <trkpt lat="45.2043" lon="-0.74907">
        <ele>3.7999999523163</ele>
        <time>2015-09-12T13:55:51.000Z</time>
      </trkpt>
      <trkpt lat="45.20443" lon="-0.74912">
        <ele>3.5999999046326</ele>
        <time>2015-09-12T13:55:57.000Z</time>
      </trkpt>
      <trkpt lat="45.20461" lon="-0.74919">
        <ele>3.4000000953674</ele>
        <time>2015-09-12T13:56:05.000Z</time>
      </trkpt>
      <trkpt lat="45.20475" lon="-0.74925">
        <ele>3.2000000476837</ele>
        <time>2015-09-12T13:56:11.000Z</time>
      </trkpt>
      <trkpt lat="45.20491" lon="-0.74928">
        <ele>3.2000000476837</ele>
        <time>2015-09-12T13:56:17.000Z</time>
      </trkpt>
      <trkpt lat="45.20495" lon="-0.74918">
        <ele>3</ele>
        <time>2015-09-12T13:56:21.000Z</time>
      </trkpt>
      <trkpt lat="45.20497" lon="-0.74892">
        <ele>2.5999999046326</ele>
        <time>2015-09-12T13:56:29.000Z</time>
      </trkpt>
      <trkpt lat="45.20497" lon="-0.7487">
        <ele>2.7999999523163</ele>
        <time>2015-09-12T13:56:35.000Z</time>
      </trkpt>
      <trkpt lat="45.20498" lon="-0.74849">
        <ele>3</ele>
        <time>2015-09-12T13:56:41.000Z</time>
      </trkpt>
      <trkpt lat="45.20497" lon="-0.74846">
        <ele>3</ele>
        <time>2015-09-12T13:56:42.000Z</time>
      </trkpt>
      <trkpt lat="45.20496" lon="-0.74827">
        <ele>3</ele>
        <time>2015-09-12T13:56:47.000Z</time>
      </trkpt>
      <trkpt lat="45.20494" lon="-0.74815">
        <ele>3</ele>
        <time>2015-09-12T13:56:51.000Z</time>
      </trkpt>
      <trkpt lat="45.20489" lon="-0.74795">
        <ele>2.7999999523163</ele>
        <time>2015-09-12T13:56:57.000Z</time>
      </trkpt>
      <trkpt lat="45.20484" lon="-0.7478">
        <ele>2.7999999523163</ele>
        <time>2015-09-12T13:57:03.000Z</time>
      </trkpt>
      <trkpt lat="45.20477" lon="-0.74765">
        <ele>3.2000000476837</ele>
        <time>2015-09-12T13:57:09.000Z</time>
      </trkpt>
      <trkpt lat="45.20467" lon="-0.74753">
        <ele>3.4000000953674</ele>
        <time>2015-09-12T13:57:15.000Z</time>
      </trkpt>
      <trkpt lat="45.20456" lon="-0.74741">
        <ele>4</ele>
        <time>2015-09-12T13:57:21.000Z</time>
      </trkpt>
      <trkpt lat="45.20444" lon="-0.74721">
        <ele>4.1999998092651</ele>
        <time>2015-09-12T13:57:29.000Z</time>
      </trkpt>
      <trkpt lat="45.20435" lon="-0.74711">
        <ele>4</ele>
        <time>2015-09-12T13:57:34.000Z</time>
      </trkpt>
      <trkpt lat="45.20418" lon="-0.74703">
        <ele>3.7999999523163</ele>
        <time>2015-09-12T13:57:41.000Z</time>
      </trkpt>
      <trkpt lat="45.20404" lon="-0.74699">
        <ele>4</ele>
        <time>2015-09-12T13:57:47.000Z</time>
      </trkpt>
      <trkpt lat="45.20393" lon="-0.74696">
        <ele>4.1999998092651</ele>
        <time>2015-09-12T13:57:52.000Z</time>
      </trkpt>
      <trkpt lat="45.20377" lon="-0.74692">
        <ele>4.5999999046326</ele>
        <time>2015-09-12T13:57:59.000Z</time>
      </trkpt>
      <trkpt lat="45.20362" lon="-0.74687">
        <ele>5</ele>
        <time>2015-09-12T13:58:05.000Z</time>
      </trkpt>
      <trkpt lat="45.20351" lon="-0.74685">
        <ele>5.1999998092651</ele>
        <time>2015-09-12T13:58:09.000Z</time>
      </trkpt>
      <trkpt lat="45.20339" lon="-0.74683">
        <ele>5.4000000953674</ele>
        <time>2015-09-12T13:58:14.000Z</time>
      </trkpt>
      <trkpt lat="45.20325" lon="-0.7468">
        <ele>6</ele>
        <time>2015-09-12T13:58:20.000Z</time>
      </trkpt>
      <trkpt lat="45.20311" lon="-0.74677">
        <ele>6.4000000953674</ele>
        <time>2015-09-12T13:58:26.000Z</time>
      </trkpt>
      <trkpt lat="45.20297" lon="-0.74672">
        <ele>7</ele>
        <time>2015-09-12T13:58:31.000Z</time>
      </trkpt>
      <trkpt lat="45.20284" lon="-0.74668">
        <ele>6.8000001907349</ele>
        <time>2015-09-12T13:58:36.000Z</time>
      </trkpt>
      <trkpt lat="45.20267" lon="-0.74663">
        <ele>6.4000000953674</ele>
        <time>2015-09-12T13:58:43.000Z</time>
      </trkpt>
      <trkpt lat="45.20253" lon="-0.7466">
        <ele>6.1999998092651</ele>
        <time>2015-09-12T13:58:49.000Z</time>
      </trkpt>
      <trkpt lat="45.20246" lon="-0.74657">
        <ele>6.1999998092651</ele>
        <time>2015-09-12T13:58:54.000Z</time>
      </trkpt>
      <trkpt lat="45.20242" lon="-0.74656">
        <ele>6.1999998092651</ele>
        <time>2015-09-12T13:59:02.000Z</time>
      </trkpt>
      <trkpt lat="45.20239" lon="-0.74655">
        <ele>6.1999998092651</ele>
        <time>2015-09-12T13:59:10.000Z</time>
      </trkpt>
      <trkpt lat="45.20234" lon="-0.74654">
        <ele>6</ele>
        <time>2015-09-12T13:59:18.000Z</time>
      </trkpt>
      <trkpt lat="45.20231" lon="-0.74654">
        <ele>6</ele>
        <time>2015-09-12T13:59:24.000Z</time>
      </trkpt>
      <trkpt lat="45.20228" lon="-0.74653">
        <ele>6</ele>
        <time>2015-09-12T13:59:30.000Z</time>
      </trkpt>
      <trkpt lat="45.20223" lon="-0.74651">
        <ele>6</ele>
        <time>2015-09-12T13:59:38.000Z</time>
      </trkpt>
      <trkpt lat="45.2022" lon="-0.7465">
        <ele>6</ele>
        <time>2015-09-12T13:59:44.000Z</time>
      </trkpt>
      <trkpt lat="45.20214" lon="-0.74648">
        <ele>5.8000001907349</ele>
        <time>2015-09-12T13:59:52.000Z</time>
      </trkpt>
      <trkpt lat="45.20207" lon="-0.74646">
        <ele>5.8000001907349</ele>
        <time>2015-09-12T14:00:00.000Z</time>
      </trkpt>
      <trkpt lat="45.20201" lon="-0.74644">
        <ele>5.8000001907349</ele>
        <time>2015-09-12T14:00:08.000Z</time>
      </trkpt>
      <trkpt lat="45.20199" lon="-0.74643">
        <ele>5.8000001907349</ele>
        <time>2015-09-12T14:00:14.000Z</time>
      </trkpt>
      <trkpt lat="45.20193" lon="-0.74641">
        <ele>5.8000001907349</ele>
        <time>2015-09-12T14:00:48.000Z</time>
      </trkpt>
      <trkpt lat="45.20192" lon="-0.74639">
        <ele>5.8000001907349</ele>
        <time>2015-09-12T14:00:56.000Z</time>
      </trkpt>
      <trkpt lat="45.20189" lon="-0.74637">
        <ele>5.5999999046326</ele>
        <time>2015-09-12T14:01:08.000Z</time>
      </trkpt>
      <trkpt lat="45.20185" lon="-0.74635">
        <ele>5.5999999046326</ele>
        <time>2015-09-12T14:01:14.000Z</time>
      </trkpt>
      <trkpt lat="45.20179" lon="-0.74635">
        <ele>5.4000000953674</ele>
        <time>2015-09-12T14:01:23.000Z</time>
      </trkpt>
      <trkpt lat="45.20172" lon="-0.74634">
        <ele>5.4000000953674</ele>
        <time>2015-09-12T14:01:31.000Z</time>
      </trkpt>
      <trkpt lat="45.20171" lon="-0.74634">
        <ele>5.1999998092651</ele>
        <time>2015-09-12T14:01:39.000Z</time>
      </trkpt>
      <trkpt lat="45.20166" lon="-0.74633">
        <ele>5.1999998092651</ele>
        <time>2015-09-12T14:02:00.000Z</time>
      </trkpt>
      <trkpt lat="45.2016" lon="-0.74634">
        <ele>5.1999998092651</ele>
        <time>2015-09-12T14:02:11.000Z</time>
      </trkpt>
      <trkpt lat="45.20157" lon="-0.74634">
        <ele>5.1999998092651</ele>
        <time>2015-09-12T14:02:20.000Z</time>
      </trkpt>
      <trkpt lat="45.20152" lon="-0.74634">
        <ele>5.1999998092651</ele>
        <time>2015-09-12T14:02:51.000Z</time>
      </trkpt>
      <trkpt lat="45.2015" lon="-0.74634">
        <ele>5</ele>
        <time>2015-09-12T14:03:00.000Z</time>
      </trkpt>
      <trkpt lat="45.20147" lon="-0.74633">
        <ele>5</ele>
        <time>2015-09-12T14:03:07.000Z</time>
      </trkpt>
      <trkpt lat="45.20145" lon="-0.74633">
        <ele>5</ele>
        <time>2015-09-12T14:03:13.000Z</time>
      </trkpt>
      <trkpt lat="45.20141" lon="-0.74632">
        <ele>4.8000001907349</ele>
        <time>2015-09-12T14:03:24.000Z</time>
      </trkpt>
      <trkpt lat="45.20137" lon="-0.74631">
        <ele>4.8000001907349</ele>
        <time>2015-09-12T14:03:31.000Z</time>
      </trkpt>
      <trkpt lat="45.20135" lon="-0.7463">
        <ele>4.5999999046326</ele>
        <time>2015-09-12T14:03:37.000Z</time>
      </trkpt>
      <trkpt lat="45.20133" lon="-0.74628">
        <ele>4.5999999046326</ele>
        <time>2015-09-12T14:03:46.000Z</time>
      </trkpt>
      <trkpt lat="45.2013" lon="-0.74627">
        <ele>4.8000001907349</ele>
        <time>2015-09-12T14:03:53.000Z</time>
      </trkpt>
      <trkpt lat="45.20126" lon="-0.74626">
        <ele>4.8000001907349</ele>
        <time>2015-09-12T14:04:01.000Z</time>
      </trkpt>
      <trkpt lat="45.20123" lon="-0.74623">
        <ele>4.8000001907349</ele>
        <time>2015-09-12T14:04:09.000Z</time>
      </trkpt>
      <trkpt lat="45.20122" lon="-0.74621">
        <ele>4.8000001907349</ele>
        <time>2015-09-12T14:04:17.000Z</time>
      </trkpt>
      <trkpt lat="45.2012" lon="-0.7462">
        <ele>4.8000001907349</ele>
        <time>2015-09-12T14:04:22.000Z</time>
      </trkpt>
      <trkpt lat="45.20119" lon="-0.74618">
        <ele>4.8000001907349</ele>
        <time>2015-09-12T14:04:27.000Z</time>
      </trkpt>
      <trkpt lat="45.20119" lon="-0.74618">
        <ele>4.8000001907349</ele>
        <time>2015-09-12T14:04:35.000Z</time>
      </trkpt>
      <trkpt lat="45.20115" lon="-0.74613">
        <ele>5</ele>
        <time>2015-09-12T14:05:50.000Z</time>
      </trkpt>
      <trkpt lat="45.20113" lon="-0.74612">
        <ele>5</ele>
        <time>2015-09-12T14:05:57.000Z</time>
      </trkpt>
      <trkpt lat="45.20104" lon="-0.74609">
        <ele>5.1999998092651</ele>
        <time>2015-09-12T14:06:42.000Z</time>
      </trkpt>
      <trkpt lat="45.20101" lon="-0.74609">
        <ele>5.4000000953674</ele>
        <time>2015-09-12T14:06:49.000Z</time>
      </trkpt>
      <trkpt lat="45.20097" lon="-0.74607">
        <ele>5.4000000953674</ele>
        <time>2015-09-12T14:07:01.000Z</time>
      </trkpt>
      <trkpt lat="45.20094" lon="-0.74607">
        <ele>5.5999999046326</ele>
        <time>2015-09-12T14:07:15.000Z</time>
      </trkpt>
      <trkpt lat="45.2009" lon="-0.74607">
        <ele>5.5999999046326</ele>
        <time>2015-09-12T14:07:26.000Z</time>
      </trkpt>
      <trkpt lat="45.20087" lon="-0.74608">
        <ele>5.8000001907349</ele>
        <time>2015-09-12T14:07:33.000Z</time>
      </trkpt>
      <trkpt lat="45.20085" lon="-0.74607">
        <ele>5.8000001907349</ele>
        <time>2015-09-12T14:07:39.000Z</time>
      </trkpt>
      <trkpt lat="45.2008" lon="-0.74605">
        <ele>6</ele>
        <time>2015-09-12T14:07:52.000Z</time>
      </trkpt>
      <trkpt lat="45.20073" lon="-0.74604">
        <ele>6.1999998092651</ele>
        <time>2015-09-12T14:08:02.000Z</time>
      </trkpt>
      <trkpt lat="45.20072" lon="-0.74604">
        <ele>6.1999998092651</ele>
        <time>2015-09-12T14:08:04.000Z</time>
      </trkpt>
      <trkpt lat="45.20068" lon="-0.74602">
        <ele>6.1999998092651</ele>
        <time>2015-09-12T14:08:10.000Z</time>
      </trkpt>
      <trkpt lat="45.2006" lon="-0.74601">
        <ele>6.4000000953674</ele>
        <time>2015-09-12T14:08:18.000Z</time>
      </trkpt>
      <trkpt lat="45.20053" lon="-0.74599">
        <ele>6.4000000953674</ele>
        <time>2015-09-12T14:08:26.000Z</time>
      </trkpt>
      <trkpt lat="45.20044" lon="-0.74597">
        <ele>6.5999999046326</ele>
        <time>2015-09-12T14:08:35.000Z</time>
      </trkpt>
      <trkpt lat="45.20037" lon="-0.74596">
        <ele>6.5999999046326</ele>
        <time>2015-09-12T14:08:43.000Z</time>
      </trkpt>
      <trkpt lat="45.20031" lon="-0.7459">
        <ele>6.4000000953674</ele>
        <time>2015-09-12T14:08:51.000Z</time>
      </trkpt>
      <trkpt lat="45.20031" lon="-0.74589">
        <ele>6.4000000953674</ele>
        <time>2015-09-12T14:08:52.000Z</time>
      </trkpt>
      <trkpt lat="45.20027" lon="-0.74589">
        <ele>6.4000000953674</ele>
        <time>2015-09-12T14:09:00.000Z</time>
      </trkpt>
      <trkpt lat="45.20026" lon="-0.7459">
        <ele>6.5999999046326</ele>
        <time>2015-09-12T14:09:01.000Z</time>
      </trkpt>
      <trkpt lat="45.2002" lon="-0.74589">
        <ele>6.5999999046326</ele>
        <time>2015-09-12T14:09:07.000Z</time>
      </trkpt>
      <trkpt lat="45.20018" lon="-0.74589">
        <ele>6.5999999046326</ele>
        <time>2015-09-12T14:09:10.000Z</time>
      </trkpt>
      <trkpt lat="45.20012" lon="-0.74588">
        <ele>6.5999999046326</ele>
        <time>2015-09-12T14:09:16.000Z</time>
      </trkpt>
      <trkpt lat="45.20006" lon="-0.74585">
        <ele>6.4000000953674</ele>
        <time>2015-09-12T14:09:24.000Z</time>
      </trkpt>
      <trkpt lat="45.20005" lon="-0.74585">
        <ele>6.4000000953674</ele>
        <time>2015-09-12T14:09:25.000Z</time>
      </trkpt>
      <trkpt lat="45.19999" lon="-0.74581">
        <ele>6.1999998092651</ele>
        <time>2015-09-12T14:09:34.000Z</time>
      </trkpt>
      <trkpt lat="45.19994" lon="-0.74578">
        <ele>6.1999998092651</ele>
        <time>2015-09-12T14:09:39.000Z</time>
      </trkpt>
      <trkpt lat="45.19987" lon="-0.74577">
        <ele>6</ele>
        <time>2015-09-12T14:09:46.000Z</time>
      </trkpt>
      <trkpt lat="45.19983" lon="-0.74576">
        <ele>6</ele>
        <time>2015-09-12T14:09:49.000Z</time>
      </trkpt>
      <trkpt lat="45.19976" lon="-0.74573">
        <ele>6</ele>
        <time>2015-09-12T14:09:57.000Z</time>
      </trkpt>
      <trkpt lat="45.19971" lon="-0.74572">
        <ele>5.8000001907349</ele>
        <time>2015-09-12T14:10:04.000Z</time>
      </trkpt>
      <trkpt lat="45.1997" lon="-0.74571">
        <ele>5.8000001907349</ele>
        <time>2015-09-12T14:10:14.000Z</time>
      </trkpt>
      <trkpt lat="45.19972" lon="-0.74571">
        <ele>5.8000001907349</ele>
        <time>2015-09-12T14:10:22.000Z</time>
      </trkpt>
      <trkpt lat="45.19972" lon="-0.74569">
        <ele>5.5999999046326</ele>
        <time>2015-09-12T14:10:28.000Z</time>
      </trkpt>
      <trkpt lat="45.19967" lon="-0.74567">
        <ele>5.5999999046326</ele>
        <time>2015-09-12T14:10:34.000Z</time>
      </trkpt>
      <trkpt lat="45.19964" lon="-0.74566">
        <ele>5.5999999046326</ele>
        <time>2015-09-12T14:10:40.000Z</time>
      </trkpt>
      <trkpt lat="45.19962" lon="-0.74566">
        <ele>5.5999999046326</ele>
        <time>2015-09-12T14:10:48.000Z</time>
      </trkpt>
      <trkpt lat="45.19959" lon="-0.74565">
        <ele>5.5999999046326</ele>
        <time>2015-09-12T14:10:56.000Z</time>
      </trkpt>
      <trkpt lat="45.19959" lon="-0.74561">
        <ele>5.4000000953674</ele>
        <time>2015-09-12T14:11:05.000Z</time>
      </trkpt>
      <trkpt lat="45.19959" lon="-0.7456">
        <ele>5.4000000953674</ele>
        <time>2015-09-12T14:11:10.000Z</time>
      </trkpt>
      <trkpt lat="45.19957" lon="-0.7456">
        <ele>5.4000000953674</ele>
        <time>2015-09-12T14:11:43.000Z</time>
      </trkpt>
      <trkpt lat="45.19956" lon="-0.74561">
        <ele>5.4000000953674</ele>
        <time>2015-09-12T14:11:53.000Z</time>
      </trkpt>
      <trkpt lat="45.19956" lon="-0.74558">
        <ele>5.4000000953674</ele>
        <time>2015-09-12T14:12:28.000Z</time>
      </trkpt>
      <trkpt lat="45.19959" lon="-0.74557">
        <ele>5.1999998092651</ele>
        <time>2015-09-12T14:12:36.000Z</time>
      </trkpt>
      <trkpt lat="45.1996" lon="-0.74558">
        <ele>5.1999998092651</ele>
        <time>2015-09-12T14:12:42.000Z</time>
      </trkpt>
      <trkpt lat="45.1996" lon="-0.74557">
        <ele>5.1999998092651</ele>
        <time>2015-09-12T14:13:16.000Z</time>
      </trkpt>
      <trkpt lat="45.19963" lon="-0.74557">
        <ele>5.1999998092651</ele>
        <time>2015-09-12T14:14:17.000Z</time>
      </trkpt>
      <trkpt lat="45.19962" lon="-0.74557">
        <ele>5.1999998092651</ele>
        <time>2015-09-12T14:19:27.000Z</time>
      </trkpt>
    </trkseg>
  </trk>
</gpx>